<?xml version="1.0" encoding="UTF-8"?>
<gpx xmlns="http://www.topografix.com/GPX/1/1"
     creator="GpsDumpMac 0.27"
     version="1.1"
     xmlns:xsi="http://www.w3.org/2001/XMLSchema-instance"
     xsi:schemaLocation="http://www.topografix.com/GPX/1/1 http://www.topografix.com/GPX/1/1/gpx.xsd">
  <metadata>
    <link href="http://www.gethome.no/stein.sorensen/">
      <text>GPS dump for www.flightlog.org</text>
    </link>
    <time>2014-09-06T17:17:25Z</time>
    <bounds minlat="40.233383" minlon="-4.920667" maxlat="40.302617" maxlon="-4.769550"/>
  </metadata>
  <trk>
    <name>Track 001</name>
    <trkseg>
      <trkpt lat="40.256350" lon="-4.905933">
        <ele>1252.0</ele>
        <time>2014-08-31T11:56:57Z</time>
      </trkpt>
      <trkpt lat="40.256233" lon="-4.906050">
        <ele>1250.0</ele>
        <time>2014-08-31T11:56:59Z</time>
      </trkpt>
      <trkpt lat="40.256150" lon="-4.906200">
        <ele>1246.0</ele>
        <time>2014-08-31T11:57:01Z</time>
      </trkpt>
      <trkpt lat="40.256033" lon="-4.906350">
        <ele>1244.0</ele>
        <time>2014-08-31T11:57:03Z</time>
      </trkpt>
      <trkpt lat="40.255917" lon="-4.906417">
        <ele>1244.0</ele>
        <time>2014-08-31T11:57:05Z</time>
      </trkpt>
      <trkpt lat="40.255783" lon="-4.906533">
        <ele>1240.0</ele>
        <time>2014-08-31T11:57:07Z</time>
      </trkpt>
      <trkpt lat="40.255667" lon="-4.906667">
        <ele>1242.0</ele>
        <time>2014-08-31T11:57:09Z</time>
      </trkpt>
      <trkpt lat="40.255550" lon="-4.906633">
        <ele>1244.0</ele>
        <time>2014-08-31T11:57:11Z</time>
      </trkpt>
      <trkpt lat="40.255450" lon="-4.906533">
        <ele>1246.0</ele>
        <time>2014-08-31T11:57:13Z</time>
      </trkpt>
      <trkpt lat="40.255333" lon="-4.906450">
        <ele>1247.0</ele>
        <time>2014-08-31T11:57:15Z</time>
      </trkpt>
      <trkpt lat="40.255233" lon="-4.906333">
        <ele>1248.0</ele>
        <time>2014-08-31T11:57:17Z</time>
      </trkpt>
      <trkpt lat="40.255133" lon="-4.906233">
        <ele>1249.0</ele>
        <time>2014-08-31T11:57:19Z</time>
      </trkpt>
      <trkpt lat="40.255017" lon="-4.906233">
        <ele>1246.0</ele>
        <time>2014-08-31T11:57:21Z</time>
      </trkpt>
      <trkpt lat="40.254900" lon="-4.906200">
        <ele>1243.0</ele>
        <time>2014-08-31T11:57:23Z</time>
      </trkpt>
      <trkpt lat="40.254750" lon="-4.906117">
        <ele>1237.0</ele>
        <time>2014-08-31T11:57:25Z</time>
      </trkpt>
      <trkpt lat="40.254633" lon="-4.906000">
        <ele>1236.0</ele>
        <time>2014-08-31T11:57:27Z</time>
      </trkpt>
      <trkpt lat="40.254533" lon="-4.905917">
        <ele>1234.0</ele>
        <time>2014-08-31T11:57:29Z</time>
      </trkpt>
      <trkpt lat="40.254400" lon="-4.905783">
        <ele>1227.0</ele>
        <time>2014-08-31T11:57:31Z</time>
      </trkpt>
      <trkpt lat="40.254233" lon="-4.905700">
        <ele>1224.0</ele>
        <time>2014-08-31T11:57:33Z</time>
      </trkpt>
      <trkpt lat="40.254100" lon="-4.905617">
        <ele>1222.0</ele>
        <time>2014-08-31T11:57:35Z</time>
      </trkpt>
      <trkpt lat="40.253967" lon="-4.905567">
        <ele>1219.0</ele>
        <time>2014-08-31T11:57:37Z</time>
      </trkpt>
      <trkpt lat="40.253800" lon="-4.905550">
        <ele>1213.0</ele>
        <time>2014-08-31T11:57:39Z</time>
      </trkpt>
      <trkpt lat="40.253650" lon="-4.905533">
        <ele>1210.0</ele>
        <time>2014-08-31T11:57:41Z</time>
      </trkpt>
      <trkpt lat="40.253483" lon="-4.905567">
        <ele>1204.0</ele>
        <time>2014-08-31T11:57:43Z</time>
      </trkpt>
      <trkpt lat="40.253333" lon="-4.905633">
        <ele>1199.0</ele>
        <time>2014-08-31T11:57:45Z</time>
      </trkpt>
      <trkpt lat="40.253200" lon="-4.905683">
        <ele>1197.0</ele>
        <time>2014-08-31T11:57:47Z</time>
      </trkpt>
      <trkpt lat="40.253083" lon="-4.905717">
        <ele>1195.0</ele>
        <time>2014-08-31T11:57:49Z</time>
      </trkpt>
      <trkpt lat="40.252917" lon="-4.905700">
        <ele>1192.0</ele>
        <time>2014-08-31T11:57:51Z</time>
      </trkpt>
      <trkpt lat="40.252767" lon="-4.905667">
        <ele>1193.0</ele>
        <time>2014-08-31T11:57:53Z</time>
      </trkpt>
      <trkpt lat="40.252650" lon="-4.905600">
        <ele>1192.0</ele>
        <time>2014-08-31T11:57:55Z</time>
      </trkpt>
      <trkpt lat="40.252483" lon="-4.905567">
        <ele>1190.0</ele>
        <time>2014-08-31T11:57:57Z</time>
      </trkpt>
      <trkpt lat="40.252367" lon="-4.905467">
        <ele>1197.0</ele>
        <time>2014-08-31T11:57:59Z</time>
      </trkpt>
      <trkpt lat="40.252350" lon="-4.905350">
        <ele>1197.0</ele>
        <time>2014-08-31T11:58:01Z</time>
      </trkpt>
      <trkpt lat="40.252283" lon="-4.905233">
        <ele>1191.0</ele>
        <time>2014-08-31T11:58:03Z</time>
      </trkpt>
      <trkpt lat="40.252133" lon="-4.905167">
        <ele>1192.0</ele>
        <time>2014-08-31T11:58:05Z</time>
      </trkpt>
      <trkpt lat="40.252050" lon="-4.905133">
        <ele>1196.0</ele>
        <time>2014-08-31T11:58:07Z</time>
      </trkpt>
      <trkpt lat="40.251983" lon="-4.905133">
        <ele>1195.0</ele>
        <time>2014-08-31T11:58:09Z</time>
      </trkpt>
      <trkpt lat="40.251833" lon="-4.905133">
        <ele>1193.0</ele>
        <time>2014-08-31T11:58:11Z</time>
      </trkpt>
      <trkpt lat="40.251750" lon="-4.905133">
        <ele>1198.0</ele>
        <time>2014-08-31T11:58:13Z</time>
      </trkpt>
      <trkpt lat="40.251717" lon="-4.905083">
        <ele>1199.0</ele>
        <time>2014-08-31T11:58:15Z</time>
      </trkpt>
      <trkpt lat="40.251667" lon="-4.904967">
        <ele>1195.0</ele>
        <time>2014-08-31T11:58:17Z</time>
      </trkpt>
      <trkpt lat="40.251567" lon="-4.904817">
        <ele>1196.0</ele>
        <time>2014-08-31T11:58:19Z</time>
      </trkpt>
      <trkpt lat="40.251483" lon="-4.904700">
        <ele>1201.0</ele>
        <time>2014-08-31T11:58:21Z</time>
      </trkpt>
      <trkpt lat="40.251450" lon="-4.904567">
        <ele>1201.0</ele>
        <time>2014-08-31T11:58:23Z</time>
      </trkpt>
      <trkpt lat="40.251367" lon="-4.904400">
        <ele>1199.0</ele>
        <time>2014-08-31T11:58:25Z</time>
      </trkpt>
      <trkpt lat="40.251250" lon="-4.904250">
        <ele>1202.0</ele>
        <time>2014-08-31T11:58:27Z</time>
      </trkpt>
      <trkpt lat="40.251167" lon="-4.904167">
        <ele>1205.0</ele>
        <time>2014-08-31T11:58:29Z</time>
      </trkpt>
      <trkpt lat="40.251083" lon="-4.904017">
        <ele>1206.0</ele>
        <time>2014-08-31T11:58:31Z</time>
      </trkpt>
      <trkpt lat="40.251000" lon="-4.903883">
        <ele>1209.0</ele>
        <time>2014-08-31T11:58:33Z</time>
      </trkpt>
      <trkpt lat="40.250917" lon="-4.903817">
        <ele>1210.0</ele>
        <time>2014-08-31T11:58:35Z</time>
      </trkpt>
      <trkpt lat="40.250850" lon="-4.903767">
        <ele>1208.0</ele>
        <time>2014-08-31T11:58:37Z</time>
      </trkpt>
      <trkpt lat="40.250767" lon="-4.903667">
        <ele>1205.0</ele>
        <time>2014-08-31T11:58:39Z</time>
      </trkpt>
      <trkpt lat="40.250667" lon="-4.903600">
        <ele>1205.0</ele>
        <time>2014-08-31T11:58:41Z</time>
      </trkpt>
      <trkpt lat="40.250567" lon="-4.903583">
        <ele>1205.0</ele>
        <time>2014-08-31T11:58:43Z</time>
      </trkpt>
      <trkpt lat="40.250483" lon="-4.903517">
        <ele>1203.0</ele>
        <time>2014-08-31T11:58:45Z</time>
      </trkpt>
      <trkpt lat="40.250383" lon="-4.903500">
        <ele>1201.0</ele>
        <time>2014-08-31T11:58:47Z</time>
      </trkpt>
      <trkpt lat="40.250267" lon="-4.903517">
        <ele>1200.0</ele>
        <time>2014-08-31T11:58:49Z</time>
      </trkpt>
      <trkpt lat="40.250183" lon="-4.903467">
        <ele>1199.0</ele>
        <time>2014-08-31T11:58:51Z</time>
      </trkpt>
      <trkpt lat="40.250100" lon="-4.903433">
        <ele>1198.0</ele>
        <time>2014-08-31T11:58:53Z</time>
      </trkpt>
      <trkpt lat="40.249983" lon="-4.903400">
        <ele>1194.0</ele>
        <time>2014-08-31T11:58:55Z</time>
      </trkpt>
      <trkpt lat="40.249850" lon="-4.903350">
        <ele>1194.0</ele>
        <time>2014-08-31T11:58:57Z</time>
      </trkpt>
      <trkpt lat="40.249767" lon="-4.903333">
        <ele>1195.0</ele>
        <time>2014-08-31T11:58:59Z</time>
      </trkpt>
      <trkpt lat="40.249700" lon="-4.903283">
        <ele>1195.0</ele>
        <time>2014-08-31T11:59:01Z</time>
      </trkpt>
      <trkpt lat="40.249600" lon="-4.903250">
        <ele>1191.0</ele>
        <time>2014-08-31T11:59:03Z</time>
      </trkpt>
      <trkpt lat="40.249483" lon="-4.903267">
        <ele>1190.0</ele>
        <time>2014-08-31T11:59:05Z</time>
      </trkpt>
      <trkpt lat="40.249383" lon="-4.903267">
        <ele>1189.0</ele>
        <time>2014-08-31T11:59:07Z</time>
      </trkpt>
      <trkpt lat="40.249267" lon="-4.903233">
        <ele>1187.0</ele>
        <time>2014-08-31T11:59:09Z</time>
      </trkpt>
      <trkpt lat="40.249150" lon="-4.903167">
        <ele>1191.0</ele>
        <time>2014-08-31T11:59:11Z</time>
      </trkpt>
      <trkpt lat="40.249083" lon="-4.903100">
        <ele>1196.0</ele>
        <time>2014-08-31T11:59:13Z</time>
      </trkpt>
      <trkpt lat="40.249050" lon="-4.902950">
        <ele>1195.0</ele>
        <time>2014-08-31T11:59:15Z</time>
      </trkpt>
      <trkpt lat="40.248967" lon="-4.902800">
        <ele>1192.0</ele>
        <time>2014-08-31T11:59:17Z</time>
      </trkpt>
      <trkpt lat="40.248867" lon="-4.902700">
        <ele>1192.0</ele>
        <time>2014-08-31T11:59:19Z</time>
      </trkpt>
      <trkpt lat="40.248767" lon="-4.902617">
        <ele>1191.0</ele>
        <time>2014-08-31T11:59:21Z</time>
      </trkpt>
      <trkpt lat="40.248650" lon="-4.902550">
        <ele>1188.0</ele>
        <time>2014-08-31T11:59:23Z</time>
      </trkpt>
      <trkpt lat="40.248517" lon="-4.902433">
        <ele>1188.0</ele>
        <time>2014-08-31T11:59:25Z</time>
      </trkpt>
      <trkpt lat="40.248400" lon="-4.902333">
        <ele>1189.0</ele>
        <time>2014-08-31T11:59:27Z</time>
      </trkpt>
      <trkpt lat="40.248317" lon="-4.902200">
        <ele>1191.0</ele>
        <time>2014-08-31T11:59:29Z</time>
      </trkpt>
      <trkpt lat="40.248267" lon="-4.902033">
        <ele>1190.0</ele>
        <time>2014-08-31T11:59:31Z</time>
      </trkpt>
      <trkpt lat="40.248200" lon="-4.901833">
        <ele>1188.0</ele>
        <time>2014-08-31T11:59:33Z</time>
      </trkpt>
      <trkpt lat="40.248117" lon="-4.901633">
        <ele>1188.0</ele>
        <time>2014-08-31T11:59:35Z</time>
      </trkpt>
      <trkpt lat="40.248017" lon="-4.901500">
        <ele>1189.0</ele>
        <time>2014-08-31T11:59:37Z</time>
      </trkpt>
      <trkpt lat="40.247933" lon="-4.901483">
        <ele>1190.0</ele>
        <time>2014-08-31T11:59:39Z</time>
      </trkpt>
      <trkpt lat="40.247883" lon="-4.901567">
        <ele>1189.0</ele>
        <time>2014-08-31T11:59:41Z</time>
      </trkpt>
      <trkpt lat="40.247867" lon="-4.901700">
        <ele>1188.0</ele>
        <time>2014-08-31T11:59:43Z</time>
      </trkpt>
      <trkpt lat="40.247917" lon="-4.901883">
        <ele>1186.0</ele>
        <time>2014-08-31T11:59:45Z</time>
      </trkpt>
      <trkpt lat="40.248050" lon="-4.902050">
        <ele>1184.0</ele>
        <time>2014-08-31T11:59:47Z</time>
      </trkpt>
      <trkpt lat="40.248233" lon="-4.902217">
        <ele>1182.0</ele>
        <time>2014-08-31T11:59:49Z</time>
      </trkpt>
      <trkpt lat="40.248383" lon="-4.902383">
        <ele>1180.0</ele>
        <time>2014-08-31T11:59:51Z</time>
      </trkpt>
      <trkpt lat="40.248500" lon="-4.902567">
        <ele>1178.0</ele>
        <time>2014-08-31T11:59:53Z</time>
      </trkpt>
      <trkpt lat="40.248550" lon="-4.902767">
        <ele>1174.0</ele>
        <time>2014-08-31T11:59:55Z</time>
      </trkpt>
      <trkpt lat="40.248517" lon="-4.902983">
        <ele>1173.0</ele>
        <time>2014-08-31T11:59:57Z</time>
      </trkpt>
      <trkpt lat="40.248483" lon="-4.903167">
        <ele>1172.0</ele>
        <time>2014-08-31T11:59:59Z</time>
      </trkpt>
      <trkpt lat="40.248417" lon="-4.903333">
        <ele>1172.0</ele>
        <time>2014-08-31T12:00:01Z</time>
      </trkpt>
      <trkpt lat="40.248350" lon="-4.903500">
        <ele>1175.0</ele>
        <time>2014-08-31T12:00:03Z</time>
      </trkpt>
      <trkpt lat="40.248250" lon="-4.903583">
        <ele>1181.0</ele>
        <time>2014-08-31T12:00:05Z</time>
      </trkpt>
      <trkpt lat="40.248150" lon="-4.903600">
        <ele>1185.0</ele>
        <time>2014-08-31T12:00:07Z</time>
      </trkpt>
      <trkpt lat="40.248100" lon="-4.903533">
        <ele>1186.0</ele>
        <time>2014-08-31T12:00:09Z</time>
      </trkpt>
      <trkpt lat="40.248067" lon="-4.903350">
        <ele>1183.0</ele>
        <time>2014-08-31T12:00:11Z</time>
      </trkpt>
      <trkpt lat="40.248150" lon="-4.903100">
        <ele>1182.0</ele>
        <time>2014-08-31T12:00:13Z</time>
      </trkpt>
      <trkpt lat="40.248233" lon="-4.902867">
        <ele>1183.0</ele>
        <time>2014-08-31T12:00:15Z</time>
      </trkpt>
      <trkpt lat="40.248217" lon="-4.902650">
        <ele>1183.0</ele>
        <time>2014-08-31T12:00:17Z</time>
      </trkpt>
      <trkpt lat="40.248167" lon="-4.902483">
        <ele>1186.0</ele>
        <time>2014-08-31T12:00:19Z</time>
      </trkpt>
      <trkpt lat="40.248083" lon="-4.902417">
        <ele>1188.0</ele>
        <time>2014-08-31T12:00:21Z</time>
      </trkpt>
      <trkpt lat="40.247983" lon="-4.902450">
        <ele>1189.0</ele>
        <time>2014-08-31T12:00:23Z</time>
      </trkpt>
      <trkpt lat="40.247950" lon="-4.902583">
        <ele>1189.0</ele>
        <time>2014-08-31T12:00:25Z</time>
      </trkpt>
      <trkpt lat="40.247983" lon="-4.902783">
        <ele>1187.0</ele>
        <time>2014-08-31T12:00:27Z</time>
      </trkpt>
      <trkpt lat="40.248100" lon="-4.902967">
        <ele>1186.0</ele>
        <time>2014-08-31T12:00:29Z</time>
      </trkpt>
      <trkpt lat="40.248283" lon="-4.903117">
        <ele>1183.0</ele>
        <time>2014-08-31T12:00:31Z</time>
      </trkpt>
      <trkpt lat="40.248483" lon="-4.903267">
        <ele>1181.0</ele>
        <time>2014-08-31T12:00:33Z</time>
      </trkpt>
      <trkpt lat="40.248633" lon="-4.903450">
        <ele>1183.0</ele>
        <time>2014-08-31T12:00:35Z</time>
      </trkpt>
      <trkpt lat="40.248683" lon="-4.903633">
        <ele>1183.0</ele>
        <time>2014-08-31T12:00:37Z</time>
      </trkpt>
      <trkpt lat="40.248633" lon="-4.903767">
        <ele>1181.0</ele>
        <time>2014-08-31T12:00:39Z</time>
      </trkpt>
      <trkpt lat="40.248550" lon="-4.903783">
        <ele>1181.0</ele>
        <time>2014-08-31T12:00:41Z</time>
      </trkpt>
      <trkpt lat="40.248467" lon="-4.903717">
        <ele>1180.0</ele>
        <time>2014-08-31T12:00:43Z</time>
      </trkpt>
      <trkpt lat="40.248383" lon="-4.903633">
        <ele>1179.0</ele>
        <time>2014-08-31T12:00:45Z</time>
      </trkpt>
      <trkpt lat="40.248267" lon="-4.903550">
        <ele>1178.0</ele>
        <time>2014-08-31T12:00:47Z</time>
      </trkpt>
      <trkpt lat="40.248183" lon="-4.903450">
        <ele>1179.0</ele>
        <time>2014-08-31T12:00:49Z</time>
      </trkpt>
      <trkpt lat="40.248100" lon="-4.903333">
        <ele>1179.0</ele>
        <time>2014-08-31T12:00:51Z</time>
      </trkpt>
      <trkpt lat="40.248000" lon="-4.903150">
        <ele>1176.0</ele>
        <time>2014-08-31T12:00:53Z</time>
      </trkpt>
      <trkpt lat="40.247900" lon="-4.902967">
        <ele>1180.0</ele>
        <time>2014-08-31T12:00:55Z</time>
      </trkpt>
      <trkpt lat="40.247833" lon="-4.902833">
        <ele>1183.0</ele>
        <time>2014-08-31T12:00:57Z</time>
      </trkpt>
      <trkpt lat="40.247767" lon="-4.902667">
        <ele>1183.0</ele>
        <time>2014-08-31T12:00:59Z</time>
      </trkpt>
      <trkpt lat="40.247667" lon="-4.902517">
        <ele>1185.0</ele>
        <time>2014-08-31T12:01:01Z</time>
      </trkpt>
      <trkpt lat="40.247583" lon="-4.902533">
        <ele>1186.0</ele>
        <time>2014-08-31T12:01:03Z</time>
      </trkpt>
      <trkpt lat="40.247533" lon="-4.902633">
        <ele>1187.0</ele>
        <time>2014-08-31T12:01:05Z</time>
      </trkpt>
      <trkpt lat="40.247550" lon="-4.902783">
        <ele>1187.0</ele>
        <time>2014-08-31T12:01:07Z</time>
      </trkpt>
      <trkpt lat="40.247700" lon="-4.902950">
        <ele>1186.0</ele>
        <time>2014-08-31T12:01:09Z</time>
      </trkpt>
      <trkpt lat="40.247917" lon="-4.902983">
        <ele>1186.0</ele>
        <time>2014-08-31T12:01:11Z</time>
      </trkpt>
      <trkpt lat="40.248133" lon="-4.902983">
        <ele>1187.0</ele>
        <time>2014-08-31T12:01:13Z</time>
      </trkpt>
      <trkpt lat="40.248350" lon="-4.903050">
        <ele>1187.0</ele>
        <time>2014-08-31T12:01:15Z</time>
      </trkpt>
      <trkpt lat="40.248583" lon="-4.903117">
        <ele>1189.0</ele>
        <time>2014-08-31T12:01:17Z</time>
      </trkpt>
      <trkpt lat="40.248783" lon="-4.903200">
        <ele>1191.0</ele>
        <time>2014-08-31T12:01:19Z</time>
      </trkpt>
      <trkpt lat="40.248933" lon="-4.903350">
        <ele>1190.0</ele>
        <time>2014-08-31T12:01:21Z</time>
      </trkpt>
      <trkpt lat="40.249017" lon="-4.903533">
        <ele>1189.0</ele>
        <time>2014-08-31T12:01:23Z</time>
      </trkpt>
      <trkpt lat="40.249033" lon="-4.903700">
        <ele>1188.0</ele>
        <time>2014-08-31T12:01:25Z</time>
      </trkpt>
      <trkpt lat="40.249000" lon="-4.903833">
        <ele>1185.0</ele>
        <time>2014-08-31T12:01:27Z</time>
      </trkpt>
      <trkpt lat="40.248917" lon="-4.903950">
        <ele>1182.0</ele>
        <time>2014-08-31T12:01:29Z</time>
      </trkpt>
      <trkpt lat="40.248817" lon="-4.904067">
        <ele>1181.0</ele>
        <time>2014-08-31T12:01:31Z</time>
      </trkpt>
      <trkpt lat="40.248700" lon="-4.904200">
        <ele>1183.0</ele>
        <time>2014-08-31T12:01:33Z</time>
      </trkpt>
      <trkpt lat="40.248633" lon="-4.904283">
        <ele>1186.0</ele>
        <time>2014-08-31T12:01:35Z</time>
      </trkpt>
      <trkpt lat="40.248533" lon="-4.904250">
        <ele>1182.0</ele>
        <time>2014-08-31T12:01:37Z</time>
      </trkpt>
      <trkpt lat="40.248433" lon="-4.904117">
        <ele>1180.0</ele>
        <time>2014-08-31T12:01:39Z</time>
      </trkpt>
      <trkpt lat="40.248383" lon="-4.903933">
        <ele>1179.0</ele>
        <time>2014-08-31T12:01:41Z</time>
      </trkpt>
      <trkpt lat="40.248367" lon="-4.903767">
        <ele>1177.0</ele>
        <time>2014-08-31T12:01:43Z</time>
      </trkpt>
      <trkpt lat="40.248350" lon="-4.903550">
        <ele>1174.0</ele>
        <time>2014-08-31T12:01:45Z</time>
      </trkpt>
      <trkpt lat="40.248333" lon="-4.903317">
        <ele>1173.0</ele>
        <time>2014-08-31T12:01:47Z</time>
      </trkpt>
      <trkpt lat="40.248300" lon="-4.903100">
        <ele>1171.0</ele>
        <time>2014-08-31T12:01:49Z</time>
      </trkpt>
      <trkpt lat="40.248233" lon="-4.902917">
        <ele>1170.0</ele>
        <time>2014-08-31T12:01:51Z</time>
      </trkpt>
      <trkpt lat="40.248150" lon="-4.902750">
        <ele>1168.0</ele>
        <time>2014-08-31T12:01:53Z</time>
      </trkpt>
      <trkpt lat="40.248033" lon="-4.902650">
        <ele>1167.0</ele>
        <time>2014-08-31T12:01:55Z</time>
      </trkpt>
      <trkpt lat="40.247917" lon="-4.902583">
        <ele>1166.0</ele>
        <time>2014-08-31T12:01:57Z</time>
      </trkpt>
      <trkpt lat="40.247800" lon="-4.902517">
        <ele>1162.0</ele>
        <time>2014-08-31T12:01:59Z</time>
      </trkpt>
      <trkpt lat="40.247667" lon="-4.902400">
        <ele>1158.0</ele>
        <time>2014-08-31T12:02:01Z</time>
      </trkpt>
      <trkpt lat="40.247533" lon="-4.902283">
        <ele>1157.0</ele>
        <time>2014-08-31T12:02:03Z</time>
      </trkpt>
      <trkpt lat="40.247417" lon="-4.902250">
        <ele>1155.0</ele>
        <time>2014-08-31T12:02:05Z</time>
      </trkpt>
      <trkpt lat="40.247283" lon="-4.902300">
        <ele>1152.0</ele>
        <time>2014-08-31T12:02:07Z</time>
      </trkpt>
      <trkpt lat="40.247183" lon="-4.902433">
        <ele>1147.0</ele>
        <time>2014-08-31T12:02:09Z</time>
      </trkpt>
      <trkpt lat="40.247083" lon="-4.902600">
        <ele>1146.0</ele>
        <time>2014-08-31T12:02:11Z</time>
      </trkpt>
      <trkpt lat="40.246983" lon="-4.902717">
        <ele>1147.0</ele>
        <time>2014-08-31T12:02:13Z</time>
      </trkpt>
      <trkpt lat="40.246867" lon="-4.902783">
        <ele>1144.0</ele>
        <time>2014-08-31T12:02:15Z</time>
      </trkpt>
      <trkpt lat="40.246733" lon="-4.902767">
        <ele>1141.0</ele>
        <time>2014-08-31T12:02:17Z</time>
      </trkpt>
      <trkpt lat="40.246600" lon="-4.902683">
        <ele>1139.0</ele>
        <time>2014-08-31T12:02:19Z</time>
      </trkpt>
      <trkpt lat="40.246517" lon="-4.902583">
        <ele>1136.0</ele>
        <time>2014-08-31T12:02:21Z</time>
      </trkpt>
      <trkpt lat="40.246433" lon="-4.902417">
        <ele>1133.0</ele>
        <time>2014-08-31T12:02:23Z</time>
      </trkpt>
      <trkpt lat="40.246400" lon="-4.902167">
        <ele>1133.0</ele>
        <time>2014-08-31T12:02:25Z</time>
      </trkpt>
      <trkpt lat="40.246417" lon="-4.901967">
        <ele>1134.0</ele>
        <time>2014-08-31T12:02:27Z</time>
      </trkpt>
      <trkpt lat="40.246417" lon="-4.901783">
        <ele>1129.0</ele>
        <time>2014-08-31T12:02:29Z</time>
      </trkpt>
      <trkpt lat="40.246317" lon="-4.901600">
        <ele>1124.0</ele>
        <time>2014-08-31T12:02:31Z</time>
      </trkpt>
      <trkpt lat="40.246167" lon="-4.901533">
        <ele>1121.0</ele>
        <time>2014-08-31T12:02:33Z</time>
      </trkpt>
      <trkpt lat="40.246050" lon="-4.901567">
        <ele>1118.0</ele>
        <time>2014-08-31T12:02:35Z</time>
      </trkpt>
      <trkpt lat="40.245950" lon="-4.901650">
        <ele>1113.0</ele>
        <time>2014-08-31T12:02:37Z</time>
      </trkpt>
      <trkpt lat="40.245850" lon="-4.901850">
        <ele>1107.0</ele>
        <time>2014-08-31T12:02:39Z</time>
      </trkpt>
      <trkpt lat="40.245767" lon="-4.902017">
        <ele>1105.0</ele>
        <time>2014-08-31T12:02:41Z</time>
      </trkpt>
      <trkpt lat="40.245667" lon="-4.902167">
        <ele>1103.0</ele>
        <time>2014-08-31T12:02:43Z</time>
      </trkpt>
      <trkpt lat="40.245583" lon="-4.902317">
        <ele>1104.0</ele>
        <time>2014-08-31T12:02:45Z</time>
      </trkpt>
      <trkpt lat="40.245500" lon="-4.902467">
        <ele>1105.0</ele>
        <time>2014-08-31T12:02:47Z</time>
      </trkpt>
      <trkpt lat="40.245400" lon="-4.902583">
        <ele>1106.0</ele>
        <time>2014-08-31T12:02:49Z</time>
      </trkpt>
      <trkpt lat="40.245300" lon="-4.902667">
        <ele>1108.0</ele>
        <time>2014-08-31T12:02:51Z</time>
      </trkpt>
      <trkpt lat="40.245167" lon="-4.902667">
        <ele>1107.0</ele>
        <time>2014-08-31T12:02:53Z</time>
      </trkpt>
      <trkpt lat="40.245000" lon="-4.902583">
        <ele>1104.0</ele>
        <time>2014-08-31T12:02:55Z</time>
      </trkpt>
      <trkpt lat="40.244867" lon="-4.902450">
        <ele>1103.0</ele>
        <time>2014-08-31T12:02:57Z</time>
      </trkpt>
      <trkpt lat="40.244750" lon="-4.902250">
        <ele>1103.0</ele>
        <time>2014-08-31T12:02:59Z</time>
      </trkpt>
      <trkpt lat="40.244667" lon="-4.902067">
        <ele>1104.0</ele>
        <time>2014-08-31T12:03:01Z</time>
      </trkpt>
      <trkpt lat="40.244633" lon="-4.901850">
        <ele>1102.0</ele>
        <time>2014-08-31T12:03:03Z</time>
      </trkpt>
      <trkpt lat="40.244667" lon="-4.901567">
        <ele>1102.0</ele>
        <time>2014-08-31T12:03:05Z</time>
      </trkpt>
      <trkpt lat="40.244750" lon="-4.901333">
        <ele>1105.0</ele>
        <time>2014-08-31T12:03:07Z</time>
      </trkpt>
      <trkpt lat="40.244883" lon="-4.901183">
        <ele>1108.0</ele>
        <time>2014-08-31T12:03:09Z</time>
      </trkpt>
      <trkpt lat="40.245117" lon="-4.901150">
        <ele>1109.0</ele>
        <time>2014-08-31T12:03:11Z</time>
      </trkpt>
      <trkpt lat="40.245317" lon="-4.901217">
        <ele>1113.0</ele>
        <time>2014-08-31T12:03:13Z</time>
      </trkpt>
      <trkpt lat="40.245450" lon="-4.901367">
        <ele>1114.0</ele>
        <time>2014-08-31T12:03:15Z</time>
      </trkpt>
      <trkpt lat="40.245500" lon="-4.901633">
        <ele>1116.0</ele>
        <time>2014-08-31T12:03:17Z</time>
      </trkpt>
      <trkpt lat="40.245483" lon="-4.901817">
        <ele>1122.0</ele>
        <time>2014-08-31T12:03:19Z</time>
      </trkpt>
      <trkpt lat="40.245467" lon="-4.901950">
        <ele>1128.0</ele>
        <time>2014-08-31T12:03:21Z</time>
      </trkpt>
      <trkpt lat="40.245417" lon="-4.902050">
        <ele>1126.0</ele>
        <time>2014-08-31T12:03:23Z</time>
      </trkpt>
      <trkpt lat="40.245250" lon="-4.902117">
        <ele>1124.0</ele>
        <time>2014-08-31T12:03:25Z</time>
      </trkpt>
      <trkpt lat="40.245100" lon="-4.902150">
        <ele>1127.0</ele>
        <time>2014-08-31T12:03:27Z</time>
      </trkpt>
      <trkpt lat="40.244967" lon="-4.902117">
        <ele>1129.0</ele>
        <time>2014-08-31T12:03:29Z</time>
      </trkpt>
      <trkpt lat="40.244833" lon="-4.902000">
        <ele>1126.0</ele>
        <time>2014-08-31T12:03:31Z</time>
      </trkpt>
      <trkpt lat="40.244700" lon="-4.901833">
        <ele>1128.0</ele>
        <time>2014-08-31T12:03:33Z</time>
      </trkpt>
      <trkpt lat="40.244633" lon="-4.901633">
        <ele>1129.0</ele>
        <time>2014-08-31T12:03:35Z</time>
      </trkpt>
      <trkpt lat="40.244633" lon="-4.901433">
        <ele>1129.0</ele>
        <time>2014-08-31T12:03:37Z</time>
      </trkpt>
      <trkpt lat="40.244733" lon="-4.901233">
        <ele>1127.0</ele>
        <time>2014-08-31T12:03:39Z</time>
      </trkpt>
      <trkpt lat="40.244900" lon="-4.901100">
        <ele>1123.0</ele>
        <time>2014-08-31T12:03:41Z</time>
      </trkpt>
      <trkpt lat="40.245133" lon="-4.901067">
        <ele>1121.0</ele>
        <time>2014-08-31T12:03:43Z</time>
      </trkpt>
      <trkpt lat="40.245350" lon="-4.901133">
        <ele>1123.0</ele>
        <time>2014-08-31T12:03:45Z</time>
      </trkpt>
      <trkpt lat="40.245533" lon="-4.901233">
        <ele>1128.0</ele>
        <time>2014-08-31T12:03:47Z</time>
      </trkpt>
      <trkpt lat="40.245617" lon="-4.901417">
        <ele>1131.0</ele>
        <time>2014-08-31T12:03:49Z</time>
      </trkpt>
      <trkpt lat="40.245633" lon="-4.901617">
        <ele>1133.0</ele>
        <time>2014-08-31T12:03:51Z</time>
      </trkpt>
      <trkpt lat="40.245650" lon="-4.901800">
        <ele>1135.0</ele>
        <time>2014-08-31T12:03:53Z</time>
      </trkpt>
      <trkpt lat="40.245650" lon="-4.901983">
        <ele>1137.0</ele>
        <time>2014-08-31T12:03:55Z</time>
      </trkpt>
      <trkpt lat="40.245633" lon="-4.902133">
        <ele>1137.0</ele>
        <time>2014-08-31T12:03:57Z</time>
      </trkpt>
      <trkpt lat="40.245550" lon="-4.902250">
        <ele>1134.0</ele>
        <time>2014-08-31T12:03:59Z</time>
      </trkpt>
      <trkpt lat="40.245433" lon="-4.902333">
        <ele>1132.0</ele>
        <time>2014-08-31T12:04:01Z</time>
      </trkpt>
      <trkpt lat="40.245317" lon="-4.902417">
        <ele>1131.0</ele>
        <time>2014-08-31T12:04:03Z</time>
      </trkpt>
      <trkpt lat="40.245183" lon="-4.902483">
        <ele>1130.0</ele>
        <time>2014-08-31T12:04:05Z</time>
      </trkpt>
      <trkpt lat="40.245050" lon="-4.902533">
        <ele>1128.0</ele>
        <time>2014-08-31T12:04:07Z</time>
      </trkpt>
      <trkpt lat="40.244900" lon="-4.902567">
        <ele>1125.0</ele>
        <time>2014-08-31T12:04:09Z</time>
      </trkpt>
      <trkpt lat="40.244750" lon="-4.902550">
        <ele>1122.0</ele>
        <time>2014-08-31T12:04:11Z</time>
      </trkpt>
      <trkpt lat="40.244567" lon="-4.902517">
        <ele>1122.0</ele>
        <time>2014-08-31T12:04:13Z</time>
      </trkpt>
      <trkpt lat="40.244417" lon="-4.902450">
        <ele>1123.0</ele>
        <time>2014-08-31T12:04:15Z</time>
      </trkpt>
      <trkpt lat="40.244267" lon="-4.902350">
        <ele>1122.0</ele>
        <time>2014-08-31T12:04:17Z</time>
      </trkpt>
      <trkpt lat="40.244050" lon="-4.902233">
        <ele>1126.0</ele>
        <time>2014-08-31T12:04:19Z</time>
      </trkpt>
      <trkpt lat="40.243917" lon="-4.902133">
        <ele>1134.0</ele>
        <time>2014-08-31T12:04:21Z</time>
      </trkpt>
      <trkpt lat="40.243833" lon="-4.902000">
        <ele>1134.0</ele>
        <time>2014-08-31T12:04:23Z</time>
      </trkpt>
      <trkpt lat="40.243750" lon="-4.901783">
        <ele>1131.0</ele>
        <time>2014-08-31T12:04:25Z</time>
      </trkpt>
      <trkpt lat="40.243683" lon="-4.901500">
        <ele>1133.0</ele>
        <time>2014-08-31T12:04:27Z</time>
      </trkpt>
      <trkpt lat="40.243600" lon="-4.901317">
        <ele>1137.0</ele>
        <time>2014-08-31T12:04:29Z</time>
      </trkpt>
      <trkpt lat="40.243467" lon="-4.901200">
        <ele>1136.0</ele>
        <time>2014-08-31T12:04:31Z</time>
      </trkpt>
      <trkpt lat="40.243300" lon="-4.901217">
        <ele>1134.0</ele>
        <time>2014-08-31T12:04:33Z</time>
      </trkpt>
      <trkpt lat="40.243200" lon="-4.901350">
        <ele>1138.0</ele>
        <time>2014-08-31T12:04:35Z</time>
      </trkpt>
      <trkpt lat="40.243100" lon="-4.901417">
        <ele>1140.0</ele>
        <time>2014-08-31T12:04:37Z</time>
      </trkpt>
      <trkpt lat="40.242950" lon="-4.901383">
        <ele>1139.0</ele>
        <time>2014-08-31T12:04:39Z</time>
      </trkpt>
      <trkpt lat="40.242783" lon="-4.901317">
        <ele>1143.0</ele>
        <time>2014-08-31T12:04:41Z</time>
      </trkpt>
      <trkpt lat="40.242667" lon="-4.901267">
        <ele>1150.0</ele>
        <time>2014-08-31T12:04:43Z</time>
      </trkpt>
      <trkpt lat="40.242600" lon="-4.901133">
        <ele>1152.0</ele>
        <time>2014-08-31T12:04:45Z</time>
      </trkpt>
      <trkpt lat="40.242617" lon="-4.900900">
        <ele>1152.0</ele>
        <time>2014-08-31T12:04:47Z</time>
      </trkpt>
      <trkpt lat="40.242750" lon="-4.900733">
        <ele>1154.0</ele>
        <time>2014-08-31T12:04:49Z</time>
      </trkpt>
      <trkpt lat="40.242933" lon="-4.900633">
        <ele>1153.0</ele>
        <time>2014-08-31T12:04:51Z</time>
      </trkpt>
      <trkpt lat="40.243133" lon="-4.900667">
        <ele>1152.0</ele>
        <time>2014-08-31T12:04:53Z</time>
      </trkpt>
      <trkpt lat="40.243250" lon="-4.900833">
        <ele>1153.0</ele>
        <time>2014-08-31T12:04:55Z</time>
      </trkpt>
      <trkpt lat="40.243350" lon="-4.901000">
        <ele>1157.0</ele>
        <time>2014-08-31T12:04:57Z</time>
      </trkpt>
      <trkpt lat="40.243450" lon="-4.901150">
        <ele>1163.0</ele>
        <time>2014-08-31T12:04:59Z</time>
      </trkpt>
      <trkpt lat="40.243567" lon="-4.901233">
        <ele>1163.0</ele>
        <time>2014-08-31T12:05:01Z</time>
      </trkpt>
      <trkpt lat="40.243683" lon="-4.901383">
        <ele>1161.0</ele>
        <time>2014-08-31T12:05:03Z</time>
      </trkpt>
      <trkpt lat="40.243750" lon="-4.901583">
        <ele>1160.0</ele>
        <time>2014-08-31T12:05:05Z</time>
      </trkpt>
      <trkpt lat="40.243767" lon="-4.901783">
        <ele>1162.0</ele>
        <time>2014-08-31T12:05:07Z</time>
      </trkpt>
      <trkpt lat="40.243767" lon="-4.901950">
        <ele>1163.0</ele>
        <time>2014-08-31T12:05:09Z</time>
      </trkpt>
      <trkpt lat="40.243767" lon="-4.902117">
        <ele>1162.0</ele>
        <time>2014-08-31T12:05:11Z</time>
      </trkpt>
      <trkpt lat="40.243733" lon="-4.902300">
        <ele>1160.0</ele>
        <time>2014-08-31T12:05:13Z</time>
      </trkpt>
      <trkpt lat="40.243700" lon="-4.902517">
        <ele>1161.0</ele>
        <time>2014-08-31T12:05:15Z</time>
      </trkpt>
      <trkpt lat="40.243667" lon="-4.902700">
        <ele>1164.0</ele>
        <time>2014-08-31T12:05:17Z</time>
      </trkpt>
      <trkpt lat="40.243617" lon="-4.902883">
        <ele>1166.0</ele>
        <time>2014-08-31T12:05:19Z</time>
      </trkpt>
      <trkpt lat="40.243517" lon="-4.903050">
        <ele>1170.0</ele>
        <time>2014-08-31T12:05:21Z</time>
      </trkpt>
      <trkpt lat="40.243433" lon="-4.903150">
        <ele>1174.0</ele>
        <time>2014-08-31T12:05:23Z</time>
      </trkpt>
      <trkpt lat="40.243333" lon="-4.903167">
        <ele>1176.0</ele>
        <time>2014-08-31T12:05:25Z</time>
      </trkpt>
      <trkpt lat="40.243233" lon="-4.903083">
        <ele>1179.0</ele>
        <time>2014-08-31T12:05:27Z</time>
      </trkpt>
      <trkpt lat="40.243150" lon="-4.902983">
        <ele>1184.0</ele>
        <time>2014-08-31T12:05:29Z</time>
      </trkpt>
      <trkpt lat="40.243083" lon="-4.902833">
        <ele>1188.0</ele>
        <time>2014-08-31T12:05:31Z</time>
      </trkpt>
      <trkpt lat="40.243100" lon="-4.902650">
        <ele>1190.0</ele>
        <time>2014-08-31T12:05:33Z</time>
      </trkpt>
      <trkpt lat="40.243150" lon="-4.902433">
        <ele>1192.0</ele>
        <time>2014-08-31T12:05:35Z</time>
      </trkpt>
      <trkpt lat="40.243267" lon="-4.902250">
        <ele>1194.0</ele>
        <time>2014-08-31T12:05:37Z</time>
      </trkpt>
      <trkpt lat="40.243450" lon="-4.902117">
        <ele>1197.0</ele>
        <time>2014-08-31T12:05:39Z</time>
      </trkpt>
      <trkpt lat="40.243650" lon="-4.902033">
        <ele>1202.0</ele>
        <time>2014-08-31T12:05:41Z</time>
      </trkpt>
      <trkpt lat="40.243867" lon="-4.902033">
        <ele>1207.0</ele>
        <time>2014-08-31T12:05:43Z</time>
      </trkpt>
      <trkpt lat="40.244067" lon="-4.902117">
        <ele>1212.0</ele>
        <time>2014-08-31T12:05:45Z</time>
      </trkpt>
      <trkpt lat="40.244233" lon="-4.902283">
        <ele>1216.0</ele>
        <time>2014-08-31T12:05:47Z</time>
      </trkpt>
      <trkpt lat="40.244317" lon="-4.902467">
        <ele>1223.0</ele>
        <time>2014-08-31T12:05:49Z</time>
      </trkpt>
      <trkpt lat="40.244350" lon="-4.902650">
        <ele>1228.0</ele>
        <time>2014-08-31T12:05:51Z</time>
      </trkpt>
      <trkpt lat="40.244300" lon="-4.902817">
        <ele>1231.0</ele>
        <time>2014-08-31T12:05:53Z</time>
      </trkpt>
      <trkpt lat="40.244217" lon="-4.902950">
        <ele>1236.0</ele>
        <time>2014-08-31T12:05:55Z</time>
      </trkpt>
      <trkpt lat="40.244100" lon="-4.903000">
        <ele>1242.0</ele>
        <time>2014-08-31T12:05:57Z</time>
      </trkpt>
      <trkpt lat="40.244000" lon="-4.902967">
        <ele>1248.0</ele>
        <time>2014-08-31T12:05:59Z</time>
      </trkpt>
      <trkpt lat="40.243883" lon="-4.902883">
        <ele>1253.0</ele>
        <time>2014-08-31T12:06:01Z</time>
      </trkpt>
      <trkpt lat="40.243817" lon="-4.902767">
        <ele>1259.0</ele>
        <time>2014-08-31T12:06:03Z</time>
      </trkpt>
      <trkpt lat="40.243817" lon="-4.902633">
        <ele>1260.0</ele>
        <time>2014-08-31T12:06:05Z</time>
      </trkpt>
      <trkpt lat="40.243850" lon="-4.902433">
        <ele>1256.0</ele>
        <time>2014-08-31T12:06:07Z</time>
      </trkpt>
      <trkpt lat="40.243950" lon="-4.902183">
        <ele>1257.0</ele>
        <time>2014-08-31T12:06:09Z</time>
      </trkpt>
      <trkpt lat="40.244083" lon="-4.901983">
        <ele>1262.0</ele>
        <time>2014-08-31T12:06:11Z</time>
      </trkpt>
      <trkpt lat="40.244267" lon="-4.901867">
        <ele>1265.0</ele>
        <time>2014-08-31T12:06:13Z</time>
      </trkpt>
      <trkpt lat="40.244517" lon="-4.901900">
        <ele>1267.0</ele>
        <time>2014-08-31T12:06:15Z</time>
      </trkpt>
      <trkpt lat="40.244717" lon="-4.902033">
        <ele>1274.0</ele>
        <time>2014-08-31T12:06:17Z</time>
      </trkpt>
      <trkpt lat="40.244850" lon="-4.902167">
        <ele>1280.0</ele>
        <time>2014-08-31T12:06:19Z</time>
      </trkpt>
      <trkpt lat="40.244950" lon="-4.902383">
        <ele>1282.0</ele>
        <time>2014-08-31T12:06:21Z</time>
      </trkpt>
      <trkpt lat="40.244950" lon="-4.902650">
        <ele>1286.0</ele>
        <time>2014-08-31T12:06:23Z</time>
      </trkpt>
      <trkpt lat="40.244900" lon="-4.902833">
        <ele>1295.0</ele>
        <time>2014-08-31T12:06:25Z</time>
      </trkpt>
      <trkpt lat="40.244850" lon="-4.903000">
        <ele>1301.0</ele>
        <time>2014-08-31T12:06:27Z</time>
      </trkpt>
      <trkpt lat="40.244733" lon="-4.903100">
        <ele>1306.0</ele>
        <time>2014-08-31T12:06:29Z</time>
      </trkpt>
      <trkpt lat="40.244633" lon="-4.903150">
        <ele>1312.0</ele>
        <time>2014-08-31T12:06:31Z</time>
      </trkpt>
      <trkpt lat="40.244567" lon="-4.903183">
        <ele>1314.0</ele>
        <time>2014-08-31T12:06:33Z</time>
      </trkpt>
      <trkpt lat="40.244450" lon="-4.903133">
        <ele>1310.0</ele>
        <time>2014-08-31T12:06:35Z</time>
      </trkpt>
      <trkpt lat="40.244350" lon="-4.902950">
        <ele>1309.0</ele>
        <time>2014-08-31T12:06:37Z</time>
      </trkpt>
      <trkpt lat="40.244300" lon="-4.902800">
        <ele>1311.0</ele>
        <time>2014-08-31T12:06:39Z</time>
      </trkpt>
      <trkpt lat="40.244317" lon="-4.902633">
        <ele>1308.0</ele>
        <time>2014-08-31T12:06:41Z</time>
      </trkpt>
      <trkpt lat="40.244383" lon="-4.902417">
        <ele>1307.0</ele>
        <time>2014-08-31T12:06:43Z</time>
      </trkpt>
      <trkpt lat="40.244483" lon="-4.902233">
        <ele>1310.0</ele>
        <time>2014-08-31T12:06:45Z</time>
      </trkpt>
      <trkpt lat="40.244650" lon="-4.902100">
        <ele>1312.0</ele>
        <time>2014-08-31T12:06:47Z</time>
      </trkpt>
      <trkpt lat="40.244867" lon="-4.902050">
        <ele>1314.0</ele>
        <time>2014-08-31T12:06:49Z</time>
      </trkpt>
      <trkpt lat="40.245083" lon="-4.902150">
        <ele>1318.0</ele>
        <time>2014-08-31T12:06:51Z</time>
      </trkpt>
      <trkpt lat="40.245233" lon="-4.902300">
        <ele>1327.0</ele>
        <time>2014-08-31T12:06:53Z</time>
      </trkpt>
      <trkpt lat="40.245333" lon="-4.902433">
        <ele>1334.0</ele>
        <time>2014-08-31T12:06:55Z</time>
      </trkpt>
      <trkpt lat="40.245417" lon="-4.902633">
        <ele>1339.0</ele>
        <time>2014-08-31T12:06:57Z</time>
      </trkpt>
      <trkpt lat="40.245383" lon="-4.902833">
        <ele>1345.0</ele>
        <time>2014-08-31T12:06:59Z</time>
      </trkpt>
      <trkpt lat="40.245350" lon="-4.902933">
        <ele>1347.0</ele>
        <time>2014-08-31T12:07:01Z</time>
      </trkpt>
      <trkpt lat="40.245300" lon="-4.903000">
        <ele>1345.0</ele>
        <time>2014-08-31T12:07:03Z</time>
      </trkpt>
      <trkpt lat="40.245183" lon="-4.903017">
        <ele>1339.0</ele>
        <time>2014-08-31T12:07:05Z</time>
      </trkpt>
      <trkpt lat="40.245050" lon="-4.902950">
        <ele>1337.0</ele>
        <time>2014-08-31T12:07:07Z</time>
      </trkpt>
      <trkpt lat="40.244967" lon="-4.902850">
        <ele>1338.0</ele>
        <time>2014-08-31T12:07:09Z</time>
      </trkpt>
      <trkpt lat="40.244917" lon="-4.902733">
        <ele>1335.0</ele>
        <time>2014-08-31T12:07:11Z</time>
      </trkpt>
      <trkpt lat="40.244867" lon="-4.902500">
        <ele>1330.0</ele>
        <time>2014-08-31T12:07:13Z</time>
      </trkpt>
      <trkpt lat="40.244867" lon="-4.902267">
        <ele>1329.0</ele>
        <time>2014-08-31T12:07:15Z</time>
      </trkpt>
      <trkpt lat="40.244883" lon="-4.902083">
        <ele>1326.0</ele>
        <time>2014-08-31T12:07:17Z</time>
      </trkpt>
      <trkpt lat="40.244967" lon="-4.901850">
        <ele>1320.0</ele>
        <time>2014-08-31T12:07:19Z</time>
      </trkpt>
      <trkpt lat="40.245167" lon="-4.901700">
        <ele>1317.0</ele>
        <time>2014-08-31T12:07:21Z</time>
      </trkpt>
      <trkpt lat="40.245383" lon="-4.901683">
        <ele>1319.0</ele>
        <time>2014-08-31T12:07:23Z</time>
      </trkpt>
      <trkpt lat="40.245583" lon="-4.901700">
        <ele>1323.0</ele>
        <time>2014-08-31T12:07:25Z</time>
      </trkpt>
      <trkpt lat="40.245767" lon="-4.901767">
        <ele>1328.0</ele>
        <time>2014-08-31T12:07:27Z</time>
      </trkpt>
      <trkpt lat="40.245917" lon="-4.901900">
        <ele>1332.0</ele>
        <time>2014-08-31T12:07:29Z</time>
      </trkpt>
      <trkpt lat="40.246050" lon="-4.902050">
        <ele>1338.0</ele>
        <time>2014-08-31T12:07:31Z</time>
      </trkpt>
      <trkpt lat="40.246167" lon="-4.902217">
        <ele>1345.0</ele>
        <time>2014-08-31T12:07:33Z</time>
      </trkpt>
      <trkpt lat="40.246250" lon="-4.902383">
        <ele>1352.0</ele>
        <time>2014-08-31T12:07:35Z</time>
      </trkpt>
      <trkpt lat="40.246317" lon="-4.902550">
        <ele>1357.0</ele>
        <time>2014-08-31T12:07:37Z</time>
      </trkpt>
      <trkpt lat="40.246300" lon="-4.902717">
        <ele>1358.0</ele>
        <time>2014-08-31T12:07:39Z</time>
      </trkpt>
      <trkpt lat="40.246250" lon="-4.902867">
        <ele>1359.0</ele>
        <time>2014-08-31T12:07:41Z</time>
      </trkpt>
      <trkpt lat="40.246183" lon="-4.902967">
        <ele>1359.0</ele>
        <time>2014-08-31T12:07:43Z</time>
      </trkpt>
      <trkpt lat="40.246083" lon="-4.903017">
        <ele>1357.0</ele>
        <time>2014-08-31T12:07:45Z</time>
      </trkpt>
      <trkpt lat="40.245950" lon="-4.903000">
        <ele>1357.0</ele>
        <time>2014-08-31T12:07:47Z</time>
      </trkpt>
      <trkpt lat="40.245850" lon="-4.902917">
        <ele>1358.0</ele>
        <time>2014-08-31T12:07:49Z</time>
      </trkpt>
      <trkpt lat="40.245783" lon="-4.902783">
        <ele>1356.0</ele>
        <time>2014-08-31T12:07:51Z</time>
      </trkpt>
      <trkpt lat="40.245750" lon="-4.902600">
        <ele>1351.0</ele>
        <time>2014-08-31T12:07:53Z</time>
      </trkpt>
      <trkpt lat="40.245767" lon="-4.902333">
        <ele>1347.0</ele>
        <time>2014-08-31T12:07:55Z</time>
      </trkpt>
      <trkpt lat="40.245850" lon="-4.902117">
        <ele>1349.0</ele>
        <time>2014-08-31T12:07:57Z</time>
      </trkpt>
      <trkpt lat="40.245950" lon="-4.901983">
        <ele>1350.0</ele>
        <time>2014-08-31T12:07:59Z</time>
      </trkpt>
      <trkpt lat="40.246150" lon="-4.901850">
        <ele>1343.0</ele>
        <time>2014-08-31T12:08:01Z</time>
      </trkpt>
      <trkpt lat="40.246433" lon="-4.901733">
        <ele>1341.0</ele>
        <time>2014-08-31T12:08:03Z</time>
      </trkpt>
      <trkpt lat="40.246667" lon="-4.901717">
        <ele>1348.0</ele>
        <time>2014-08-31T12:08:05Z</time>
      </trkpt>
      <trkpt lat="40.246833" lon="-4.901717">
        <ele>1352.0</ele>
        <time>2014-08-31T12:08:07Z</time>
      </trkpt>
      <trkpt lat="40.247033" lon="-4.901733">
        <ele>1351.0</ele>
        <time>2014-08-31T12:08:09Z</time>
      </trkpt>
      <trkpt lat="40.247233" lon="-4.901917">
        <ele>1352.0</ele>
        <time>2014-08-31T12:08:11Z</time>
      </trkpt>
      <trkpt lat="40.247317" lon="-4.902133">
        <ele>1360.0</ele>
        <time>2014-08-31T12:08:13Z</time>
      </trkpt>
      <trkpt lat="40.247333" lon="-4.902283">
        <ele>1369.0</ele>
        <time>2014-08-31T12:08:15Z</time>
      </trkpt>
      <trkpt lat="40.247317" lon="-4.902417">
        <ele>1373.0</ele>
        <time>2014-08-31T12:08:17Z</time>
      </trkpt>
      <trkpt lat="40.247300" lon="-4.902617">
        <ele>1375.0</ele>
        <time>2014-08-31T12:08:19Z</time>
      </trkpt>
      <trkpt lat="40.247300" lon="-4.902800">
        <ele>1377.0</ele>
        <time>2014-08-31T12:08:21Z</time>
      </trkpt>
      <trkpt lat="40.247233" lon="-4.902917">
        <ele>1377.0</ele>
        <time>2014-08-31T12:08:23Z</time>
      </trkpt>
      <trkpt lat="40.247133" lon="-4.903000">
        <ele>1378.0</ele>
        <time>2014-08-31T12:08:25Z</time>
      </trkpt>
      <trkpt lat="40.247033" lon="-4.903033">
        <ele>1378.0</ele>
        <time>2014-08-31T12:08:27Z</time>
      </trkpt>
      <trkpt lat="40.246917" lon="-4.903017">
        <ele>1375.0</ele>
        <time>2014-08-31T12:08:29Z</time>
      </trkpt>
      <trkpt lat="40.246783" lon="-4.902967">
        <ele>1374.0</ele>
        <time>2014-08-31T12:08:31Z</time>
      </trkpt>
      <trkpt lat="40.246683" lon="-4.902917">
        <ele>1371.0</ele>
        <time>2014-08-31T12:08:33Z</time>
      </trkpt>
      <trkpt lat="40.246600" lon="-4.902850">
        <ele>1368.0</ele>
        <time>2014-08-31T12:08:35Z</time>
      </trkpt>
      <trkpt lat="40.246483" lon="-4.902750">
        <ele>1366.0</ele>
        <time>2014-08-31T12:08:37Z</time>
      </trkpt>
      <trkpt lat="40.246317" lon="-4.902667">
        <ele>1370.0</ele>
        <time>2014-08-31T12:08:39Z</time>
      </trkpt>
      <trkpt lat="40.246200" lon="-4.902650">
        <ele>1377.0</ele>
        <time>2014-08-31T12:08:41Z</time>
      </trkpt>
      <trkpt lat="40.246067" lon="-4.902600">
        <ele>1379.0</ele>
        <time>2014-08-31T12:08:43Z</time>
      </trkpt>
      <trkpt lat="40.245933" lon="-4.902433">
        <ele>1381.0</ele>
        <time>2014-08-31T12:08:45Z</time>
      </trkpt>
      <trkpt lat="40.245850" lon="-4.902183">
        <ele>1385.0</ele>
        <time>2014-08-31T12:08:47Z</time>
      </trkpt>
      <trkpt lat="40.245850" lon="-4.901900">
        <ele>1390.0</ele>
        <time>2014-08-31T12:08:49Z</time>
      </trkpt>
      <trkpt lat="40.245950" lon="-4.901683">
        <ele>1394.0</ele>
        <time>2014-08-31T12:08:51Z</time>
      </trkpt>
      <trkpt lat="40.246083" lon="-4.901550">
        <ele>1392.0</ele>
        <time>2014-08-31T12:08:53Z</time>
      </trkpt>
      <trkpt lat="40.246283" lon="-4.901433">
        <ele>1388.0</ele>
        <time>2014-08-31T12:08:55Z</time>
      </trkpt>
      <trkpt lat="40.246517" lon="-4.901450">
        <ele>1384.0</ele>
        <time>2014-08-31T12:08:57Z</time>
      </trkpt>
      <trkpt lat="40.246733" lon="-4.901567">
        <ele>1387.0</ele>
        <time>2014-08-31T12:08:59Z</time>
      </trkpt>
      <trkpt lat="40.246917" lon="-4.901650">
        <ele>1392.0</ele>
        <time>2014-08-31T12:09:01Z</time>
      </trkpt>
      <trkpt lat="40.247100" lon="-4.901750">
        <ele>1391.0</ele>
        <time>2014-08-31T12:09:03Z</time>
      </trkpt>
      <trkpt lat="40.247233" lon="-4.901933">
        <ele>1389.0</ele>
        <time>2014-08-31T12:09:05Z</time>
      </trkpt>
      <trkpt lat="40.247317" lon="-4.902150">
        <ele>1389.0</ele>
        <time>2014-08-31T12:09:07Z</time>
      </trkpt>
      <trkpt lat="40.247383" lon="-4.902417">
        <ele>1391.0</ele>
        <time>2014-08-31T12:09:09Z</time>
      </trkpt>
      <trkpt lat="40.247417" lon="-4.902667">
        <ele>1396.0</ele>
        <time>2014-08-31T12:09:11Z</time>
      </trkpt>
      <trkpt lat="40.247500" lon="-4.902833">
        <ele>1398.0</ele>
        <time>2014-08-31T12:09:13Z</time>
      </trkpt>
      <trkpt lat="40.247617" lon="-4.903033">
        <ele>1397.0</ele>
        <time>2014-08-31T12:09:15Z</time>
      </trkpt>
      <trkpt lat="40.247683" lon="-4.903267">
        <ele>1395.0</ele>
        <time>2014-08-31T12:09:17Z</time>
      </trkpt>
      <trkpt lat="40.247717" lon="-4.903533">
        <ele>1393.0</ele>
        <time>2014-08-31T12:09:19Z</time>
      </trkpt>
      <trkpt lat="40.247767" lon="-4.903783">
        <ele>1391.0</ele>
        <time>2014-08-31T12:09:21Z</time>
      </trkpt>
      <trkpt lat="40.247800" lon="-4.904050">
        <ele>1390.0</ele>
        <time>2014-08-31T12:09:23Z</time>
      </trkpt>
      <trkpt lat="40.247817" lon="-4.904300">
        <ele>1390.0</ele>
        <time>2014-08-31T12:09:25Z</time>
      </trkpt>
      <trkpt lat="40.247883" lon="-4.904517">
        <ele>1389.0</ele>
        <time>2014-08-31T12:09:27Z</time>
      </trkpt>
      <trkpt lat="40.247967" lon="-4.904750">
        <ele>1387.0</ele>
        <time>2014-08-31T12:09:29Z</time>
      </trkpt>
      <trkpt lat="40.248000" lon="-4.904967">
        <ele>1387.0</ele>
        <time>2014-08-31T12:09:31Z</time>
      </trkpt>
      <trkpt lat="40.247967" lon="-4.905150">
        <ele>1387.0</ele>
        <time>2014-08-31T12:09:33Z</time>
      </trkpt>
      <trkpt lat="40.247950" lon="-4.905350">
        <ele>1384.0</ele>
        <time>2014-08-31T12:09:35Z</time>
      </trkpt>
      <trkpt lat="40.247900" lon="-4.905533">
        <ele>1378.0</ele>
        <time>2014-08-31T12:09:37Z</time>
      </trkpt>
      <trkpt lat="40.247733" lon="-4.905683">
        <ele>1373.0</ele>
        <time>2014-08-31T12:09:39Z</time>
      </trkpt>
      <trkpt lat="40.247600" lon="-4.905817">
        <ele>1371.0</ele>
        <time>2014-08-31T12:09:41Z</time>
      </trkpt>
      <trkpt lat="40.247483" lon="-4.905883">
        <ele>1368.0</ele>
        <time>2014-08-31T12:09:43Z</time>
      </trkpt>
      <trkpt lat="40.247317" lon="-4.905900">
        <ele>1364.0</ele>
        <time>2014-08-31T12:09:45Z</time>
      </trkpt>
      <trkpt lat="40.247167" lon="-4.905900">
        <ele>1360.0</ele>
        <time>2014-08-31T12:09:47Z</time>
      </trkpt>
      <trkpt lat="40.247000" lon="-4.905883">
        <ele>1359.0</ele>
        <time>2014-08-31T12:09:49Z</time>
      </trkpt>
      <trkpt lat="40.246867" lon="-4.905833">
        <ele>1361.0</ele>
        <time>2014-08-31T12:09:51Z</time>
      </trkpt>
      <trkpt lat="40.246717" lon="-4.905767">
        <ele>1360.0</ele>
        <time>2014-08-31T12:09:53Z</time>
      </trkpt>
      <trkpt lat="40.246550" lon="-4.905683">
        <ele>1358.0</ele>
        <time>2014-08-31T12:09:55Z</time>
      </trkpt>
      <trkpt lat="40.246400" lon="-4.905583">
        <ele>1358.0</ele>
        <time>2014-08-31T12:09:57Z</time>
      </trkpt>
      <trkpt lat="40.246267" lon="-4.905483">
        <ele>1358.0</ele>
        <time>2014-08-31T12:09:59Z</time>
      </trkpt>
      <trkpt lat="40.246100" lon="-4.905417">
        <ele>1357.0</ele>
        <time>2014-08-31T12:10:01Z</time>
      </trkpt>
      <trkpt lat="40.245933" lon="-4.905383">
        <ele>1357.0</ele>
        <time>2014-08-31T12:10:03Z</time>
      </trkpt>
      <trkpt lat="40.245800" lon="-4.905367">
        <ele>1356.0</ele>
        <time>2014-08-31T12:10:05Z</time>
      </trkpt>
      <trkpt lat="40.245650" lon="-4.905367">
        <ele>1355.0</ele>
        <time>2014-08-31T12:10:07Z</time>
      </trkpt>
      <trkpt lat="40.245533" lon="-4.905367">
        <ele>1356.0</ele>
        <time>2014-08-31T12:10:09Z</time>
      </trkpt>
      <trkpt lat="40.245433" lon="-4.905350">
        <ele>1355.0</ele>
        <time>2014-08-31T12:10:11Z</time>
      </trkpt>
      <trkpt lat="40.245300" lon="-4.905350">
        <ele>1352.0</ele>
        <time>2014-08-31T12:10:13Z</time>
      </trkpt>
      <trkpt lat="40.245167" lon="-4.905383">
        <ele>1352.0</ele>
        <time>2014-08-31T12:10:15Z</time>
      </trkpt>
      <trkpt lat="40.245067" lon="-4.905450">
        <ele>1355.0</ele>
        <time>2014-08-31T12:10:17Z</time>
      </trkpt>
      <trkpt lat="40.244967" lon="-4.905533">
        <ele>1354.0</ele>
        <time>2014-08-31T12:10:19Z</time>
      </trkpt>
      <trkpt lat="40.244867" lon="-4.905633">
        <ele>1353.0</ele>
        <time>2014-08-31T12:10:21Z</time>
      </trkpt>
      <trkpt lat="40.244767" lon="-4.905800">
        <ele>1353.0</ele>
        <time>2014-08-31T12:10:23Z</time>
      </trkpt>
      <trkpt lat="40.244667" lon="-4.905900">
        <ele>1354.0</ele>
        <time>2014-08-31T12:10:25Z</time>
      </trkpt>
      <trkpt lat="40.244600" lon="-4.906017">
        <ele>1355.0</ele>
        <time>2014-08-31T12:10:27Z</time>
      </trkpt>
      <trkpt lat="40.244500" lon="-4.906117">
        <ele>1356.0</ele>
        <time>2014-08-31T12:10:29Z</time>
      </trkpt>
      <trkpt lat="40.244400" lon="-4.906183">
        <ele>1357.0</ele>
        <time>2014-08-31T12:10:31Z</time>
      </trkpt>
      <trkpt lat="40.244317" lon="-4.906167">
        <ele>1360.0</ele>
        <time>2014-08-31T12:10:33Z</time>
      </trkpt>
      <trkpt lat="40.244217" lon="-4.906083">
        <ele>1360.0</ele>
        <time>2014-08-31T12:10:35Z</time>
      </trkpt>
      <trkpt lat="40.244100" lon="-4.905967">
        <ele>1364.0</ele>
        <time>2014-08-31T12:10:37Z</time>
      </trkpt>
      <trkpt lat="40.244050" lon="-4.905817">
        <ele>1369.0</ele>
        <time>2014-08-31T12:10:39Z</time>
      </trkpt>
      <trkpt lat="40.244033" lon="-4.905583">
        <ele>1373.0</ele>
        <time>2014-08-31T12:10:41Z</time>
      </trkpt>
      <trkpt lat="40.244067" lon="-4.905333">
        <ele>1378.0</ele>
        <time>2014-08-31T12:10:43Z</time>
      </trkpt>
      <trkpt lat="40.244183" lon="-4.905150">
        <ele>1384.0</ele>
        <time>2014-08-31T12:10:45Z</time>
      </trkpt>
      <trkpt lat="40.244350" lon="-4.905000">
        <ele>1389.0</ele>
        <time>2014-08-31T12:10:47Z</time>
      </trkpt>
      <trkpt lat="40.244600" lon="-4.904950">
        <ele>1393.0</ele>
        <time>2014-08-31T12:10:49Z</time>
      </trkpt>
      <trkpt lat="40.244833" lon="-4.905050">
        <ele>1399.0</ele>
        <time>2014-08-31T12:10:51Z</time>
      </trkpt>
      <trkpt lat="40.245000" lon="-4.905200">
        <ele>1403.0</ele>
        <time>2014-08-31T12:10:53Z</time>
      </trkpt>
      <trkpt lat="40.245150" lon="-4.905400">
        <ele>1405.0</ele>
        <time>2014-08-31T12:10:55Z</time>
      </trkpt>
      <trkpt lat="40.245233" lon="-4.905667">
        <ele>1406.0</ele>
        <time>2014-08-31T12:10:57Z</time>
      </trkpt>
      <trkpt lat="40.245217" lon="-4.905867">
        <ele>1411.0</ele>
        <time>2014-08-31T12:10:59Z</time>
      </trkpt>
      <trkpt lat="40.245167" lon="-4.906000">
        <ele>1414.0</ele>
        <time>2014-08-31T12:11:01Z</time>
      </trkpt>
      <trkpt lat="40.245083" lon="-4.906083">
        <ele>1415.0</ele>
        <time>2014-08-31T12:11:03Z</time>
      </trkpt>
      <trkpt lat="40.244983" lon="-4.906117">
        <ele>1415.0</ele>
        <time>2014-08-31T12:11:05Z</time>
      </trkpt>
      <trkpt lat="40.244883" lon="-4.906117">
        <ele>1417.0</ele>
        <time>2014-08-31T12:11:07Z</time>
      </trkpt>
      <trkpt lat="40.244783" lon="-4.906067">
        <ele>1419.0</ele>
        <time>2014-08-31T12:11:09Z</time>
      </trkpt>
      <trkpt lat="40.244683" lon="-4.906017">
        <ele>1420.0</ele>
        <time>2014-08-31T12:11:11Z</time>
      </trkpt>
      <trkpt lat="40.244550" lon="-4.906000">
        <ele>1424.0</ele>
        <time>2014-08-31T12:11:13Z</time>
      </trkpt>
      <trkpt lat="40.244467" lon="-4.905917">
        <ele>1430.0</ele>
        <time>2014-08-31T12:11:15Z</time>
      </trkpt>
      <trkpt lat="40.244400" lon="-4.905750">
        <ele>1432.0</ele>
        <time>2014-08-31T12:11:17Z</time>
      </trkpt>
      <trkpt lat="40.244300" lon="-4.905600">
        <ele>1434.0</ele>
        <time>2014-08-31T12:11:19Z</time>
      </trkpt>
      <trkpt lat="40.244200" lon="-4.905467">
        <ele>1440.0</ele>
        <time>2014-08-31T12:11:21Z</time>
      </trkpt>
      <trkpt lat="40.244100" lon="-4.905333">
        <ele>1446.0</ele>
        <time>2014-08-31T12:11:23Z</time>
      </trkpt>
      <trkpt lat="40.243967" lon="-4.905317">
        <ele>1450.0</ele>
        <time>2014-08-31T12:11:25Z</time>
      </trkpt>
      <trkpt lat="40.243817" lon="-4.905417">
        <ele>1455.0</ele>
        <time>2014-08-31T12:11:27Z</time>
      </trkpt>
      <trkpt lat="40.243700" lon="-4.905467">
        <ele>1468.0</ele>
        <time>2014-08-31T12:11:29Z</time>
      </trkpt>
      <trkpt lat="40.243617" lon="-4.905433">
        <ele>1475.0</ele>
        <time>2014-08-31T12:11:31Z</time>
      </trkpt>
      <trkpt lat="40.243500" lon="-4.905350">
        <ele>1479.0</ele>
        <time>2014-08-31T12:11:33Z</time>
      </trkpt>
      <trkpt lat="40.243383" lon="-4.905150">
        <ele>1484.0</ele>
        <time>2014-08-31T12:11:35Z</time>
      </trkpt>
      <trkpt lat="40.243367" lon="-4.904900">
        <ele>1490.0</ele>
        <time>2014-08-31T12:11:37Z</time>
      </trkpt>
      <trkpt lat="40.243417" lon="-4.904667">
        <ele>1495.0</ele>
        <time>2014-08-31T12:11:39Z</time>
      </trkpt>
      <trkpt lat="40.243567" lon="-4.904383">
        <ele>1494.0</ele>
        <time>2014-08-31T12:11:41Z</time>
      </trkpt>
      <trkpt lat="40.243717" lon="-4.904133">
        <ele>1499.0</ele>
        <time>2014-08-31T12:11:43Z</time>
      </trkpt>
      <trkpt lat="40.243883" lon="-4.903967">
        <ele>1504.0</ele>
        <time>2014-08-31T12:11:45Z</time>
      </trkpt>
      <trkpt lat="40.244133" lon="-4.903883">
        <ele>1506.0</ele>
        <time>2014-08-31T12:11:47Z</time>
      </trkpt>
      <trkpt lat="40.244383" lon="-4.903867">
        <ele>1515.0</ele>
        <time>2014-08-31T12:11:49Z</time>
      </trkpt>
      <trkpt lat="40.244567" lon="-4.903900">
        <ele>1526.0</ele>
        <time>2014-08-31T12:11:51Z</time>
      </trkpt>
      <trkpt lat="40.244683" lon="-4.904000">
        <ele>1533.0</ele>
        <time>2014-08-31T12:11:53Z</time>
      </trkpt>
      <trkpt lat="40.244750" lon="-4.904167">
        <ele>1535.0</ele>
        <time>2014-08-31T12:11:55Z</time>
      </trkpt>
      <trkpt lat="40.244800" lon="-4.904367">
        <ele>1539.0</ele>
        <time>2014-08-31T12:11:57Z</time>
      </trkpt>
      <trkpt lat="40.244850" lon="-4.904517">
        <ele>1545.0</ele>
        <time>2014-08-31T12:11:59Z</time>
      </trkpt>
      <trkpt lat="40.244817" lon="-4.904700">
        <ele>1548.0</ele>
        <time>2014-08-31T12:12:01Z</time>
      </trkpt>
      <trkpt lat="40.244750" lon="-4.904867">
        <ele>1555.0</ele>
        <time>2014-08-31T12:12:03Z</time>
      </trkpt>
      <trkpt lat="40.244683" lon="-4.904950">
        <ele>1564.0</ele>
        <time>2014-08-31T12:12:05Z</time>
      </trkpt>
      <trkpt lat="40.244567" lon="-4.904967">
        <ele>1571.0</ele>
        <time>2014-08-31T12:12:07Z</time>
      </trkpt>
      <trkpt lat="40.244433" lon="-4.904883">
        <ele>1576.0</ele>
        <time>2014-08-31T12:12:09Z</time>
      </trkpt>
      <trkpt lat="40.244317" lon="-4.904700">
        <ele>1582.0</ele>
        <time>2014-08-31T12:12:11Z</time>
      </trkpt>
      <trkpt lat="40.244217" lon="-4.904483">
        <ele>1590.0</ele>
        <time>2014-08-31T12:12:13Z</time>
      </trkpt>
      <trkpt lat="40.244183" lon="-4.904233">
        <ele>1596.0</ele>
        <time>2014-08-31T12:12:15Z</time>
      </trkpt>
      <trkpt lat="40.244217" lon="-4.903933">
        <ele>1602.0</ele>
        <time>2014-08-31T12:12:17Z</time>
      </trkpt>
      <trkpt lat="40.244350" lon="-4.903700">
        <ele>1608.0</ele>
        <time>2014-08-31T12:12:19Z</time>
      </trkpt>
      <trkpt lat="40.244533" lon="-4.903550">
        <ele>1614.0</ele>
        <time>2014-08-31T12:12:21Z</time>
      </trkpt>
      <trkpt lat="40.244700" lon="-4.903467">
        <ele>1622.0</ele>
        <time>2014-08-31T12:12:23Z</time>
      </trkpt>
      <trkpt lat="40.244867" lon="-4.903483">
        <ele>1628.0</ele>
        <time>2014-08-31T12:12:25Z</time>
      </trkpt>
      <trkpt lat="40.244983" lon="-4.903583">
        <ele>1632.0</ele>
        <time>2014-08-31T12:12:27Z</time>
      </trkpt>
      <trkpt lat="40.245050" lon="-4.903733">
        <ele>1635.0</ele>
        <time>2014-08-31T12:12:29Z</time>
      </trkpt>
      <trkpt lat="40.245117" lon="-4.903917">
        <ele>1638.0</ele>
        <time>2014-08-31T12:12:31Z</time>
      </trkpt>
      <trkpt lat="40.245150" lon="-4.904100">
        <ele>1644.0</ele>
        <time>2014-08-31T12:12:33Z</time>
      </trkpt>
      <trkpt lat="40.245117" lon="-4.904283">
        <ele>1649.0</ele>
        <time>2014-08-31T12:12:35Z</time>
      </trkpt>
      <trkpt lat="40.245100" lon="-4.904500">
        <ele>1657.0</ele>
        <time>2014-08-31T12:12:37Z</time>
      </trkpt>
      <trkpt lat="40.245133" lon="-4.904617">
        <ele>1667.0</ele>
        <time>2014-08-31T12:12:39Z</time>
      </trkpt>
      <trkpt lat="40.245100" lon="-4.904683">
        <ele>1672.0</ele>
        <time>2014-08-31T12:12:41Z</time>
      </trkpt>
      <trkpt lat="40.244983" lon="-4.904733">
        <ele>1675.0</ele>
        <time>2014-08-31T12:12:43Z</time>
      </trkpt>
      <trkpt lat="40.244817" lon="-4.904700">
        <ele>1675.0</ele>
        <time>2014-08-31T12:12:45Z</time>
      </trkpt>
      <trkpt lat="40.244650" lon="-4.904533">
        <ele>1676.0</ele>
        <time>2014-08-31T12:12:47Z</time>
      </trkpt>
      <trkpt lat="40.244567" lon="-4.904300">
        <ele>1679.0</ele>
        <time>2014-08-31T12:12:49Z</time>
      </trkpt>
      <trkpt lat="40.244550" lon="-4.904017">
        <ele>1679.0</ele>
        <time>2014-08-31T12:12:51Z</time>
      </trkpt>
      <trkpt lat="40.244633" lon="-4.903717">
        <ele>1682.0</ele>
        <time>2014-08-31T12:12:53Z</time>
      </trkpt>
      <trkpt lat="40.244800" lon="-4.903483">
        <ele>1689.0</ele>
        <time>2014-08-31T12:12:55Z</time>
      </trkpt>
      <trkpt lat="40.244950" lon="-4.903333">
        <ele>1699.0</ele>
        <time>2014-08-31T12:12:57Z</time>
      </trkpt>
      <trkpt lat="40.245083" lon="-4.903283">
        <ele>1703.0</ele>
        <time>2014-08-31T12:12:59Z</time>
      </trkpt>
      <trkpt lat="40.245250" lon="-4.903350">
        <ele>1703.0</ele>
        <time>2014-08-31T12:13:01Z</time>
      </trkpt>
      <trkpt lat="40.245367" lon="-4.903517">
        <ele>1707.0</ele>
        <time>2014-08-31T12:13:03Z</time>
      </trkpt>
      <trkpt lat="40.245383" lon="-4.903683">
        <ele>1714.0</ele>
        <time>2014-08-31T12:13:05Z</time>
      </trkpt>
      <trkpt lat="40.245383" lon="-4.903817">
        <ele>1719.0</ele>
        <time>2014-08-31T12:13:07Z</time>
      </trkpt>
      <trkpt lat="40.245283" lon="-4.903967">
        <ele>1722.0</ele>
        <time>2014-08-31T12:13:09Z</time>
      </trkpt>
      <trkpt lat="40.245117" lon="-4.903983">
        <ele>1727.0</ele>
        <time>2014-08-31T12:13:11Z</time>
      </trkpt>
      <trkpt lat="40.244983" lon="-4.903917">
        <ele>1730.0</ele>
        <time>2014-08-31T12:13:13Z</time>
      </trkpt>
      <trkpt lat="40.244833" lon="-4.903783">
        <ele>1727.0</ele>
        <time>2014-08-31T12:13:15Z</time>
      </trkpt>
      <trkpt lat="40.244650" lon="-4.903550">
        <ele>1725.0</ele>
        <time>2014-08-31T12:13:17Z</time>
      </trkpt>
      <trkpt lat="40.244533" lon="-4.903300">
        <ele>1729.0</ele>
        <time>2014-08-31T12:13:19Z</time>
      </trkpt>
      <trkpt lat="40.244500" lon="-4.903050">
        <ele>1728.0</ele>
        <time>2014-08-31T12:13:21Z</time>
      </trkpt>
      <trkpt lat="40.244567" lon="-4.902750">
        <ele>1727.0</ele>
        <time>2014-08-31T12:13:23Z</time>
      </trkpt>
      <trkpt lat="40.244700" lon="-4.902533">
        <ele>1731.0</ele>
        <time>2014-08-31T12:13:25Z</time>
      </trkpt>
      <trkpt lat="40.244850" lon="-4.902383">
        <ele>1736.0</ele>
        <time>2014-08-31T12:13:27Z</time>
      </trkpt>
      <trkpt lat="40.245050" lon="-4.902333">
        <ele>1737.0</ele>
        <time>2014-08-31T12:13:29Z</time>
      </trkpt>
      <trkpt lat="40.245267" lon="-4.902383">
        <ele>1742.0</ele>
        <time>2014-08-31T12:13:31Z</time>
      </trkpt>
      <trkpt lat="40.245400" lon="-4.902467">
        <ele>1748.0</ele>
        <time>2014-08-31T12:13:33Z</time>
      </trkpt>
      <trkpt lat="40.245500" lon="-4.902600">
        <ele>1751.0</ele>
        <time>2014-08-31T12:13:35Z</time>
      </trkpt>
      <trkpt lat="40.245550" lon="-4.902800">
        <ele>1756.0</ele>
        <time>2014-08-31T12:13:37Z</time>
      </trkpt>
      <trkpt lat="40.245517" lon="-4.902983">
        <ele>1763.0</ele>
        <time>2014-08-31T12:13:39Z</time>
      </trkpt>
      <trkpt lat="40.245450" lon="-4.903083">
        <ele>1768.0</ele>
        <time>2014-08-31T12:13:41Z</time>
      </trkpt>
      <trkpt lat="40.245317" lon="-4.903100">
        <ele>1771.0</ele>
        <time>2014-08-31T12:13:43Z</time>
      </trkpt>
      <trkpt lat="40.245150" lon="-4.903067">
        <ele>1770.0</ele>
        <time>2014-08-31T12:13:45Z</time>
      </trkpt>
      <trkpt lat="40.244983" lon="-4.903017">
        <ele>1769.0</ele>
        <time>2014-08-31T12:13:47Z</time>
      </trkpt>
      <trkpt lat="40.244800" lon="-4.902900">
        <ele>1765.0</ele>
        <time>2014-08-31T12:13:49Z</time>
      </trkpt>
      <trkpt lat="40.244583" lon="-4.902750">
        <ele>1763.0</ele>
        <time>2014-08-31T12:13:51Z</time>
      </trkpt>
      <trkpt lat="40.244383" lon="-4.902683">
        <ele>1765.0</ele>
        <time>2014-08-31T12:13:53Z</time>
      </trkpt>
      <trkpt lat="40.244233" lon="-4.902717">
        <ele>1764.0</ele>
        <time>2014-08-31T12:13:55Z</time>
      </trkpt>
      <trkpt lat="40.244100" lon="-4.902800">
        <ele>1760.0</ele>
        <time>2014-08-31T12:13:57Z</time>
      </trkpt>
      <trkpt lat="40.243950" lon="-4.902883">
        <ele>1755.0</ele>
        <time>2014-08-31T12:13:59Z</time>
      </trkpt>
      <trkpt lat="40.243800" lon="-4.902900">
        <ele>1751.0</ele>
        <time>2014-08-31T12:14:01Z</time>
      </trkpt>
      <trkpt lat="40.243650" lon="-4.902900">
        <ele>1744.0</ele>
        <time>2014-08-31T12:14:03Z</time>
      </trkpt>
      <trkpt lat="40.243517" lon="-4.902867">
        <ele>1737.0</ele>
        <time>2014-08-31T12:14:05Z</time>
      </trkpt>
      <trkpt lat="40.243367" lon="-4.902800">
        <ele>1729.0</ele>
        <time>2014-08-31T12:14:07Z</time>
      </trkpt>
      <trkpt lat="40.243200" lon="-4.902750">
        <ele>1721.0</ele>
        <time>2014-08-31T12:14:09Z</time>
      </trkpt>
      <trkpt lat="40.243033" lon="-4.902717">
        <ele>1713.0</ele>
        <time>2014-08-31T12:14:11Z</time>
      </trkpt>
      <trkpt lat="40.242867" lon="-4.902700">
        <ele>1705.0</ele>
        <time>2014-08-31T12:14:13Z</time>
      </trkpt>
      <trkpt lat="40.242700" lon="-4.902683">
        <ele>1696.0</ele>
        <time>2014-08-31T12:14:15Z</time>
      </trkpt>
      <trkpt lat="40.242533" lon="-4.902683">
        <ele>1687.0</ele>
        <time>2014-08-31T12:14:17Z</time>
      </trkpt>
      <trkpt lat="40.242350" lon="-4.902700">
        <ele>1678.0</ele>
        <time>2014-08-31T12:14:19Z</time>
      </trkpt>
      <trkpt lat="40.242200" lon="-4.902717">
        <ele>1671.0</ele>
        <time>2014-08-31T12:14:21Z</time>
      </trkpt>
      <trkpt lat="40.242033" lon="-4.902717">
        <ele>1662.0</ele>
        <time>2014-08-31T12:14:23Z</time>
      </trkpt>
      <trkpt lat="40.241867" lon="-4.902767">
        <ele>1654.0</ele>
        <time>2014-08-31T12:14:25Z</time>
      </trkpt>
      <trkpt lat="40.241717" lon="-4.902817">
        <ele>1649.0</ele>
        <time>2014-08-31T12:14:27Z</time>
      </trkpt>
      <trkpt lat="40.241567" lon="-4.902833">
        <ele>1642.0</ele>
        <time>2014-08-31T12:14:29Z</time>
      </trkpt>
      <trkpt lat="40.241400" lon="-4.902817">
        <ele>1634.0</ele>
        <time>2014-08-31T12:14:31Z</time>
      </trkpt>
      <trkpt lat="40.241217" lon="-4.902817">
        <ele>1627.0</ele>
        <time>2014-08-31T12:14:33Z</time>
      </trkpt>
      <trkpt lat="40.241050" lon="-4.902817">
        <ele>1622.0</ele>
        <time>2014-08-31T12:14:35Z</time>
      </trkpt>
      <trkpt lat="40.240883" lon="-4.902767">
        <ele>1616.0</ele>
        <time>2014-08-31T12:14:37Z</time>
      </trkpt>
      <trkpt lat="40.240700" lon="-4.902700">
        <ele>1609.0</ele>
        <time>2014-08-31T12:14:39Z</time>
      </trkpt>
      <trkpt lat="40.240533" lon="-4.902650">
        <ele>1603.0</ele>
        <time>2014-08-31T12:14:41Z</time>
      </trkpt>
      <trkpt lat="40.240350" lon="-4.902633">
        <ele>1598.0</ele>
        <time>2014-08-31T12:14:43Z</time>
      </trkpt>
      <trkpt lat="40.240167" lon="-4.902633">
        <ele>1591.0</ele>
        <time>2014-08-31T12:14:45Z</time>
      </trkpt>
      <trkpt lat="40.239983" lon="-4.902667">
        <ele>1585.0</ele>
        <time>2014-08-31T12:14:47Z</time>
      </trkpt>
      <trkpt lat="40.239817" lon="-4.902700">
        <ele>1580.0</ele>
        <time>2014-08-31T12:14:49Z</time>
      </trkpt>
      <trkpt lat="40.239633" lon="-4.902733">
        <ele>1575.0</ele>
        <time>2014-08-31T12:14:51Z</time>
      </trkpt>
      <trkpt lat="40.239450" lon="-4.902767">
        <ele>1570.0</ele>
        <time>2014-08-31T12:14:53Z</time>
      </trkpt>
      <trkpt lat="40.239283" lon="-4.902817">
        <ele>1566.0</ele>
        <time>2014-08-31T12:14:55Z</time>
      </trkpt>
      <trkpt lat="40.239100" lon="-4.902850">
        <ele>1562.0</ele>
        <time>2014-08-31T12:14:57Z</time>
      </trkpt>
      <trkpt lat="40.238933" lon="-4.902900">
        <ele>1559.0</ele>
        <time>2014-08-31T12:14:59Z</time>
      </trkpt>
      <trkpt lat="40.238783" lon="-4.902967">
        <ele>1555.0</ele>
        <time>2014-08-31T12:15:01Z</time>
      </trkpt>
      <trkpt lat="40.238617" lon="-4.903050">
        <ele>1553.0</ele>
        <time>2014-08-31T12:15:03Z</time>
      </trkpt>
      <trkpt lat="40.238467" lon="-4.903083">
        <ele>1552.0</ele>
        <time>2014-08-31T12:15:05Z</time>
      </trkpt>
      <trkpt lat="40.238300" lon="-4.903067">
        <ele>1550.0</ele>
        <time>2014-08-31T12:15:07Z</time>
      </trkpt>
      <trkpt lat="40.238117" lon="-4.903050">
        <ele>1548.0</ele>
        <time>2014-08-31T12:15:09Z</time>
      </trkpt>
      <trkpt lat="40.237933" lon="-4.903033">
        <ele>1546.0</ele>
        <time>2014-08-31T12:15:11Z</time>
      </trkpt>
      <trkpt lat="40.237733" lon="-4.903000">
        <ele>1544.0</ele>
        <time>2014-08-31T12:15:13Z</time>
      </trkpt>
      <trkpt lat="40.237533" lon="-4.902967">
        <ele>1543.0</ele>
        <time>2014-08-31T12:15:15Z</time>
      </trkpt>
      <trkpt lat="40.237350" lon="-4.902933">
        <ele>1544.0</ele>
        <time>2014-08-31T12:15:17Z</time>
      </trkpt>
      <trkpt lat="40.237183" lon="-4.902950">
        <ele>1541.0</ele>
        <time>2014-08-31T12:15:19Z</time>
      </trkpt>
      <trkpt lat="40.237033" lon="-4.903033">
        <ele>1539.0</ele>
        <time>2014-08-31T12:15:21Z</time>
      </trkpt>
      <trkpt lat="40.236933" lon="-4.903150">
        <ele>1537.0</ele>
        <time>2014-08-31T12:15:23Z</time>
      </trkpt>
      <trkpt lat="40.236800" lon="-4.903250">
        <ele>1535.0</ele>
        <time>2014-08-31T12:15:25Z</time>
      </trkpt>
      <trkpt lat="40.236650" lon="-4.903283">
        <ele>1534.0</ele>
        <time>2014-08-31T12:15:27Z</time>
      </trkpt>
      <trkpt lat="40.236500" lon="-4.903250">
        <ele>1531.0</ele>
        <time>2014-08-31T12:15:29Z</time>
      </trkpt>
      <trkpt lat="40.236333" lon="-4.903217">
        <ele>1529.0</ele>
        <time>2014-08-31T12:15:31Z</time>
      </trkpt>
      <trkpt lat="40.236167" lon="-4.903200">
        <ele>1530.0</ele>
        <time>2014-08-31T12:15:33Z</time>
      </trkpt>
      <trkpt lat="40.236017" lon="-4.903183">
        <ele>1529.0</ele>
        <time>2014-08-31T12:15:35Z</time>
      </trkpt>
      <trkpt lat="40.235883" lon="-4.903233">
        <ele>1526.0</ele>
        <time>2014-08-31T12:15:37Z</time>
      </trkpt>
      <trkpt lat="40.235767" lon="-4.903367">
        <ele>1522.0</ele>
        <time>2014-08-31T12:15:39Z</time>
      </trkpt>
      <trkpt lat="40.235733" lon="-4.903533">
        <ele>1519.0</ele>
        <time>2014-08-31T12:15:41Z</time>
      </trkpt>
      <trkpt lat="40.235767" lon="-4.903700">
        <ele>1515.0</ele>
        <time>2014-08-31T12:15:43Z</time>
      </trkpt>
      <trkpt lat="40.235800" lon="-4.903900">
        <ele>1510.0</ele>
        <time>2014-08-31T12:15:45Z</time>
      </trkpt>
      <trkpt lat="40.235833" lon="-4.904067">
        <ele>1509.0</ele>
        <time>2014-08-31T12:15:47Z</time>
      </trkpt>
      <trkpt lat="40.235883" lon="-4.904217">
        <ele>1505.0</ele>
        <time>2014-08-31T12:15:49Z</time>
      </trkpt>
      <trkpt lat="40.235917" lon="-4.904400">
        <ele>1501.0</ele>
        <time>2014-08-31T12:15:51Z</time>
      </trkpt>
      <trkpt lat="40.235967" lon="-4.904600">
        <ele>1500.0</ele>
        <time>2014-08-31T12:15:53Z</time>
      </trkpt>
      <trkpt lat="40.235983" lon="-4.904767">
        <ele>1498.0</ele>
        <time>2014-08-31T12:15:55Z</time>
      </trkpt>
      <trkpt lat="40.235950" lon="-4.904933">
        <ele>1494.0</ele>
        <time>2014-08-31T12:15:57Z</time>
      </trkpt>
      <trkpt lat="40.235817" lon="-4.905017">
        <ele>1490.0</ele>
        <time>2014-08-31T12:15:59Z</time>
      </trkpt>
      <trkpt lat="40.235633" lon="-4.904983">
        <ele>1488.0</ele>
        <time>2014-08-31T12:16:01Z</time>
      </trkpt>
      <trkpt lat="40.235483" lon="-4.904883">
        <ele>1485.0</ele>
        <time>2014-08-31T12:16:03Z</time>
      </trkpt>
      <trkpt lat="40.235350" lon="-4.904750">
        <ele>1480.0</ele>
        <time>2014-08-31T12:16:05Z</time>
      </trkpt>
      <trkpt lat="40.235183" lon="-4.904567">
        <ele>1473.0</ele>
        <time>2014-08-31T12:16:07Z</time>
      </trkpt>
      <trkpt lat="40.235033" lon="-4.904383">
        <ele>1471.0</ele>
        <time>2014-08-31T12:16:09Z</time>
      </trkpt>
      <trkpt lat="40.234900" lon="-4.904233">
        <ele>1468.0</ele>
        <time>2014-08-31T12:16:11Z</time>
      </trkpt>
      <trkpt lat="40.234750" lon="-4.904067">
        <ele>1463.0</ele>
        <time>2014-08-31T12:16:13Z</time>
      </trkpt>
      <trkpt lat="40.234600" lon="-4.903917">
        <ele>1459.0</ele>
        <time>2014-08-31T12:16:15Z</time>
      </trkpt>
      <trkpt lat="40.234450" lon="-4.903767">
        <ele>1456.0</ele>
        <time>2014-08-31T12:16:17Z</time>
      </trkpt>
      <trkpt lat="40.234300" lon="-4.903633">
        <ele>1452.0</ele>
        <time>2014-08-31T12:16:19Z</time>
      </trkpt>
      <trkpt lat="40.234217" lon="-4.903567">
        <ele>1450.0</ele>
        <time>2014-08-31T12:16:20Z</time>
      </trkpt>
      <trkpt lat="40.234050" lon="-4.903450">
        <ele>1447.0</ele>
        <time>2014-08-31T12:16:22Z</time>
      </trkpt>
      <trkpt lat="40.233883" lon="-4.903333">
        <ele>1443.0</ele>
        <time>2014-08-31T12:16:24Z</time>
      </trkpt>
      <trkpt lat="40.233717" lon="-4.903250">
        <ele>1439.0</ele>
        <time>2014-08-31T12:16:26Z</time>
      </trkpt>
      <trkpt lat="40.233550" lon="-4.903267">
        <ele>1436.0</ele>
        <time>2014-08-31T12:16:28Z</time>
      </trkpt>
      <trkpt lat="40.233433" lon="-4.903417">
        <ele>1432.0</ele>
        <time>2014-08-31T12:16:30Z</time>
      </trkpt>
      <trkpt lat="40.233400" lon="-4.903600">
        <ele>1429.0</ele>
        <time>2014-08-31T12:16:32Z</time>
      </trkpt>
      <trkpt lat="40.233383" lon="-4.903783">
        <ele>1426.0</ele>
        <time>2014-08-31T12:16:34Z</time>
      </trkpt>
      <trkpt lat="40.233417" lon="-4.904000">
        <ele>1421.0</ele>
        <time>2014-08-31T12:16:36Z</time>
      </trkpt>
      <trkpt lat="40.233450" lon="-4.904200">
        <ele>1419.0</ele>
        <time>2014-08-31T12:16:38Z</time>
      </trkpt>
      <trkpt lat="40.233483" lon="-4.904367">
        <ele>1418.0</ele>
        <time>2014-08-31T12:16:40Z</time>
      </trkpt>
      <trkpt lat="40.233533" lon="-4.904567">
        <ele>1413.0</ele>
        <time>2014-08-31T12:16:42Z</time>
      </trkpt>
      <trkpt lat="40.233600" lon="-4.904767">
        <ele>1410.0</ele>
        <time>2014-08-31T12:16:44Z</time>
      </trkpt>
      <trkpt lat="40.233683" lon="-4.904933">
        <ele>1408.0</ele>
        <time>2014-08-31T12:16:46Z</time>
      </trkpt>
      <trkpt lat="40.233750" lon="-4.905100">
        <ele>1403.0</ele>
        <time>2014-08-31T12:16:48Z</time>
      </trkpt>
      <trkpt lat="40.233850" lon="-4.905283">
        <ele>1397.0</ele>
        <time>2014-08-31T12:16:50Z</time>
      </trkpt>
      <trkpt lat="40.233933" lon="-4.905450">
        <ele>1392.0</ele>
        <time>2014-08-31T12:16:52Z</time>
      </trkpt>
      <trkpt lat="40.234033" lon="-4.905650">
        <ele>1387.0</ele>
        <time>2014-08-31T12:16:54Z</time>
      </trkpt>
      <trkpt lat="40.234150" lon="-4.905833">
        <ele>1385.0</ele>
        <time>2014-08-31T12:16:56Z</time>
      </trkpt>
      <trkpt lat="40.234250" lon="-4.905983">
        <ele>1383.0</ele>
        <time>2014-08-31T12:16:58Z</time>
      </trkpt>
      <trkpt lat="40.234383" lon="-4.906117">
        <ele>1379.0</ele>
        <time>2014-08-31T12:17:00Z</time>
      </trkpt>
      <trkpt lat="40.234517" lon="-4.906283">
        <ele>1375.0</ele>
        <time>2014-08-31T12:17:02Z</time>
      </trkpt>
      <trkpt lat="40.234650" lon="-4.906450">
        <ele>1373.0</ele>
        <time>2014-08-31T12:17:04Z</time>
      </trkpt>
      <trkpt lat="40.234750" lon="-4.906583">
        <ele>1372.0</ele>
        <time>2014-08-31T12:17:06Z</time>
      </trkpt>
      <trkpt lat="40.234867" lon="-4.906717">
        <ele>1368.0</ele>
        <time>2014-08-31T12:17:08Z</time>
      </trkpt>
      <trkpt lat="40.235017" lon="-4.906900">
        <ele>1363.0</ele>
        <time>2014-08-31T12:17:10Z</time>
      </trkpt>
      <trkpt lat="40.235133" lon="-4.907067">
        <ele>1362.0</ele>
        <time>2014-08-31T12:17:12Z</time>
      </trkpt>
      <trkpt lat="40.235233" lon="-4.907233">
        <ele>1359.0</ele>
        <time>2014-08-31T12:17:14Z</time>
      </trkpt>
      <trkpt lat="40.235350" lon="-4.907433">
        <ele>1352.0</ele>
        <time>2014-08-31T12:17:16Z</time>
      </trkpt>
      <trkpt lat="40.235433" lon="-4.907617">
        <ele>1348.0</ele>
        <time>2014-08-31T12:17:18Z</time>
      </trkpt>
      <trkpt lat="40.235517" lon="-4.907800">
        <ele>1345.0</ele>
        <time>2014-08-31T12:17:20Z</time>
      </trkpt>
      <trkpt lat="40.235583" lon="-4.908000">
        <ele>1342.0</ele>
        <time>2014-08-31T12:17:22Z</time>
      </trkpt>
      <trkpt lat="40.235650" lon="-4.908200">
        <ele>1337.0</ele>
        <time>2014-08-31T12:17:24Z</time>
      </trkpt>
      <trkpt lat="40.235733" lon="-4.908400">
        <ele>1333.0</ele>
        <time>2014-08-31T12:17:26Z</time>
      </trkpt>
      <trkpt lat="40.235800" lon="-4.908567">
        <ele>1328.0</ele>
        <time>2014-08-31T12:17:28Z</time>
      </trkpt>
      <trkpt lat="40.235883" lon="-4.908750">
        <ele>1324.0</ele>
        <time>2014-08-31T12:17:30Z</time>
      </trkpt>
      <trkpt lat="40.235950" lon="-4.908917">
        <ele>1321.0</ele>
        <time>2014-08-31T12:17:32Z</time>
      </trkpt>
      <trkpt lat="40.235983" lon="-4.909100">
        <ele>1319.0</ele>
        <time>2014-08-31T12:17:34Z</time>
      </trkpt>
      <trkpt lat="40.236000" lon="-4.909300">
        <ele>1316.0</ele>
        <time>2014-08-31T12:17:36Z</time>
      </trkpt>
      <trkpt lat="40.236017" lon="-4.909500">
        <ele>1314.0</ele>
        <time>2014-08-31T12:17:38Z</time>
      </trkpt>
      <trkpt lat="40.236033" lon="-4.909700">
        <ele>1312.0</ele>
        <time>2014-08-31T12:17:40Z</time>
      </trkpt>
      <trkpt lat="40.236067" lon="-4.909917">
        <ele>1308.0</ele>
        <time>2014-08-31T12:17:42Z</time>
      </trkpt>
      <trkpt lat="40.236100" lon="-4.910133">
        <ele>1304.0</ele>
        <time>2014-08-31T12:17:44Z</time>
      </trkpt>
      <trkpt lat="40.236133" lon="-4.910350">
        <ele>1299.0</ele>
        <time>2014-08-31T12:17:46Z</time>
      </trkpt>
      <trkpt lat="40.236167" lon="-4.910567">
        <ele>1294.0</ele>
        <time>2014-08-31T12:17:48Z</time>
      </trkpt>
      <trkpt lat="40.236200" lon="-4.910767">
        <ele>1290.0</ele>
        <time>2014-08-31T12:17:50Z</time>
      </trkpt>
      <trkpt lat="40.236250" lon="-4.910967">
        <ele>1285.0</ele>
        <time>2014-08-31T12:17:52Z</time>
      </trkpt>
      <trkpt lat="40.236317" lon="-4.911167">
        <ele>1279.0</ele>
        <time>2014-08-31T12:17:54Z</time>
      </trkpt>
      <trkpt lat="40.236400" lon="-4.911367">
        <ele>1274.0</ele>
        <time>2014-08-31T12:17:56Z</time>
      </trkpt>
      <trkpt lat="40.236483" lon="-4.911550">
        <ele>1270.0</ele>
        <time>2014-08-31T12:17:58Z</time>
      </trkpt>
      <trkpt lat="40.236567" lon="-4.911717">
        <ele>1268.0</ele>
        <time>2014-08-31T12:18:00Z</time>
      </trkpt>
      <trkpt lat="40.236650" lon="-4.911883">
        <ele>1265.0</ele>
        <time>2014-08-31T12:18:02Z</time>
      </trkpt>
      <trkpt lat="40.236717" lon="-4.912067">
        <ele>1263.0</ele>
        <time>2014-08-31T12:18:04Z</time>
      </trkpt>
      <trkpt lat="40.236800" lon="-4.912283">
        <ele>1260.0</ele>
        <time>2014-08-31T12:18:06Z</time>
      </trkpt>
      <trkpt lat="40.236850" lon="-4.912483">
        <ele>1260.0</ele>
        <time>2014-08-31T12:18:08Z</time>
      </trkpt>
      <trkpt lat="40.236917" lon="-4.912683">
        <ele>1258.0</ele>
        <time>2014-08-31T12:18:10Z</time>
      </trkpt>
      <trkpt lat="40.236983" lon="-4.912900">
        <ele>1254.0</ele>
        <time>2014-08-31T12:18:12Z</time>
      </trkpt>
      <trkpt lat="40.237083" lon="-4.913133">
        <ele>1253.0</ele>
        <time>2014-08-31T12:18:14Z</time>
      </trkpt>
      <trkpt lat="40.237183" lon="-4.913317">
        <ele>1253.0</ele>
        <time>2014-08-31T12:18:16Z</time>
      </trkpt>
      <trkpt lat="40.237283" lon="-4.913500">
        <ele>1252.0</ele>
        <time>2014-08-31T12:18:18Z</time>
      </trkpt>
      <trkpt lat="40.237367" lon="-4.913717">
        <ele>1251.0</ele>
        <time>2014-08-31T12:18:20Z</time>
      </trkpt>
      <trkpt lat="40.237450" lon="-4.913917">
        <ele>1250.0</ele>
        <time>2014-08-31T12:18:22Z</time>
      </trkpt>
      <trkpt lat="40.237517" lon="-4.914133">
        <ele>1249.0</ele>
        <time>2014-08-31T12:18:24Z</time>
      </trkpt>
      <trkpt lat="40.237600" lon="-4.914333">
        <ele>1248.0</ele>
        <time>2014-08-31T12:18:26Z</time>
      </trkpt>
      <trkpt lat="40.237700" lon="-4.914517">
        <ele>1246.0</ele>
        <time>2014-08-31T12:18:28Z</time>
      </trkpt>
      <trkpt lat="40.237767" lon="-4.914700">
        <ele>1241.0</ele>
        <time>2014-08-31T12:18:30Z</time>
      </trkpt>
      <trkpt lat="40.237833" lon="-4.914917">
        <ele>1236.0</ele>
        <time>2014-08-31T12:18:32Z</time>
      </trkpt>
      <trkpt lat="40.237950" lon="-4.915167">
        <ele>1232.0</ele>
        <time>2014-08-31T12:18:34Z</time>
      </trkpt>
      <trkpt lat="40.238067" lon="-4.915433">
        <ele>1231.0</ele>
        <time>2014-08-31T12:18:36Z</time>
      </trkpt>
      <trkpt lat="40.238150" lon="-4.915667">
        <ele>1232.0</ele>
        <time>2014-08-31T12:18:38Z</time>
      </trkpt>
      <trkpt lat="40.238233" lon="-4.915917">
        <ele>1232.0</ele>
        <time>2014-08-31T12:18:40Z</time>
      </trkpt>
      <trkpt lat="40.238333" lon="-4.916167">
        <ele>1231.0</ele>
        <time>2014-08-31T12:18:42Z</time>
      </trkpt>
      <trkpt lat="40.238433" lon="-4.916400">
        <ele>1230.0</ele>
        <time>2014-08-31T12:18:44Z</time>
      </trkpt>
      <trkpt lat="40.238500" lon="-4.916667">
        <ele>1227.0</ele>
        <time>2014-08-31T12:18:46Z</time>
      </trkpt>
      <trkpt lat="40.238517" lon="-4.916817">
        <ele>1228.0</ele>
        <time>2014-08-31T12:18:47Z</time>
      </trkpt>
      <trkpt lat="40.238583" lon="-4.917067">
        <ele>1231.0</ele>
        <time>2014-08-31T12:18:49Z</time>
      </trkpt>
      <trkpt lat="40.238617" lon="-4.917300">
        <ele>1230.0</ele>
        <time>2014-08-31T12:18:51Z</time>
      </trkpt>
      <trkpt lat="40.238683" lon="-4.917533">
        <ele>1229.0</ele>
        <time>2014-08-31T12:18:53Z</time>
      </trkpt>
      <trkpt lat="40.238767" lon="-4.917783">
        <ele>1229.0</ele>
        <time>2014-08-31T12:18:55Z</time>
      </trkpt>
      <trkpt lat="40.238833" lon="-4.918033">
        <ele>1232.0</ele>
        <time>2014-08-31T12:18:57Z</time>
      </trkpt>
      <trkpt lat="40.238933" lon="-4.918250">
        <ele>1235.0</ele>
        <time>2014-08-31T12:18:59Z</time>
      </trkpt>
      <trkpt lat="40.239067" lon="-4.918450">
        <ele>1238.0</ele>
        <time>2014-08-31T12:19:01Z</time>
      </trkpt>
      <trkpt lat="40.239233" lon="-4.918600">
        <ele>1241.0</ele>
        <time>2014-08-31T12:19:03Z</time>
      </trkpt>
      <trkpt lat="40.239417" lon="-4.918700">
        <ele>1243.0</ele>
        <time>2014-08-31T12:19:05Z</time>
      </trkpt>
      <trkpt lat="40.239633" lon="-4.918733">
        <ele>1241.0</ele>
        <time>2014-08-31T12:19:07Z</time>
      </trkpt>
      <trkpt lat="40.239850" lon="-4.918733">
        <ele>1242.0</ele>
        <time>2014-08-31T12:19:09Z</time>
      </trkpt>
      <trkpt lat="40.240033" lon="-4.918683">
        <ele>1244.0</ele>
        <time>2014-08-31T12:19:11Z</time>
      </trkpt>
      <trkpt lat="40.240200" lon="-4.918550">
        <ele>1243.0</ele>
        <time>2014-08-31T12:19:13Z</time>
      </trkpt>
      <trkpt lat="40.240333" lon="-4.918367">
        <ele>1244.0</ele>
        <time>2014-08-31T12:19:15Z</time>
      </trkpt>
      <trkpt lat="40.240417" lon="-4.918183">
        <ele>1246.0</ele>
        <time>2014-08-31T12:19:17Z</time>
      </trkpt>
      <trkpt lat="40.240400" lon="-4.917967">
        <ele>1247.0</ele>
        <time>2014-08-31T12:19:19Z</time>
      </trkpt>
      <trkpt lat="40.240333" lon="-4.917833">
        <ele>1251.0</ele>
        <time>2014-08-31T12:19:21Z</time>
      </trkpt>
      <trkpt lat="40.240233" lon="-4.917783">
        <ele>1256.0</ele>
        <time>2014-08-31T12:19:23Z</time>
      </trkpt>
      <trkpt lat="40.240117" lon="-4.917800">
        <ele>1259.0</ele>
        <time>2014-08-31T12:19:25Z</time>
      </trkpt>
      <trkpt lat="40.240017" lon="-4.917900">
        <ele>1260.0</ele>
        <time>2014-08-31T12:19:27Z</time>
      </trkpt>
      <trkpt lat="40.239950" lon="-4.918067">
        <ele>1261.0</ele>
        <time>2014-08-31T12:19:29Z</time>
      </trkpt>
      <trkpt lat="40.239900" lon="-4.918283">
        <ele>1263.0</ele>
        <time>2014-08-31T12:19:31Z</time>
      </trkpt>
      <trkpt lat="40.239917" lon="-4.918533">
        <ele>1266.0</ele>
        <time>2014-08-31T12:19:33Z</time>
      </trkpt>
      <trkpt lat="40.239967" lon="-4.918767">
        <ele>1269.0</ele>
        <time>2014-08-31T12:19:35Z</time>
      </trkpt>
      <trkpt lat="40.240050" lon="-4.918983">
        <ele>1270.0</ele>
        <time>2014-08-31T12:19:37Z</time>
      </trkpt>
      <trkpt lat="40.240217" lon="-4.919183">
        <ele>1272.0</ele>
        <time>2014-08-31T12:19:39Z</time>
      </trkpt>
      <trkpt lat="40.240400" lon="-4.919267">
        <ele>1276.0</ele>
        <time>2014-08-31T12:19:41Z</time>
      </trkpt>
      <trkpt lat="40.240600" lon="-4.919267">
        <ele>1279.0</ele>
        <time>2014-08-31T12:19:43Z</time>
      </trkpt>
      <trkpt lat="40.240800" lon="-4.919183">
        <ele>1280.0</ele>
        <time>2014-08-31T12:19:45Z</time>
      </trkpt>
      <trkpt lat="40.240967" lon="-4.919033">
        <ele>1282.0</ele>
        <time>2014-08-31T12:19:47Z</time>
      </trkpt>
      <trkpt lat="40.241033" lon="-4.918867">
        <ele>1285.0</ele>
        <time>2014-08-31T12:19:49Z</time>
      </trkpt>
      <trkpt lat="40.241050" lon="-4.918667">
        <ele>1288.0</ele>
        <time>2014-08-31T12:19:51Z</time>
      </trkpt>
      <trkpt lat="40.241000" lon="-4.918500">
        <ele>1292.0</ele>
        <time>2014-08-31T12:19:53Z</time>
      </trkpt>
      <trkpt lat="40.240900" lon="-4.918433">
        <ele>1297.0</ele>
        <time>2014-08-31T12:19:55Z</time>
      </trkpt>
      <trkpt lat="40.240800" lon="-4.918467">
        <ele>1298.0</ele>
        <time>2014-08-31T12:19:57Z</time>
      </trkpt>
      <trkpt lat="40.240683" lon="-4.918600">
        <ele>1298.0</ele>
        <time>2014-08-31T12:19:59Z</time>
      </trkpt>
      <trkpt lat="40.240617" lon="-4.918817">
        <ele>1300.0</ele>
        <time>2014-08-31T12:20:01Z</time>
      </trkpt>
      <trkpt lat="40.240617" lon="-4.919050">
        <ele>1304.0</ele>
        <time>2014-08-31T12:20:03Z</time>
      </trkpt>
      <trkpt lat="40.240683" lon="-4.919300">
        <ele>1306.0</ele>
        <time>2014-08-31T12:20:05Z</time>
      </trkpt>
      <trkpt lat="40.240750" lon="-4.919533">
        <ele>1308.0</ele>
        <time>2014-08-31T12:20:07Z</time>
      </trkpt>
      <trkpt lat="40.240900" lon="-4.919750">
        <ele>1310.0</ele>
        <time>2014-08-31T12:20:09Z</time>
      </trkpt>
      <trkpt lat="40.241117" lon="-4.919883">
        <ele>1315.0</ele>
        <time>2014-08-31T12:20:11Z</time>
      </trkpt>
      <trkpt lat="40.241300" lon="-4.919917">
        <ele>1321.0</ele>
        <time>2014-08-31T12:20:13Z</time>
      </trkpt>
      <trkpt lat="40.241467" lon="-4.919817">
        <ele>1324.0</ele>
        <time>2014-08-31T12:20:15Z</time>
      </trkpt>
      <trkpt lat="40.241600" lon="-4.919617">
        <ele>1328.0</ele>
        <time>2014-08-31T12:20:17Z</time>
      </trkpt>
      <trkpt lat="40.241633" lon="-4.919400">
        <ele>1331.0</ele>
        <time>2014-08-31T12:20:19Z</time>
      </trkpt>
      <trkpt lat="40.241567" lon="-4.919233">
        <ele>1336.0</ele>
        <time>2014-08-31T12:20:21Z</time>
      </trkpt>
      <trkpt lat="40.241450" lon="-4.919167">
        <ele>1340.0</ele>
        <time>2014-08-31T12:20:23Z</time>
      </trkpt>
      <trkpt lat="40.241317" lon="-4.919217">
        <ele>1342.0</ele>
        <time>2014-08-31T12:20:25Z</time>
      </trkpt>
      <trkpt lat="40.241217" lon="-4.919367">
        <ele>1344.0</ele>
        <time>2014-08-31T12:20:27Z</time>
      </trkpt>
      <trkpt lat="40.241150" lon="-4.919567">
        <ele>1346.0</ele>
        <time>2014-08-31T12:20:29Z</time>
      </trkpt>
      <trkpt lat="40.241117" lon="-4.919783">
        <ele>1349.0</ele>
        <time>2014-08-31T12:20:31Z</time>
      </trkpt>
      <trkpt lat="40.241167" lon="-4.920000">
        <ele>1354.0</ele>
        <time>2014-08-31T12:20:33Z</time>
      </trkpt>
      <trkpt lat="40.241283" lon="-4.920217">
        <ele>1356.0</ele>
        <time>2014-08-31T12:20:35Z</time>
      </trkpt>
      <trkpt lat="40.241467" lon="-4.920383">
        <ele>1359.0</ele>
        <time>2014-08-31T12:20:37Z</time>
      </trkpt>
      <trkpt lat="40.241683" lon="-4.920467">
        <ele>1362.0</ele>
        <time>2014-08-31T12:20:39Z</time>
      </trkpt>
      <trkpt lat="40.241917" lon="-4.920417">
        <ele>1363.0</ele>
        <time>2014-08-31T12:20:41Z</time>
      </trkpt>
      <trkpt lat="40.242117" lon="-4.920300">
        <ele>1366.0</ele>
        <time>2014-08-31T12:20:43Z</time>
      </trkpt>
      <trkpt lat="40.242283" lon="-4.920133">
        <ele>1370.0</ele>
        <time>2014-08-31T12:20:45Z</time>
      </trkpt>
      <trkpt lat="40.242350" lon="-4.919917">
        <ele>1373.0</ele>
        <time>2014-08-31T12:20:47Z</time>
      </trkpt>
      <trkpt lat="40.242350" lon="-4.919700">
        <ele>1377.0</ele>
        <time>2014-08-31T12:20:49Z</time>
      </trkpt>
      <trkpt lat="40.242283" lon="-4.919550">
        <ele>1381.0</ele>
        <time>2014-08-31T12:20:51Z</time>
      </trkpt>
      <trkpt lat="40.242150" lon="-4.919483">
        <ele>1383.0</ele>
        <time>2014-08-31T12:20:53Z</time>
      </trkpt>
      <trkpt lat="40.242017" lon="-4.919550">
        <ele>1387.0</ele>
        <time>2014-08-31T12:20:55Z</time>
      </trkpt>
      <trkpt lat="40.241917" lon="-4.919700">
        <ele>1390.0</ele>
        <time>2014-08-31T12:20:57Z</time>
      </trkpt>
      <trkpt lat="40.241867" lon="-4.919900">
        <ele>1392.0</ele>
        <time>2014-08-31T12:20:59Z</time>
      </trkpt>
      <trkpt lat="40.241850" lon="-4.920167">
        <ele>1396.0</ele>
        <time>2014-08-31T12:21:01Z</time>
      </trkpt>
      <trkpt lat="40.241917" lon="-4.920400">
        <ele>1402.0</ele>
        <time>2014-08-31T12:21:03Z</time>
      </trkpt>
      <trkpt lat="40.242083" lon="-4.920600">
        <ele>1405.0</ele>
        <time>2014-08-31T12:21:05Z</time>
      </trkpt>
      <trkpt lat="40.242300" lon="-4.920667">
        <ele>1409.0</ele>
        <time>2014-08-31T12:21:07Z</time>
      </trkpt>
      <trkpt lat="40.242500" lon="-4.920667">
        <ele>1412.0</ele>
        <time>2014-08-31T12:21:09Z</time>
      </trkpt>
      <trkpt lat="40.242700" lon="-4.920550">
        <ele>1412.0</ele>
        <time>2014-08-31T12:21:11Z</time>
      </trkpt>
      <trkpt lat="40.242833" lon="-4.920333">
        <ele>1416.0</ele>
        <time>2014-08-31T12:21:13Z</time>
      </trkpt>
      <trkpt lat="40.242867" lon="-4.920150">
        <ele>1419.0</ele>
        <time>2014-08-31T12:21:15Z</time>
      </trkpt>
      <trkpt lat="40.242850" lon="-4.919950">
        <ele>1420.0</ele>
        <time>2014-08-31T12:21:17Z</time>
      </trkpt>
      <trkpt lat="40.242783" lon="-4.919767">
        <ele>1422.0</ele>
        <time>2014-08-31T12:21:19Z</time>
      </trkpt>
      <trkpt lat="40.242650" lon="-4.919733">
        <ele>1424.0</ele>
        <time>2014-08-31T12:21:21Z</time>
      </trkpt>
      <trkpt lat="40.242517" lon="-4.919767">
        <ele>1429.0</ele>
        <time>2014-08-31T12:21:23Z</time>
      </trkpt>
      <trkpt lat="40.242433" lon="-4.919917">
        <ele>1433.0</ele>
        <time>2014-08-31T12:21:25Z</time>
      </trkpt>
      <trkpt lat="40.242400" lon="-4.920167">
        <ele>1435.0</ele>
        <time>2014-08-31T12:21:27Z</time>
      </trkpt>
      <trkpt lat="40.242467" lon="-4.920367">
        <ele>1442.0</ele>
        <time>2014-08-31T12:21:29Z</time>
      </trkpt>
      <trkpt lat="40.242617" lon="-4.920500">
        <ele>1445.0</ele>
        <time>2014-08-31T12:21:31Z</time>
      </trkpt>
      <trkpt lat="40.242833" lon="-4.920533">
        <ele>1450.0</ele>
        <time>2014-08-31T12:21:33Z</time>
      </trkpt>
      <trkpt lat="40.243000" lon="-4.920450">
        <ele>1452.0</ele>
        <time>2014-08-31T12:21:35Z</time>
      </trkpt>
      <trkpt lat="40.243117" lon="-4.920267">
        <ele>1450.0</ele>
        <time>2014-08-31T12:21:37Z</time>
      </trkpt>
      <trkpt lat="40.243167" lon="-4.920017">
        <ele>1453.0</ele>
        <time>2014-08-31T12:21:39Z</time>
      </trkpt>
      <trkpt lat="40.243167" lon="-4.919833">
        <ele>1458.0</ele>
        <time>2014-08-31T12:21:41Z</time>
      </trkpt>
      <trkpt lat="40.243117" lon="-4.919667">
        <ele>1460.0</ele>
        <time>2014-08-31T12:21:43Z</time>
      </trkpt>
      <trkpt lat="40.243000" lon="-4.919533">
        <ele>1461.0</ele>
        <time>2014-08-31T12:21:45Z</time>
      </trkpt>
      <trkpt lat="40.242867" lon="-4.919550">
        <ele>1464.0</ele>
        <time>2014-08-31T12:21:47Z</time>
      </trkpt>
      <trkpt lat="40.242750" lon="-4.919600">
        <ele>1467.0</ele>
        <time>2014-08-31T12:21:49Z</time>
      </trkpt>
      <trkpt lat="40.242650" lon="-4.919733">
        <ele>1469.0</ele>
        <time>2014-08-31T12:21:51Z</time>
      </trkpt>
      <trkpt lat="40.242600" lon="-4.919983">
        <ele>1472.0</ele>
        <time>2014-08-31T12:21:53Z</time>
      </trkpt>
      <trkpt lat="40.242633" lon="-4.920200">
        <ele>1478.0</ele>
        <time>2014-08-31T12:21:55Z</time>
      </trkpt>
      <trkpt lat="40.242750" lon="-4.920350">
        <ele>1480.0</ele>
        <time>2014-08-31T12:21:57Z</time>
      </trkpt>
      <trkpt lat="40.242917" lon="-4.920517">
        <ele>1479.0</ele>
        <time>2014-08-31T12:21:59Z</time>
      </trkpt>
      <trkpt lat="40.243167" lon="-4.920600">
        <ele>1480.0</ele>
        <time>2014-08-31T12:22:01Z</time>
      </trkpt>
      <trkpt lat="40.243383" lon="-4.920567">
        <ele>1484.0</ele>
        <time>2014-08-31T12:22:03Z</time>
      </trkpt>
      <trkpt lat="40.243550" lon="-4.920500">
        <ele>1488.0</ele>
        <time>2014-08-31T12:22:05Z</time>
      </trkpt>
      <trkpt lat="40.243717" lon="-4.920350">
        <ele>1487.0</ele>
        <time>2014-08-31T12:22:07Z</time>
      </trkpt>
      <trkpt lat="40.243833" lon="-4.920150">
        <ele>1489.0</ele>
        <time>2014-08-31T12:22:09Z</time>
      </trkpt>
      <trkpt lat="40.243900" lon="-4.919917">
        <ele>1493.0</ele>
        <time>2014-08-31T12:22:11Z</time>
      </trkpt>
      <trkpt lat="40.243933" lon="-4.919700">
        <ele>1496.0</ele>
        <time>2014-08-31T12:22:13Z</time>
      </trkpt>
      <trkpt lat="40.243900" lon="-4.919500">
        <ele>1496.0</ele>
        <time>2014-08-31T12:22:15Z</time>
      </trkpt>
      <trkpt lat="40.243783" lon="-4.919350">
        <ele>1498.0</ele>
        <time>2014-08-31T12:22:17Z</time>
      </trkpt>
      <trkpt lat="40.243667" lon="-4.919283">
        <ele>1502.0</ele>
        <time>2014-08-31T12:22:19Z</time>
      </trkpt>
      <trkpt lat="40.243533" lon="-4.919317">
        <ele>1505.0</ele>
        <time>2014-08-31T12:22:21Z</time>
      </trkpt>
      <trkpt lat="40.243433" lon="-4.919433">
        <ele>1507.0</ele>
        <time>2014-08-31T12:22:23Z</time>
      </trkpt>
      <trkpt lat="40.243417" lon="-4.919650">
        <ele>1511.0</ele>
        <time>2014-08-31T12:22:25Z</time>
      </trkpt>
      <trkpt lat="40.243483" lon="-4.919833">
        <ele>1517.0</ele>
        <time>2014-08-31T12:22:27Z</time>
      </trkpt>
      <trkpt lat="40.243617" lon="-4.919967">
        <ele>1520.0</ele>
        <time>2014-08-31T12:22:29Z</time>
      </trkpt>
      <trkpt lat="40.243767" lon="-4.920083">
        <ele>1522.0</ele>
        <time>2014-08-31T12:22:31Z</time>
      </trkpt>
      <trkpt lat="40.243933" lon="-4.920133">
        <ele>1524.0</ele>
        <time>2014-08-31T12:22:33Z</time>
      </trkpt>
      <trkpt lat="40.244150" lon="-4.920117">
        <ele>1525.0</ele>
        <time>2014-08-31T12:22:35Z</time>
      </trkpt>
      <trkpt lat="40.244333" lon="-4.920017">
        <ele>1529.0</ele>
        <time>2014-08-31T12:22:37Z</time>
      </trkpt>
      <trkpt lat="40.244467" lon="-4.919883">
        <ele>1533.0</ele>
        <time>2014-08-31T12:22:39Z</time>
      </trkpt>
      <trkpt lat="40.244567" lon="-4.919667">
        <ele>1533.0</ele>
        <time>2014-08-31T12:22:41Z</time>
      </trkpt>
      <trkpt lat="40.244567" lon="-4.919400">
        <ele>1533.0</ele>
        <time>2014-08-31T12:22:43Z</time>
      </trkpt>
      <trkpt lat="40.244483" lon="-4.919200">
        <ele>1534.0</ele>
        <time>2014-08-31T12:22:45Z</time>
      </trkpt>
      <trkpt lat="40.244350" lon="-4.919067">
        <ele>1539.0</ele>
        <time>2014-08-31T12:22:47Z</time>
      </trkpt>
      <trkpt lat="40.244217" lon="-4.919000">
        <ele>1543.0</ele>
        <time>2014-08-31T12:22:49Z</time>
      </trkpt>
      <trkpt lat="40.244083" lon="-4.919000">
        <ele>1546.0</ele>
        <time>2014-08-31T12:22:51Z</time>
      </trkpt>
      <trkpt lat="40.243983" lon="-4.919100">
        <ele>1548.0</ele>
        <time>2014-08-31T12:22:53Z</time>
      </trkpt>
      <trkpt lat="40.243917" lon="-4.919283">
        <ele>1550.0</ele>
        <time>2014-08-31T12:22:55Z</time>
      </trkpt>
      <trkpt lat="40.243933" lon="-4.919467">
        <ele>1555.0</ele>
        <time>2014-08-31T12:22:57Z</time>
      </trkpt>
      <trkpt lat="40.244000" lon="-4.919617">
        <ele>1557.0</ele>
        <time>2014-08-31T12:22:59Z</time>
      </trkpt>
      <trkpt lat="40.244150" lon="-4.919733">
        <ele>1558.0</ele>
        <time>2014-08-31T12:23:01Z</time>
      </trkpt>
      <trkpt lat="40.244350" lon="-4.919800">
        <ele>1559.0</ele>
        <time>2014-08-31T12:23:03Z</time>
      </trkpt>
      <trkpt lat="40.244533" lon="-4.919817">
        <ele>1561.0</ele>
        <time>2014-08-31T12:23:05Z</time>
      </trkpt>
      <trkpt lat="40.244717" lon="-4.919800">
        <ele>1563.0</ele>
        <time>2014-08-31T12:23:07Z</time>
      </trkpt>
      <trkpt lat="40.244933" lon="-4.919700">
        <ele>1567.0</ele>
        <time>2014-08-31T12:23:09Z</time>
      </trkpt>
      <trkpt lat="40.245117" lon="-4.919533">
        <ele>1574.0</ele>
        <time>2014-08-31T12:23:11Z</time>
      </trkpt>
      <trkpt lat="40.245267" lon="-4.919400">
        <ele>1579.0</ele>
        <time>2014-08-31T12:23:13Z</time>
      </trkpt>
      <trkpt lat="40.245433" lon="-4.919250">
        <ele>1581.0</ele>
        <time>2014-08-31T12:23:15Z</time>
      </trkpt>
      <trkpt lat="40.245617" lon="-4.919033">
        <ele>1585.0</ele>
        <time>2014-08-31T12:23:17Z</time>
      </trkpt>
      <trkpt lat="40.245700" lon="-4.918800">
        <ele>1590.0</ele>
        <time>2014-08-31T12:23:19Z</time>
      </trkpt>
      <trkpt lat="40.245733" lon="-4.918550">
        <ele>1592.0</ele>
        <time>2014-08-31T12:23:21Z</time>
      </trkpt>
      <trkpt lat="40.245717" lon="-4.918317">
        <ele>1594.0</ele>
        <time>2014-08-31T12:23:23Z</time>
      </trkpt>
      <trkpt lat="40.245617" lon="-4.918150">
        <ele>1594.0</ele>
        <time>2014-08-31T12:23:25Z</time>
      </trkpt>
      <trkpt lat="40.245467" lon="-4.918017">
        <ele>1596.0</ele>
        <time>2014-08-31T12:23:27Z</time>
      </trkpt>
      <trkpt lat="40.245333" lon="-4.917917">
        <ele>1599.0</ele>
        <time>2014-08-31T12:23:29Z</time>
      </trkpt>
      <trkpt lat="40.245200" lon="-4.917900">
        <ele>1601.0</ele>
        <time>2014-08-31T12:23:31Z</time>
      </trkpt>
      <trkpt lat="40.245067" lon="-4.917983">
        <ele>1603.0</ele>
        <time>2014-08-31T12:23:33Z</time>
      </trkpt>
      <trkpt lat="40.245000" lon="-4.918117">
        <ele>1607.0</ele>
        <time>2014-08-31T12:23:35Z</time>
      </trkpt>
      <trkpt lat="40.244983" lon="-4.918267">
        <ele>1612.0</ele>
        <time>2014-08-31T12:23:37Z</time>
      </trkpt>
      <trkpt lat="40.244983" lon="-4.918417">
        <ele>1614.0</ele>
        <time>2014-08-31T12:23:39Z</time>
      </trkpt>
      <trkpt lat="40.245033" lon="-4.918600">
        <ele>1615.0</ele>
        <time>2014-08-31T12:23:41Z</time>
      </trkpt>
      <trkpt lat="40.245117" lon="-4.918800">
        <ele>1621.0</ele>
        <time>2014-08-31T12:23:43Z</time>
      </trkpt>
      <trkpt lat="40.245233" lon="-4.918917">
        <ele>1629.0</ele>
        <time>2014-08-31T12:23:45Z</time>
      </trkpt>
      <trkpt lat="40.245367" lon="-4.918983">
        <ele>1634.0</ele>
        <time>2014-08-31T12:23:47Z</time>
      </trkpt>
      <trkpt lat="40.245533" lon="-4.919000">
        <ele>1637.0</ele>
        <time>2014-08-31T12:23:49Z</time>
      </trkpt>
      <trkpt lat="40.245767" lon="-4.918950">
        <ele>1640.0</ele>
        <time>2014-08-31T12:23:51Z</time>
      </trkpt>
      <trkpt lat="40.245950" lon="-4.918850">
        <ele>1645.0</ele>
        <time>2014-08-31T12:23:53Z</time>
      </trkpt>
      <trkpt lat="40.246117" lon="-4.918667">
        <ele>1645.0</ele>
        <time>2014-08-31T12:23:55Z</time>
      </trkpt>
      <trkpt lat="40.246217" lon="-4.918400">
        <ele>1646.0</ele>
        <time>2014-08-31T12:23:57Z</time>
      </trkpt>
      <trkpt lat="40.246267" lon="-4.918133">
        <ele>1651.0</ele>
        <time>2014-08-31T12:23:59Z</time>
      </trkpt>
      <trkpt lat="40.246283" lon="-4.917917">
        <ele>1653.0</ele>
        <time>2014-08-31T12:24:01Z</time>
      </trkpt>
      <trkpt lat="40.246200" lon="-4.917700">
        <ele>1652.0</ele>
        <time>2014-08-31T12:24:03Z</time>
      </trkpt>
      <trkpt lat="40.246083" lon="-4.917533">
        <ele>1652.0</ele>
        <time>2014-08-31T12:24:05Z</time>
      </trkpt>
      <trkpt lat="40.245950" lon="-4.917433">
        <ele>1655.0</ele>
        <time>2014-08-31T12:24:07Z</time>
      </trkpt>
      <trkpt lat="40.245817" lon="-4.917433">
        <ele>1655.0</ele>
        <time>2014-08-31T12:24:09Z</time>
      </trkpt>
      <trkpt lat="40.245683" lon="-4.917533">
        <ele>1656.0</ele>
        <time>2014-08-31T12:24:11Z</time>
      </trkpt>
      <trkpt lat="40.245600" lon="-4.917667">
        <ele>1661.0</ele>
        <time>2014-08-31T12:24:13Z</time>
      </trkpt>
      <trkpt lat="40.245567" lon="-4.917850">
        <ele>1667.0</ele>
        <time>2014-08-31T12:24:15Z</time>
      </trkpt>
      <trkpt lat="40.245583" lon="-4.918017">
        <ele>1671.0</ele>
        <time>2014-08-31T12:24:17Z</time>
      </trkpt>
      <trkpt lat="40.245650" lon="-4.918200">
        <ele>1674.0</ele>
        <time>2014-08-31T12:24:19Z</time>
      </trkpt>
      <trkpt lat="40.245750" lon="-4.918367">
        <ele>1680.0</ele>
        <time>2014-08-31T12:24:21Z</time>
      </trkpt>
      <trkpt lat="40.245867" lon="-4.918467">
        <ele>1687.0</ele>
        <time>2014-08-31T12:24:23Z</time>
      </trkpt>
      <trkpt lat="40.246017" lon="-4.918533">
        <ele>1690.0</ele>
        <time>2014-08-31T12:24:25Z</time>
      </trkpt>
      <trkpt lat="40.246233" lon="-4.918517">
        <ele>1692.0</ele>
        <time>2014-08-31T12:24:27Z</time>
      </trkpt>
      <trkpt lat="40.246417" lon="-4.918450">
        <ele>1697.0</ele>
        <time>2014-08-31T12:24:29Z</time>
      </trkpt>
      <trkpt lat="40.246583" lon="-4.918300">
        <ele>1696.0</ele>
        <time>2014-08-31T12:24:31Z</time>
      </trkpt>
      <trkpt lat="40.246700" lon="-4.918050">
        <ele>1695.0</ele>
        <time>2014-08-31T12:24:33Z</time>
      </trkpt>
      <trkpt lat="40.246683" lon="-4.917767">
        <ele>1698.0</ele>
        <time>2014-08-31T12:24:35Z</time>
      </trkpt>
      <trkpt lat="40.246583" lon="-4.917583">
        <ele>1701.0</ele>
        <time>2014-08-31T12:24:37Z</time>
      </trkpt>
      <trkpt lat="40.246467" lon="-4.917483">
        <ele>1704.0</ele>
        <time>2014-08-31T12:24:39Z</time>
      </trkpt>
      <trkpt lat="40.246317" lon="-4.917517">
        <ele>1707.0</ele>
        <time>2014-08-31T12:24:41Z</time>
      </trkpt>
      <trkpt lat="40.246233" lon="-4.917633">
        <ele>1712.0</ele>
        <time>2014-08-31T12:24:43Z</time>
      </trkpt>
      <trkpt lat="40.246200" lon="-4.917783">
        <ele>1713.0</ele>
        <time>2014-08-31T12:24:45Z</time>
      </trkpt>
      <trkpt lat="40.246250" lon="-4.917983">
        <ele>1715.0</ele>
        <time>2014-08-31T12:24:47Z</time>
      </trkpt>
      <trkpt lat="40.246367" lon="-4.918133">
        <ele>1720.0</ele>
        <time>2014-08-31T12:24:49Z</time>
      </trkpt>
      <trkpt lat="40.246533" lon="-4.918167">
        <ele>1723.0</ele>
        <time>2014-08-31T12:24:51Z</time>
      </trkpt>
      <trkpt lat="40.246717" lon="-4.918167">
        <ele>1724.0</ele>
        <time>2014-08-31T12:24:53Z</time>
      </trkpt>
      <trkpt lat="40.246933" lon="-4.918100">
        <ele>1725.0</ele>
        <time>2014-08-31T12:24:55Z</time>
      </trkpt>
      <trkpt lat="40.247117" lon="-4.917983">
        <ele>1726.0</ele>
        <time>2014-08-31T12:24:57Z</time>
      </trkpt>
      <trkpt lat="40.247300" lon="-4.917833">
        <ele>1729.0</ele>
        <time>2014-08-31T12:24:59Z</time>
      </trkpt>
      <trkpt lat="40.247467" lon="-4.917667">
        <ele>1730.0</ele>
        <time>2014-08-31T12:25:01Z</time>
      </trkpt>
      <trkpt lat="40.247583" lon="-4.917433">
        <ele>1731.0</ele>
        <time>2014-08-31T12:25:03Z</time>
      </trkpt>
      <trkpt lat="40.247567" lon="-4.917183">
        <ele>1731.0</ele>
        <time>2014-08-31T12:25:05Z</time>
      </trkpt>
      <trkpt lat="40.247500" lon="-4.916967">
        <ele>1734.0</ele>
        <time>2014-08-31T12:25:07Z</time>
      </trkpt>
      <trkpt lat="40.247400" lon="-4.916833">
        <ele>1737.0</ele>
        <time>2014-08-31T12:25:09Z</time>
      </trkpt>
      <trkpt lat="40.247250" lon="-4.916817">
        <ele>1737.0</ele>
        <time>2014-08-31T12:25:11Z</time>
      </trkpt>
      <trkpt lat="40.247117" lon="-4.916900">
        <ele>1739.0</ele>
        <time>2014-08-31T12:25:13Z</time>
      </trkpt>
      <trkpt lat="40.247050" lon="-4.917017">
        <ele>1745.0</ele>
        <time>2014-08-31T12:25:15Z</time>
      </trkpt>
      <trkpt lat="40.247067" lon="-4.917167">
        <ele>1748.0</ele>
        <time>2014-08-31T12:25:17Z</time>
      </trkpt>
      <trkpt lat="40.247167" lon="-4.917333">
        <ele>1750.0</ele>
        <time>2014-08-31T12:25:19Z</time>
      </trkpt>
      <trkpt lat="40.247317" lon="-4.917433">
        <ele>1751.0</ele>
        <time>2014-08-31T12:25:21Z</time>
      </trkpt>
      <trkpt lat="40.247517" lon="-4.917483">
        <ele>1753.0</ele>
        <time>2014-08-31T12:25:23Z</time>
      </trkpt>
      <trkpt lat="40.247717" lon="-4.917467">
        <ele>1755.0</ele>
        <time>2014-08-31T12:25:25Z</time>
      </trkpt>
      <trkpt lat="40.247917" lon="-4.917400">
        <ele>1757.0</ele>
        <time>2014-08-31T12:25:27Z</time>
      </trkpt>
      <trkpt lat="40.248100" lon="-4.917250">
        <ele>1757.0</ele>
        <time>2014-08-31T12:25:29Z</time>
      </trkpt>
      <trkpt lat="40.248233" lon="-4.917033">
        <ele>1756.0</ele>
        <time>2014-08-31T12:25:31Z</time>
      </trkpt>
      <trkpt lat="40.248317" lon="-4.916783">
        <ele>1758.0</ele>
        <time>2014-08-31T12:25:33Z</time>
      </trkpt>
      <trkpt lat="40.248333" lon="-4.916567">
        <ele>1760.0</ele>
        <time>2014-08-31T12:25:35Z</time>
      </trkpt>
      <trkpt lat="40.248300" lon="-4.916367">
        <ele>1759.0</ele>
        <time>2014-08-31T12:25:37Z</time>
      </trkpt>
      <trkpt lat="40.248200" lon="-4.916183">
        <ele>1757.0</ele>
        <time>2014-08-31T12:25:39Z</time>
      </trkpt>
      <trkpt lat="40.248067" lon="-4.916083">
        <ele>1757.0</ele>
        <time>2014-08-31T12:25:41Z</time>
      </trkpt>
      <trkpt lat="40.247917" lon="-4.916083">
        <ele>1757.0</ele>
        <time>2014-08-31T12:25:43Z</time>
      </trkpt>
      <trkpt lat="40.247800" lon="-4.916183">
        <ele>1758.0</ele>
        <time>2014-08-31T12:25:45Z</time>
      </trkpt>
      <trkpt lat="40.247733" lon="-4.916333">
        <ele>1757.0</ele>
        <time>2014-08-31T12:25:47Z</time>
      </trkpt>
      <trkpt lat="40.247683" lon="-4.916550">
        <ele>1757.0</ele>
        <time>2014-08-31T12:25:49Z</time>
      </trkpt>
      <trkpt lat="40.247617" lon="-4.916750">
        <ele>1763.0</ele>
        <time>2014-08-31T12:25:51Z</time>
      </trkpt>
      <trkpt lat="40.247583" lon="-4.916917">
        <ele>1767.0</ele>
        <time>2014-08-31T12:25:53Z</time>
      </trkpt>
      <trkpt lat="40.247583" lon="-4.917067">
        <ele>1770.0</ele>
        <time>2014-08-31T12:25:55Z</time>
      </trkpt>
      <trkpt lat="40.247633" lon="-4.917233">
        <ele>1770.0</ele>
        <time>2014-08-31T12:25:57Z</time>
      </trkpt>
      <trkpt lat="40.247750" lon="-4.917400">
        <ele>1771.0</ele>
        <time>2014-08-31T12:25:59Z</time>
      </trkpt>
      <trkpt lat="40.247900" lon="-4.917550">
        <ele>1774.0</ele>
        <time>2014-08-31T12:26:01Z</time>
      </trkpt>
      <trkpt lat="40.248033" lon="-4.917700">
        <ele>1777.0</ele>
        <time>2014-08-31T12:26:03Z</time>
      </trkpt>
      <trkpt lat="40.248117" lon="-4.917883">
        <ele>1781.0</ele>
        <time>2014-08-31T12:26:05Z</time>
      </trkpt>
      <trkpt lat="40.248117" lon="-4.918050">
        <ele>1786.0</ele>
        <time>2014-08-31T12:26:07Z</time>
      </trkpt>
      <trkpt lat="40.248017" lon="-4.918150">
        <ele>1792.0</ele>
        <time>2014-08-31T12:26:09Z</time>
      </trkpt>
      <trkpt lat="40.247867" lon="-4.918133">
        <ele>1798.0</ele>
        <time>2014-08-31T12:26:11Z</time>
      </trkpt>
      <trkpt lat="40.247750" lon="-4.918000">
        <ele>1805.0</ele>
        <time>2014-08-31T12:26:13Z</time>
      </trkpt>
      <trkpt lat="40.247700" lon="-4.917767">
        <ele>1812.0</ele>
        <time>2014-08-31T12:26:15Z</time>
      </trkpt>
      <trkpt lat="40.247733" lon="-4.917483">
        <ele>1815.0</ele>
        <time>2014-08-31T12:26:17Z</time>
      </trkpt>
      <trkpt lat="40.247850" lon="-4.917200">
        <ele>1819.0</ele>
        <time>2014-08-31T12:26:19Z</time>
      </trkpt>
      <trkpt lat="40.248067" lon="-4.917067">
        <ele>1822.0</ele>
        <time>2014-08-31T12:26:21Z</time>
      </trkpt>
      <trkpt lat="40.248267" lon="-4.917067">
        <ele>1824.0</ele>
        <time>2014-08-31T12:26:23Z</time>
      </trkpt>
      <trkpt lat="40.248433" lon="-4.917167">
        <ele>1825.0</ele>
        <time>2014-08-31T12:26:25Z</time>
      </trkpt>
      <trkpt lat="40.248567" lon="-4.917317">
        <ele>1826.0</ele>
        <time>2014-08-31T12:26:27Z</time>
      </trkpt>
      <trkpt lat="40.248650" lon="-4.917533">
        <ele>1828.0</ele>
        <time>2014-08-31T12:26:29Z</time>
      </trkpt>
      <trkpt lat="40.248667" lon="-4.917750">
        <ele>1830.0</ele>
        <time>2014-08-31T12:26:31Z</time>
      </trkpt>
      <trkpt lat="40.248583" lon="-4.917950">
        <ele>1834.0</ele>
        <time>2014-08-31T12:26:33Z</time>
      </trkpt>
      <trkpt lat="40.248450" lon="-4.918083">
        <ele>1840.0</ele>
        <time>2014-08-31T12:26:35Z</time>
      </trkpt>
      <trkpt lat="40.248300" lon="-4.918133">
        <ele>1845.0</ele>
        <time>2014-08-31T12:26:37Z</time>
      </trkpt>
      <trkpt lat="40.248150" lon="-4.918133">
        <ele>1849.0</ele>
        <time>2014-08-31T12:26:39Z</time>
      </trkpt>
      <trkpt lat="40.247983" lon="-4.918000">
        <ele>1855.0</ele>
        <time>2014-08-31T12:26:41Z</time>
      </trkpt>
      <trkpt lat="40.247867" lon="-4.917817">
        <ele>1864.0</ele>
        <time>2014-08-31T12:26:43Z</time>
      </trkpt>
      <trkpt lat="40.247800" lon="-4.917633">
        <ele>1873.0</ele>
        <time>2014-08-31T12:26:45Z</time>
      </trkpt>
      <trkpt lat="40.247817" lon="-4.917400">
        <ele>1875.0</ele>
        <time>2014-08-31T12:26:47Z</time>
      </trkpt>
      <trkpt lat="40.247900" lon="-4.917117">
        <ele>1878.0</ele>
        <time>2014-08-31T12:26:49Z</time>
      </trkpt>
      <trkpt lat="40.248000" lon="-4.916883">
        <ele>1883.0</ele>
        <time>2014-08-31T12:26:51Z</time>
      </trkpt>
      <trkpt lat="40.248183" lon="-4.916717">
        <ele>1885.0</ele>
        <time>2014-08-31T12:26:53Z</time>
      </trkpt>
      <trkpt lat="40.248417" lon="-4.916617">
        <ele>1889.0</ele>
        <time>2014-08-31T12:26:55Z</time>
      </trkpt>
      <trkpt lat="40.248600" lon="-4.916650">
        <ele>1896.0</ele>
        <time>2014-08-31T12:26:57Z</time>
      </trkpt>
      <trkpt lat="40.248750" lon="-4.916750">
        <ele>1899.0</ele>
        <time>2014-08-31T12:26:59Z</time>
      </trkpt>
      <trkpt lat="40.248883" lon="-4.916917">
        <ele>1901.0</ele>
        <time>2014-08-31T12:27:01Z</time>
      </trkpt>
      <trkpt lat="40.248967" lon="-4.917150">
        <ele>1907.0</ele>
        <time>2014-08-31T12:27:03Z</time>
      </trkpt>
      <trkpt lat="40.248950" lon="-4.917333">
        <ele>1913.0</ele>
        <time>2014-08-31T12:27:05Z</time>
      </trkpt>
      <trkpt lat="40.248867" lon="-4.917483">
        <ele>1914.0</ele>
        <time>2014-08-31T12:27:07Z</time>
      </trkpt>
      <trkpt lat="40.248733" lon="-4.917633">
        <ele>1915.0</ele>
        <time>2014-08-31T12:27:09Z</time>
      </trkpt>
      <trkpt lat="40.248583" lon="-4.917683">
        <ele>1919.0</ele>
        <time>2014-08-31T12:27:11Z</time>
      </trkpt>
      <trkpt lat="40.248417" lon="-4.917633">
        <ele>1925.0</ele>
        <time>2014-08-31T12:27:13Z</time>
      </trkpt>
      <trkpt lat="40.248300" lon="-4.917533">
        <ele>1931.0</ele>
        <time>2014-08-31T12:27:15Z</time>
      </trkpt>
      <trkpt lat="40.248217" lon="-4.917400">
        <ele>1935.0</ele>
        <time>2014-08-31T12:27:17Z</time>
      </trkpt>
      <trkpt lat="40.248133" lon="-4.917150">
        <ele>1939.0</ele>
        <time>2014-08-31T12:27:19Z</time>
      </trkpt>
      <trkpt lat="40.248100" lon="-4.916900">
        <ele>1947.0</ele>
        <time>2014-08-31T12:27:21Z</time>
      </trkpt>
      <trkpt lat="40.248133" lon="-4.916683">
        <ele>1948.0</ele>
        <time>2014-08-31T12:27:23Z</time>
      </trkpt>
      <trkpt lat="40.248267" lon="-4.916417">
        <ele>1948.0</ele>
        <time>2014-08-31T12:27:25Z</time>
      </trkpt>
      <trkpt lat="40.248467" lon="-4.916233">
        <ele>1948.0</ele>
        <time>2014-08-31T12:27:27Z</time>
      </trkpt>
      <trkpt lat="40.248700" lon="-4.916133">
        <ele>1950.0</ele>
        <time>2014-08-31T12:27:29Z</time>
      </trkpt>
      <trkpt lat="40.248900" lon="-4.916100">
        <ele>1953.0</ele>
        <time>2014-08-31T12:27:31Z</time>
      </trkpt>
      <trkpt lat="40.249117" lon="-4.916083">
        <ele>1954.0</ele>
        <time>2014-08-31T12:27:33Z</time>
      </trkpt>
      <trkpt lat="40.249317" lon="-4.916167">
        <ele>1957.0</ele>
        <time>2014-08-31T12:27:35Z</time>
      </trkpt>
      <trkpt lat="40.249450" lon="-4.916317">
        <ele>1959.0</ele>
        <time>2014-08-31T12:27:37Z</time>
      </trkpt>
      <trkpt lat="40.249517" lon="-4.916500">
        <ele>1961.0</ele>
        <time>2014-08-31T12:27:39Z</time>
      </trkpt>
      <trkpt lat="40.249533" lon="-4.916717">
        <ele>1964.0</ele>
        <time>2014-08-31T12:27:41Z</time>
      </trkpt>
      <trkpt lat="40.249550" lon="-4.916883">
        <ele>1966.0</ele>
        <time>2014-08-31T12:27:43Z</time>
      </trkpt>
      <trkpt lat="40.249500" lon="-4.917067">
        <ele>1965.0</ele>
        <time>2014-08-31T12:27:45Z</time>
      </trkpt>
      <trkpt lat="40.249367" lon="-4.917250">
        <ele>1966.0</ele>
        <time>2014-08-31T12:27:47Z</time>
      </trkpt>
      <trkpt lat="40.249233" lon="-4.917350">
        <ele>1971.0</ele>
        <time>2014-08-31T12:27:49Z</time>
      </trkpt>
      <trkpt lat="40.249067" lon="-4.917350">
        <ele>1973.0</ele>
        <time>2014-08-31T12:27:51Z</time>
      </trkpt>
      <trkpt lat="40.248883" lon="-4.917283">
        <ele>1976.0</ele>
        <time>2014-08-31T12:27:53Z</time>
      </trkpt>
      <trkpt lat="40.248733" lon="-4.917083">
        <ele>1981.0</ele>
        <time>2014-08-31T12:27:55Z</time>
      </trkpt>
      <trkpt lat="40.248633" lon="-4.916900">
        <ele>1988.0</ele>
        <time>2014-08-31T12:27:57Z</time>
      </trkpt>
      <trkpt lat="40.248600" lon="-4.916667">
        <ele>1991.0</ele>
        <time>2014-08-31T12:27:59Z</time>
      </trkpt>
      <trkpt lat="40.248633" lon="-4.916333">
        <ele>1993.0</ele>
        <time>2014-08-31T12:28:01Z</time>
      </trkpt>
      <trkpt lat="40.248750" lon="-4.916050">
        <ele>2001.0</ele>
        <time>2014-08-31T12:28:03Z</time>
      </trkpt>
      <trkpt lat="40.248900" lon="-4.915850">
        <ele>2006.0</ele>
        <time>2014-08-31T12:28:05Z</time>
      </trkpt>
      <trkpt lat="40.249083" lon="-4.915683">
        <ele>2009.0</ele>
        <time>2014-08-31T12:28:07Z</time>
      </trkpt>
      <trkpt lat="40.249300" lon="-4.915633">
        <ele>2008.0</ele>
        <time>2014-08-31T12:28:09Z</time>
      </trkpt>
      <trkpt lat="40.249517" lon="-4.915750">
        <ele>2007.0</ele>
        <time>2014-08-31T12:28:11Z</time>
      </trkpt>
      <trkpt lat="40.249650" lon="-4.915917">
        <ele>2009.0</ele>
        <time>2014-08-31T12:28:13Z</time>
      </trkpt>
      <trkpt lat="40.249717" lon="-4.916100">
        <ele>2012.0</ele>
        <time>2014-08-31T12:28:15Z</time>
      </trkpt>
      <trkpt lat="40.249733" lon="-4.916283">
        <ele>2011.0</ele>
        <time>2014-08-31T12:28:17Z</time>
      </trkpt>
      <trkpt lat="40.249667" lon="-4.916500">
        <ele>2011.0</ele>
        <time>2014-08-31T12:28:19Z</time>
      </trkpt>
      <trkpt lat="40.249567" lon="-4.916700">
        <ele>2014.0</ele>
        <time>2014-08-31T12:28:21Z</time>
      </trkpt>
      <trkpt lat="40.249450" lon="-4.916850">
        <ele>2021.0</ele>
        <time>2014-08-31T12:28:23Z</time>
      </trkpt>
      <trkpt lat="40.249333" lon="-4.916950">
        <ele>2026.0</ele>
        <time>2014-08-31T12:28:25Z</time>
      </trkpt>
      <trkpt lat="40.249217" lon="-4.916983">
        <ele>2031.0</ele>
        <time>2014-08-31T12:28:27Z</time>
      </trkpt>
      <trkpt lat="40.249083" lon="-4.916967">
        <ele>2034.0</ele>
        <time>2014-08-31T12:28:29Z</time>
      </trkpt>
      <trkpt lat="40.248933" lon="-4.916900">
        <ele>2039.0</ele>
        <time>2014-08-31T12:28:31Z</time>
      </trkpt>
      <trkpt lat="40.248833" lon="-4.916817">
        <ele>2045.0</ele>
        <time>2014-08-31T12:28:33Z</time>
      </trkpt>
      <trkpt lat="40.248750" lon="-4.916650">
        <ele>2049.0</ele>
        <time>2014-08-31T12:28:35Z</time>
      </trkpt>
      <trkpt lat="40.248683" lon="-4.916400">
        <ele>2051.0</ele>
        <time>2014-08-31T12:28:37Z</time>
      </trkpt>
      <trkpt lat="40.248667" lon="-4.916167">
        <ele>2057.0</ele>
        <time>2014-08-31T12:28:39Z</time>
      </trkpt>
      <trkpt lat="40.248717" lon="-4.915933">
        <ele>2060.0</ele>
        <time>2014-08-31T12:28:41Z</time>
      </trkpt>
      <trkpt lat="40.248817" lon="-4.915667">
        <ele>2058.0</ele>
        <time>2014-08-31T12:28:43Z</time>
      </trkpt>
      <trkpt lat="40.249000" lon="-4.915383">
        <ele>2060.0</ele>
        <time>2014-08-31T12:28:45Z</time>
      </trkpt>
      <trkpt lat="40.249150" lon="-4.915150">
        <ele>2068.0</ele>
        <time>2014-08-31T12:28:47Z</time>
      </trkpt>
      <trkpt lat="40.249300" lon="-4.914967">
        <ele>2072.0</ele>
        <time>2014-08-31T12:28:49Z</time>
      </trkpt>
      <trkpt lat="40.249500" lon="-4.914867">
        <ele>2075.0</ele>
        <time>2014-08-31T12:28:51Z</time>
      </trkpt>
      <trkpt lat="40.249750" lon="-4.914883">
        <ele>2076.0</ele>
        <time>2014-08-31T12:28:53Z</time>
      </trkpt>
      <trkpt lat="40.249933" lon="-4.914983">
        <ele>2080.0</ele>
        <time>2014-08-31T12:28:55Z</time>
      </trkpt>
      <trkpt lat="40.250050" lon="-4.915150">
        <ele>2082.0</ele>
        <time>2014-08-31T12:28:57Z</time>
      </trkpt>
      <trkpt lat="40.250100" lon="-4.915367">
        <ele>2081.0</ele>
        <time>2014-08-31T12:28:59Z</time>
      </trkpt>
      <trkpt lat="40.250050" lon="-4.915583">
        <ele>2082.0</ele>
        <time>2014-08-31T12:29:01Z</time>
      </trkpt>
      <trkpt lat="40.249950" lon="-4.915750">
        <ele>2084.0</ele>
        <time>2014-08-31T12:29:03Z</time>
      </trkpt>
      <trkpt lat="40.249850" lon="-4.915883">
        <ele>2089.0</ele>
        <time>2014-08-31T12:29:05Z</time>
      </trkpt>
      <trkpt lat="40.249733" lon="-4.915967">
        <ele>2092.0</ele>
        <time>2014-08-31T12:29:07Z</time>
      </trkpt>
      <trkpt lat="40.249567" lon="-4.916017">
        <ele>2092.0</ele>
        <time>2014-08-31T12:29:09Z</time>
      </trkpt>
      <trkpt lat="40.249417" lon="-4.916033">
        <ele>2093.0</ele>
        <time>2014-08-31T12:29:11Z</time>
      </trkpt>
      <trkpt lat="40.249300" lon="-4.916000">
        <ele>2093.0</ele>
        <time>2014-08-31T12:29:13Z</time>
      </trkpt>
      <trkpt lat="40.249150" lon="-4.915867">
        <ele>2093.0</ele>
        <time>2014-08-31T12:29:15Z</time>
      </trkpt>
      <trkpt lat="40.249033" lon="-4.915667">
        <ele>2101.0</ele>
        <time>2014-08-31T12:29:17Z</time>
      </trkpt>
      <trkpt lat="40.248983" lon="-4.915483">
        <ele>2107.0</ele>
        <time>2014-08-31T12:29:19Z</time>
      </trkpt>
      <trkpt lat="40.248983" lon="-4.915233">
        <ele>2108.0</ele>
        <time>2014-08-31T12:29:21Z</time>
      </trkpt>
      <trkpt lat="40.249017" lon="-4.914933">
        <ele>2112.0</ele>
        <time>2014-08-31T12:29:23Z</time>
      </trkpt>
      <trkpt lat="40.249133" lon="-4.914683">
        <ele>2118.0</ele>
        <time>2014-08-31T12:29:25Z</time>
      </trkpt>
      <trkpt lat="40.249283" lon="-4.914483">
        <ele>2122.0</ele>
        <time>2014-08-31T12:29:27Z</time>
      </trkpt>
      <trkpt lat="40.249467" lon="-4.914333">
        <ele>2126.0</ele>
        <time>2014-08-31T12:29:29Z</time>
      </trkpt>
      <trkpt lat="40.249650" lon="-4.914267">
        <ele>2128.0</ele>
        <time>2014-08-31T12:29:31Z</time>
      </trkpt>
      <trkpt lat="40.249850" lon="-4.914300">
        <ele>2129.0</ele>
        <time>2014-08-31T12:29:33Z</time>
      </trkpt>
      <trkpt lat="40.250017" lon="-4.914417">
        <ele>2129.0</ele>
        <time>2014-08-31T12:29:35Z</time>
      </trkpt>
      <trkpt lat="40.250133" lon="-4.914600">
        <ele>2131.0</ele>
        <time>2014-08-31T12:29:37Z</time>
      </trkpt>
      <trkpt lat="40.250200" lon="-4.914800">
        <ele>2134.0</ele>
        <time>2014-08-31T12:29:39Z</time>
      </trkpt>
      <trkpt lat="40.250167" lon="-4.914983">
        <ele>2136.0</ele>
        <time>2014-08-31T12:29:41Z</time>
      </trkpt>
      <trkpt lat="40.250050" lon="-4.915117">
        <ele>2138.0</ele>
        <time>2014-08-31T12:29:43Z</time>
      </trkpt>
      <trkpt lat="40.249900" lon="-4.915233">
        <ele>2139.0</ele>
        <time>2014-08-31T12:29:45Z</time>
      </trkpt>
      <trkpt lat="40.249783" lon="-4.915283">
        <ele>2142.0</ele>
        <time>2014-08-31T12:29:47Z</time>
      </trkpt>
      <trkpt lat="40.249667" lon="-4.915283">
        <ele>2140.0</ele>
        <time>2014-08-31T12:29:49Z</time>
      </trkpt>
      <trkpt lat="40.249500" lon="-4.915233">
        <ele>2141.0</ele>
        <time>2014-08-31T12:29:51Z</time>
      </trkpt>
      <trkpt lat="40.249350" lon="-4.915167">
        <ele>2147.0</ele>
        <time>2014-08-31T12:29:53Z</time>
      </trkpt>
      <trkpt lat="40.249233" lon="-4.915050">
        <ele>2151.0</ele>
        <time>2014-08-31T12:29:55Z</time>
      </trkpt>
      <trkpt lat="40.249117" lon="-4.914900">
        <ele>2155.0</ele>
        <time>2014-08-31T12:29:57Z</time>
      </trkpt>
      <trkpt lat="40.249033" lon="-4.914650">
        <ele>2160.0</ele>
        <time>2014-08-31T12:29:59Z</time>
      </trkpt>
      <trkpt lat="40.249017" lon="-4.914383">
        <ele>2163.0</ele>
        <time>2014-08-31T12:30:01Z</time>
      </trkpt>
      <trkpt lat="40.249067" lon="-4.914100">
        <ele>2166.0</ele>
        <time>2014-08-31T12:30:03Z</time>
      </trkpt>
      <trkpt lat="40.249167" lon="-4.913850">
        <ele>2173.0</ele>
        <time>2014-08-31T12:30:05Z</time>
      </trkpt>
      <trkpt lat="40.249300" lon="-4.913650">
        <ele>2179.0</ele>
        <time>2014-08-31T12:30:07Z</time>
      </trkpt>
      <trkpt lat="40.249450" lon="-4.913500">
        <ele>2183.0</ele>
        <time>2014-08-31T12:30:09Z</time>
      </trkpt>
      <trkpt lat="40.249633" lon="-4.913417">
        <ele>2186.0</ele>
        <time>2014-08-31T12:30:11Z</time>
      </trkpt>
      <trkpt lat="40.249833" lon="-4.913383">
        <ele>2191.0</ele>
        <time>2014-08-31T12:30:13Z</time>
      </trkpt>
      <trkpt lat="40.249983" lon="-4.913433">
        <ele>2194.0</ele>
        <time>2014-08-31T12:30:15Z</time>
      </trkpt>
      <trkpt lat="40.250117" lon="-4.913583">
        <ele>2195.0</ele>
        <time>2014-08-31T12:30:17Z</time>
      </trkpt>
      <trkpt lat="40.250183" lon="-4.913767">
        <ele>2196.0</ele>
        <time>2014-08-31T12:30:19Z</time>
      </trkpt>
      <trkpt lat="40.250167" lon="-4.913950">
        <ele>2198.0</ele>
        <time>2014-08-31T12:30:21Z</time>
      </trkpt>
      <trkpt lat="40.250083" lon="-4.914117">
        <ele>2198.0</ele>
        <time>2014-08-31T12:30:23Z</time>
      </trkpt>
      <trkpt lat="40.249950" lon="-4.914267">
        <ele>2199.0</ele>
        <time>2014-08-31T12:30:25Z</time>
      </trkpt>
      <trkpt lat="40.249817" lon="-4.914367">
        <ele>2200.0</ele>
        <time>2014-08-31T12:30:27Z</time>
      </trkpt>
      <trkpt lat="40.249667" lon="-4.914400">
        <ele>2197.0</ele>
        <time>2014-08-31T12:30:29Z</time>
      </trkpt>
      <trkpt lat="40.249467" lon="-4.914400">
        <ele>2197.0</ele>
        <time>2014-08-31T12:30:31Z</time>
      </trkpt>
      <trkpt lat="40.249283" lon="-4.914300">
        <ele>2202.0</ele>
        <time>2014-08-31T12:30:33Z</time>
      </trkpt>
      <trkpt lat="40.249167" lon="-4.914150">
        <ele>2206.0</ele>
        <time>2014-08-31T12:30:35Z</time>
      </trkpt>
      <trkpt lat="40.249067" lon="-4.913933">
        <ele>2206.0</ele>
        <time>2014-08-31T12:30:37Z</time>
      </trkpt>
      <trkpt lat="40.249000" lon="-4.913650">
        <ele>2205.0</ele>
        <time>2014-08-31T12:30:39Z</time>
      </trkpt>
      <trkpt lat="40.248983" lon="-4.913350">
        <ele>2208.0</ele>
        <time>2014-08-31T12:30:41Z</time>
      </trkpt>
      <trkpt lat="40.248983" lon="-4.913083">
        <ele>2209.0</ele>
        <time>2014-08-31T12:30:43Z</time>
      </trkpt>
      <trkpt lat="40.249033" lon="-4.912783">
        <ele>2208.0</ele>
        <time>2014-08-31T12:30:45Z</time>
      </trkpt>
      <trkpt lat="40.249133" lon="-4.912483">
        <ele>2210.0</ele>
        <time>2014-08-31T12:30:47Z</time>
      </trkpt>
      <trkpt lat="40.249267" lon="-4.912233">
        <ele>2213.0</ele>
        <time>2014-08-31T12:30:49Z</time>
      </trkpt>
      <trkpt lat="40.249400" lon="-4.912000">
        <ele>2215.0</ele>
        <time>2014-08-31T12:30:51Z</time>
      </trkpt>
      <trkpt lat="40.249583" lon="-4.911800">
        <ele>2219.0</ele>
        <time>2014-08-31T12:30:53Z</time>
      </trkpt>
      <trkpt lat="40.249767" lon="-4.911683">
        <ele>2222.0</ele>
        <time>2014-08-31T12:30:55Z</time>
      </trkpt>
      <trkpt lat="40.249950" lon="-4.911633">
        <ele>2224.0</ele>
        <time>2014-08-31T12:30:57Z</time>
      </trkpt>
      <trkpt lat="40.250133" lon="-4.911633">
        <ele>2224.0</ele>
        <time>2014-08-31T12:30:59Z</time>
      </trkpt>
      <trkpt lat="40.250267" lon="-4.911700">
        <ele>2224.0</ele>
        <time>2014-08-31T12:31:01Z</time>
      </trkpt>
      <trkpt lat="40.250367" lon="-4.911850">
        <ele>2222.0</ele>
        <time>2014-08-31T12:31:03Z</time>
      </trkpt>
      <trkpt lat="40.250417" lon="-4.912050">
        <ele>2222.0</ele>
        <time>2014-08-31T12:31:05Z</time>
      </trkpt>
      <trkpt lat="40.250383" lon="-4.912217">
        <ele>2223.0</ele>
        <time>2014-08-31T12:31:07Z</time>
      </trkpt>
      <trkpt lat="40.250317" lon="-4.912367">
        <ele>2223.0</ele>
        <time>2014-08-31T12:31:09Z</time>
      </trkpt>
      <trkpt lat="40.250200" lon="-4.912500">
        <ele>2223.0</ele>
        <time>2014-08-31T12:31:11Z</time>
      </trkpt>
      <trkpt lat="40.250083" lon="-4.912617">
        <ele>2227.0</ele>
        <time>2014-08-31T12:31:13Z</time>
      </trkpt>
      <trkpt lat="40.249967" lon="-4.912683">
        <ele>2231.0</ele>
        <time>2014-08-31T12:31:15Z</time>
      </trkpt>
      <trkpt lat="40.249850" lon="-4.912667">
        <ele>2233.0</ele>
        <time>2014-08-31T12:31:17Z</time>
      </trkpt>
      <trkpt lat="40.249717" lon="-4.912583">
        <ele>2233.0</ele>
        <time>2014-08-31T12:31:19Z</time>
      </trkpt>
      <trkpt lat="40.249600" lon="-4.912417">
        <ele>2232.0</ele>
        <time>2014-08-31T12:31:21Z</time>
      </trkpt>
      <trkpt lat="40.249533" lon="-4.912117">
        <ele>2231.0</ele>
        <time>2014-08-31T12:31:23Z</time>
      </trkpt>
      <trkpt lat="40.249533" lon="-4.911817">
        <ele>2232.0</ele>
        <time>2014-08-31T12:31:25Z</time>
      </trkpt>
      <trkpt lat="40.249550" lon="-4.911517">
        <ele>2232.0</ele>
        <time>2014-08-31T12:31:27Z</time>
      </trkpt>
      <trkpt lat="40.249567" lon="-4.911183">
        <ele>2231.0</ele>
        <time>2014-08-31T12:31:29Z</time>
      </trkpt>
      <trkpt lat="40.249617" lon="-4.910850">
        <ele>2234.0</ele>
        <time>2014-08-31T12:31:31Z</time>
      </trkpt>
      <trkpt lat="40.249717" lon="-4.910583">
        <ele>2237.0</ele>
        <time>2014-08-31T12:31:33Z</time>
      </trkpt>
      <trkpt lat="40.249850" lon="-4.910333">
        <ele>2237.0</ele>
        <time>2014-08-31T12:31:35Z</time>
      </trkpt>
      <trkpt lat="40.250033" lon="-4.910083">
        <ele>2238.0</ele>
        <time>2014-08-31T12:31:37Z</time>
      </trkpt>
      <trkpt lat="40.250217" lon="-4.909900">
        <ele>2239.0</ele>
        <time>2014-08-31T12:31:39Z</time>
      </trkpt>
      <trkpt lat="40.250433" lon="-4.909750">
        <ele>2240.0</ele>
        <time>2014-08-31T12:31:41Z</time>
      </trkpt>
      <trkpt lat="40.250633" lon="-4.909667">
        <ele>2241.0</ele>
        <time>2014-08-31T12:31:43Z</time>
      </trkpt>
      <trkpt lat="40.250850" lon="-4.909633">
        <ele>2241.0</ele>
        <time>2014-08-31T12:31:45Z</time>
      </trkpt>
      <trkpt lat="40.251050" lon="-4.909583">
        <ele>2240.0</ele>
        <time>2014-08-31T12:31:47Z</time>
      </trkpt>
      <trkpt lat="40.251267" lon="-4.909500">
        <ele>2237.0</ele>
        <time>2014-08-31T12:31:49Z</time>
      </trkpt>
      <trkpt lat="40.251500" lon="-4.909417">
        <ele>2236.0</ele>
        <time>2014-08-31T12:31:51Z</time>
      </trkpt>
      <trkpt lat="40.251700" lon="-4.909267">
        <ele>2234.0</ele>
        <time>2014-08-31T12:31:53Z</time>
      </trkpt>
      <trkpt lat="40.251900" lon="-4.909117">
        <ele>2231.0</ele>
        <time>2014-08-31T12:31:55Z</time>
      </trkpt>
      <trkpt lat="40.252100" lon="-4.908933">
        <ele>2227.0</ele>
        <time>2014-08-31T12:31:57Z</time>
      </trkpt>
      <trkpt lat="40.252267" lon="-4.908700">
        <ele>2225.0</ele>
        <time>2014-08-31T12:31:59Z</time>
      </trkpt>
      <trkpt lat="40.252383" lon="-4.908467">
        <ele>2226.0</ele>
        <time>2014-08-31T12:32:01Z</time>
      </trkpt>
      <trkpt lat="40.252517" lon="-4.908267">
        <ele>2222.0</ele>
        <time>2014-08-31T12:32:03Z</time>
      </trkpt>
      <trkpt lat="40.252650" lon="-4.908067">
        <ele>2215.0</ele>
        <time>2014-08-31T12:32:05Z</time>
      </trkpt>
      <trkpt lat="40.252800" lon="-4.907867">
        <ele>2212.0</ele>
        <time>2014-08-31T12:32:07Z</time>
      </trkpt>
      <trkpt lat="40.252950" lon="-4.907700">
        <ele>2211.0</ele>
        <time>2014-08-31T12:32:09Z</time>
      </trkpt>
      <trkpt lat="40.253067" lon="-4.907533">
        <ele>2209.0</ele>
        <time>2014-08-31T12:32:11Z</time>
      </trkpt>
      <trkpt lat="40.253183" lon="-4.907317">
        <ele>2206.0</ele>
        <time>2014-08-31T12:32:13Z</time>
      </trkpt>
      <trkpt lat="40.253300" lon="-4.907100">
        <ele>2206.0</ele>
        <time>2014-08-31T12:32:15Z</time>
      </trkpt>
      <trkpt lat="40.253383" lon="-4.906867">
        <ele>2205.0</ele>
        <time>2014-08-31T12:32:17Z</time>
      </trkpt>
      <trkpt lat="40.253500" lon="-4.906650">
        <ele>2203.0</ele>
        <time>2014-08-31T12:32:19Z</time>
      </trkpt>
      <trkpt lat="40.253633" lon="-4.906483">
        <ele>2203.0</ele>
        <time>2014-08-31T12:32:21Z</time>
      </trkpt>
      <trkpt lat="40.253767" lon="-4.906367">
        <ele>2202.0</ele>
        <time>2014-08-31T12:32:23Z</time>
      </trkpt>
      <trkpt lat="40.253933" lon="-4.906233">
        <ele>2199.0</ele>
        <time>2014-08-31T12:32:25Z</time>
      </trkpt>
      <trkpt lat="40.254117" lon="-4.906100">
        <ele>2198.0</ele>
        <time>2014-08-31T12:32:27Z</time>
      </trkpt>
      <trkpt lat="40.254267" lon="-4.905983">
        <ele>2199.0</ele>
        <time>2014-08-31T12:32:29Z</time>
      </trkpt>
      <trkpt lat="40.254400" lon="-4.905883">
        <ele>2198.0</ele>
        <time>2014-08-31T12:32:31Z</time>
      </trkpt>
      <trkpt lat="40.254567" lon="-4.905767">
        <ele>2195.0</ele>
        <time>2014-08-31T12:32:33Z</time>
      </trkpt>
      <trkpt lat="40.254733" lon="-4.905667">
        <ele>2192.0</ele>
        <time>2014-08-31T12:32:35Z</time>
      </trkpt>
      <trkpt lat="40.254900" lon="-4.905533">
        <ele>2190.0</ele>
        <time>2014-08-31T12:32:37Z</time>
      </trkpt>
      <trkpt lat="40.255067" lon="-4.905400">
        <ele>2192.0</ele>
        <time>2014-08-31T12:32:39Z</time>
      </trkpt>
      <trkpt lat="40.255200" lon="-4.905317">
        <ele>2192.0</ele>
        <time>2014-08-31T12:32:41Z</time>
      </trkpt>
      <trkpt lat="40.255350" lon="-4.905217">
        <ele>2190.0</ele>
        <time>2014-08-31T12:32:43Z</time>
      </trkpt>
      <trkpt lat="40.255517" lon="-4.905117">
        <ele>2187.0</ele>
        <time>2014-08-31T12:32:45Z</time>
      </trkpt>
      <trkpt lat="40.255683" lon="-4.905017">
        <ele>2186.0</ele>
        <time>2014-08-31T12:32:47Z</time>
      </trkpt>
      <trkpt lat="40.255833" lon="-4.904917">
        <ele>2185.0</ele>
        <time>2014-08-31T12:32:49Z</time>
      </trkpt>
      <trkpt lat="40.255983" lon="-4.904800">
        <ele>2181.0</ele>
        <time>2014-08-31T12:32:51Z</time>
      </trkpt>
      <trkpt lat="40.256150" lon="-4.904683">
        <ele>2178.0</ele>
        <time>2014-08-31T12:32:53Z</time>
      </trkpt>
      <trkpt lat="40.256317" lon="-4.904567">
        <ele>2177.0</ele>
        <time>2014-08-31T12:32:55Z</time>
      </trkpt>
      <trkpt lat="40.256483" lon="-4.904433">
        <ele>2175.0</ele>
        <time>2014-08-31T12:32:57Z</time>
      </trkpt>
      <trkpt lat="40.256650" lon="-4.904300">
        <ele>2173.0</ele>
        <time>2014-08-31T12:32:59Z</time>
      </trkpt>
      <trkpt lat="40.256800" lon="-4.904167">
        <ele>2172.0</ele>
        <time>2014-08-31T12:33:01Z</time>
      </trkpt>
      <trkpt lat="40.256950" lon="-4.904033">
        <ele>2169.0</ele>
        <time>2014-08-31T12:33:03Z</time>
      </trkpt>
      <trkpt lat="40.257117" lon="-4.903917">
        <ele>2167.0</ele>
        <time>2014-08-31T12:33:05Z</time>
      </trkpt>
      <trkpt lat="40.257283" lon="-4.903800">
        <ele>2166.0</ele>
        <time>2014-08-31T12:33:07Z</time>
      </trkpt>
      <trkpt lat="40.257433" lon="-4.903700">
        <ele>2164.0</ele>
        <time>2014-08-31T12:33:09Z</time>
      </trkpt>
      <trkpt lat="40.257633" lon="-4.903583">
        <ele>2160.0</ele>
        <time>2014-08-31T12:33:11Z</time>
      </trkpt>
      <trkpt lat="40.257817" lon="-4.903433">
        <ele>2159.0</ele>
        <time>2014-08-31T12:33:13Z</time>
      </trkpt>
      <trkpt lat="40.257983" lon="-4.903333">
        <ele>2159.0</ele>
        <time>2014-08-31T12:33:15Z</time>
      </trkpt>
      <trkpt lat="40.258150" lon="-4.903250">
        <ele>2156.0</ele>
        <time>2014-08-31T12:33:17Z</time>
      </trkpt>
      <trkpt lat="40.258317" lon="-4.903117">
        <ele>2156.0</ele>
        <time>2014-08-31T12:33:19Z</time>
      </trkpt>
      <trkpt lat="40.258467" lon="-4.903000">
        <ele>2155.0</ele>
        <time>2014-08-31T12:33:21Z</time>
      </trkpt>
      <trkpt lat="40.258633" lon="-4.902883">
        <ele>2152.0</ele>
        <time>2014-08-31T12:33:23Z</time>
      </trkpt>
      <trkpt lat="40.258817" lon="-4.902750">
        <ele>2152.0</ele>
        <time>2014-08-31T12:33:25Z</time>
      </trkpt>
      <trkpt lat="40.258983" lon="-4.902650">
        <ele>2153.0</ele>
        <time>2014-08-31T12:33:27Z</time>
      </trkpt>
      <trkpt lat="40.259133" lon="-4.902533">
        <ele>2151.0</ele>
        <time>2014-08-31T12:33:29Z</time>
      </trkpt>
      <trkpt lat="40.259283" lon="-4.902400">
        <ele>2149.0</ele>
        <time>2014-08-31T12:33:31Z</time>
      </trkpt>
      <trkpt lat="40.259433" lon="-4.902283">
        <ele>2149.0</ele>
        <time>2014-08-31T12:33:33Z</time>
      </trkpt>
      <trkpt lat="40.259567" lon="-4.902183">
        <ele>2148.0</ele>
        <time>2014-08-31T12:33:35Z</time>
      </trkpt>
      <trkpt lat="40.259733" lon="-4.902050">
        <ele>2146.0</ele>
        <time>2014-08-31T12:33:37Z</time>
      </trkpt>
      <trkpt lat="40.259883" lon="-4.901933">
        <ele>2147.0</ele>
        <time>2014-08-31T12:33:39Z</time>
      </trkpt>
      <trkpt lat="40.260033" lon="-4.901883">
        <ele>2147.0</ele>
        <time>2014-08-31T12:33:41Z</time>
      </trkpt>
      <trkpt lat="40.260183" lon="-4.901833">
        <ele>2143.0</ele>
        <time>2014-08-31T12:33:43Z</time>
      </trkpt>
      <trkpt lat="40.260350" lon="-4.901767">
        <ele>2139.0</ele>
        <time>2014-08-31T12:33:45Z</time>
      </trkpt>
      <trkpt lat="40.260517" lon="-4.901700">
        <ele>2137.0</ele>
        <time>2014-08-31T12:33:47Z</time>
      </trkpt>
      <trkpt lat="40.260667" lon="-4.901617">
        <ele>2136.0</ele>
        <time>2014-08-31T12:33:49Z</time>
      </trkpt>
      <trkpt lat="40.260817" lon="-4.901517">
        <ele>2133.0</ele>
        <time>2014-08-31T12:33:51Z</time>
      </trkpt>
      <trkpt lat="40.260967" lon="-4.901417">
        <ele>2130.0</ele>
        <time>2014-08-31T12:33:53Z</time>
      </trkpt>
      <trkpt lat="40.261133" lon="-4.901300">
        <ele>2128.0</ele>
        <time>2014-08-31T12:33:55Z</time>
      </trkpt>
      <trkpt lat="40.261267" lon="-4.901200">
        <ele>2125.0</ele>
        <time>2014-08-31T12:33:57Z</time>
      </trkpt>
      <trkpt lat="40.261417" lon="-4.901100">
        <ele>2119.0</ele>
        <time>2014-08-31T12:33:59Z</time>
      </trkpt>
      <trkpt lat="40.261567" lon="-4.900950">
        <ele>2115.0</ele>
        <time>2014-08-31T12:34:01Z</time>
      </trkpt>
      <trkpt lat="40.261733" lon="-4.900833">
        <ele>2113.0</ele>
        <time>2014-08-31T12:34:03Z</time>
      </trkpt>
      <trkpt lat="40.261867" lon="-4.900733">
        <ele>2111.0</ele>
        <time>2014-08-31T12:34:05Z</time>
      </trkpt>
      <trkpt lat="40.262017" lon="-4.900600">
        <ele>2107.0</ele>
        <time>2014-08-31T12:34:07Z</time>
      </trkpt>
      <trkpt lat="40.262167" lon="-4.900450">
        <ele>2104.0</ele>
        <time>2014-08-31T12:34:09Z</time>
      </trkpt>
      <trkpt lat="40.262300" lon="-4.900317">
        <ele>2101.0</ele>
        <time>2014-08-31T12:34:11Z</time>
      </trkpt>
      <trkpt lat="40.262450" lon="-4.900150">
        <ele>2097.0</ele>
        <time>2014-08-31T12:34:13Z</time>
      </trkpt>
      <trkpt lat="40.262600" lon="-4.899983">
        <ele>2096.0</ele>
        <time>2014-08-31T12:34:15Z</time>
      </trkpt>
      <trkpt lat="40.262733" lon="-4.899833">
        <ele>2095.0</ele>
        <time>2014-08-31T12:34:17Z</time>
      </trkpt>
      <trkpt lat="40.262867" lon="-4.899700">
        <ele>2092.0</ele>
        <time>2014-08-31T12:34:19Z</time>
      </trkpt>
      <trkpt lat="40.263000" lon="-4.899567">
        <ele>2088.0</ele>
        <time>2014-08-31T12:34:21Z</time>
      </trkpt>
      <trkpt lat="40.263150" lon="-4.899400">
        <ele>2084.0</ele>
        <time>2014-08-31T12:34:23Z</time>
      </trkpt>
      <trkpt lat="40.263267" lon="-4.899267">
        <ele>2082.0</ele>
        <time>2014-08-31T12:34:25Z</time>
      </trkpt>
      <trkpt lat="40.263400" lon="-4.899133">
        <ele>2077.0</ele>
        <time>2014-08-31T12:34:27Z</time>
      </trkpt>
      <trkpt lat="40.263550" lon="-4.899000">
        <ele>2073.0</ele>
        <time>2014-08-31T12:34:29Z</time>
      </trkpt>
      <trkpt lat="40.263700" lon="-4.898867">
        <ele>2069.0</ele>
        <time>2014-08-31T12:34:31Z</time>
      </trkpt>
      <trkpt lat="40.263867" lon="-4.898733">
        <ele>2065.0</ele>
        <time>2014-08-31T12:34:33Z</time>
      </trkpt>
      <trkpt lat="40.264050" lon="-4.898583">
        <ele>2062.0</ele>
        <time>2014-08-31T12:34:35Z</time>
      </trkpt>
      <trkpt lat="40.264233" lon="-4.898467">
        <ele>2063.0</ele>
        <time>2014-08-31T12:34:37Z</time>
      </trkpt>
      <trkpt lat="40.264367" lon="-4.898367">
        <ele>2061.0</ele>
        <time>2014-08-31T12:34:39Z</time>
      </trkpt>
      <trkpt lat="40.264533" lon="-4.898233">
        <ele>2055.0</ele>
        <time>2014-08-31T12:34:41Z</time>
      </trkpt>
      <trkpt lat="40.264700" lon="-4.898067">
        <ele>2052.0</ele>
        <time>2014-08-31T12:34:43Z</time>
      </trkpt>
      <trkpt lat="40.264850" lon="-4.897917">
        <ele>2051.0</ele>
        <time>2014-08-31T12:34:45Z</time>
      </trkpt>
      <trkpt lat="40.265000" lon="-4.897783">
        <ele>2048.0</ele>
        <time>2014-08-31T12:34:47Z</time>
      </trkpt>
      <trkpt lat="40.265167" lon="-4.897650">
        <ele>2046.0</ele>
        <time>2014-08-31T12:34:49Z</time>
      </trkpt>
      <trkpt lat="40.265317" lon="-4.897533">
        <ele>2045.0</ele>
        <time>2014-08-31T12:34:51Z</time>
      </trkpt>
      <trkpt lat="40.265483" lon="-4.897433">
        <ele>2041.0</ele>
        <time>2014-08-31T12:34:53Z</time>
      </trkpt>
      <trkpt lat="40.265650" lon="-4.897267">
        <ele>2037.0</ele>
        <time>2014-08-31T12:34:55Z</time>
      </trkpt>
      <trkpt lat="40.265750" lon="-4.897100">
        <ele>2036.0</ele>
        <time>2014-08-31T12:34:57Z</time>
      </trkpt>
      <trkpt lat="40.265850" lon="-4.896933">
        <ele>2031.0</ele>
        <time>2014-08-31T12:34:59Z</time>
      </trkpt>
      <trkpt lat="40.265983" lon="-4.896767">
        <ele>2026.0</ele>
        <time>2014-08-31T12:35:01Z</time>
      </trkpt>
      <trkpt lat="40.266117" lon="-4.896600">
        <ele>2023.0</ele>
        <time>2014-08-31T12:35:03Z</time>
      </trkpt>
      <trkpt lat="40.266233" lon="-4.896417">
        <ele>2022.0</ele>
        <time>2014-08-31T12:35:05Z</time>
      </trkpt>
      <trkpt lat="40.266367" lon="-4.896267">
        <ele>2019.0</ele>
        <time>2014-08-31T12:35:07Z</time>
      </trkpt>
      <trkpt lat="40.266500" lon="-4.896117">
        <ele>2017.0</ele>
        <time>2014-08-31T12:35:09Z</time>
      </trkpt>
      <trkpt lat="40.266650" lon="-4.895967">
        <ele>2015.0</ele>
        <time>2014-08-31T12:35:11Z</time>
      </trkpt>
      <trkpt lat="40.266800" lon="-4.895817">
        <ele>2012.0</ele>
        <time>2014-08-31T12:35:13Z</time>
      </trkpt>
      <trkpt lat="40.266933" lon="-4.895667">
        <ele>2009.0</ele>
        <time>2014-08-31T12:35:15Z</time>
      </trkpt>
      <trkpt lat="40.267083" lon="-4.895500">
        <ele>2007.0</ele>
        <time>2014-08-31T12:35:17Z</time>
      </trkpt>
      <trkpt lat="40.267233" lon="-4.895350">
        <ele>2003.0</ele>
        <time>2014-08-31T12:35:19Z</time>
      </trkpt>
      <trkpt lat="40.267383" lon="-4.895167">
        <ele>2002.0</ele>
        <time>2014-08-31T12:35:21Z</time>
      </trkpt>
      <trkpt lat="40.267500" lon="-4.895000">
        <ele>1999.0</ele>
        <time>2014-08-31T12:35:23Z</time>
      </trkpt>
      <trkpt lat="40.267650" lon="-4.894833">
        <ele>1991.0</ele>
        <time>2014-08-31T12:35:25Z</time>
      </trkpt>
      <trkpt lat="40.267800" lon="-4.894617">
        <ele>1985.0</ele>
        <time>2014-08-31T12:35:27Z</time>
      </trkpt>
      <trkpt lat="40.267950" lon="-4.894433">
        <ele>1982.0</ele>
        <time>2014-08-31T12:35:29Z</time>
      </trkpt>
      <trkpt lat="40.268033" lon="-4.894267">
        <ele>1978.0</ele>
        <time>2014-08-31T12:35:31Z</time>
      </trkpt>
      <trkpt lat="40.268133" lon="-4.894083">
        <ele>1969.0</ele>
        <time>2014-08-31T12:35:33Z</time>
      </trkpt>
      <trkpt lat="40.268250" lon="-4.893867">
        <ele>1964.0</ele>
        <time>2014-08-31T12:35:35Z</time>
      </trkpt>
      <trkpt lat="40.268333" lon="-4.893650">
        <ele>1964.0</ele>
        <time>2014-08-31T12:35:37Z</time>
      </trkpt>
      <trkpt lat="40.268383" lon="-4.893433">
        <ele>1963.0</ele>
        <time>2014-08-31T12:35:39Z</time>
      </trkpt>
      <trkpt lat="40.268483" lon="-4.893200">
        <ele>1961.0</ele>
        <time>2014-08-31T12:35:41Z</time>
      </trkpt>
      <trkpt lat="40.268633" lon="-4.892983">
        <ele>1963.0</ele>
        <time>2014-08-31T12:35:43Z</time>
      </trkpt>
      <trkpt lat="40.268750" lon="-4.892800">
        <ele>1968.0</ele>
        <time>2014-08-31T12:35:45Z</time>
      </trkpt>
      <trkpt lat="40.268867" lon="-4.892650">
        <ele>1972.0</ele>
        <time>2014-08-31T12:35:47Z</time>
      </trkpt>
      <trkpt lat="40.269050" lon="-4.892567">
        <ele>1974.0</ele>
        <time>2014-08-31T12:35:49Z</time>
      </trkpt>
      <trkpt lat="40.269267" lon="-4.892583">
        <ele>1977.0</ele>
        <time>2014-08-31T12:35:51Z</time>
      </trkpt>
      <trkpt lat="40.269433" lon="-4.892650">
        <ele>1979.0</ele>
        <time>2014-08-31T12:35:53Z</time>
      </trkpt>
      <trkpt lat="40.269583" lon="-4.892783">
        <ele>1976.0</ele>
        <time>2014-08-31T12:35:55Z</time>
      </trkpt>
      <trkpt lat="40.269717" lon="-4.893000">
        <ele>1976.0</ele>
        <time>2014-08-31T12:35:57Z</time>
      </trkpt>
      <trkpt lat="40.269833" lon="-4.893183">
        <ele>1976.0</ele>
        <time>2014-08-31T12:35:59Z</time>
      </trkpt>
      <trkpt lat="40.270000" lon="-4.893333">
        <ele>1972.0</ele>
        <time>2014-08-31T12:36:01Z</time>
      </trkpt>
      <trkpt lat="40.270217" lon="-4.893450">
        <ele>1967.0</ele>
        <time>2014-08-31T12:36:03Z</time>
      </trkpt>
      <trkpt lat="40.270433" lon="-4.893483">
        <ele>1964.0</ele>
        <time>2014-08-31T12:36:05Z</time>
      </trkpt>
      <trkpt lat="40.270633" lon="-4.893483">
        <ele>1961.0</ele>
        <time>2014-08-31T12:36:07Z</time>
      </trkpt>
      <trkpt lat="40.270850" lon="-4.893433">
        <ele>1957.0</ele>
        <time>2014-08-31T12:36:09Z</time>
      </trkpt>
      <trkpt lat="40.271100" lon="-4.893383">
        <ele>1954.0</ele>
        <time>2014-08-31T12:36:11Z</time>
      </trkpt>
      <trkpt lat="40.271333" lon="-4.893333">
        <ele>1954.0</ele>
        <time>2014-08-31T12:36:13Z</time>
      </trkpt>
      <trkpt lat="40.271533" lon="-4.893300">
        <ele>1951.0</ele>
        <time>2014-08-31T12:36:15Z</time>
      </trkpt>
      <trkpt lat="40.271750" lon="-4.893217">
        <ele>1945.0</ele>
        <time>2014-08-31T12:36:17Z</time>
      </trkpt>
      <trkpt lat="40.271983" lon="-4.893117">
        <ele>1940.0</ele>
        <time>2014-08-31T12:36:19Z</time>
      </trkpt>
      <trkpt lat="40.272183" lon="-4.893033">
        <ele>1937.0</ele>
        <time>2014-08-31T12:36:21Z</time>
      </trkpt>
      <trkpt lat="40.272433" lon="-4.892967">
        <ele>1933.0</ele>
        <time>2014-08-31T12:36:23Z</time>
      </trkpt>
      <trkpt lat="40.272667" lon="-4.892883">
        <ele>1936.0</ele>
        <time>2014-08-31T12:36:25Z</time>
      </trkpt>
      <trkpt lat="40.272833" lon="-4.892850">
        <ele>1939.0</ele>
        <time>2014-08-31T12:36:27Z</time>
      </trkpt>
      <trkpt lat="40.273050" lon="-4.892900">
        <ele>1934.0</ele>
        <time>2014-08-31T12:36:29Z</time>
      </trkpt>
      <trkpt lat="40.273267" lon="-4.893017">
        <ele>1934.0</ele>
        <time>2014-08-31T12:36:31Z</time>
      </trkpt>
      <trkpt lat="40.273417" lon="-4.893150">
        <ele>1934.0</ele>
        <time>2014-08-31T12:36:33Z</time>
      </trkpt>
      <trkpt lat="40.273483" lon="-4.893383">
        <ele>1929.0</ele>
        <time>2014-08-31T12:36:35Z</time>
      </trkpt>
      <trkpt lat="40.273433" lon="-4.893633">
        <ele>1927.0</ele>
        <time>2014-08-31T12:36:37Z</time>
      </trkpt>
      <trkpt lat="40.273317" lon="-4.893750">
        <ele>1925.0</ele>
        <time>2014-08-31T12:36:39Z</time>
      </trkpt>
      <trkpt lat="40.273167" lon="-4.893800">
        <ele>1924.0</ele>
        <time>2014-08-31T12:36:41Z</time>
      </trkpt>
      <trkpt lat="40.273050" lon="-4.893767">
        <ele>1923.0</ele>
        <time>2014-08-31T12:36:43Z</time>
      </trkpt>
      <trkpt lat="40.272950" lon="-4.893650">
        <ele>1922.0</ele>
        <time>2014-08-31T12:36:45Z</time>
      </trkpt>
      <trkpt lat="40.272900" lon="-4.893517">
        <ele>1924.0</ele>
        <time>2014-08-31T12:36:47Z</time>
      </trkpt>
      <trkpt lat="40.272833" lon="-4.893417">
        <ele>1925.0</ele>
        <time>2014-08-31T12:36:49Z</time>
      </trkpt>
      <trkpt lat="40.272733" lon="-4.893333">
        <ele>1924.0</ele>
        <time>2014-08-31T12:36:51Z</time>
      </trkpt>
      <trkpt lat="40.272633" lon="-4.893250">
        <ele>1924.0</ele>
        <time>2014-08-31T12:36:53Z</time>
      </trkpt>
      <trkpt lat="40.272567" lon="-4.893117">
        <ele>1921.0</ele>
        <time>2014-08-31T12:36:55Z</time>
      </trkpt>
      <trkpt lat="40.272500" lon="-4.892900">
        <ele>1920.0</ele>
        <time>2014-08-31T12:36:57Z</time>
      </trkpt>
      <trkpt lat="40.272450" lon="-4.892683">
        <ele>1925.0</ele>
        <time>2014-08-31T12:36:59Z</time>
      </trkpt>
      <trkpt lat="40.272467" lon="-4.892467">
        <ele>1927.0</ele>
        <time>2014-08-31T12:37:01Z</time>
      </trkpt>
      <trkpt lat="40.272533" lon="-4.892183">
        <ele>1926.0</ele>
        <time>2014-08-31T12:37:03Z</time>
      </trkpt>
      <trkpt lat="40.272600" lon="-4.891917">
        <ele>1929.0</ele>
        <time>2014-08-31T12:37:05Z</time>
      </trkpt>
      <trkpt lat="40.272683" lon="-4.891667">
        <ele>1927.0</ele>
        <time>2014-08-31T12:37:07Z</time>
      </trkpt>
      <trkpt lat="40.272817" lon="-4.891383">
        <ele>1925.0</ele>
        <time>2014-08-31T12:37:09Z</time>
      </trkpt>
      <trkpt lat="40.272950" lon="-4.891133">
        <ele>1928.0</ele>
        <time>2014-08-31T12:37:11Z</time>
      </trkpt>
      <trkpt lat="40.273067" lon="-4.890917">
        <ele>1930.0</ele>
        <time>2014-08-31T12:37:13Z</time>
      </trkpt>
      <trkpt lat="40.273117" lon="-4.890650">
        <ele>1927.0</ele>
        <time>2014-08-31T12:37:15Z</time>
      </trkpt>
      <trkpt lat="40.273167" lon="-4.890350">
        <ele>1925.0</ele>
        <time>2014-08-31T12:37:17Z</time>
      </trkpt>
      <trkpt lat="40.273233" lon="-4.890067">
        <ele>1927.0</ele>
        <time>2014-08-31T12:37:19Z</time>
      </trkpt>
      <trkpt lat="40.273350" lon="-4.889833">
        <ele>1930.0</ele>
        <time>2014-08-31T12:37:21Z</time>
      </trkpt>
      <trkpt lat="40.273500" lon="-4.889633">
        <ele>1930.0</ele>
        <time>2014-08-31T12:37:23Z</time>
      </trkpt>
      <trkpt lat="40.273667" lon="-4.889400">
        <ele>1928.0</ele>
        <time>2014-08-31T12:37:25Z</time>
      </trkpt>
      <trkpt lat="40.273817" lon="-4.889150">
        <ele>1926.0</ele>
        <time>2014-08-31T12:37:27Z</time>
      </trkpt>
      <trkpt lat="40.273950" lon="-4.888900">
        <ele>1924.0</ele>
        <time>2014-08-31T12:37:29Z</time>
      </trkpt>
      <trkpt lat="40.274100" lon="-4.888650">
        <ele>1919.0</ele>
        <time>2014-08-31T12:37:31Z</time>
      </trkpt>
      <trkpt lat="40.274233" lon="-4.888383">
        <ele>1916.0</ele>
        <time>2014-08-31T12:37:33Z</time>
      </trkpt>
      <trkpt lat="40.274350" lon="-4.888100">
        <ele>1916.0</ele>
        <time>2014-08-31T12:37:35Z</time>
      </trkpt>
      <trkpt lat="40.274467" lon="-4.887850">
        <ele>1914.0</ele>
        <time>2014-08-31T12:37:37Z</time>
      </trkpt>
      <trkpt lat="40.274617" lon="-4.887550">
        <ele>1914.0</ele>
        <time>2014-08-31T12:37:39Z</time>
      </trkpt>
      <trkpt lat="40.274750" lon="-4.887300">
        <ele>1916.0</ele>
        <time>2014-08-31T12:37:41Z</time>
      </trkpt>
      <trkpt lat="40.274883" lon="-4.887083">
        <ele>1917.0</ele>
        <time>2014-08-31T12:37:43Z</time>
      </trkpt>
      <trkpt lat="40.275017" lon="-4.886883">
        <ele>1916.0</ele>
        <time>2014-08-31T12:37:45Z</time>
      </trkpt>
      <trkpt lat="40.275150" lon="-4.886650">
        <ele>1913.0</ele>
        <time>2014-08-31T12:37:47Z</time>
      </trkpt>
      <trkpt lat="40.275283" lon="-4.886417">
        <ele>1912.0</ele>
        <time>2014-08-31T12:37:49Z</time>
      </trkpt>
      <trkpt lat="40.275417" lon="-4.886200">
        <ele>1911.0</ele>
        <time>2014-08-31T12:37:51Z</time>
      </trkpt>
      <trkpt lat="40.275517" lon="-4.885950">
        <ele>1910.0</ele>
        <time>2014-08-31T12:37:53Z</time>
      </trkpt>
      <trkpt lat="40.275650" lon="-4.885733">
        <ele>1910.0</ele>
        <time>2014-08-31T12:37:55Z</time>
      </trkpt>
      <trkpt lat="40.275783" lon="-4.885517">
        <ele>1907.0</ele>
        <time>2014-08-31T12:37:57Z</time>
      </trkpt>
      <trkpt lat="40.275917" lon="-4.885250">
        <ele>1905.0</ele>
        <time>2014-08-31T12:37:59Z</time>
      </trkpt>
      <trkpt lat="40.276050" lon="-4.885017">
        <ele>1906.0</ele>
        <time>2014-08-31T12:38:01Z</time>
      </trkpt>
      <trkpt lat="40.276183" lon="-4.884783">
        <ele>1905.0</ele>
        <time>2014-08-31T12:38:03Z</time>
      </trkpt>
      <trkpt lat="40.276317" lon="-4.884550">
        <ele>1903.0</ele>
        <time>2014-08-31T12:38:05Z</time>
      </trkpt>
      <trkpt lat="40.276450" lon="-4.884283">
        <ele>1899.0</ele>
        <time>2014-08-31T12:38:07Z</time>
      </trkpt>
      <trkpt lat="40.276583" lon="-4.884033">
        <ele>1896.0</ele>
        <time>2014-08-31T12:38:09Z</time>
      </trkpt>
      <trkpt lat="40.276717" lon="-4.883783">
        <ele>1890.0</ele>
        <time>2014-08-31T12:38:11Z</time>
      </trkpt>
      <trkpt lat="40.276850" lon="-4.883500">
        <ele>1885.0</ele>
        <time>2014-08-31T12:38:13Z</time>
      </trkpt>
      <trkpt lat="40.276967" lon="-4.883250">
        <ele>1882.0</ele>
        <time>2014-08-31T12:38:15Z</time>
      </trkpt>
      <trkpt lat="40.277100" lon="-4.882983">
        <ele>1878.0</ele>
        <time>2014-08-31T12:38:17Z</time>
      </trkpt>
      <trkpt lat="40.277200" lon="-4.882750">
        <ele>1873.0</ele>
        <time>2014-08-31T12:38:19Z</time>
      </trkpt>
      <trkpt lat="40.277333" lon="-4.882483">
        <ele>1867.0</ele>
        <time>2014-08-31T12:38:21Z</time>
      </trkpt>
      <trkpt lat="40.277450" lon="-4.882217">
        <ele>1864.0</ele>
        <time>2014-08-31T12:38:23Z</time>
      </trkpt>
      <trkpt lat="40.277550" lon="-4.881933">
        <ele>1861.0</ele>
        <time>2014-08-31T12:38:25Z</time>
      </trkpt>
      <trkpt lat="40.277650" lon="-4.881667">
        <ele>1858.0</ele>
        <time>2014-08-31T12:38:27Z</time>
      </trkpt>
      <trkpt lat="40.277750" lon="-4.881433">
        <ele>1854.0</ele>
        <time>2014-08-31T12:38:29Z</time>
      </trkpt>
      <trkpt lat="40.277883" lon="-4.881183">
        <ele>1850.0</ele>
        <time>2014-08-31T12:38:31Z</time>
      </trkpt>
      <trkpt lat="40.278017" lon="-4.880950">
        <ele>1845.0</ele>
        <time>2014-08-31T12:38:33Z</time>
      </trkpt>
      <trkpt lat="40.278167" lon="-4.880717">
        <ele>1841.0</ele>
        <time>2014-08-31T12:38:35Z</time>
      </trkpt>
      <trkpt lat="40.278317" lon="-4.880517">
        <ele>1837.0</ele>
        <time>2014-08-31T12:38:37Z</time>
      </trkpt>
      <trkpt lat="40.278450" lon="-4.880283">
        <ele>1832.0</ele>
        <time>2014-08-31T12:38:39Z</time>
      </trkpt>
      <trkpt lat="40.278583" lon="-4.880050">
        <ele>1827.0</ele>
        <time>2014-08-31T12:38:41Z</time>
      </trkpt>
      <trkpt lat="40.278717" lon="-4.879817">
        <ele>1823.0</ele>
        <time>2014-08-31T12:38:43Z</time>
      </trkpt>
      <trkpt lat="40.278833" lon="-4.879583">
        <ele>1818.0</ele>
        <time>2014-08-31T12:38:45Z</time>
      </trkpt>
      <trkpt lat="40.278967" lon="-4.879350">
        <ele>1815.0</ele>
        <time>2014-08-31T12:38:47Z</time>
      </trkpt>
      <trkpt lat="40.279067" lon="-4.879150">
        <ele>1812.0</ele>
        <time>2014-08-31T12:38:49Z</time>
      </trkpt>
      <trkpt lat="40.279183" lon="-4.878950">
        <ele>1808.0</ele>
        <time>2014-08-31T12:38:51Z</time>
      </trkpt>
      <trkpt lat="40.279300" lon="-4.878717">
        <ele>1804.0</ele>
        <time>2014-08-31T12:38:53Z</time>
      </trkpt>
      <trkpt lat="40.279417" lon="-4.878500">
        <ele>1800.0</ele>
        <time>2014-08-31T12:38:55Z</time>
      </trkpt>
      <trkpt lat="40.279533" lon="-4.878283">
        <ele>1795.0</ele>
        <time>2014-08-31T12:38:57Z</time>
      </trkpt>
      <trkpt lat="40.279650" lon="-4.878033">
        <ele>1791.0</ele>
        <time>2014-08-31T12:38:59Z</time>
      </trkpt>
      <trkpt lat="40.279767" lon="-4.877817">
        <ele>1788.0</ele>
        <time>2014-08-31T12:39:01Z</time>
      </trkpt>
      <trkpt lat="40.279883" lon="-4.877600">
        <ele>1784.0</ele>
        <time>2014-08-31T12:39:03Z</time>
      </trkpt>
      <trkpt lat="40.280000" lon="-4.877367">
        <ele>1778.0</ele>
        <time>2014-08-31T12:39:05Z</time>
      </trkpt>
      <trkpt lat="40.280133" lon="-4.877117">
        <ele>1773.0</ele>
        <time>2014-08-31T12:39:07Z</time>
      </trkpt>
      <trkpt lat="40.280267" lon="-4.876900">
        <ele>1772.0</ele>
        <time>2014-08-31T12:39:09Z</time>
      </trkpt>
      <trkpt lat="40.280367" lon="-4.876700">
        <ele>1768.0</ele>
        <time>2014-08-31T12:39:11Z</time>
      </trkpt>
      <trkpt lat="40.280467" lon="-4.876450">
        <ele>1763.0</ele>
        <time>2014-08-31T12:39:13Z</time>
      </trkpt>
      <trkpt lat="40.280567" lon="-4.876217">
        <ele>1759.0</ele>
        <time>2014-08-31T12:39:15Z</time>
      </trkpt>
      <trkpt lat="40.280650" lon="-4.876000">
        <ele>1756.0</ele>
        <time>2014-08-31T12:39:17Z</time>
      </trkpt>
      <trkpt lat="40.280750" lon="-4.875783">
        <ele>1752.0</ele>
        <time>2014-08-31T12:39:19Z</time>
      </trkpt>
      <trkpt lat="40.280867" lon="-4.875533">
        <ele>1747.0</ele>
        <time>2014-08-31T12:39:21Z</time>
      </trkpt>
      <trkpt lat="40.281000" lon="-4.875300">
        <ele>1743.0</ele>
        <time>2014-08-31T12:39:23Z</time>
      </trkpt>
      <trkpt lat="40.281117" lon="-4.875083">
        <ele>1741.0</ele>
        <time>2014-08-31T12:39:25Z</time>
      </trkpt>
      <trkpt lat="40.281233" lon="-4.874883">
        <ele>1737.0</ele>
        <time>2014-08-31T12:39:27Z</time>
      </trkpt>
      <trkpt lat="40.281333" lon="-4.874667">
        <ele>1731.0</ele>
        <time>2014-08-31T12:39:29Z</time>
      </trkpt>
      <trkpt lat="40.281450" lon="-4.874433">
        <ele>1727.0</ele>
        <time>2014-08-31T12:39:31Z</time>
      </trkpt>
      <trkpt lat="40.281517" lon="-4.874217">
        <ele>1726.0</ele>
        <time>2014-08-31T12:39:33Z</time>
      </trkpt>
      <trkpt lat="40.281567" lon="-4.873983">
        <ele>1720.0</ele>
        <time>2014-08-31T12:39:35Z</time>
      </trkpt>
      <trkpt lat="40.281650" lon="-4.873717">
        <ele>1715.0</ele>
        <time>2014-08-31T12:39:37Z</time>
      </trkpt>
      <trkpt lat="40.281733" lon="-4.873467">
        <ele>1713.0</ele>
        <time>2014-08-31T12:39:39Z</time>
      </trkpt>
      <trkpt lat="40.281817" lon="-4.873250">
        <ele>1712.0</ele>
        <time>2014-08-31T12:39:41Z</time>
      </trkpt>
      <trkpt lat="40.281900" lon="-4.873017">
        <ele>1707.0</ele>
        <time>2014-08-31T12:39:43Z</time>
      </trkpt>
      <trkpt lat="40.281983" lon="-4.872750">
        <ele>1702.0</ele>
        <time>2014-08-31T12:39:45Z</time>
      </trkpt>
      <trkpt lat="40.282050" lon="-4.872517">
        <ele>1700.0</ele>
        <time>2014-08-31T12:39:47Z</time>
      </trkpt>
      <trkpt lat="40.282133" lon="-4.872333">
        <ele>1695.0</ele>
        <time>2014-08-31T12:39:49Z</time>
      </trkpt>
      <trkpt lat="40.282233" lon="-4.872100">
        <ele>1688.0</ele>
        <time>2014-08-31T12:39:51Z</time>
      </trkpt>
      <trkpt lat="40.282350" lon="-4.871850">
        <ele>1683.0</ele>
        <time>2014-08-31T12:39:53Z</time>
      </trkpt>
      <trkpt lat="40.282450" lon="-4.871633">
        <ele>1678.0</ele>
        <time>2014-08-31T12:39:55Z</time>
      </trkpt>
      <trkpt lat="40.282533" lon="-4.871400">
        <ele>1670.0</ele>
        <time>2014-08-31T12:39:57Z</time>
      </trkpt>
      <trkpt lat="40.282650" lon="-4.871117">
        <ele>1664.0</ele>
        <time>2014-08-31T12:39:59Z</time>
      </trkpt>
      <trkpt lat="40.282767" lon="-4.870833">
        <ele>1664.0</ele>
        <time>2014-08-31T12:40:01Z</time>
      </trkpt>
      <trkpt lat="40.282850" lon="-4.870617">
        <ele>1663.0</ele>
        <time>2014-08-31T12:40:03Z</time>
      </trkpt>
      <trkpt lat="40.282950" lon="-4.870383">
        <ele>1658.0</ele>
        <time>2014-08-31T12:40:05Z</time>
      </trkpt>
      <trkpt lat="40.283083" lon="-4.870133">
        <ele>1654.0</ele>
        <time>2014-08-31T12:40:07Z</time>
      </trkpt>
      <trkpt lat="40.283217" lon="-4.869917">
        <ele>1654.0</ele>
        <time>2014-08-31T12:40:09Z</time>
      </trkpt>
      <trkpt lat="40.283333" lon="-4.869700">
        <ele>1651.0</ele>
        <time>2014-08-31T12:40:11Z</time>
      </trkpt>
      <trkpt lat="40.283433" lon="-4.869467">
        <ele>1646.0</ele>
        <time>2014-08-31T12:40:13Z</time>
      </trkpt>
      <trkpt lat="40.283550" lon="-4.869233">
        <ele>1643.0</ele>
        <time>2014-08-31T12:40:15Z</time>
      </trkpt>
      <trkpt lat="40.283650" lon="-4.869017">
        <ele>1641.0</ele>
        <time>2014-08-31T12:40:17Z</time>
      </trkpt>
      <trkpt lat="40.283767" lon="-4.868817">
        <ele>1637.0</ele>
        <time>2014-08-31T12:40:19Z</time>
      </trkpt>
      <trkpt lat="40.283883" lon="-4.868600">
        <ele>1634.0</ele>
        <time>2014-08-31T12:40:21Z</time>
      </trkpt>
      <trkpt lat="40.284000" lon="-4.868400">
        <ele>1631.0</ele>
        <time>2014-08-31T12:40:23Z</time>
      </trkpt>
      <trkpt lat="40.284117" lon="-4.868183">
        <ele>1628.0</ele>
        <time>2014-08-31T12:40:25Z</time>
      </trkpt>
      <trkpt lat="40.284267" lon="-4.867983">
        <ele>1625.0</ele>
        <time>2014-08-31T12:40:27Z</time>
      </trkpt>
      <trkpt lat="40.284400" lon="-4.867783">
        <ele>1621.0</ele>
        <time>2014-08-31T12:40:29Z</time>
      </trkpt>
      <trkpt lat="40.284567" lon="-4.867600">
        <ele>1619.0</ele>
        <time>2014-08-31T12:40:31Z</time>
      </trkpt>
      <trkpt lat="40.284733" lon="-4.867417">
        <ele>1617.0</ele>
        <time>2014-08-31T12:40:33Z</time>
      </trkpt>
      <trkpt lat="40.284933" lon="-4.867267">
        <ele>1616.0</ele>
        <time>2014-08-31T12:40:35Z</time>
      </trkpt>
      <trkpt lat="40.285133" lon="-4.867150">
        <ele>1614.0</ele>
        <time>2014-08-31T12:40:37Z</time>
      </trkpt>
      <trkpt lat="40.285317" lon="-4.867017">
        <ele>1611.0</ele>
        <time>2014-08-31T12:40:39Z</time>
      </trkpt>
      <trkpt lat="40.285517" lon="-4.866900">
        <ele>1607.0</ele>
        <time>2014-08-31T12:40:41Z</time>
      </trkpt>
      <trkpt lat="40.285683" lon="-4.866783">
        <ele>1606.0</ele>
        <time>2014-08-31T12:40:43Z</time>
      </trkpt>
      <trkpt lat="40.285817" lon="-4.866650">
        <ele>1603.0</ele>
        <time>2014-08-31T12:40:45Z</time>
      </trkpt>
      <trkpt lat="40.285967" lon="-4.866500">
        <ele>1597.0</ele>
        <time>2014-08-31T12:40:47Z</time>
      </trkpt>
      <trkpt lat="40.286150" lon="-4.866333">
        <ele>1592.0</ele>
        <time>2014-08-31T12:40:49Z</time>
      </trkpt>
      <trkpt lat="40.286350" lon="-4.866217">
        <ele>1591.0</ele>
        <time>2014-08-31T12:40:51Z</time>
      </trkpt>
      <trkpt lat="40.286567" lon="-4.866133">
        <ele>1589.0</ele>
        <time>2014-08-31T12:40:53Z</time>
      </trkpt>
      <trkpt lat="40.286767" lon="-4.866100">
        <ele>1586.0</ele>
        <time>2014-08-31T12:40:55Z</time>
      </trkpt>
      <trkpt lat="40.287000" lon="-4.866083">
        <ele>1581.0</ele>
        <time>2014-08-31T12:40:57Z</time>
      </trkpt>
      <trkpt lat="40.287250" lon="-4.866083">
        <ele>1577.0</ele>
        <time>2014-08-31T12:40:59Z</time>
      </trkpt>
      <trkpt lat="40.287500" lon="-4.866133">
        <ele>1574.0</ele>
        <time>2014-08-31T12:41:01Z</time>
      </trkpt>
      <trkpt lat="40.287733" lon="-4.866133">
        <ele>1569.0</ele>
        <time>2014-08-31T12:41:03Z</time>
      </trkpt>
      <trkpt lat="40.287967" lon="-4.866100">
        <ele>1563.0</ele>
        <time>2014-08-31T12:41:05Z</time>
      </trkpt>
      <trkpt lat="40.288217" lon="-4.866083">
        <ele>1559.0</ele>
        <time>2014-08-31T12:41:07Z</time>
      </trkpt>
      <trkpt lat="40.288467" lon="-4.866050">
        <ele>1555.0</ele>
        <time>2014-08-31T12:41:09Z</time>
      </trkpt>
      <trkpt lat="40.288733" lon="-4.866033">
        <ele>1554.0</ele>
        <time>2014-08-31T12:41:11Z</time>
      </trkpt>
      <trkpt lat="40.289000" lon="-4.866000">
        <ele>1553.0</ele>
        <time>2014-08-31T12:41:13Z</time>
      </trkpt>
      <trkpt lat="40.289267" lon="-4.865983">
        <ele>1551.0</ele>
        <time>2014-08-31T12:41:15Z</time>
      </trkpt>
      <trkpt lat="40.289567" lon="-4.865983">
        <ele>1550.0</ele>
        <time>2014-08-31T12:41:17Z</time>
      </trkpt>
      <trkpt lat="40.289833" lon="-4.865967">
        <ele>1550.0</ele>
        <time>2014-08-31T12:41:19Z</time>
      </trkpt>
      <trkpt lat="40.290083" lon="-4.865967">
        <ele>1549.0</ele>
        <time>2014-08-31T12:41:21Z</time>
      </trkpt>
      <trkpt lat="40.290367" lon="-4.865933">
        <ele>1546.0</ele>
        <time>2014-08-31T12:41:23Z</time>
      </trkpt>
      <trkpt lat="40.290650" lon="-4.865883">
        <ele>1545.0</ele>
        <time>2014-08-31T12:41:25Z</time>
      </trkpt>
      <trkpt lat="40.290900" lon="-4.865900">
        <ele>1543.0</ele>
        <time>2014-08-31T12:41:27Z</time>
      </trkpt>
      <trkpt lat="40.291200" lon="-4.865917">
        <ele>1543.0</ele>
        <time>2014-08-31T12:41:29Z</time>
      </trkpt>
      <trkpt lat="40.291483" lon="-4.865933">
        <ele>1545.0</ele>
        <time>2014-08-31T12:41:31Z</time>
      </trkpt>
      <trkpt lat="40.291783" lon="-4.865917">
        <ele>1547.0</ele>
        <time>2014-08-31T12:41:33Z</time>
      </trkpt>
      <trkpt lat="40.292117" lon="-4.865883">
        <ele>1552.0</ele>
        <time>2014-08-31T12:41:35Z</time>
      </trkpt>
      <trkpt lat="40.292350" lon="-4.865733">
        <ele>1561.0</ele>
        <time>2014-08-31T12:41:37Z</time>
      </trkpt>
      <trkpt lat="40.292467" lon="-4.865517">
        <ele>1569.0</ele>
        <time>2014-08-31T12:41:39Z</time>
      </trkpt>
      <trkpt lat="40.292533" lon="-4.865300">
        <ele>1575.0</ele>
        <time>2014-08-31T12:41:41Z</time>
      </trkpt>
      <trkpt lat="40.292500" lon="-4.865067">
        <ele>1578.0</ele>
        <time>2014-08-31T12:41:43Z</time>
      </trkpt>
      <trkpt lat="40.292400" lon="-4.864917">
        <ele>1582.0</ele>
        <time>2014-08-31T12:41:45Z</time>
      </trkpt>
      <trkpt lat="40.292317" lon="-4.864850">
        <ele>1590.0</ele>
        <time>2014-08-31T12:41:47Z</time>
      </trkpt>
      <trkpt lat="40.292267" lon="-4.864883">
        <ele>1596.0</ele>
        <time>2014-08-31T12:41:49Z</time>
      </trkpt>
      <trkpt lat="40.292267" lon="-4.865067">
        <ele>1598.0</ele>
        <time>2014-08-31T12:41:51Z</time>
      </trkpt>
      <trkpt lat="40.292383" lon="-4.865300">
        <ele>1602.0</ele>
        <time>2014-08-31T12:41:53Z</time>
      </trkpt>
      <trkpt lat="40.292600" lon="-4.865500">
        <ele>1608.0</ele>
        <time>2014-08-31T12:41:55Z</time>
      </trkpt>
      <trkpt lat="40.292833" lon="-4.865667">
        <ele>1615.0</ele>
        <time>2014-08-31T12:41:57Z</time>
      </trkpt>
      <trkpt lat="40.293100" lon="-4.865733">
        <ele>1623.0</ele>
        <time>2014-08-31T12:41:59Z</time>
      </trkpt>
      <trkpt lat="40.293350" lon="-4.865733">
        <ele>1633.0</ele>
        <time>2014-08-31T12:42:01Z</time>
      </trkpt>
      <trkpt lat="40.293617" lon="-4.865683">
        <ele>1641.0</ele>
        <time>2014-08-31T12:42:03Z</time>
      </trkpt>
      <trkpt lat="40.293833" lon="-4.865500">
        <ele>1647.0</ele>
        <time>2014-08-31T12:42:05Z</time>
      </trkpt>
      <trkpt lat="40.293950" lon="-4.865217">
        <ele>1653.0</ele>
        <time>2014-08-31T12:42:07Z</time>
      </trkpt>
      <trkpt lat="40.293950" lon="-4.864950">
        <ele>1664.0</ele>
        <time>2014-08-31T12:42:09Z</time>
      </trkpt>
      <trkpt lat="40.293933" lon="-4.864750">
        <ele>1672.0</ele>
        <time>2014-08-31T12:42:11Z</time>
      </trkpt>
      <trkpt lat="40.293900" lon="-4.864583">
        <ele>1677.0</ele>
        <time>2014-08-31T12:42:13Z</time>
      </trkpt>
      <trkpt lat="40.293767" lon="-4.864450">
        <ele>1679.0</ele>
        <time>2014-08-31T12:42:15Z</time>
      </trkpt>
      <trkpt lat="40.293683" lon="-4.864517">
        <ele>1682.0</ele>
        <time>2014-08-31T12:42:17Z</time>
      </trkpt>
      <trkpt lat="40.293700" lon="-4.864667">
        <ele>1685.0</ele>
        <time>2014-08-31T12:42:19Z</time>
      </trkpt>
      <trkpt lat="40.293750" lon="-4.864867">
        <ele>1688.0</ele>
        <time>2014-08-31T12:42:21Z</time>
      </trkpt>
      <trkpt lat="40.293917" lon="-4.865067">
        <ele>1692.0</ele>
        <time>2014-08-31T12:42:23Z</time>
      </trkpt>
      <trkpt lat="40.294133" lon="-4.865217">
        <ele>1701.0</ele>
        <time>2014-08-31T12:42:25Z</time>
      </trkpt>
      <trkpt lat="40.294350" lon="-4.865317">
        <ele>1712.0</ele>
        <time>2014-08-31T12:42:27Z</time>
      </trkpt>
      <trkpt lat="40.294550" lon="-4.865317">
        <ele>1718.0</ele>
        <time>2014-08-31T12:42:29Z</time>
      </trkpt>
      <trkpt lat="40.294783" lon="-4.865267">
        <ele>1720.0</ele>
        <time>2014-08-31T12:42:31Z</time>
      </trkpt>
      <trkpt lat="40.294983" lon="-4.865083">
        <ele>1723.0</ele>
        <time>2014-08-31T12:42:33Z</time>
      </trkpt>
      <trkpt lat="40.295133" lon="-4.864800">
        <ele>1731.0</ele>
        <time>2014-08-31T12:42:35Z</time>
      </trkpt>
      <trkpt lat="40.295183" lon="-4.864550">
        <ele>1741.0</ele>
        <time>2014-08-31T12:42:37Z</time>
      </trkpt>
      <trkpt lat="40.295150" lon="-4.864317">
        <ele>1748.0</ele>
        <time>2014-08-31T12:42:39Z</time>
      </trkpt>
      <trkpt lat="40.295133" lon="-4.864167">
        <ele>1755.0</ele>
        <time>2014-08-31T12:42:41Z</time>
      </trkpt>
      <trkpt lat="40.295117" lon="-4.864100">
        <ele>1757.0</ele>
        <time>2014-08-31T12:42:43Z</time>
      </trkpt>
      <trkpt lat="40.295017" lon="-4.864083">
        <ele>1756.0</ele>
        <time>2014-08-31T12:42:45Z</time>
      </trkpt>
      <trkpt lat="40.294917" lon="-4.864217">
        <ele>1753.0</ele>
        <time>2014-08-31T12:42:47Z</time>
      </trkpt>
      <trkpt lat="40.294883" lon="-4.864450">
        <ele>1756.0</ele>
        <time>2014-08-31T12:42:49Z</time>
      </trkpt>
      <trkpt lat="40.294933" lon="-4.864667">
        <ele>1761.0</ele>
        <time>2014-08-31T12:42:51Z</time>
      </trkpt>
      <trkpt lat="40.295083" lon="-4.864883">
        <ele>1764.0</ele>
        <time>2014-08-31T12:42:53Z</time>
      </trkpt>
      <trkpt lat="40.295317" lon="-4.865033">
        <ele>1771.0</ele>
        <time>2014-08-31T12:42:55Z</time>
      </trkpt>
      <trkpt lat="40.295567" lon="-4.865100">
        <ele>1782.0</ele>
        <time>2014-08-31T12:42:57Z</time>
      </trkpt>
      <trkpt lat="40.295783" lon="-4.865050">
        <ele>1792.0</ele>
        <time>2014-08-31T12:42:59Z</time>
      </trkpt>
      <trkpt lat="40.296033" lon="-4.864967">
        <ele>1800.0</ele>
        <time>2014-08-31T12:43:01Z</time>
      </trkpt>
      <trkpt lat="40.296250" lon="-4.864767">
        <ele>1808.0</ele>
        <time>2014-08-31T12:43:03Z</time>
      </trkpt>
      <trkpt lat="40.296383" lon="-4.864517">
        <ele>1817.0</ele>
        <time>2014-08-31T12:43:05Z</time>
      </trkpt>
      <trkpt lat="40.296433" lon="-4.864300">
        <ele>1826.0</ele>
        <time>2014-08-31T12:43:07Z</time>
      </trkpt>
      <trkpt lat="40.296417" lon="-4.864133">
        <ele>1833.0</ele>
        <time>2014-08-31T12:43:09Z</time>
      </trkpt>
      <trkpt lat="40.296350" lon="-4.864050">
        <ele>1840.0</ele>
        <time>2014-08-31T12:43:11Z</time>
      </trkpt>
      <trkpt lat="40.296267" lon="-4.864117">
        <ele>1846.0</ele>
        <time>2014-08-31T12:43:13Z</time>
      </trkpt>
      <trkpt lat="40.296283" lon="-4.864333">
        <ele>1851.0</ele>
        <time>2014-08-31T12:43:15Z</time>
      </trkpt>
      <trkpt lat="40.296400" lon="-4.864533">
        <ele>1858.0</ele>
        <time>2014-08-31T12:43:17Z</time>
      </trkpt>
      <trkpt lat="40.296583" lon="-4.864717">
        <ele>1866.0</ele>
        <time>2014-08-31T12:43:19Z</time>
      </trkpt>
      <trkpt lat="40.296800" lon="-4.864800">
        <ele>1875.0</ele>
        <time>2014-08-31T12:43:21Z</time>
      </trkpt>
      <trkpt lat="40.297033" lon="-4.864767">
        <ele>1881.0</ele>
        <time>2014-08-31T12:43:23Z</time>
      </trkpt>
      <trkpt lat="40.297283" lon="-4.864650">
        <ele>1885.0</ele>
        <time>2014-08-31T12:43:25Z</time>
      </trkpt>
      <trkpt lat="40.297500" lon="-4.864467">
        <ele>1892.0</ele>
        <time>2014-08-31T12:43:27Z</time>
      </trkpt>
      <trkpt lat="40.297650" lon="-4.864200">
        <ele>1899.0</ele>
        <time>2014-08-31T12:43:29Z</time>
      </trkpt>
      <trkpt lat="40.297683" lon="-4.863950">
        <ele>1908.0</ele>
        <time>2014-08-31T12:43:31Z</time>
      </trkpt>
      <trkpt lat="40.297633" lon="-4.863833">
        <ele>1914.0</ele>
        <time>2014-08-31T12:43:33Z</time>
      </trkpt>
      <trkpt lat="40.297550" lon="-4.863800">
        <ele>1916.0</ele>
        <time>2014-08-31T12:43:35Z</time>
      </trkpt>
      <trkpt lat="40.297417" lon="-4.863783">
        <ele>1918.0</ele>
        <time>2014-08-31T12:43:37Z</time>
      </trkpt>
      <trkpt lat="40.297317" lon="-4.863900">
        <ele>1922.0</ele>
        <time>2014-08-31T12:43:39Z</time>
      </trkpt>
      <trkpt lat="40.297283" lon="-4.864083">
        <ele>1930.0</ele>
        <time>2014-08-31T12:43:41Z</time>
      </trkpt>
      <trkpt lat="40.297300" lon="-4.864250">
        <ele>1935.0</ele>
        <time>2014-08-31T12:43:43Z</time>
      </trkpt>
      <trkpt lat="40.297367" lon="-4.864450">
        <ele>1939.0</ele>
        <time>2014-08-31T12:43:45Z</time>
      </trkpt>
      <trkpt lat="40.297550" lon="-4.864633">
        <ele>1942.0</ele>
        <time>2014-08-31T12:43:47Z</time>
      </trkpt>
      <trkpt lat="40.297767" lon="-4.864717">
        <ele>1949.0</ele>
        <time>2014-08-31T12:43:49Z</time>
      </trkpt>
      <trkpt lat="40.298000" lon="-4.864733">
        <ele>1953.0</ele>
        <time>2014-08-31T12:43:51Z</time>
      </trkpt>
      <trkpt lat="40.298217" lon="-4.864600">
        <ele>1957.0</ele>
        <time>2014-08-31T12:43:53Z</time>
      </trkpt>
      <trkpt lat="40.298400" lon="-4.864367">
        <ele>1963.0</ele>
        <time>2014-08-31T12:43:55Z</time>
      </trkpt>
      <trkpt lat="40.298500" lon="-4.864117">
        <ele>1970.0</ele>
        <time>2014-08-31T12:43:57Z</time>
      </trkpt>
      <trkpt lat="40.298517" lon="-4.863950">
        <ele>1976.0</ele>
        <time>2014-08-31T12:43:59Z</time>
      </trkpt>
      <trkpt lat="40.298483" lon="-4.863800">
        <ele>1978.0</ele>
        <time>2014-08-31T12:44:01Z</time>
      </trkpt>
      <trkpt lat="40.298383" lon="-4.863667">
        <ele>1979.0</ele>
        <time>2014-08-31T12:44:03Z</time>
      </trkpt>
      <trkpt lat="40.298267" lon="-4.863617">
        <ele>1982.0</ele>
        <time>2014-08-31T12:44:05Z</time>
      </trkpt>
      <trkpt lat="40.298183" lon="-4.863650">
        <ele>1987.0</ele>
        <time>2014-08-31T12:44:07Z</time>
      </trkpt>
      <trkpt lat="40.298100" lon="-4.863717">
        <ele>1991.0</ele>
        <time>2014-08-31T12:44:09Z</time>
      </trkpt>
      <trkpt lat="40.298033" lon="-4.863883">
        <ele>1995.0</ele>
        <time>2014-08-31T12:44:11Z</time>
      </trkpt>
      <trkpt lat="40.298083" lon="-4.864117">
        <ele>1998.0</ele>
        <time>2014-08-31T12:44:13Z</time>
      </trkpt>
      <trkpt lat="40.298183" lon="-4.864350">
        <ele>2004.0</ele>
        <time>2014-08-31T12:44:15Z</time>
      </trkpt>
      <trkpt lat="40.298317" lon="-4.864550">
        <ele>2014.0</ele>
        <time>2014-08-31T12:44:17Z</time>
      </trkpt>
      <trkpt lat="40.298500" lon="-4.864650">
        <ele>2022.0</ele>
        <time>2014-08-31T12:44:19Z</time>
      </trkpt>
      <trkpt lat="40.298717" lon="-4.864633">
        <ele>2028.0</ele>
        <time>2014-08-31T12:44:21Z</time>
      </trkpt>
      <trkpt lat="40.298917" lon="-4.864517">
        <ele>2033.0</ele>
        <time>2014-08-31T12:44:23Z</time>
      </trkpt>
      <trkpt lat="40.299067" lon="-4.864317">
        <ele>2037.0</ele>
        <time>2014-08-31T12:44:25Z</time>
      </trkpt>
      <trkpt lat="40.299133" lon="-4.864050">
        <ele>2044.0</ele>
        <time>2014-08-31T12:44:27Z</time>
      </trkpt>
      <trkpt lat="40.299100" lon="-4.863850">
        <ele>2052.0</ele>
        <time>2014-08-31T12:44:29Z</time>
      </trkpt>
      <trkpt lat="40.299050" lon="-4.863717">
        <ele>2059.0</ele>
        <time>2014-08-31T12:44:31Z</time>
      </trkpt>
      <trkpt lat="40.298983" lon="-4.863617">
        <ele>2060.0</ele>
        <time>2014-08-31T12:44:33Z</time>
      </trkpt>
      <trkpt lat="40.298833" lon="-4.863567">
        <ele>2061.0</ele>
        <time>2014-08-31T12:44:35Z</time>
      </trkpt>
      <trkpt lat="40.298683" lon="-4.863617">
        <ele>2067.0</ele>
        <time>2014-08-31T12:44:37Z</time>
      </trkpt>
      <trkpt lat="40.298633" lon="-4.863683">
        <ele>2077.0</ele>
        <time>2014-08-31T12:44:39Z</time>
      </trkpt>
      <trkpt lat="40.298550" lon="-4.863767">
        <ele>2081.0</ele>
        <time>2014-08-31T12:44:41Z</time>
      </trkpt>
      <trkpt lat="40.298467" lon="-4.863933">
        <ele>2088.0</ele>
        <time>2014-08-31T12:44:43Z</time>
      </trkpt>
      <trkpt lat="40.298500" lon="-4.864133">
        <ele>2098.0</ele>
        <time>2014-08-31T12:44:45Z</time>
      </trkpt>
      <trkpt lat="40.298650" lon="-4.864283">
        <ele>2107.0</ele>
        <time>2014-08-31T12:44:47Z</time>
      </trkpt>
      <trkpt lat="40.298850" lon="-4.864383">
        <ele>2116.0</ele>
        <time>2014-08-31T12:44:49Z</time>
      </trkpt>
      <trkpt lat="40.299133" lon="-4.864367">
        <ele>2123.0</ele>
        <time>2014-08-31T12:44:51Z</time>
      </trkpt>
      <trkpt lat="40.299350" lon="-4.864167">
        <ele>2132.0</ele>
        <time>2014-08-31T12:44:53Z</time>
      </trkpt>
      <trkpt lat="40.299483" lon="-4.863933">
        <ele>2139.0</ele>
        <time>2014-08-31T12:44:55Z</time>
      </trkpt>
      <trkpt lat="40.299517" lon="-4.863683">
        <ele>2145.0</ele>
        <time>2014-08-31T12:44:57Z</time>
      </trkpt>
      <trkpt lat="40.299500" lon="-4.863483">
        <ele>2151.0</ele>
        <time>2014-08-31T12:44:59Z</time>
      </trkpt>
      <trkpt lat="40.299433" lon="-4.863350">
        <ele>2156.0</ele>
        <time>2014-08-31T12:45:01Z</time>
      </trkpt>
      <trkpt lat="40.299300" lon="-4.863300">
        <ele>2160.0</ele>
        <time>2014-08-31T12:45:03Z</time>
      </trkpt>
      <trkpt lat="40.299167" lon="-4.863383">
        <ele>2164.0</ele>
        <time>2014-08-31T12:45:05Z</time>
      </trkpt>
      <trkpt lat="40.299083" lon="-4.863500">
        <ele>2177.0</ele>
        <time>2014-08-31T12:45:07Z</time>
      </trkpt>
      <trkpt lat="40.299100" lon="-4.863633">
        <ele>2187.0</ele>
        <time>2014-08-31T12:45:09Z</time>
      </trkpt>
      <trkpt lat="40.299150" lon="-4.863817">
        <ele>2195.0</ele>
        <time>2014-08-31T12:45:11Z</time>
      </trkpt>
      <trkpt lat="40.299300" lon="-4.863967">
        <ele>2204.0</ele>
        <time>2014-08-31T12:45:13Z</time>
      </trkpt>
      <trkpt lat="40.299483" lon="-4.864050">
        <ele>2217.0</ele>
        <time>2014-08-31T12:45:15Z</time>
      </trkpt>
      <trkpt lat="40.299683" lon="-4.864033">
        <ele>2228.0</ele>
        <time>2014-08-31T12:45:17Z</time>
      </trkpt>
      <trkpt lat="40.299900" lon="-4.863833">
        <ele>2235.0</ele>
        <time>2014-08-31T12:45:19Z</time>
      </trkpt>
      <trkpt lat="40.299967" lon="-4.863567">
        <ele>2241.0</ele>
        <time>2014-08-31T12:45:21Z</time>
      </trkpt>
      <trkpt lat="40.299983" lon="-4.863350">
        <ele>2250.0</ele>
        <time>2014-08-31T12:45:23Z</time>
      </trkpt>
      <trkpt lat="40.300000" lon="-4.863183">
        <ele>2256.0</ele>
        <time>2014-08-31T12:45:25Z</time>
      </trkpt>
      <trkpt lat="40.299917" lon="-4.863017">
        <ele>2260.0</ele>
        <time>2014-08-31T12:45:27Z</time>
      </trkpt>
      <trkpt lat="40.299767" lon="-4.862967">
        <ele>2265.0</ele>
        <time>2014-08-31T12:45:29Z</time>
      </trkpt>
      <trkpt lat="40.299650" lon="-4.863067">
        <ele>2273.0</ele>
        <time>2014-08-31T12:45:31Z</time>
      </trkpt>
      <trkpt lat="40.299550" lon="-4.863200">
        <ele>2281.0</ele>
        <time>2014-08-31T12:45:33Z</time>
      </trkpt>
      <trkpt lat="40.299517" lon="-4.863383">
        <ele>2287.0</ele>
        <time>2014-08-31T12:45:35Z</time>
      </trkpt>
      <trkpt lat="40.299517" lon="-4.863600">
        <ele>2293.0</ele>
        <time>2014-08-31T12:45:37Z</time>
      </trkpt>
      <trkpt lat="40.299633" lon="-4.863783">
        <ele>2295.0</ele>
        <time>2014-08-31T12:45:39Z</time>
      </trkpt>
      <trkpt lat="40.299833" lon="-4.863917">
        <ele>2292.0</ele>
        <time>2014-08-31T12:45:41Z</time>
      </trkpt>
      <trkpt lat="40.300100" lon="-4.864017">
        <ele>2290.0</ele>
        <time>2014-08-31T12:45:43Z</time>
      </trkpt>
      <trkpt lat="40.300383" lon="-4.864033">
        <ele>2295.0</ele>
        <time>2014-08-31T12:45:45Z</time>
      </trkpt>
      <trkpt lat="40.300583" lon="-4.864017">
        <ele>2308.0</ele>
        <time>2014-08-31T12:45:47Z</time>
      </trkpt>
      <trkpt lat="40.300783" lon="-4.863933">
        <ele>2314.0</ele>
        <time>2014-08-31T12:45:49Z</time>
      </trkpt>
      <trkpt lat="40.300933" lon="-4.863700">
        <ele>2318.0</ele>
        <time>2014-08-31T12:45:51Z</time>
      </trkpt>
      <trkpt lat="40.300933" lon="-4.863467">
        <ele>2326.0</ele>
        <time>2014-08-31T12:45:53Z</time>
      </trkpt>
      <trkpt lat="40.300867" lon="-4.863317">
        <ele>2334.0</ele>
        <time>2014-08-31T12:45:55Z</time>
      </trkpt>
      <trkpt lat="40.300783" lon="-4.863217">
        <ele>2337.0</ele>
        <time>2014-08-31T12:45:57Z</time>
      </trkpt>
      <trkpt lat="40.300617" lon="-4.863167">
        <ele>2339.0</ele>
        <time>2014-08-31T12:45:59Z</time>
      </trkpt>
      <trkpt lat="40.300450" lon="-4.863217">
        <ele>2344.0</ele>
        <time>2014-08-31T12:46:01Z</time>
      </trkpt>
      <trkpt lat="40.300317" lon="-4.863300">
        <ele>2353.0</ele>
        <time>2014-08-31T12:46:03Z</time>
      </trkpt>
      <trkpt lat="40.300250" lon="-4.863467">
        <ele>2358.0</ele>
        <time>2014-08-31T12:46:05Z</time>
      </trkpt>
      <trkpt lat="40.300250" lon="-4.863750">
        <ele>2361.0</ele>
        <time>2014-08-31T12:46:07Z</time>
      </trkpt>
      <trkpt lat="40.300433" lon="-4.864017">
        <ele>2370.0</ele>
        <time>2014-08-31T12:46:09Z</time>
      </trkpt>
      <trkpt lat="40.300600" lon="-4.864150">
        <ele>2374.0</ele>
        <time>2014-08-31T12:46:11Z</time>
      </trkpt>
      <trkpt lat="40.300750" lon="-4.864267">
        <ele>2369.0</ele>
        <time>2014-08-31T12:46:13Z</time>
      </trkpt>
      <trkpt lat="40.300967" lon="-4.864467">
        <ele>2364.0</ele>
        <time>2014-08-31T12:46:15Z</time>
      </trkpt>
      <trkpt lat="40.301233" lon="-4.864600">
        <ele>2363.0</ele>
        <time>2014-08-31T12:46:17Z</time>
      </trkpt>
      <trkpt lat="40.301500" lon="-4.864617">
        <ele>2364.0</ele>
        <time>2014-08-31T12:46:19Z</time>
      </trkpt>
      <trkpt lat="40.301750" lon="-4.864533">
        <ele>2365.0</ele>
        <time>2014-08-31T12:46:21Z</time>
      </trkpt>
      <trkpt lat="40.301917" lon="-4.864283">
        <ele>2370.0</ele>
        <time>2014-08-31T12:46:23Z</time>
      </trkpt>
      <trkpt lat="40.302000" lon="-4.864050">
        <ele>2381.0</ele>
        <time>2014-08-31T12:46:25Z</time>
      </trkpt>
      <trkpt lat="40.302050" lon="-4.863850">
        <ele>2385.0</ele>
        <time>2014-08-31T12:46:27Z</time>
      </trkpt>
      <trkpt lat="40.302067" lon="-4.863633">
        <ele>2387.0</ele>
        <time>2014-08-31T12:46:29Z</time>
      </trkpt>
      <trkpt lat="40.302050" lon="-4.863433">
        <ele>2389.0</ele>
        <time>2014-08-31T12:46:31Z</time>
      </trkpt>
      <trkpt lat="40.301967" lon="-4.863267">
        <ele>2392.0</ele>
        <time>2014-08-31T12:46:33Z</time>
      </trkpt>
      <trkpt lat="40.301867" lon="-4.863183">
        <ele>2394.0</ele>
        <time>2014-08-31T12:46:35Z</time>
      </trkpt>
      <trkpt lat="40.301717" lon="-4.863150">
        <ele>2396.0</ele>
        <time>2014-08-31T12:46:37Z</time>
      </trkpt>
      <trkpt lat="40.301567" lon="-4.863183">
        <ele>2398.0</ele>
        <time>2014-08-31T12:46:39Z</time>
      </trkpt>
      <trkpt lat="40.301433" lon="-4.863283">
        <ele>2401.0</ele>
        <time>2014-08-31T12:46:41Z</time>
      </trkpt>
      <trkpt lat="40.301317" lon="-4.863450">
        <ele>2403.0</ele>
        <time>2014-08-31T12:46:43Z</time>
      </trkpt>
      <trkpt lat="40.301233" lon="-4.863683">
        <ele>2405.0</ele>
        <time>2014-08-31T12:46:45Z</time>
      </trkpt>
      <trkpt lat="40.301217" lon="-4.863967">
        <ele>2407.0</ele>
        <time>2014-08-31T12:46:47Z</time>
      </trkpt>
      <trkpt lat="40.301267" lon="-4.864233">
        <ele>2409.0</ele>
        <time>2014-08-31T12:46:49Z</time>
      </trkpt>
      <trkpt lat="40.301400" lon="-4.864483">
        <ele>2410.0</ele>
        <time>2014-08-31T12:46:51Z</time>
      </trkpt>
      <trkpt lat="40.301650" lon="-4.864650">
        <ele>2409.0</ele>
        <time>2014-08-31T12:46:53Z</time>
      </trkpt>
      <trkpt lat="40.301933" lon="-4.864650">
        <ele>2409.0</ele>
        <time>2014-08-31T12:46:55Z</time>
      </trkpt>
      <trkpt lat="40.302167" lon="-4.864550">
        <ele>2408.0</ele>
        <time>2014-08-31T12:46:57Z</time>
      </trkpt>
      <trkpt lat="40.302400" lon="-4.864400">
        <ele>2408.0</ele>
        <time>2014-08-31T12:46:59Z</time>
      </trkpt>
      <trkpt lat="40.302550" lon="-4.864233">
        <ele>2409.0</ele>
        <time>2014-08-31T12:47:01Z</time>
      </trkpt>
      <trkpt lat="40.302600" lon="-4.864033">
        <ele>2408.0</ele>
        <time>2014-08-31T12:47:03Z</time>
      </trkpt>
      <trkpt lat="40.302617" lon="-4.863800">
        <ele>2408.0</ele>
        <time>2014-08-31T12:47:05Z</time>
      </trkpt>
      <trkpt lat="40.302617" lon="-4.863550">
        <ele>2410.0</ele>
        <time>2014-08-31T12:47:07Z</time>
      </trkpt>
      <trkpt lat="40.302617" lon="-4.863333">
        <ele>2413.0</ele>
        <time>2014-08-31T12:47:09Z</time>
      </trkpt>
      <trkpt lat="40.302600" lon="-4.863133">
        <ele>2413.0</ele>
        <time>2014-08-31T12:47:11Z</time>
      </trkpt>
      <trkpt lat="40.302567" lon="-4.862917">
        <ele>2412.0</ele>
        <time>2014-08-31T12:47:13Z</time>
      </trkpt>
      <trkpt lat="40.302533" lon="-4.862700">
        <ele>2412.0</ele>
        <time>2014-08-31T12:47:15Z</time>
      </trkpt>
      <trkpt lat="40.302483" lon="-4.862500">
        <ele>2412.0</ele>
        <time>2014-08-31T12:47:17Z</time>
      </trkpt>
      <trkpt lat="40.302450" lon="-4.862283">
        <ele>2412.0</ele>
        <time>2014-08-31T12:47:19Z</time>
      </trkpt>
      <trkpt lat="40.302400" lon="-4.862067">
        <ele>2412.0</ele>
        <time>2014-08-31T12:47:21Z</time>
      </trkpt>
      <trkpt lat="40.302367" lon="-4.861850">
        <ele>2412.0</ele>
        <time>2014-08-31T12:47:23Z</time>
      </trkpt>
      <trkpt lat="40.302333" lon="-4.861633">
        <ele>2409.0</ele>
        <time>2014-08-31T12:47:25Z</time>
      </trkpt>
      <trkpt lat="40.302283" lon="-4.861400">
        <ele>2408.0</ele>
        <time>2014-08-31T12:47:27Z</time>
      </trkpt>
      <trkpt lat="40.302233" lon="-4.861183">
        <ele>2408.0</ele>
        <time>2014-08-31T12:47:29Z</time>
      </trkpt>
      <trkpt lat="40.302200" lon="-4.860983">
        <ele>2408.0</ele>
        <time>2014-08-31T12:47:31Z</time>
      </trkpt>
      <trkpt lat="40.302117" lon="-4.860767">
        <ele>2407.0</ele>
        <time>2014-08-31T12:47:33Z</time>
      </trkpt>
      <trkpt lat="40.302017" lon="-4.860600">
        <ele>2409.0</ele>
        <time>2014-08-31T12:47:35Z</time>
      </trkpt>
      <trkpt lat="40.301900" lon="-4.860483">
        <ele>2412.0</ele>
        <time>2014-08-31T12:47:37Z</time>
      </trkpt>
      <trkpt lat="40.301800" lon="-4.860383">
        <ele>2410.0</ele>
        <time>2014-08-31T12:47:39Z</time>
      </trkpt>
      <trkpt lat="40.301650" lon="-4.860283">
        <ele>2408.0</ele>
        <time>2014-08-31T12:47:41Z</time>
      </trkpt>
      <trkpt lat="40.301500" lon="-4.860233">
        <ele>2408.0</ele>
        <time>2014-08-31T12:47:43Z</time>
      </trkpt>
      <trkpt lat="40.301367" lon="-4.860233">
        <ele>2410.0</ele>
        <time>2014-08-31T12:47:45Z</time>
      </trkpt>
      <trkpt lat="40.301233" lon="-4.860233">
        <ele>2409.0</ele>
        <time>2014-08-31T12:47:47Z</time>
      </trkpt>
      <trkpt lat="40.301083" lon="-4.860217">
        <ele>2409.0</ele>
        <time>2014-08-31T12:47:49Z</time>
      </trkpt>
      <trkpt lat="40.300950" lon="-4.860117">
        <ele>2411.0</ele>
        <time>2014-08-31T12:47:51Z</time>
      </trkpt>
      <trkpt lat="40.300883" lon="-4.859933">
        <ele>2411.0</ele>
        <time>2014-08-31T12:47:53Z</time>
      </trkpt>
      <trkpt lat="40.300800" lon="-4.859717">
        <ele>2410.0</ele>
        <time>2014-08-31T12:47:55Z</time>
      </trkpt>
      <trkpt lat="40.300717" lon="-4.859467">
        <ele>2411.0</ele>
        <time>2014-08-31T12:47:57Z</time>
      </trkpt>
      <trkpt lat="40.300667" lon="-4.859267">
        <ele>2414.0</ele>
        <time>2014-08-31T12:47:59Z</time>
      </trkpt>
      <trkpt lat="40.300600" lon="-4.859050">
        <ele>2413.0</ele>
        <time>2014-08-31T12:48:01Z</time>
      </trkpt>
      <trkpt lat="40.300550" lon="-4.858800">
        <ele>2408.0</ele>
        <time>2014-08-31T12:48:03Z</time>
      </trkpt>
      <trkpt lat="40.300500" lon="-4.858517">
        <ele>2407.0</ele>
        <time>2014-08-31T12:48:05Z</time>
      </trkpt>
      <trkpt lat="40.300433" lon="-4.858283">
        <ele>2405.0</ele>
        <time>2014-08-31T12:48:07Z</time>
      </trkpt>
      <trkpt lat="40.300367" lon="-4.858033">
        <ele>2398.0</ele>
        <time>2014-08-31T12:48:09Z</time>
      </trkpt>
      <trkpt lat="40.300317" lon="-4.857767">
        <ele>2391.0</ele>
        <time>2014-08-31T12:48:11Z</time>
      </trkpt>
      <trkpt lat="40.300250" lon="-4.857483">
        <ele>2384.0</ele>
        <time>2014-08-31T12:48:13Z</time>
      </trkpt>
      <trkpt lat="40.300150" lon="-4.857233">
        <ele>2378.0</ele>
        <time>2014-08-31T12:48:15Z</time>
      </trkpt>
      <trkpt lat="40.300033" lon="-4.856967">
        <ele>2372.0</ele>
        <time>2014-08-31T12:48:17Z</time>
      </trkpt>
      <trkpt lat="40.299950" lon="-4.856667">
        <ele>2369.0</ele>
        <time>2014-08-31T12:48:19Z</time>
      </trkpt>
      <trkpt lat="40.299883" lon="-4.856417">
        <ele>2369.0</ele>
        <time>2014-08-31T12:48:21Z</time>
      </trkpt>
      <trkpt lat="40.299833" lon="-4.856150">
        <ele>2364.0</ele>
        <time>2014-08-31T12:48:23Z</time>
      </trkpt>
      <trkpt lat="40.299783" lon="-4.855850">
        <ele>2360.0</ele>
        <time>2014-08-31T12:48:25Z</time>
      </trkpt>
      <trkpt lat="40.299750" lon="-4.855550">
        <ele>2357.0</ele>
        <time>2014-08-31T12:48:27Z</time>
      </trkpt>
      <trkpt lat="40.299717" lon="-4.855233">
        <ele>2356.0</ele>
        <time>2014-08-31T12:48:29Z</time>
      </trkpt>
      <trkpt lat="40.299683" lon="-4.854950">
        <ele>2356.0</ele>
        <time>2014-08-31T12:48:31Z</time>
      </trkpt>
      <trkpt lat="40.299667" lon="-4.854667">
        <ele>2353.0</ele>
        <time>2014-08-31T12:48:33Z</time>
      </trkpt>
      <trkpt lat="40.299667" lon="-4.854350">
        <ele>2350.0</ele>
        <time>2014-08-31T12:48:35Z</time>
      </trkpt>
      <trkpt lat="40.299633" lon="-4.854050">
        <ele>2349.0</ele>
        <time>2014-08-31T12:48:37Z</time>
      </trkpt>
      <trkpt lat="40.299617" lon="-4.853750">
        <ele>2346.0</ele>
        <time>2014-08-31T12:48:39Z</time>
      </trkpt>
      <trkpt lat="40.299567" lon="-4.853483">
        <ele>2344.0</ele>
        <time>2014-08-31T12:48:41Z</time>
      </trkpt>
      <trkpt lat="40.299533" lon="-4.853217">
        <ele>2340.0</ele>
        <time>2014-08-31T12:48:43Z</time>
      </trkpt>
      <trkpt lat="40.299467" lon="-4.852950">
        <ele>2335.0</ele>
        <time>2014-08-31T12:48:45Z</time>
      </trkpt>
      <trkpt lat="40.299400" lon="-4.852667">
        <ele>2330.0</ele>
        <time>2014-08-31T12:48:47Z</time>
      </trkpt>
      <trkpt lat="40.299333" lon="-4.852383">
        <ele>2326.0</ele>
        <time>2014-08-31T12:48:49Z</time>
      </trkpt>
      <trkpt lat="40.299283" lon="-4.852083">
        <ele>2322.0</ele>
        <time>2014-08-31T12:48:51Z</time>
      </trkpt>
      <trkpt lat="40.299217" lon="-4.851783">
        <ele>2317.0</ele>
        <time>2014-08-31T12:48:53Z</time>
      </trkpt>
      <trkpt lat="40.299167" lon="-4.851467">
        <ele>2312.0</ele>
        <time>2014-08-31T12:48:55Z</time>
      </trkpt>
      <trkpt lat="40.299117" lon="-4.851150">
        <ele>2309.0</ele>
        <time>2014-08-31T12:48:57Z</time>
      </trkpt>
      <trkpt lat="40.299050" lon="-4.850867">
        <ele>2308.0</ele>
        <time>2014-08-31T12:48:59Z</time>
      </trkpt>
      <trkpt lat="40.298983" lon="-4.850583">
        <ele>2307.0</ele>
        <time>2014-08-31T12:49:01Z</time>
      </trkpt>
      <trkpt lat="40.298917" lon="-4.850300">
        <ele>2305.0</ele>
        <time>2014-08-31T12:49:03Z</time>
      </trkpt>
      <trkpt lat="40.298867" lon="-4.850033">
        <ele>2303.0</ele>
        <time>2014-08-31T12:49:05Z</time>
      </trkpt>
      <trkpt lat="40.298833" lon="-4.849733">
        <ele>2299.0</ele>
        <time>2014-08-31T12:49:07Z</time>
      </trkpt>
      <trkpt lat="40.298750" lon="-4.849417">
        <ele>2294.0</ele>
        <time>2014-08-31T12:49:09Z</time>
      </trkpt>
      <trkpt lat="40.298683" lon="-4.849100">
        <ele>2291.0</ele>
        <time>2014-08-31T12:49:11Z</time>
      </trkpt>
      <trkpt lat="40.298583" lon="-4.848800">
        <ele>2289.0</ele>
        <time>2014-08-31T12:49:13Z</time>
      </trkpt>
      <trkpt lat="40.298483" lon="-4.848550">
        <ele>2289.0</ele>
        <time>2014-08-31T12:49:15Z</time>
      </trkpt>
      <trkpt lat="40.298383" lon="-4.848300">
        <ele>2287.0</ele>
        <time>2014-08-31T12:49:17Z</time>
      </trkpt>
      <trkpt lat="40.298283" lon="-4.848050">
        <ele>2285.0</ele>
        <time>2014-08-31T12:49:19Z</time>
      </trkpt>
      <trkpt lat="40.298183" lon="-4.847800">
        <ele>2282.0</ele>
        <time>2014-08-31T12:49:21Z</time>
      </trkpt>
      <trkpt lat="40.298100" lon="-4.847567">
        <ele>2281.0</ele>
        <time>2014-08-31T12:49:23Z</time>
      </trkpt>
      <trkpt lat="40.298000" lon="-4.847333">
        <ele>2278.0</ele>
        <time>2014-08-31T12:49:25Z</time>
      </trkpt>
      <trkpt lat="40.297917" lon="-4.847083">
        <ele>2274.0</ele>
        <time>2014-08-31T12:49:27Z</time>
      </trkpt>
      <trkpt lat="40.297833" lon="-4.846833">
        <ele>2272.0</ele>
        <time>2014-08-31T12:49:29Z</time>
      </trkpt>
      <trkpt lat="40.297767" lon="-4.846600">
        <ele>2270.0</ele>
        <time>2014-08-31T12:49:31Z</time>
      </trkpt>
      <trkpt lat="40.297700" lon="-4.846350">
        <ele>2269.0</ele>
        <time>2014-08-31T12:49:33Z</time>
      </trkpt>
      <trkpt lat="40.297650" lon="-4.846100">
        <ele>2267.0</ele>
        <time>2014-08-31T12:49:35Z</time>
      </trkpt>
      <trkpt lat="40.297583" lon="-4.845850">
        <ele>2266.0</ele>
        <time>2014-08-31T12:49:37Z</time>
      </trkpt>
      <trkpt lat="40.297533" lon="-4.845617">
        <ele>2264.0</ele>
        <time>2014-08-31T12:49:39Z</time>
      </trkpt>
      <trkpt lat="40.297467" lon="-4.845383">
        <ele>2261.0</ele>
        <time>2014-08-31T12:49:41Z</time>
      </trkpt>
      <trkpt lat="40.297417" lon="-4.845133">
        <ele>2258.0</ele>
        <time>2014-08-31T12:49:43Z</time>
      </trkpt>
      <trkpt lat="40.297367" lon="-4.844883">
        <ele>2255.0</ele>
        <time>2014-08-31T12:49:45Z</time>
      </trkpt>
      <trkpt lat="40.297317" lon="-4.844617">
        <ele>2253.0</ele>
        <time>2014-08-31T12:49:47Z</time>
      </trkpt>
      <trkpt lat="40.297250" lon="-4.844367">
        <ele>2250.0</ele>
        <time>2014-08-31T12:49:49Z</time>
      </trkpt>
      <trkpt lat="40.297183" lon="-4.844133">
        <ele>2248.0</ele>
        <time>2014-08-31T12:49:51Z</time>
      </trkpt>
      <trkpt lat="40.297117" lon="-4.843883">
        <ele>2244.0</ele>
        <time>2014-08-31T12:49:53Z</time>
      </trkpt>
      <trkpt lat="40.297050" lon="-4.843633">
        <ele>2241.0</ele>
        <time>2014-08-31T12:49:55Z</time>
      </trkpt>
      <trkpt lat="40.297000" lon="-4.843383">
        <ele>2239.0</ele>
        <time>2014-08-31T12:49:57Z</time>
      </trkpt>
      <trkpt lat="40.296950" lon="-4.843133">
        <ele>2236.0</ele>
        <time>2014-08-31T12:49:59Z</time>
      </trkpt>
      <trkpt lat="40.296917" lon="-4.842867">
        <ele>2232.0</ele>
        <time>2014-08-31T12:50:01Z</time>
      </trkpt>
      <trkpt lat="40.296867" lon="-4.842600">
        <ele>2229.0</ele>
        <time>2014-08-31T12:50:03Z</time>
      </trkpt>
      <trkpt lat="40.296817" lon="-4.842317">
        <ele>2227.0</ele>
        <time>2014-08-31T12:50:05Z</time>
      </trkpt>
      <trkpt lat="40.296767" lon="-4.842067">
        <ele>2225.0</ele>
        <time>2014-08-31T12:50:07Z</time>
      </trkpt>
      <trkpt lat="40.296717" lon="-4.841817">
        <ele>2222.0</ele>
        <time>2014-08-31T12:50:09Z</time>
      </trkpt>
      <trkpt lat="40.296633" lon="-4.841550">
        <ele>2219.0</ele>
        <time>2014-08-31T12:50:11Z</time>
      </trkpt>
      <trkpt lat="40.296567" lon="-4.841283">
        <ele>2217.0</ele>
        <time>2014-08-31T12:50:13Z</time>
      </trkpt>
      <trkpt lat="40.296500" lon="-4.841033">
        <ele>2217.0</ele>
        <time>2014-08-31T12:50:15Z</time>
      </trkpt>
      <trkpt lat="40.296450" lon="-4.840767">
        <ele>2217.0</ele>
        <time>2014-08-31T12:50:17Z</time>
      </trkpt>
      <trkpt lat="40.296417" lon="-4.840500">
        <ele>2215.0</ele>
        <time>2014-08-31T12:50:19Z</time>
      </trkpt>
      <trkpt lat="40.296417" lon="-4.840183">
        <ele>2211.0</ele>
        <time>2014-08-31T12:50:21Z</time>
      </trkpt>
      <trkpt lat="40.296383" lon="-4.839883">
        <ele>2209.0</ele>
        <time>2014-08-31T12:50:23Z</time>
      </trkpt>
      <trkpt lat="40.296333" lon="-4.839600">
        <ele>2206.0</ele>
        <time>2014-08-31T12:50:25Z</time>
      </trkpt>
      <trkpt lat="40.296267" lon="-4.839317">
        <ele>2200.0</ele>
        <time>2014-08-31T12:50:27Z</time>
      </trkpt>
      <trkpt lat="40.296200" lon="-4.839017">
        <ele>2198.0</ele>
        <time>2014-08-31T12:50:29Z</time>
      </trkpt>
      <trkpt lat="40.296133" lon="-4.838750">
        <ele>2197.0</ele>
        <time>2014-08-31T12:50:31Z</time>
      </trkpt>
      <trkpt lat="40.296067" lon="-4.838500">
        <ele>2194.0</ele>
        <time>2014-08-31T12:50:33Z</time>
      </trkpt>
      <trkpt lat="40.296000" lon="-4.838233">
        <ele>2189.0</ele>
        <time>2014-08-31T12:50:35Z</time>
      </trkpt>
      <trkpt lat="40.295933" lon="-4.837967">
        <ele>2185.0</ele>
        <time>2014-08-31T12:50:37Z</time>
      </trkpt>
      <trkpt lat="40.295867" lon="-4.837717">
        <ele>2182.0</ele>
        <time>2014-08-31T12:50:39Z</time>
      </trkpt>
      <trkpt lat="40.295800" lon="-4.837483">
        <ele>2178.0</ele>
        <time>2014-08-31T12:50:41Z</time>
      </trkpt>
      <trkpt lat="40.295717" lon="-4.837200">
        <ele>2174.0</ele>
        <time>2014-08-31T12:50:43Z</time>
      </trkpt>
      <trkpt lat="40.295633" lon="-4.836933">
        <ele>2172.0</ele>
        <time>2014-08-31T12:50:45Z</time>
      </trkpt>
      <trkpt lat="40.295550" lon="-4.836683">
        <ele>2170.0</ele>
        <time>2014-08-31T12:50:47Z</time>
      </trkpt>
      <trkpt lat="40.295483" lon="-4.836433">
        <ele>2168.0</ele>
        <time>2014-08-31T12:50:49Z</time>
      </trkpt>
      <trkpt lat="40.295383" lon="-4.836183">
        <ele>2167.0</ele>
        <time>2014-08-31T12:50:51Z</time>
      </trkpt>
      <trkpt lat="40.295283" lon="-4.835967">
        <ele>2165.0</ele>
        <time>2014-08-31T12:50:53Z</time>
      </trkpt>
      <trkpt lat="40.295183" lon="-4.835733">
        <ele>2161.0</ele>
        <time>2014-08-31T12:50:55Z</time>
      </trkpt>
      <trkpt lat="40.295083" lon="-4.835483">
        <ele>2159.0</ele>
        <time>2014-08-31T12:50:57Z</time>
      </trkpt>
      <trkpt lat="40.295000" lon="-4.835233">
        <ele>2157.0</ele>
        <time>2014-08-31T12:50:59Z</time>
      </trkpt>
      <trkpt lat="40.294900" lon="-4.834967">
        <ele>2153.0</ele>
        <time>2014-08-31T12:51:01Z</time>
      </trkpt>
      <trkpt lat="40.294800" lon="-4.834700">
        <ele>2153.0</ele>
        <time>2014-08-31T12:51:03Z</time>
      </trkpt>
      <trkpt lat="40.294700" lon="-4.834450">
        <ele>2151.0</ele>
        <time>2014-08-31T12:51:05Z</time>
      </trkpt>
      <trkpt lat="40.294600" lon="-4.834183">
        <ele>2146.0</ele>
        <time>2014-08-31T12:51:07Z</time>
      </trkpt>
      <trkpt lat="40.294500" lon="-4.833900">
        <ele>2144.0</ele>
        <time>2014-08-31T12:51:09Z</time>
      </trkpt>
      <trkpt lat="40.294417" lon="-4.833633">
        <ele>2143.0</ele>
        <time>2014-08-31T12:51:11Z</time>
      </trkpt>
      <trkpt lat="40.294333" lon="-4.833350">
        <ele>2139.0</ele>
        <time>2014-08-31T12:51:13Z</time>
      </trkpt>
      <trkpt lat="40.294250" lon="-4.833050">
        <ele>2138.0</ele>
        <time>2014-08-31T12:51:15Z</time>
      </trkpt>
      <trkpt lat="40.294167" lon="-4.832783">
        <ele>2139.0</ele>
        <time>2014-08-31T12:51:17Z</time>
      </trkpt>
      <trkpt lat="40.294083" lon="-4.832500">
        <ele>2136.0</ele>
        <time>2014-08-31T12:51:19Z</time>
      </trkpt>
      <trkpt lat="40.293983" lon="-4.832217">
        <ele>2135.0</ele>
        <time>2014-08-31T12:51:21Z</time>
      </trkpt>
      <trkpt lat="40.293900" lon="-4.831950">
        <ele>2133.0</ele>
        <time>2014-08-31T12:51:23Z</time>
      </trkpt>
      <trkpt lat="40.293817" lon="-4.831667">
        <ele>2131.0</ele>
        <time>2014-08-31T12:51:25Z</time>
      </trkpt>
      <trkpt lat="40.293717" lon="-4.831400">
        <ele>2128.0</ele>
        <time>2014-08-31T12:51:27Z</time>
      </trkpt>
      <trkpt lat="40.293617" lon="-4.831133">
        <ele>2127.0</ele>
        <time>2014-08-31T12:51:29Z</time>
      </trkpt>
      <trkpt lat="40.293533" lon="-4.830867">
        <ele>2124.0</ele>
        <time>2014-08-31T12:51:31Z</time>
      </trkpt>
      <trkpt lat="40.293433" lon="-4.830600">
        <ele>2121.0</ele>
        <time>2014-08-31T12:51:33Z</time>
      </trkpt>
      <trkpt lat="40.293333" lon="-4.830333">
        <ele>2117.0</ele>
        <time>2014-08-31T12:51:35Z</time>
      </trkpt>
      <trkpt lat="40.293217" lon="-4.830067">
        <ele>2112.0</ele>
        <time>2014-08-31T12:51:37Z</time>
      </trkpt>
      <trkpt lat="40.293100" lon="-4.829783">
        <ele>2109.0</ele>
        <time>2014-08-31T12:51:39Z</time>
      </trkpt>
      <trkpt lat="40.292983" lon="-4.829517">
        <ele>2107.0</ele>
        <time>2014-08-31T12:51:41Z</time>
      </trkpt>
      <trkpt lat="40.292883" lon="-4.829233">
        <ele>2103.0</ele>
        <time>2014-08-31T12:51:43Z</time>
      </trkpt>
      <trkpt lat="40.292783" lon="-4.828967">
        <ele>2099.0</ele>
        <time>2014-08-31T12:51:45Z</time>
      </trkpt>
      <trkpt lat="40.292683" lon="-4.828683">
        <ele>2093.0</ele>
        <time>2014-08-31T12:51:47Z</time>
      </trkpt>
      <trkpt lat="40.292567" lon="-4.828350">
        <ele>2086.0</ele>
        <time>2014-08-31T12:51:49Z</time>
      </trkpt>
      <trkpt lat="40.292450" lon="-4.828050">
        <ele>2085.0</ele>
        <time>2014-08-31T12:51:51Z</time>
      </trkpt>
      <trkpt lat="40.292367" lon="-4.827800">
        <ele>2082.0</ele>
        <time>2014-08-31T12:51:53Z</time>
      </trkpt>
      <trkpt lat="40.292267" lon="-4.827517">
        <ele>2076.0</ele>
        <time>2014-08-31T12:51:55Z</time>
      </trkpt>
      <trkpt lat="40.292167" lon="-4.827233">
        <ele>2075.0</ele>
        <time>2014-08-31T12:51:57Z</time>
      </trkpt>
      <trkpt lat="40.292100" lon="-4.827017">
        <ele>2071.0</ele>
        <time>2014-08-31T12:51:59Z</time>
      </trkpt>
      <trkpt lat="40.292050" lon="-4.826750">
        <ele>2064.0</ele>
        <time>2014-08-31T12:52:01Z</time>
      </trkpt>
      <trkpt lat="40.291933" lon="-4.826433">
        <ele>2060.0</ele>
        <time>2014-08-31T12:52:03Z</time>
      </trkpt>
      <trkpt lat="40.291833" lon="-4.826167">
        <ele>2062.0</ele>
        <time>2014-08-31T12:52:05Z</time>
      </trkpt>
      <trkpt lat="40.291767" lon="-4.825933">
        <ele>2063.0</ele>
        <time>2014-08-31T12:52:07Z</time>
      </trkpt>
      <trkpt lat="40.291667" lon="-4.825700">
        <ele>2058.0</ele>
        <time>2014-08-31T12:52:09Z</time>
      </trkpt>
      <trkpt lat="40.291533" lon="-4.825433">
        <ele>2054.0</ele>
        <time>2014-08-31T12:52:11Z</time>
      </trkpt>
      <trkpt lat="40.291433" lon="-4.825200">
        <ele>2054.0</ele>
        <time>2014-08-31T12:52:13Z</time>
      </trkpt>
      <trkpt lat="40.291317" lon="-4.824967">
        <ele>2053.0</ele>
        <time>2014-08-31T12:52:15Z</time>
      </trkpt>
      <trkpt lat="40.291200" lon="-4.824767">
        <ele>2050.0</ele>
        <time>2014-08-31T12:52:17Z</time>
      </trkpt>
      <trkpt lat="40.291083" lon="-4.824567">
        <ele>2048.0</ele>
        <time>2014-08-31T12:52:19Z</time>
      </trkpt>
      <trkpt lat="40.290967" lon="-4.824350">
        <ele>2045.0</ele>
        <time>2014-08-31T12:52:21Z</time>
      </trkpt>
      <trkpt lat="40.290833" lon="-4.824133">
        <ele>2043.0</ele>
        <time>2014-08-31T12:52:23Z</time>
      </trkpt>
      <trkpt lat="40.290700" lon="-4.823950">
        <ele>2041.0</ele>
        <time>2014-08-31T12:52:25Z</time>
      </trkpt>
      <trkpt lat="40.290533" lon="-4.823783">
        <ele>2038.0</ele>
        <time>2014-08-31T12:52:27Z</time>
      </trkpt>
      <trkpt lat="40.290350" lon="-4.823650">
        <ele>2037.0</ele>
        <time>2014-08-31T12:52:29Z</time>
      </trkpt>
      <trkpt lat="40.290183" lon="-4.823550">
        <ele>2035.0</ele>
        <time>2014-08-31T12:52:31Z</time>
      </trkpt>
      <trkpt lat="40.290017" lon="-4.823433">
        <ele>2030.0</ele>
        <time>2014-08-31T12:52:33Z</time>
      </trkpt>
      <trkpt lat="40.289850" lon="-4.823283">
        <ele>2026.0</ele>
        <time>2014-08-31T12:52:35Z</time>
      </trkpt>
      <trkpt lat="40.289683" lon="-4.823133">
        <ele>2025.0</ele>
        <time>2014-08-31T12:52:37Z</time>
      </trkpt>
      <trkpt lat="40.289550" lon="-4.822983">
        <ele>2021.0</ele>
        <time>2014-08-31T12:52:39Z</time>
      </trkpt>
      <trkpt lat="40.289400" lon="-4.822783">
        <ele>2016.0</ele>
        <time>2014-08-31T12:52:41Z</time>
      </trkpt>
      <trkpt lat="40.289267" lon="-4.822583">
        <ele>2013.0</ele>
        <time>2014-08-31T12:52:43Z</time>
      </trkpt>
      <trkpt lat="40.289133" lon="-4.822400">
        <ele>2010.0</ele>
        <time>2014-08-31T12:52:45Z</time>
      </trkpt>
      <trkpt lat="40.288983" lon="-4.822200">
        <ele>2006.0</ele>
        <time>2014-08-31T12:52:47Z</time>
      </trkpt>
      <trkpt lat="40.288833" lon="-4.822017">
        <ele>2004.0</ele>
        <time>2014-08-31T12:52:49Z</time>
      </trkpt>
      <trkpt lat="40.288717" lon="-4.821833">
        <ele>2002.0</ele>
        <time>2014-08-31T12:52:51Z</time>
      </trkpt>
      <trkpt lat="40.288550" lon="-4.821683">
        <ele>1999.0</ele>
        <time>2014-08-31T12:52:53Z</time>
      </trkpt>
      <trkpt lat="40.288383" lon="-4.821550">
        <ele>1996.0</ele>
        <time>2014-08-31T12:52:55Z</time>
      </trkpt>
      <trkpt lat="40.288233" lon="-4.821350">
        <ele>1995.0</ele>
        <time>2014-08-31T12:52:57Z</time>
      </trkpt>
      <trkpt lat="40.288117" lon="-4.821117">
        <ele>1994.0</ele>
        <time>2014-08-31T12:52:59Z</time>
      </trkpt>
      <trkpt lat="40.288033" lon="-4.820883">
        <ele>1991.0</ele>
        <time>2014-08-31T12:53:01Z</time>
      </trkpt>
      <trkpt lat="40.287950" lon="-4.820583">
        <ele>1986.0</ele>
        <time>2014-08-31T12:53:03Z</time>
      </trkpt>
      <trkpt lat="40.287867" lon="-4.820317">
        <ele>1983.0</ele>
        <time>2014-08-31T12:53:05Z</time>
      </trkpt>
      <trkpt lat="40.287800" lon="-4.820033">
        <ele>1980.0</ele>
        <time>2014-08-31T12:53:07Z</time>
      </trkpt>
      <trkpt lat="40.287717" lon="-4.819783">
        <ele>1977.0</ele>
        <time>2014-08-31T12:53:09Z</time>
      </trkpt>
      <trkpt lat="40.287617" lon="-4.819550">
        <ele>1973.0</ele>
        <time>2014-08-31T12:53:11Z</time>
      </trkpt>
      <trkpt lat="40.287517" lon="-4.819283">
        <ele>1968.0</ele>
        <time>2014-08-31T12:53:13Z</time>
      </trkpt>
      <trkpt lat="40.287433" lon="-4.819000">
        <ele>1966.0</ele>
        <time>2014-08-31T12:53:15Z</time>
      </trkpt>
      <trkpt lat="40.287367" lon="-4.818750">
        <ele>1963.0</ele>
        <time>2014-08-31T12:53:17Z</time>
      </trkpt>
      <trkpt lat="40.287283" lon="-4.818500">
        <ele>1957.0</ele>
        <time>2014-08-31T12:53:19Z</time>
      </trkpt>
      <trkpt lat="40.287183" lon="-4.818200">
        <ele>1951.0</ele>
        <time>2014-08-31T12:53:21Z</time>
      </trkpt>
      <trkpt lat="40.287117" lon="-4.817933">
        <ele>1950.0</ele>
        <time>2014-08-31T12:53:23Z</time>
      </trkpt>
      <trkpt lat="40.287050" lon="-4.817700">
        <ele>1947.0</ele>
        <time>2014-08-31T12:53:25Z</time>
      </trkpt>
      <trkpt lat="40.286967" lon="-4.817450">
        <ele>1939.0</ele>
        <time>2014-08-31T12:53:27Z</time>
      </trkpt>
      <trkpt lat="40.286883" lon="-4.817150">
        <ele>1934.0</ele>
        <time>2014-08-31T12:53:29Z</time>
      </trkpt>
      <trkpt lat="40.286817" lon="-4.816883">
        <ele>1932.0</ele>
        <time>2014-08-31T12:53:31Z</time>
      </trkpt>
      <trkpt lat="40.286767" lon="-4.816633">
        <ele>1931.0</ele>
        <time>2014-08-31T12:53:33Z</time>
      </trkpt>
      <trkpt lat="40.286683" lon="-4.816400">
        <ele>1929.0</ele>
        <time>2014-08-31T12:53:35Z</time>
      </trkpt>
      <trkpt lat="40.286617" lon="-4.816150">
        <ele>1927.0</ele>
        <time>2014-08-31T12:53:37Z</time>
      </trkpt>
      <trkpt lat="40.286567" lon="-4.815883">
        <ele>1925.0</ele>
        <time>2014-08-31T12:53:39Z</time>
      </trkpt>
      <trkpt lat="40.286500" lon="-4.815633">
        <ele>1923.0</ele>
        <time>2014-08-31T12:53:41Z</time>
      </trkpt>
      <trkpt lat="40.286433" lon="-4.815383">
        <ele>1920.0</ele>
        <time>2014-08-31T12:53:43Z</time>
      </trkpt>
      <trkpt lat="40.286367" lon="-4.815133">
        <ele>1919.0</ele>
        <time>2014-08-31T12:53:45Z</time>
      </trkpt>
      <trkpt lat="40.286283" lon="-4.814900">
        <ele>1918.0</ele>
        <time>2014-08-31T12:53:47Z</time>
      </trkpt>
      <trkpt lat="40.286200" lon="-4.814683">
        <ele>1913.0</ele>
        <time>2014-08-31T12:53:49Z</time>
      </trkpt>
      <trkpt lat="40.286100" lon="-4.814417">
        <ele>1909.0</ele>
        <time>2014-08-31T12:53:51Z</time>
      </trkpt>
      <trkpt lat="40.286017" lon="-4.814150">
        <ele>1911.0</ele>
        <time>2014-08-31T12:53:53Z</time>
      </trkpt>
      <trkpt lat="40.285950" lon="-4.813933">
        <ele>1911.0</ele>
        <time>2014-08-31T12:53:55Z</time>
      </trkpt>
      <trkpt lat="40.285867" lon="-4.813700">
        <ele>1907.0</ele>
        <time>2014-08-31T12:53:57Z</time>
      </trkpt>
      <trkpt lat="40.285767" lon="-4.813433">
        <ele>1904.0</ele>
        <time>2014-08-31T12:53:59Z</time>
      </trkpt>
      <trkpt lat="40.285700" lon="-4.813167">
        <ele>1904.0</ele>
        <time>2014-08-31T12:54:01Z</time>
      </trkpt>
      <trkpt lat="40.285633" lon="-4.812917">
        <ele>1902.0</ele>
        <time>2014-08-31T12:54:03Z</time>
      </trkpt>
      <trkpt lat="40.285550" lon="-4.812650">
        <ele>1898.0</ele>
        <time>2014-08-31T12:54:05Z</time>
      </trkpt>
      <trkpt lat="40.285467" lon="-4.812367">
        <ele>1896.0</ele>
        <time>2014-08-31T12:54:07Z</time>
      </trkpt>
      <trkpt lat="40.285433" lon="-4.812117">
        <ele>1894.0</ele>
        <time>2014-08-31T12:54:09Z</time>
      </trkpt>
      <trkpt lat="40.285383" lon="-4.811867">
        <ele>1891.0</ele>
        <time>2014-08-31T12:54:11Z</time>
      </trkpt>
      <trkpt lat="40.285333" lon="-4.811617">
        <ele>1888.0</ele>
        <time>2014-08-31T12:54:13Z</time>
      </trkpt>
      <trkpt lat="40.285267" lon="-4.811350">
        <ele>1884.0</ele>
        <time>2014-08-31T12:54:15Z</time>
      </trkpt>
      <trkpt lat="40.285183" lon="-4.811083">
        <ele>1884.0</ele>
        <time>2014-08-31T12:54:17Z</time>
      </trkpt>
      <trkpt lat="40.285117" lon="-4.810850">
        <ele>1883.0</ele>
        <time>2014-08-31T12:54:19Z</time>
      </trkpt>
      <trkpt lat="40.285017" lon="-4.810600">
        <ele>1880.0</ele>
        <time>2014-08-31T12:54:21Z</time>
      </trkpt>
      <trkpt lat="40.284933" lon="-4.810350">
        <ele>1880.0</ele>
        <time>2014-08-31T12:54:23Z</time>
      </trkpt>
      <trkpt lat="40.284833" lon="-4.810133">
        <ele>1879.0</ele>
        <time>2014-08-31T12:54:25Z</time>
      </trkpt>
      <trkpt lat="40.284733" lon="-4.809900">
        <ele>1874.0</ele>
        <time>2014-08-31T12:54:27Z</time>
      </trkpt>
      <trkpt lat="40.284650" lon="-4.809667">
        <ele>1871.0</ele>
        <time>2014-08-31T12:54:29Z</time>
      </trkpt>
      <trkpt lat="40.284567" lon="-4.809450">
        <ele>1867.0</ele>
        <time>2014-08-31T12:54:31Z</time>
      </trkpt>
      <trkpt lat="40.284467" lon="-4.809217">
        <ele>1863.0</ele>
        <time>2014-08-31T12:54:33Z</time>
      </trkpt>
      <trkpt lat="40.284367" lon="-4.809000">
        <ele>1860.0</ele>
        <time>2014-08-31T12:54:35Z</time>
      </trkpt>
      <trkpt lat="40.284267" lon="-4.808783">
        <ele>1857.0</ele>
        <time>2014-08-31T12:54:37Z</time>
      </trkpt>
      <trkpt lat="40.284167" lon="-4.808567">
        <ele>1855.0</ele>
        <time>2014-08-31T12:54:39Z</time>
      </trkpt>
      <trkpt lat="40.284050" lon="-4.808367">
        <ele>1852.0</ele>
        <time>2014-08-31T12:54:41Z</time>
      </trkpt>
      <trkpt lat="40.283933" lon="-4.808167">
        <ele>1849.0</ele>
        <time>2014-08-31T12:54:43Z</time>
      </trkpt>
      <trkpt lat="40.283833" lon="-4.807950">
        <ele>1845.0</ele>
        <time>2014-08-31T12:54:45Z</time>
      </trkpt>
      <trkpt lat="40.283717" lon="-4.807767">
        <ele>1841.0</ele>
        <time>2014-08-31T12:54:47Z</time>
      </trkpt>
      <trkpt lat="40.283600" lon="-4.807567">
        <ele>1835.0</ele>
        <time>2014-08-31T12:54:49Z</time>
      </trkpt>
      <trkpt lat="40.283500" lon="-4.807367">
        <ele>1829.0</ele>
        <time>2014-08-31T12:54:51Z</time>
      </trkpt>
      <trkpt lat="40.283400" lon="-4.807117">
        <ele>1824.0</ele>
        <time>2014-08-31T12:54:53Z</time>
      </trkpt>
      <trkpt lat="40.283283" lon="-4.806900">
        <ele>1820.0</ele>
        <time>2014-08-31T12:54:55Z</time>
      </trkpt>
      <trkpt lat="40.283183" lon="-4.806700">
        <ele>1814.0</ele>
        <time>2014-08-31T12:54:57Z</time>
      </trkpt>
      <trkpt lat="40.283050" lon="-4.806500">
        <ele>1807.0</ele>
        <time>2014-08-31T12:54:59Z</time>
      </trkpt>
      <trkpt lat="40.282933" lon="-4.806283">
        <ele>1800.0</ele>
        <time>2014-08-31T12:55:01Z</time>
      </trkpt>
      <trkpt lat="40.282800" lon="-4.806050">
        <ele>1794.0</ele>
        <time>2014-08-31T12:55:03Z</time>
      </trkpt>
      <trkpt lat="40.282667" lon="-4.805817">
        <ele>1789.0</ele>
        <time>2014-08-31T12:55:05Z</time>
      </trkpt>
      <trkpt lat="40.282533" lon="-4.805583">
        <ele>1786.0</ele>
        <time>2014-08-31T12:55:07Z</time>
      </trkpt>
      <trkpt lat="40.282417" lon="-4.805367">
        <ele>1783.0</ele>
        <time>2014-08-31T12:55:09Z</time>
      </trkpt>
      <trkpt lat="40.282300" lon="-4.805167">
        <ele>1778.0</ele>
        <time>2014-08-31T12:55:11Z</time>
      </trkpt>
      <trkpt lat="40.282183" lon="-4.804933">
        <ele>1774.0</ele>
        <time>2014-08-31T12:55:13Z</time>
      </trkpt>
      <trkpt lat="40.282100" lon="-4.804667">
        <ele>1772.0</ele>
        <time>2014-08-31T12:55:15Z</time>
      </trkpt>
      <trkpt lat="40.282067" lon="-4.804417">
        <ele>1769.0</ele>
        <time>2014-08-31T12:55:17Z</time>
      </trkpt>
      <trkpt lat="40.282017" lon="-4.804167">
        <ele>1765.0</ele>
        <time>2014-08-31T12:55:19Z</time>
      </trkpt>
      <trkpt lat="40.281933" lon="-4.803900">
        <ele>1759.0</ele>
        <time>2014-08-31T12:55:21Z</time>
      </trkpt>
      <trkpt lat="40.281867" lon="-4.803633">
        <ele>1754.0</ele>
        <time>2014-08-31T12:55:23Z</time>
      </trkpt>
      <trkpt lat="40.281800" lon="-4.803400">
        <ele>1747.0</ele>
        <time>2014-08-31T12:55:25Z</time>
      </trkpt>
      <trkpt lat="40.281717" lon="-4.803167">
        <ele>1738.0</ele>
        <time>2014-08-31T12:55:27Z</time>
      </trkpt>
      <trkpt lat="40.281650" lon="-4.802950">
        <ele>1730.0</ele>
        <time>2014-08-31T12:55:29Z</time>
      </trkpt>
      <trkpt lat="40.281567" lon="-4.802750">
        <ele>1722.0</ele>
        <time>2014-08-31T12:55:31Z</time>
      </trkpt>
      <trkpt lat="40.281500" lon="-4.802517">
        <ele>1715.0</ele>
        <time>2014-08-31T12:55:33Z</time>
      </trkpt>
      <trkpt lat="40.281433" lon="-4.802283">
        <ele>1709.0</ele>
        <time>2014-08-31T12:55:35Z</time>
      </trkpt>
      <trkpt lat="40.281400" lon="-4.802050">
        <ele>1704.0</ele>
        <time>2014-08-31T12:55:37Z</time>
      </trkpt>
      <trkpt lat="40.281333" lon="-4.801833">
        <ele>1697.0</ele>
        <time>2014-08-31T12:55:39Z</time>
      </trkpt>
      <trkpt lat="40.281283" lon="-4.801600">
        <ele>1694.0</ele>
        <time>2014-08-31T12:55:41Z</time>
      </trkpt>
      <trkpt lat="40.281267" lon="-4.801400">
        <ele>1691.0</ele>
        <time>2014-08-31T12:55:43Z</time>
      </trkpt>
      <trkpt lat="40.281250" lon="-4.801233">
        <ele>1688.0</ele>
        <time>2014-08-31T12:55:45Z</time>
      </trkpt>
      <trkpt lat="40.281233" lon="-4.801050">
        <ele>1682.0</ele>
        <time>2014-08-31T12:55:47Z</time>
      </trkpt>
      <trkpt lat="40.281200" lon="-4.800833">
        <ele>1672.0</ele>
        <time>2014-08-31T12:55:49Z</time>
      </trkpt>
      <trkpt lat="40.281150" lon="-4.800600">
        <ele>1665.0</ele>
        <time>2014-08-31T12:55:51Z</time>
      </trkpt>
      <trkpt lat="40.281117" lon="-4.800367">
        <ele>1667.0</ele>
        <time>2014-08-31T12:55:53Z</time>
      </trkpt>
      <trkpt lat="40.281083" lon="-4.800183">
        <ele>1670.0</ele>
        <time>2014-08-31T12:55:55Z</time>
      </trkpt>
      <trkpt lat="40.281067" lon="-4.800017">
        <ele>1669.0</ele>
        <time>2014-08-31T12:55:57Z</time>
      </trkpt>
      <trkpt lat="40.281017" lon="-4.799783">
        <ele>1667.0</ele>
        <time>2014-08-31T12:55:59Z</time>
      </trkpt>
      <trkpt lat="40.280967" lon="-4.799567">
        <ele>1669.0</ele>
        <time>2014-08-31T12:56:01Z</time>
      </trkpt>
      <trkpt lat="40.280933" lon="-4.799350">
        <ele>1672.0</ele>
        <time>2014-08-31T12:56:03Z</time>
      </trkpt>
      <trkpt lat="40.280867" lon="-4.799167">
        <ele>1673.0</ele>
        <time>2014-08-31T12:56:05Z</time>
      </trkpt>
      <trkpt lat="40.280767" lon="-4.799017">
        <ele>1674.0</ele>
        <time>2014-08-31T12:56:07Z</time>
      </trkpt>
      <trkpt lat="40.280667" lon="-4.798883">
        <ele>1677.0</ele>
        <time>2014-08-31T12:56:09Z</time>
      </trkpt>
      <trkpt lat="40.280583" lon="-4.798817">
        <ele>1680.0</ele>
        <time>2014-08-31T12:56:11Z</time>
      </trkpt>
      <trkpt lat="40.280483" lon="-4.798800">
        <ele>1682.0</ele>
        <time>2014-08-31T12:56:13Z</time>
      </trkpt>
      <trkpt lat="40.280367" lon="-4.798850">
        <ele>1686.0</ele>
        <time>2014-08-31T12:56:15Z</time>
      </trkpt>
      <trkpt lat="40.280333" lon="-4.798950">
        <ele>1690.0</ele>
        <time>2014-08-31T12:56:17Z</time>
      </trkpt>
      <trkpt lat="40.280367" lon="-4.799117">
        <ele>1691.0</ele>
        <time>2014-08-31T12:56:19Z</time>
      </trkpt>
      <trkpt lat="40.280467" lon="-4.799333">
        <ele>1694.0</ele>
        <time>2014-08-31T12:56:21Z</time>
      </trkpt>
      <trkpt lat="40.280633" lon="-4.799467">
        <ele>1698.0</ele>
        <time>2014-08-31T12:56:23Z</time>
      </trkpt>
      <trkpt lat="40.280850" lon="-4.799517">
        <ele>1701.0</ele>
        <time>2014-08-31T12:56:25Z</time>
      </trkpt>
      <trkpt lat="40.281083" lon="-4.799433">
        <ele>1702.0</ele>
        <time>2014-08-31T12:56:27Z</time>
      </trkpt>
      <trkpt lat="40.281250" lon="-4.799233">
        <ele>1703.0</ele>
        <time>2014-08-31T12:56:29Z</time>
      </trkpt>
      <trkpt lat="40.281350" lon="-4.799000">
        <ele>1705.0</ele>
        <time>2014-08-31T12:56:31Z</time>
      </trkpt>
      <trkpt lat="40.281383" lon="-4.798767">
        <ele>1707.0</ele>
        <time>2014-08-31T12:56:33Z</time>
      </trkpt>
      <trkpt lat="40.281333" lon="-4.798567">
        <ele>1711.0</ele>
        <time>2014-08-31T12:56:35Z</time>
      </trkpt>
      <trkpt lat="40.281267" lon="-4.798383">
        <ele>1716.0</ele>
        <time>2014-08-31T12:56:37Z</time>
      </trkpt>
      <trkpt lat="40.281167" lon="-4.798283">
        <ele>1720.0</ele>
        <time>2014-08-31T12:56:39Z</time>
      </trkpt>
      <trkpt lat="40.281067" lon="-4.798267">
        <ele>1722.0</ele>
        <time>2014-08-31T12:56:41Z</time>
      </trkpt>
      <trkpt lat="40.280983" lon="-4.798317">
        <ele>1725.0</ele>
        <time>2014-08-31T12:56:43Z</time>
      </trkpt>
      <trkpt lat="40.280950" lon="-4.798467">
        <ele>1727.0</ele>
        <time>2014-08-31T12:56:45Z</time>
      </trkpt>
      <trkpt lat="40.280983" lon="-4.798683">
        <ele>1730.0</ele>
        <time>2014-08-31T12:56:47Z</time>
      </trkpt>
      <trkpt lat="40.281117" lon="-4.798883">
        <ele>1736.0</ele>
        <time>2014-08-31T12:56:49Z</time>
      </trkpt>
      <trkpt lat="40.281283" lon="-4.799033">
        <ele>1741.0</ele>
        <time>2014-08-31T12:56:51Z</time>
      </trkpt>
      <trkpt lat="40.281483" lon="-4.799117">
        <ele>1740.0</ele>
        <time>2014-08-31T12:56:53Z</time>
      </trkpt>
      <trkpt lat="40.281717" lon="-4.799033">
        <ele>1738.0</ele>
        <time>2014-08-31T12:56:55Z</time>
      </trkpt>
      <trkpt lat="40.281900" lon="-4.798833">
        <ele>1739.0</ele>
        <time>2014-08-31T12:56:57Z</time>
      </trkpt>
      <trkpt lat="40.282000" lon="-4.798633">
        <ele>1741.0</ele>
        <time>2014-08-31T12:56:59Z</time>
      </trkpt>
      <trkpt lat="40.282067" lon="-4.798433">
        <ele>1742.0</ele>
        <time>2014-08-31T12:57:01Z</time>
      </trkpt>
      <trkpt lat="40.282067" lon="-4.798217">
        <ele>1744.0</ele>
        <time>2014-08-31T12:57:03Z</time>
      </trkpt>
      <trkpt lat="40.282017" lon="-4.798033">
        <ele>1750.0</ele>
        <time>2014-08-31T12:57:05Z</time>
      </trkpt>
      <trkpt lat="40.281983" lon="-4.797917">
        <ele>1754.0</ele>
        <time>2014-08-31T12:57:07Z</time>
      </trkpt>
      <trkpt lat="40.281883" lon="-4.797850">
        <ele>1758.0</ele>
        <time>2014-08-31T12:57:09Z</time>
      </trkpt>
      <trkpt lat="40.281783" lon="-4.797883">
        <ele>1765.0</ele>
        <time>2014-08-31T12:57:11Z</time>
      </trkpt>
      <trkpt lat="40.281733" lon="-4.797933">
        <ele>1774.0</ele>
        <time>2014-08-31T12:57:13Z</time>
      </trkpt>
      <trkpt lat="40.281683" lon="-4.798067">
        <ele>1776.0</ele>
        <time>2014-08-31T12:57:15Z</time>
      </trkpt>
      <trkpt lat="40.281700" lon="-4.798283">
        <ele>1781.0</ele>
        <time>2014-08-31T12:57:17Z</time>
      </trkpt>
      <trkpt lat="40.281850" lon="-4.798433">
        <ele>1784.0</ele>
        <time>2014-08-31T12:57:19Z</time>
      </trkpt>
      <trkpt lat="40.282067" lon="-4.798467">
        <ele>1788.0</ele>
        <time>2014-08-31T12:57:21Z</time>
      </trkpt>
      <trkpt lat="40.282283" lon="-4.798383">
        <ele>1790.0</ele>
        <time>2014-08-31T12:57:23Z</time>
      </trkpt>
      <trkpt lat="40.282483" lon="-4.798200">
        <ele>1794.0</ele>
        <time>2014-08-31T12:57:25Z</time>
      </trkpt>
      <trkpt lat="40.282617" lon="-4.797983">
        <ele>1800.0</ele>
        <time>2014-08-31T12:57:27Z</time>
      </trkpt>
      <trkpt lat="40.282700" lon="-4.797767">
        <ele>1805.0</ele>
        <time>2014-08-31T12:57:29Z</time>
      </trkpt>
      <trkpt lat="40.282733" lon="-4.797550">
        <ele>1809.0</ele>
        <time>2014-08-31T12:57:31Z</time>
      </trkpt>
      <trkpt lat="40.282683" lon="-4.797350">
        <ele>1814.0</ele>
        <time>2014-08-31T12:57:33Z</time>
      </trkpt>
      <trkpt lat="40.282600" lon="-4.797200">
        <ele>1819.0</ele>
        <time>2014-08-31T12:57:35Z</time>
      </trkpt>
      <trkpt lat="40.282483" lon="-4.797150">
        <ele>1825.0</ele>
        <time>2014-08-31T12:57:37Z</time>
      </trkpt>
      <trkpt lat="40.282400" lon="-4.797217">
        <ele>1831.0</ele>
        <time>2014-08-31T12:57:39Z</time>
      </trkpt>
      <trkpt lat="40.282350" lon="-4.797367">
        <ele>1836.0</ele>
        <time>2014-08-31T12:57:41Z</time>
      </trkpt>
      <trkpt lat="40.282383" lon="-4.797550">
        <ele>1840.0</ele>
        <time>2014-08-31T12:57:43Z</time>
      </trkpt>
      <trkpt lat="40.282500" lon="-4.797717">
        <ele>1844.0</ele>
        <time>2014-08-31T12:57:45Z</time>
      </trkpt>
      <trkpt lat="40.282683" lon="-4.797833">
        <ele>1847.0</ele>
        <time>2014-08-31T12:57:47Z</time>
      </trkpt>
      <trkpt lat="40.282900" lon="-4.797883">
        <ele>1852.0</ele>
        <time>2014-08-31T12:57:49Z</time>
      </trkpt>
      <trkpt lat="40.283117" lon="-4.797833">
        <ele>1856.0</ele>
        <time>2014-08-31T12:57:51Z</time>
      </trkpt>
      <trkpt lat="40.283350" lon="-4.797733">
        <ele>1860.0</ele>
        <time>2014-08-31T12:57:53Z</time>
      </trkpt>
      <trkpt lat="40.283533" lon="-4.797567">
        <ele>1866.0</ele>
        <time>2014-08-31T12:57:55Z</time>
      </trkpt>
      <trkpt lat="40.283600" lon="-4.797383">
        <ele>1871.0</ele>
        <time>2014-08-31T12:57:57Z</time>
      </trkpt>
      <trkpt lat="40.283600" lon="-4.797183">
        <ele>1873.0</ele>
        <time>2014-08-31T12:57:59Z</time>
      </trkpt>
      <trkpt lat="40.283517" lon="-4.797000">
        <ele>1877.0</ele>
        <time>2014-08-31T12:58:01Z</time>
      </trkpt>
      <trkpt lat="40.283433" lon="-4.796883">
        <ele>1886.0</ele>
        <time>2014-08-31T12:58:03Z</time>
      </trkpt>
      <trkpt lat="40.283367" lon="-4.796817">
        <ele>1890.0</ele>
        <time>2014-08-31T12:58:05Z</time>
      </trkpt>
      <trkpt lat="40.283250" lon="-4.796783">
        <ele>1890.0</ele>
        <time>2014-08-31T12:58:07Z</time>
      </trkpt>
      <trkpt lat="40.283133" lon="-4.796800">
        <ele>1892.0</ele>
        <time>2014-08-31T12:58:09Z</time>
      </trkpt>
      <trkpt lat="40.283050" lon="-4.796850">
        <ele>1895.0</ele>
        <time>2014-08-31T12:58:11Z</time>
      </trkpt>
      <trkpt lat="40.282983" lon="-4.797000">
        <ele>1896.0</ele>
        <time>2014-08-31T12:58:13Z</time>
      </trkpt>
      <trkpt lat="40.283000" lon="-4.797183">
        <ele>1898.0</ele>
        <time>2014-08-31T12:58:15Z</time>
      </trkpt>
      <trkpt lat="40.283100" lon="-4.797367">
        <ele>1899.0</ele>
        <time>2014-08-31T12:58:17Z</time>
      </trkpt>
      <trkpt lat="40.283267" lon="-4.797533">
        <ele>1897.0</ele>
        <time>2014-08-31T12:58:19Z</time>
      </trkpt>
      <trkpt lat="40.283500" lon="-4.797583">
        <ele>1896.0</ele>
        <time>2014-08-31T12:58:21Z</time>
      </trkpt>
      <trkpt lat="40.283733" lon="-4.797533">
        <ele>1899.0</ele>
        <time>2014-08-31T12:58:23Z</time>
      </trkpt>
      <trkpt lat="40.283917" lon="-4.797450">
        <ele>1901.0</ele>
        <time>2014-08-31T12:58:25Z</time>
      </trkpt>
      <trkpt lat="40.284117" lon="-4.797333">
        <ele>1899.0</ele>
        <time>2014-08-31T12:58:27Z</time>
      </trkpt>
      <trkpt lat="40.284333" lon="-4.797150">
        <ele>1899.0</ele>
        <time>2014-08-31T12:58:29Z</time>
      </trkpt>
      <trkpt lat="40.284483" lon="-4.796950">
        <ele>1908.0</ele>
        <time>2014-08-31T12:58:31Z</time>
      </trkpt>
      <trkpt lat="40.284567" lon="-4.796800">
        <ele>1915.0</ele>
        <time>2014-08-31T12:58:33Z</time>
      </trkpt>
      <trkpt lat="40.284617" lon="-4.796583">
        <ele>1918.0</ele>
        <time>2014-08-31T12:58:35Z</time>
      </trkpt>
      <trkpt lat="40.284617" lon="-4.796333">
        <ele>1923.0</ele>
        <time>2014-08-31T12:58:37Z</time>
      </trkpt>
      <trkpt lat="40.284600" lon="-4.796167">
        <ele>1929.0</ele>
        <time>2014-08-31T12:58:39Z</time>
      </trkpt>
      <trkpt lat="40.284550" lon="-4.796050">
        <ele>1930.0</ele>
        <time>2014-08-31T12:58:41Z</time>
      </trkpt>
      <trkpt lat="40.284450" lon="-4.795983">
        <ele>1930.0</ele>
        <time>2014-08-31T12:58:43Z</time>
      </trkpt>
      <trkpt lat="40.284350" lon="-4.796000">
        <ele>1932.0</ele>
        <time>2014-08-31T12:58:45Z</time>
      </trkpt>
      <trkpt lat="40.284267" lon="-4.796067">
        <ele>1934.0</ele>
        <time>2014-08-31T12:58:47Z</time>
      </trkpt>
      <trkpt lat="40.284200" lon="-4.796217">
        <ele>1935.0</ele>
        <time>2014-08-31T12:58:49Z</time>
      </trkpt>
      <trkpt lat="40.284200" lon="-4.796433">
        <ele>1936.0</ele>
        <time>2014-08-31T12:58:51Z</time>
      </trkpt>
      <trkpt lat="40.284267" lon="-4.796617">
        <ele>1938.0</ele>
        <time>2014-08-31T12:58:53Z</time>
      </trkpt>
      <trkpt lat="40.284383" lon="-4.796817">
        <ele>1937.0</ele>
        <time>2014-08-31T12:58:55Z</time>
      </trkpt>
      <trkpt lat="40.284550" lon="-4.797000">
        <ele>1936.0</ele>
        <time>2014-08-31T12:58:57Z</time>
      </trkpt>
      <trkpt lat="40.284800" lon="-4.797067">
        <ele>1935.0</ele>
        <time>2014-08-31T12:58:59Z</time>
      </trkpt>
      <trkpt lat="40.285050" lon="-4.797033">
        <ele>1938.0</ele>
        <time>2014-08-31T12:59:01Z</time>
      </trkpt>
      <trkpt lat="40.285217" lon="-4.796900">
        <ele>1942.0</ele>
        <time>2014-08-31T12:59:03Z</time>
      </trkpt>
      <trkpt lat="40.285333" lon="-4.796750">
        <ele>1943.0</ele>
        <time>2014-08-31T12:59:05Z</time>
      </trkpt>
      <trkpt lat="40.285417" lon="-4.796533">
        <ele>1943.0</ele>
        <time>2014-08-31T12:59:07Z</time>
      </trkpt>
      <trkpt lat="40.285433" lon="-4.796333">
        <ele>1945.0</ele>
        <time>2014-08-31T12:59:09Z</time>
      </trkpt>
      <trkpt lat="40.285400" lon="-4.796167">
        <ele>1948.0</ele>
        <time>2014-08-31T12:59:11Z</time>
      </trkpt>
      <trkpt lat="40.285350" lon="-4.796017">
        <ele>1950.0</ele>
        <time>2014-08-31T12:59:13Z</time>
      </trkpt>
      <trkpt lat="40.285250" lon="-4.795933">
        <ele>1951.0</ele>
        <time>2014-08-31T12:59:15Z</time>
      </trkpt>
      <trkpt lat="40.285133" lon="-4.795900">
        <ele>1951.0</ele>
        <time>2014-08-31T12:59:17Z</time>
      </trkpt>
      <trkpt lat="40.285000" lon="-4.795933">
        <ele>1949.0</ele>
        <time>2014-08-31T12:59:19Z</time>
      </trkpt>
      <trkpt lat="40.284850" lon="-4.795933">
        <ele>1950.0</ele>
        <time>2014-08-31T12:59:21Z</time>
      </trkpt>
      <trkpt lat="40.284767" lon="-4.795867">
        <ele>1952.0</ele>
        <time>2014-08-31T12:59:23Z</time>
      </trkpt>
      <trkpt lat="40.284683" lon="-4.795767">
        <ele>1953.0</ele>
        <time>2014-08-31T12:59:25Z</time>
      </trkpt>
      <trkpt lat="40.284567" lon="-4.795617">
        <ele>1953.0</ele>
        <time>2014-08-31T12:59:27Z</time>
      </trkpt>
      <trkpt lat="40.284467" lon="-4.795467">
        <ele>1955.0</ele>
        <time>2014-08-31T12:59:29Z</time>
      </trkpt>
      <trkpt lat="40.284383" lon="-4.795350">
        <ele>1956.0</ele>
        <time>2014-08-31T12:59:31Z</time>
      </trkpt>
      <trkpt lat="40.284283" lon="-4.795267">
        <ele>1956.0</ele>
        <time>2014-08-31T12:59:33Z</time>
      </trkpt>
      <trkpt lat="40.284167" lon="-4.795183">
        <ele>1955.0</ele>
        <time>2014-08-31T12:59:35Z</time>
      </trkpt>
      <trkpt lat="40.284067" lon="-4.795100">
        <ele>1961.0</ele>
        <time>2014-08-31T12:59:37Z</time>
      </trkpt>
      <trkpt lat="40.284017" lon="-4.795033">
        <ele>1966.0</ele>
        <time>2014-08-31T12:59:39Z</time>
      </trkpt>
      <trkpt lat="40.283967" lon="-4.795000">
        <ele>1966.0</ele>
        <time>2014-08-31T12:59:41Z</time>
      </trkpt>
      <trkpt lat="40.283867" lon="-4.795017">
        <ele>1962.0</ele>
        <time>2014-08-31T12:59:43Z</time>
      </trkpt>
      <trkpt lat="40.283717" lon="-4.795050">
        <ele>1963.0</ele>
        <time>2014-08-31T12:59:45Z</time>
      </trkpt>
      <trkpt lat="40.283600" lon="-4.794983">
        <ele>1968.0</ele>
        <time>2014-08-31T12:59:47Z</time>
      </trkpt>
      <trkpt lat="40.283533" lon="-4.794867">
        <ele>1974.0</ele>
        <time>2014-08-31T12:59:49Z</time>
      </trkpt>
      <trkpt lat="40.283483" lon="-4.794700">
        <ele>1977.0</ele>
        <time>2014-08-31T12:59:51Z</time>
      </trkpt>
      <trkpt lat="40.283467" lon="-4.794450">
        <ele>1979.0</ele>
        <time>2014-08-31T12:59:53Z</time>
      </trkpt>
      <trkpt lat="40.283500" lon="-4.794167">
        <ele>1983.0</ele>
        <time>2014-08-31T12:59:55Z</time>
      </trkpt>
      <trkpt lat="40.283600" lon="-4.793883">
        <ele>1988.0</ele>
        <time>2014-08-31T12:59:57Z</time>
      </trkpt>
      <trkpt lat="40.283750" lon="-4.793617">
        <ele>1989.0</ele>
        <time>2014-08-31T12:59:59Z</time>
      </trkpt>
      <trkpt lat="40.283967" lon="-4.793400">
        <ele>1987.0</ele>
        <time>2014-08-31T13:00:01Z</time>
      </trkpt>
      <trkpt lat="40.284233" lon="-4.793300">
        <ele>1985.0</ele>
        <time>2014-08-31T13:00:03Z</time>
      </trkpt>
      <trkpt lat="40.284483" lon="-4.793367">
        <ele>1985.0</ele>
        <time>2014-08-31T13:00:05Z</time>
      </trkpt>
      <trkpt lat="40.284650" lon="-4.793500">
        <ele>1986.0</ele>
        <time>2014-08-31T13:00:07Z</time>
      </trkpt>
      <trkpt lat="40.284750" lon="-4.793683">
        <ele>1985.0</ele>
        <time>2014-08-31T13:00:09Z</time>
      </trkpt>
      <trkpt lat="40.284767" lon="-4.793883">
        <ele>1983.0</ele>
        <time>2014-08-31T13:00:11Z</time>
      </trkpt>
      <trkpt lat="40.284700" lon="-4.793983">
        <ele>1981.0</ele>
        <time>2014-08-31T13:00:13Z</time>
      </trkpt>
      <trkpt lat="40.284617" lon="-4.794050">
        <ele>1981.0</ele>
        <time>2014-08-31T13:00:15Z</time>
      </trkpt>
      <trkpt lat="40.284517" lon="-4.794083">
        <ele>1981.0</ele>
        <time>2014-08-31T13:00:17Z</time>
      </trkpt>
      <trkpt lat="40.284417" lon="-4.794100">
        <ele>1984.0</ele>
        <time>2014-08-31T13:00:19Z</time>
      </trkpt>
      <trkpt lat="40.284350" lon="-4.794133">
        <ele>1989.0</ele>
        <time>2014-08-31T13:00:21Z</time>
      </trkpt>
      <trkpt lat="40.284317" lon="-4.794217">
        <ele>1993.0</ele>
        <time>2014-08-31T13:00:23Z</time>
      </trkpt>
      <trkpt lat="40.284283" lon="-4.794333">
        <ele>1994.0</ele>
        <time>2014-08-31T13:00:25Z</time>
      </trkpt>
      <trkpt lat="40.284250" lon="-4.794450">
        <ele>1996.0</ele>
        <time>2014-08-31T13:00:27Z</time>
      </trkpt>
      <trkpt lat="40.284133" lon="-4.794483">
        <ele>1996.0</ele>
        <time>2014-08-31T13:00:29Z</time>
      </trkpt>
      <trkpt lat="40.284017" lon="-4.794417">
        <ele>2000.0</ele>
        <time>2014-08-31T13:00:31Z</time>
      </trkpt>
      <trkpt lat="40.283950" lon="-4.794333">
        <ele>2005.0</ele>
        <time>2014-08-31T13:00:33Z</time>
      </trkpt>
      <trkpt lat="40.283883" lon="-4.794183">
        <ele>2007.0</ele>
        <time>2014-08-31T13:00:35Z</time>
      </trkpt>
      <trkpt lat="40.283850" lon="-4.793967">
        <ele>2009.0</ele>
        <time>2014-08-31T13:00:37Z</time>
      </trkpt>
      <trkpt lat="40.283783" lon="-4.793800">
        <ele>2015.0</ele>
        <time>2014-08-31T13:00:39Z</time>
      </trkpt>
      <trkpt lat="40.283667" lon="-4.793683">
        <ele>2018.0</ele>
        <time>2014-08-31T13:00:41Z</time>
      </trkpt>
      <trkpt lat="40.283550" lon="-4.793650">
        <ele>2023.0</ele>
        <time>2014-08-31T13:00:43Z</time>
      </trkpt>
      <trkpt lat="40.283450" lon="-4.793667">
        <ele>2029.0</ele>
        <time>2014-08-31T13:00:45Z</time>
      </trkpt>
      <trkpt lat="40.283367" lon="-4.793783">
        <ele>2032.0</ele>
        <time>2014-08-31T13:00:47Z</time>
      </trkpt>
      <trkpt lat="40.283383" lon="-4.793967">
        <ele>2036.0</ele>
        <time>2014-08-31T13:00:49Z</time>
      </trkpt>
      <trkpt lat="40.283517" lon="-4.794117">
        <ele>2037.0</ele>
        <time>2014-08-31T13:00:51Z</time>
      </trkpt>
      <trkpt lat="40.283717" lon="-4.794233">
        <ele>2039.0</ele>
        <time>2014-08-31T13:00:53Z</time>
      </trkpt>
      <trkpt lat="40.284000" lon="-4.794267">
        <ele>2042.0</ele>
        <time>2014-08-31T13:00:55Z</time>
      </trkpt>
      <trkpt lat="40.284267" lon="-4.794167">
        <ele>2048.0</ele>
        <time>2014-08-31T13:00:57Z</time>
      </trkpt>
      <trkpt lat="40.284483" lon="-4.794000">
        <ele>2053.0</ele>
        <time>2014-08-31T13:00:59Z</time>
      </trkpt>
      <trkpt lat="40.284650" lon="-4.793767">
        <ele>2056.0</ele>
        <time>2014-08-31T13:01:01Z</time>
      </trkpt>
      <trkpt lat="40.284750" lon="-4.793533">
        <ele>2060.0</ele>
        <time>2014-08-31T13:01:03Z</time>
      </trkpt>
      <trkpt lat="40.284783" lon="-4.793317">
        <ele>2061.0</ele>
        <time>2014-08-31T13:01:05Z</time>
      </trkpt>
      <trkpt lat="40.284783" lon="-4.793100">
        <ele>2064.0</ele>
        <time>2014-08-31T13:01:07Z</time>
      </trkpt>
      <trkpt lat="40.284717" lon="-4.792867">
        <ele>2066.0</ele>
        <time>2014-08-31T13:01:09Z</time>
      </trkpt>
      <trkpt lat="40.284617" lon="-4.792700">
        <ele>2070.0</ele>
        <time>2014-08-31T13:01:11Z</time>
      </trkpt>
      <trkpt lat="40.284517" lon="-4.792600">
        <ele>2073.0</ele>
        <time>2014-08-31T13:01:13Z</time>
      </trkpt>
      <trkpt lat="40.284367" lon="-4.792567">
        <ele>2076.0</ele>
        <time>2014-08-31T13:01:15Z</time>
      </trkpt>
      <trkpt lat="40.284233" lon="-4.792617">
        <ele>2082.0</ele>
        <time>2014-08-31T13:01:17Z</time>
      </trkpt>
      <trkpt lat="40.284150" lon="-4.792700">
        <ele>2088.0</ele>
        <time>2014-08-31T13:01:19Z</time>
      </trkpt>
      <trkpt lat="40.284067" lon="-4.792833">
        <ele>2091.0</ele>
        <time>2014-08-31T13:01:21Z</time>
      </trkpt>
      <trkpt lat="40.284050" lon="-4.792983">
        <ele>2094.0</ele>
        <time>2014-08-31T13:01:23Z</time>
      </trkpt>
      <trkpt lat="40.284133" lon="-4.793150">
        <ele>2095.0</ele>
        <time>2014-08-31T13:01:25Z</time>
      </trkpt>
      <trkpt lat="40.284283" lon="-4.793283">
        <ele>2098.0</ele>
        <time>2014-08-31T13:01:27Z</time>
      </trkpt>
      <trkpt lat="40.284467" lon="-4.793350">
        <ele>2100.0</ele>
        <time>2014-08-31T13:01:29Z</time>
      </trkpt>
      <trkpt lat="40.284717" lon="-4.793350">
        <ele>2100.0</ele>
        <time>2014-08-31T13:01:31Z</time>
      </trkpt>
      <trkpt lat="40.285000" lon="-4.793267">
        <ele>2102.0</ele>
        <time>2014-08-31T13:01:33Z</time>
      </trkpt>
      <trkpt lat="40.285200" lon="-4.793067">
        <ele>2106.0</ele>
        <time>2014-08-31T13:01:35Z</time>
      </trkpt>
      <trkpt lat="40.285367" lon="-4.792833">
        <ele>2109.0</ele>
        <time>2014-08-31T13:01:37Z</time>
      </trkpt>
      <trkpt lat="40.285467" lon="-4.792550">
        <ele>2112.0</ele>
        <time>2014-08-31T13:01:39Z</time>
      </trkpt>
      <trkpt lat="40.285483" lon="-4.792317">
        <ele>2113.0</ele>
        <time>2014-08-31T13:01:41Z</time>
      </trkpt>
      <trkpt lat="40.285383" lon="-4.792067">
        <ele>2109.0</ele>
        <time>2014-08-31T13:01:43Z</time>
      </trkpt>
      <trkpt lat="40.285317" lon="-4.791817">
        <ele>2116.0</ele>
        <time>2014-08-31T13:01:45Z</time>
      </trkpt>
      <trkpt lat="40.285267" lon="-4.791633">
        <ele>2121.0</ele>
        <time>2014-08-31T13:01:47Z</time>
      </trkpt>
      <trkpt lat="40.285167" lon="-4.791483">
        <ele>2123.0</ele>
        <time>2014-08-31T13:01:49Z</time>
      </trkpt>
      <trkpt lat="40.285033" lon="-4.791417">
        <ele>2127.0</ele>
        <time>2014-08-31T13:01:51Z</time>
      </trkpt>
      <trkpt lat="40.284950" lon="-4.791383">
        <ele>2131.0</ele>
        <time>2014-08-31T13:01:53Z</time>
      </trkpt>
      <trkpt lat="40.284867" lon="-4.791367">
        <ele>2130.0</ele>
        <time>2014-08-31T13:01:55Z</time>
      </trkpt>
      <trkpt lat="40.284767" lon="-4.791450">
        <ele>2128.0</ele>
        <time>2014-08-31T13:01:57Z</time>
      </trkpt>
      <trkpt lat="40.284683" lon="-4.791550">
        <ele>2129.0</ele>
        <time>2014-08-31T13:01:59Z</time>
      </trkpt>
      <trkpt lat="40.284600" lon="-4.791600">
        <ele>2131.0</ele>
        <time>2014-08-31T13:02:01Z</time>
      </trkpt>
      <trkpt lat="40.284517" lon="-4.791583">
        <ele>2132.0</ele>
        <time>2014-08-31T13:02:03Z</time>
      </trkpt>
      <trkpt lat="40.284400" lon="-4.791533">
        <ele>2134.0</ele>
        <time>2014-08-31T13:02:05Z</time>
      </trkpt>
      <trkpt lat="40.284300" lon="-4.791450">
        <ele>2136.0</ele>
        <time>2014-08-31T13:02:07Z</time>
      </trkpt>
      <trkpt lat="40.284183" lon="-4.791350">
        <ele>2136.0</ele>
        <time>2014-08-31T13:02:09Z</time>
      </trkpt>
      <trkpt lat="40.284067" lon="-4.791200">
        <ele>2137.0</ele>
        <time>2014-08-31T13:02:11Z</time>
      </trkpt>
      <trkpt lat="40.283967" lon="-4.791017">
        <ele>2138.0</ele>
        <time>2014-08-31T13:02:13Z</time>
      </trkpt>
      <trkpt lat="40.283867" lon="-4.790833">
        <ele>2142.0</ele>
        <time>2014-08-31T13:02:15Z</time>
      </trkpt>
      <trkpt lat="40.283800" lon="-4.790650">
        <ele>2146.0</ele>
        <time>2014-08-31T13:02:17Z</time>
      </trkpt>
      <trkpt lat="40.283767" lon="-4.790400">
        <ele>2149.0</ele>
        <time>2014-08-31T13:02:19Z</time>
      </trkpt>
      <trkpt lat="40.283783" lon="-4.790117">
        <ele>2154.0</ele>
        <time>2014-08-31T13:02:21Z</time>
      </trkpt>
      <trkpt lat="40.283883" lon="-4.789850">
        <ele>2160.0</ele>
        <time>2014-08-31T13:02:23Z</time>
      </trkpt>
      <trkpt lat="40.284050" lon="-4.789667">
        <ele>2164.0</ele>
        <time>2014-08-31T13:02:25Z</time>
      </trkpt>
      <trkpt lat="40.284250" lon="-4.789550">
        <ele>2166.0</ele>
        <time>2014-08-31T13:02:27Z</time>
      </trkpt>
      <trkpt lat="40.284450" lon="-4.789567">
        <ele>2168.0</ele>
        <time>2014-08-31T13:02:29Z</time>
      </trkpt>
      <trkpt lat="40.284617" lon="-4.789700">
        <ele>2170.0</ele>
        <time>2014-08-31T13:02:31Z</time>
      </trkpt>
      <trkpt lat="40.284667" lon="-4.789867">
        <ele>2172.0</ele>
        <time>2014-08-31T13:02:33Z</time>
      </trkpt>
      <trkpt lat="40.284650" lon="-4.790033">
        <ele>2175.0</ele>
        <time>2014-08-31T13:02:35Z</time>
      </trkpt>
      <trkpt lat="40.284567" lon="-4.790167">
        <ele>2177.0</ele>
        <time>2014-08-31T13:02:37Z</time>
      </trkpt>
      <trkpt lat="40.284433" lon="-4.790200">
        <ele>2179.0</ele>
        <time>2014-08-31T13:02:39Z</time>
      </trkpt>
      <trkpt lat="40.284283" lon="-4.790167">
        <ele>2184.0</ele>
        <time>2014-08-31T13:02:41Z</time>
      </trkpt>
      <trkpt lat="40.284150" lon="-4.790100">
        <ele>2192.0</ele>
        <time>2014-08-31T13:02:43Z</time>
      </trkpt>
      <trkpt lat="40.284000" lon="-4.790000">
        <ele>2198.0</ele>
        <time>2014-08-31T13:02:45Z</time>
      </trkpt>
      <trkpt lat="40.283883" lon="-4.789767">
        <ele>2205.0</ele>
        <time>2014-08-31T13:02:47Z</time>
      </trkpt>
      <trkpt lat="40.283833" lon="-4.789500">
        <ele>2215.0</ele>
        <time>2014-08-31T13:02:49Z</time>
      </trkpt>
      <trkpt lat="40.283850" lon="-4.789233">
        <ele>2222.0</ele>
        <time>2014-08-31T13:02:51Z</time>
      </trkpt>
      <trkpt lat="40.283933" lon="-4.788950">
        <ele>2228.0</ele>
        <time>2014-08-31T13:02:53Z</time>
      </trkpt>
      <trkpt lat="40.284083" lon="-4.788683">
        <ele>2232.0</ele>
        <time>2014-08-31T13:02:55Z</time>
      </trkpt>
      <trkpt lat="40.284283" lon="-4.788533">
        <ele>2238.0</ele>
        <time>2014-08-31T13:02:57Z</time>
      </trkpt>
      <trkpt lat="40.284467" lon="-4.788500">
        <ele>2241.0</ele>
        <time>2014-08-31T13:02:59Z</time>
      </trkpt>
      <trkpt lat="40.284633" lon="-4.788583">
        <ele>2242.0</ele>
        <time>2014-08-31T13:03:01Z</time>
      </trkpt>
      <trkpt lat="40.284733" lon="-4.788767">
        <ele>2246.0</ele>
        <time>2014-08-31T13:03:03Z</time>
      </trkpt>
      <trkpt lat="40.284733" lon="-4.788900">
        <ele>2254.0</ele>
        <time>2014-08-31T13:03:05Z</time>
      </trkpt>
      <trkpt lat="40.284717" lon="-4.788983">
        <ele>2260.0</ele>
        <time>2014-08-31T13:03:07Z</time>
      </trkpt>
      <trkpt lat="40.284617" lon="-4.789100">
        <ele>2264.0</ele>
        <time>2014-08-31T13:03:09Z</time>
      </trkpt>
      <trkpt lat="40.284450" lon="-4.789133">
        <ele>2273.0</ele>
        <time>2014-08-31T13:03:11Z</time>
      </trkpt>
      <trkpt lat="40.284350" lon="-4.789067">
        <ele>2285.0</ele>
        <time>2014-08-31T13:03:13Z</time>
      </trkpt>
      <trkpt lat="40.284250" lon="-4.788950">
        <ele>2291.0</ele>
        <time>2014-08-31T13:03:15Z</time>
      </trkpt>
      <trkpt lat="40.284117" lon="-4.788700">
        <ele>2295.0</ele>
        <time>2014-08-31T13:03:17Z</time>
      </trkpt>
      <trkpt lat="40.284033" lon="-4.788400">
        <ele>2302.0</ele>
        <time>2014-08-31T13:03:19Z</time>
      </trkpt>
      <trkpt lat="40.284033" lon="-4.788100">
        <ele>2308.0</ele>
        <time>2014-08-31T13:03:21Z</time>
      </trkpt>
      <trkpt lat="40.284083" lon="-4.787833">
        <ele>2312.0</ele>
        <time>2014-08-31T13:03:23Z</time>
      </trkpt>
      <trkpt lat="40.284233" lon="-4.787583">
        <ele>2312.0</ele>
        <time>2014-08-31T13:03:25Z</time>
      </trkpt>
      <trkpt lat="40.284450" lon="-4.787400">
        <ele>2310.0</ele>
        <time>2014-08-31T13:03:27Z</time>
      </trkpt>
      <trkpt lat="40.284650" lon="-4.787333">
        <ele>2310.0</ele>
        <time>2014-08-31T13:03:29Z</time>
      </trkpt>
      <trkpt lat="40.284850" lon="-4.787350">
        <ele>2310.0</ele>
        <time>2014-08-31T13:03:31Z</time>
      </trkpt>
      <trkpt lat="40.285017" lon="-4.787450">
        <ele>2308.0</ele>
        <time>2014-08-31T13:03:33Z</time>
      </trkpt>
      <trkpt lat="40.285117" lon="-4.787617">
        <ele>2306.0</ele>
        <time>2014-08-31T13:03:35Z</time>
      </trkpt>
      <trkpt lat="40.285067" lon="-4.787800">
        <ele>2307.0</ele>
        <time>2014-08-31T13:03:37Z</time>
      </trkpt>
      <trkpt lat="40.284967" lon="-4.787883">
        <ele>2313.0</ele>
        <time>2014-08-31T13:03:39Z</time>
      </trkpt>
      <trkpt lat="40.284867" lon="-4.787900">
        <ele>2319.0</ele>
        <time>2014-08-31T13:03:41Z</time>
      </trkpt>
      <trkpt lat="40.284733" lon="-4.787883">
        <ele>2321.0</ele>
        <time>2014-08-31T13:03:43Z</time>
      </trkpt>
      <trkpt lat="40.284567" lon="-4.787867">
        <ele>2324.0</ele>
        <time>2014-08-31T13:03:45Z</time>
      </trkpt>
      <trkpt lat="40.284433" lon="-4.787833">
        <ele>2332.0</ele>
        <time>2014-08-31T13:03:47Z</time>
      </trkpt>
      <trkpt lat="40.284300" lon="-4.787767">
        <ele>2338.0</ele>
        <time>2014-08-31T13:03:49Z</time>
      </trkpt>
      <trkpt lat="40.284167" lon="-4.787733">
        <ele>2340.0</ele>
        <time>2014-08-31T13:03:51Z</time>
      </trkpt>
      <trkpt lat="40.284017" lon="-4.787733">
        <ele>2343.0</ele>
        <time>2014-08-31T13:03:53Z</time>
      </trkpt>
      <trkpt lat="40.283850" lon="-4.787733">
        <ele>2347.0</ele>
        <time>2014-08-31T13:03:55Z</time>
      </trkpt>
      <trkpt lat="40.283683" lon="-4.787717">
        <ele>2352.0</ele>
        <time>2014-08-31T13:03:57Z</time>
      </trkpt>
      <trkpt lat="40.283533" lon="-4.787717">
        <ele>2360.0</ele>
        <time>2014-08-31T13:03:59Z</time>
      </trkpt>
      <trkpt lat="40.283383" lon="-4.787700">
        <ele>2366.0</ele>
        <time>2014-08-31T13:04:01Z</time>
      </trkpt>
      <trkpt lat="40.283250" lon="-4.787633">
        <ele>2372.0</ele>
        <time>2014-08-31T13:04:03Z</time>
      </trkpt>
      <trkpt lat="40.283117" lon="-4.787467">
        <ele>2378.0</ele>
        <time>2014-08-31T13:04:05Z</time>
      </trkpt>
      <trkpt lat="40.283017" lon="-4.787217">
        <ele>2384.0</ele>
        <time>2014-08-31T13:04:07Z</time>
      </trkpt>
      <trkpt lat="40.283000" lon="-4.786883">
        <ele>2389.0</ele>
        <time>2014-08-31T13:04:09Z</time>
      </trkpt>
      <trkpt lat="40.283050" lon="-4.786567">
        <ele>2394.0</ele>
        <time>2014-08-31T13:04:11Z</time>
      </trkpt>
      <trkpt lat="40.283167" lon="-4.786333">
        <ele>2397.0</ele>
        <time>2014-08-31T13:04:13Z</time>
      </trkpt>
      <trkpt lat="40.283367" lon="-4.786183">
        <ele>2397.0</ele>
        <time>2014-08-31T13:04:15Z</time>
      </trkpt>
      <trkpt lat="40.283567" lon="-4.786133">
        <ele>2398.0</ele>
        <time>2014-08-31T13:04:17Z</time>
      </trkpt>
      <trkpt lat="40.283683" lon="-4.786267">
        <ele>2397.0</ele>
        <time>2014-08-31T13:04:19Z</time>
      </trkpt>
      <trkpt lat="40.283683" lon="-4.786450">
        <ele>2400.0</ele>
        <time>2014-08-31T13:04:21Z</time>
      </trkpt>
      <trkpt lat="40.283650" lon="-4.786567">
        <ele>2406.0</ele>
        <time>2014-08-31T13:04:23Z</time>
      </trkpt>
      <trkpt lat="40.283533" lon="-4.786633">
        <ele>2409.0</ele>
        <time>2014-08-31T13:04:25Z</time>
      </trkpt>
      <trkpt lat="40.283383" lon="-4.786683">
        <ele>2413.0</ele>
        <time>2014-08-31T13:04:27Z</time>
      </trkpt>
      <trkpt lat="40.283250" lon="-4.786667">
        <ele>2421.0</ele>
        <time>2014-08-31T13:04:29Z</time>
      </trkpt>
      <trkpt lat="40.283117" lon="-4.786600">
        <ele>2427.0</ele>
        <time>2014-08-31T13:04:31Z</time>
      </trkpt>
      <trkpt lat="40.282967" lon="-4.786500">
        <ele>2430.0</ele>
        <time>2014-08-31T13:04:33Z</time>
      </trkpt>
      <trkpt lat="40.282800" lon="-4.786350">
        <ele>2434.0</ele>
        <time>2014-08-31T13:04:35Z</time>
      </trkpt>
      <trkpt lat="40.282683" lon="-4.786167">
        <ele>2440.0</ele>
        <time>2014-08-31T13:04:37Z</time>
      </trkpt>
      <trkpt lat="40.282583" lon="-4.785950">
        <ele>2442.0</ele>
        <time>2014-08-31T13:04:39Z</time>
      </trkpt>
      <trkpt lat="40.282450" lon="-4.785733">
        <ele>2440.0</ele>
        <time>2014-08-31T13:04:41Z</time>
      </trkpt>
      <trkpt lat="40.282283" lon="-4.785583">
        <ele>2436.0</ele>
        <time>2014-08-31T13:04:43Z</time>
      </trkpt>
      <trkpt lat="40.282100" lon="-4.785533">
        <ele>2434.0</ele>
        <time>2014-08-31T13:04:45Z</time>
      </trkpt>
      <trkpt lat="40.281933" lon="-4.785467">
        <ele>2428.0</ele>
        <time>2014-08-31T13:04:47Z</time>
      </trkpt>
      <trkpt lat="40.281733" lon="-4.785400">
        <ele>2421.0</ele>
        <time>2014-08-31T13:04:49Z</time>
      </trkpt>
      <trkpt lat="40.281500" lon="-4.785383">
        <ele>2416.0</ele>
        <time>2014-08-31T13:04:51Z</time>
      </trkpt>
      <trkpt lat="40.281300" lon="-4.785333">
        <ele>2413.0</ele>
        <time>2014-08-31T13:04:53Z</time>
      </trkpt>
      <trkpt lat="40.281100" lon="-4.785283">
        <ele>2408.0</ele>
        <time>2014-08-31T13:04:55Z</time>
      </trkpt>
      <trkpt lat="40.280883" lon="-4.785217">
        <ele>2403.0</ele>
        <time>2014-08-31T13:04:57Z</time>
      </trkpt>
      <trkpt lat="40.280700" lon="-4.785117">
        <ele>2398.0</ele>
        <time>2014-08-31T13:04:59Z</time>
      </trkpt>
      <trkpt lat="40.280500" lon="-4.785017">
        <ele>2392.0</ele>
        <time>2014-08-31T13:05:01Z</time>
      </trkpt>
      <trkpt lat="40.280283" lon="-4.784900">
        <ele>2387.0</ele>
        <time>2014-08-31T13:05:03Z</time>
      </trkpt>
      <trkpt lat="40.280100" lon="-4.784783">
        <ele>2382.0</ele>
        <time>2014-08-31T13:05:05Z</time>
      </trkpt>
      <trkpt lat="40.279883" lon="-4.784650">
        <ele>2374.0</ele>
        <time>2014-08-31T13:05:07Z</time>
      </trkpt>
      <trkpt lat="40.279667" lon="-4.784517">
        <ele>2370.0</ele>
        <time>2014-08-31T13:05:09Z</time>
      </trkpt>
      <trkpt lat="40.279450" lon="-4.784383">
        <ele>2368.0</ele>
        <time>2014-08-31T13:05:11Z</time>
      </trkpt>
      <trkpt lat="40.279267" lon="-4.784267">
        <ele>2366.0</ele>
        <time>2014-08-31T13:05:13Z</time>
      </trkpt>
      <trkpt lat="40.279067" lon="-4.784150">
        <ele>2362.0</ele>
        <time>2014-08-31T13:05:15Z</time>
      </trkpt>
      <trkpt lat="40.278883" lon="-4.784033">
        <ele>2359.0</ele>
        <time>2014-08-31T13:05:17Z</time>
      </trkpt>
      <trkpt lat="40.278700" lon="-4.783917">
        <ele>2355.0</ele>
        <time>2014-08-31T13:05:19Z</time>
      </trkpt>
      <trkpt lat="40.278500" lon="-4.783800">
        <ele>2350.0</ele>
        <time>2014-08-31T13:05:21Z</time>
      </trkpt>
      <trkpt lat="40.278300" lon="-4.783683">
        <ele>2346.0</ele>
        <time>2014-08-31T13:05:23Z</time>
      </trkpt>
      <trkpt lat="40.278083" lon="-4.783567">
        <ele>2341.0</ele>
        <time>2014-08-31T13:05:25Z</time>
      </trkpt>
      <trkpt lat="40.277883" lon="-4.783450">
        <ele>2336.0</ele>
        <time>2014-08-31T13:05:27Z</time>
      </trkpt>
      <trkpt lat="40.277683" lon="-4.783333">
        <ele>2333.0</ele>
        <time>2014-08-31T13:05:29Z</time>
      </trkpt>
      <trkpt lat="40.277500" lon="-4.783233">
        <ele>2330.0</ele>
        <time>2014-08-31T13:05:31Z</time>
      </trkpt>
      <trkpt lat="40.277283" lon="-4.783167">
        <ele>2325.0</ele>
        <time>2014-08-31T13:05:33Z</time>
      </trkpt>
      <trkpt lat="40.277083" lon="-4.783083">
        <ele>2321.0</ele>
        <time>2014-08-31T13:05:35Z</time>
      </trkpt>
      <trkpt lat="40.276867" lon="-4.782983">
        <ele>2318.0</ele>
        <time>2014-08-31T13:05:37Z</time>
      </trkpt>
      <trkpt lat="40.276683" lon="-4.782867">
        <ele>2314.0</ele>
        <time>2014-08-31T13:05:39Z</time>
      </trkpt>
      <trkpt lat="40.276483" lon="-4.782700">
        <ele>2309.0</ele>
        <time>2014-08-31T13:05:41Z</time>
      </trkpt>
      <trkpt lat="40.276283" lon="-4.782583">
        <ele>2307.0</ele>
        <time>2014-08-31T13:05:43Z</time>
      </trkpt>
      <trkpt lat="40.276067" lon="-4.782533">
        <ele>2304.0</ele>
        <time>2014-08-31T13:05:45Z</time>
      </trkpt>
      <trkpt lat="40.275850" lon="-4.782483">
        <ele>2299.0</ele>
        <time>2014-08-31T13:05:47Z</time>
      </trkpt>
      <trkpt lat="40.275633" lon="-4.782417">
        <ele>2294.0</ele>
        <time>2014-08-31T13:05:49Z</time>
      </trkpt>
      <trkpt lat="40.275417" lon="-4.782367">
        <ele>2290.0</ele>
        <time>2014-08-31T13:05:51Z</time>
      </trkpt>
      <trkpt lat="40.275200" lon="-4.782300">
        <ele>2285.0</ele>
        <time>2014-08-31T13:05:53Z</time>
      </trkpt>
      <trkpt lat="40.274983" lon="-4.782183">
        <ele>2280.0</ele>
        <time>2014-08-31T13:05:55Z</time>
      </trkpt>
      <trkpt lat="40.274783" lon="-4.782067">
        <ele>2278.0</ele>
        <time>2014-08-31T13:05:57Z</time>
      </trkpt>
      <trkpt lat="40.274583" lon="-4.781983">
        <ele>2275.0</ele>
        <time>2014-08-31T13:05:59Z</time>
      </trkpt>
      <trkpt lat="40.274383" lon="-4.781867">
        <ele>2270.0</ele>
        <time>2014-08-31T13:06:01Z</time>
      </trkpt>
      <trkpt lat="40.274167" lon="-4.781750">
        <ele>2267.0</ele>
        <time>2014-08-31T13:06:03Z</time>
      </trkpt>
      <trkpt lat="40.273950" lon="-4.781650">
        <ele>2265.0</ele>
        <time>2014-08-31T13:06:05Z</time>
      </trkpt>
      <trkpt lat="40.273750" lon="-4.781600">
        <ele>2261.0</ele>
        <time>2014-08-31T13:06:07Z</time>
      </trkpt>
      <trkpt lat="40.273550" lon="-4.781567">
        <ele>2256.0</ele>
        <time>2014-08-31T13:06:09Z</time>
      </trkpt>
      <trkpt lat="40.273333" lon="-4.781483">
        <ele>2251.0</ele>
        <time>2014-08-31T13:06:11Z</time>
      </trkpt>
      <trkpt lat="40.273133" lon="-4.781417">
        <ele>2250.0</ele>
        <time>2014-08-31T13:06:13Z</time>
      </trkpt>
      <trkpt lat="40.272967" lon="-4.781350">
        <ele>2247.0</ele>
        <time>2014-08-31T13:06:15Z</time>
      </trkpt>
      <trkpt lat="40.272783" lon="-4.781267">
        <ele>2244.0</ele>
        <time>2014-08-31T13:06:17Z</time>
      </trkpt>
      <trkpt lat="40.272617" lon="-4.781167">
        <ele>2242.0</ele>
        <time>2014-08-31T13:06:19Z</time>
      </trkpt>
      <trkpt lat="40.272450" lon="-4.781050">
        <ele>2241.0</ele>
        <time>2014-08-31T13:06:21Z</time>
      </trkpt>
      <trkpt lat="40.272283" lon="-4.780933">
        <ele>2238.0</ele>
        <time>2014-08-31T13:06:23Z</time>
      </trkpt>
      <trkpt lat="40.272117" lon="-4.780817">
        <ele>2233.0</ele>
        <time>2014-08-31T13:06:25Z</time>
      </trkpt>
      <trkpt lat="40.271933" lon="-4.780700">
        <ele>2230.0</ele>
        <time>2014-08-31T13:06:27Z</time>
      </trkpt>
      <trkpt lat="40.271767" lon="-4.780617">
        <ele>2225.0</ele>
        <time>2014-08-31T13:06:29Z</time>
      </trkpt>
      <trkpt lat="40.271583" lon="-4.780500">
        <ele>2219.0</ele>
        <time>2014-08-31T13:06:31Z</time>
      </trkpt>
      <trkpt lat="40.271400" lon="-4.780383">
        <ele>2216.0</ele>
        <time>2014-08-31T13:06:33Z</time>
      </trkpt>
      <trkpt lat="40.271233" lon="-4.780300">
        <ele>2213.0</ele>
        <time>2014-08-31T13:06:35Z</time>
      </trkpt>
      <trkpt lat="40.271050" lon="-4.780183">
        <ele>2208.0</ele>
        <time>2014-08-31T13:06:37Z</time>
      </trkpt>
      <trkpt lat="40.270867" lon="-4.780067">
        <ele>2204.0</ele>
        <time>2014-08-31T13:06:39Z</time>
      </trkpt>
      <trkpt lat="40.270700" lon="-4.779950">
        <ele>2201.0</ele>
        <time>2014-08-31T13:06:41Z</time>
      </trkpt>
      <trkpt lat="40.270533" lon="-4.779817">
        <ele>2196.0</ele>
        <time>2014-08-31T13:06:43Z</time>
      </trkpt>
      <trkpt lat="40.270350" lon="-4.779683">
        <ele>2192.0</ele>
        <time>2014-08-31T13:06:45Z</time>
      </trkpt>
      <trkpt lat="40.270167" lon="-4.779583">
        <ele>2190.0</ele>
        <time>2014-08-31T13:06:47Z</time>
      </trkpt>
      <trkpt lat="40.269983" lon="-4.779450">
        <ele>2185.0</ele>
        <time>2014-08-31T13:06:49Z</time>
      </trkpt>
      <trkpt lat="40.269800" lon="-4.779300">
        <ele>2181.0</ele>
        <time>2014-08-31T13:06:51Z</time>
      </trkpt>
      <trkpt lat="40.269617" lon="-4.779150">
        <ele>2180.0</ele>
        <time>2014-08-31T13:06:53Z</time>
      </trkpt>
      <trkpt lat="40.269450" lon="-4.779017">
        <ele>2176.0</ele>
        <time>2014-08-31T13:06:55Z</time>
      </trkpt>
      <trkpt lat="40.269250" lon="-4.778867">
        <ele>2171.0</ele>
        <time>2014-08-31T13:06:57Z</time>
      </trkpt>
      <trkpt lat="40.269083" lon="-4.778750">
        <ele>2169.0</ele>
        <time>2014-08-31T13:06:59Z</time>
      </trkpt>
      <trkpt lat="40.268933" lon="-4.778650">
        <ele>2166.0</ele>
        <time>2014-08-31T13:07:01Z</time>
      </trkpt>
      <trkpt lat="40.268767" lon="-4.778517">
        <ele>2161.0</ele>
        <time>2014-08-31T13:07:03Z</time>
      </trkpt>
      <trkpt lat="40.268600" lon="-4.778367">
        <ele>2156.0</ele>
        <time>2014-08-31T13:07:05Z</time>
      </trkpt>
      <trkpt lat="40.268433" lon="-4.778250">
        <ele>2152.0</ele>
        <time>2014-08-31T13:07:07Z</time>
      </trkpt>
      <trkpt lat="40.268250" lon="-4.778117">
        <ele>2146.0</ele>
        <time>2014-08-31T13:07:09Z</time>
      </trkpt>
      <trkpt lat="40.268050" lon="-4.777917">
        <ele>2144.0</ele>
        <time>2014-08-31T13:07:11Z</time>
      </trkpt>
      <trkpt lat="40.267867" lon="-4.777767">
        <ele>2147.0</ele>
        <time>2014-08-31T13:07:13Z</time>
      </trkpt>
      <trkpt lat="40.267717" lon="-4.777650">
        <ele>2146.0</ele>
        <time>2014-08-31T13:07:15Z</time>
      </trkpt>
      <trkpt lat="40.267550" lon="-4.777500">
        <ele>2139.0</ele>
        <time>2014-08-31T13:07:17Z</time>
      </trkpt>
      <trkpt lat="40.267350" lon="-4.777333">
        <ele>2136.0</ele>
        <time>2014-08-31T13:07:19Z</time>
      </trkpt>
      <trkpt lat="40.267200" lon="-4.777183">
        <ele>2135.0</ele>
        <time>2014-08-31T13:07:21Z</time>
      </trkpt>
      <trkpt lat="40.267067" lon="-4.777033">
        <ele>2132.0</ele>
        <time>2014-08-31T13:07:23Z</time>
      </trkpt>
      <trkpt lat="40.266917" lon="-4.776867">
        <ele>2128.0</ele>
        <time>2014-08-31T13:07:25Z</time>
      </trkpt>
      <trkpt lat="40.266767" lon="-4.776717">
        <ele>2127.0</ele>
        <time>2014-08-31T13:07:27Z</time>
      </trkpt>
      <trkpt lat="40.266633" lon="-4.776583">
        <ele>2125.0</ele>
        <time>2014-08-31T13:07:29Z</time>
      </trkpt>
      <trkpt lat="40.266467" lon="-4.776433">
        <ele>2123.0</ele>
        <time>2014-08-31T13:07:31Z</time>
      </trkpt>
      <trkpt lat="40.266300" lon="-4.776300">
        <ele>2122.0</ele>
        <time>2014-08-31T13:07:33Z</time>
      </trkpt>
      <trkpt lat="40.266117" lon="-4.776167">
        <ele>2120.0</ele>
        <time>2014-08-31T13:07:35Z</time>
      </trkpt>
      <trkpt lat="40.265950" lon="-4.776000">
        <ele>2118.0</ele>
        <time>2014-08-31T13:07:37Z</time>
      </trkpt>
      <trkpt lat="40.265767" lon="-4.775833">
        <ele>2117.0</ele>
        <time>2014-08-31T13:07:39Z</time>
      </trkpt>
      <trkpt lat="40.265617" lon="-4.775667">
        <ele>2116.0</ele>
        <time>2014-08-31T13:07:41Z</time>
      </trkpt>
      <trkpt lat="40.265450" lon="-4.775500">
        <ele>2114.0</ele>
        <time>2014-08-31T13:07:43Z</time>
      </trkpt>
      <trkpt lat="40.265283" lon="-4.775350">
        <ele>2110.0</ele>
        <time>2014-08-31T13:07:45Z</time>
      </trkpt>
      <trkpt lat="40.265117" lon="-4.775183">
        <ele>2106.0</ele>
        <time>2014-08-31T13:07:47Z</time>
      </trkpt>
      <trkpt lat="40.264950" lon="-4.775000">
        <ele>2102.0</ele>
        <time>2014-08-31T13:07:49Z</time>
      </trkpt>
      <trkpt lat="40.264767" lon="-4.774833">
        <ele>2097.0</ele>
        <time>2014-08-31T13:07:51Z</time>
      </trkpt>
      <trkpt lat="40.264583" lon="-4.774683">
        <ele>2093.0</ele>
        <time>2014-08-31T13:07:53Z</time>
      </trkpt>
      <trkpt lat="40.264383" lon="-4.774550">
        <ele>2091.0</ele>
        <time>2014-08-31T13:07:55Z</time>
      </trkpt>
      <trkpt lat="40.264200" lon="-4.774400">
        <ele>2089.0</ele>
        <time>2014-08-31T13:07:57Z</time>
      </trkpt>
      <trkpt lat="40.264017" lon="-4.774283">
        <ele>2086.0</ele>
        <time>2014-08-31T13:07:59Z</time>
      </trkpt>
      <trkpt lat="40.263833" lon="-4.774183">
        <ele>2084.0</ele>
        <time>2014-08-31T13:08:01Z</time>
      </trkpt>
      <trkpt lat="40.263667" lon="-4.774083">
        <ele>2080.0</ele>
        <time>2014-08-31T13:08:03Z</time>
      </trkpt>
      <trkpt lat="40.263483" lon="-4.773983">
        <ele>2076.0</ele>
        <time>2014-08-31T13:08:05Z</time>
      </trkpt>
      <trkpt lat="40.263317" lon="-4.773867">
        <ele>2074.0</ele>
        <time>2014-08-31T13:08:07Z</time>
      </trkpt>
      <trkpt lat="40.263150" lon="-4.773767">
        <ele>2071.0</ele>
        <time>2014-08-31T13:08:09Z</time>
      </trkpt>
      <trkpt lat="40.262967" lon="-4.773667">
        <ele>2068.0</ele>
        <time>2014-08-31T13:08:11Z</time>
      </trkpt>
      <trkpt lat="40.262783" lon="-4.773567">
        <ele>2066.0</ele>
        <time>2014-08-31T13:08:13Z</time>
      </trkpt>
      <trkpt lat="40.262617" lon="-4.773467">
        <ele>2065.0</ele>
        <time>2014-08-31T13:08:15Z</time>
      </trkpt>
      <trkpt lat="40.262450" lon="-4.773367">
        <ele>2062.0</ele>
        <time>2014-08-31T13:08:17Z</time>
      </trkpt>
      <trkpt lat="40.262283" lon="-4.773267">
        <ele>2058.0</ele>
        <time>2014-08-31T13:08:19Z</time>
      </trkpt>
      <trkpt lat="40.262117" lon="-4.773200">
        <ele>2057.0</ele>
        <time>2014-08-31T13:08:21Z</time>
      </trkpt>
      <trkpt lat="40.261950" lon="-4.773133">
        <ele>2053.0</ele>
        <time>2014-08-31T13:08:23Z</time>
      </trkpt>
      <trkpt lat="40.261767" lon="-4.773033">
        <ele>2049.0</ele>
        <time>2014-08-31T13:08:25Z</time>
      </trkpt>
      <trkpt lat="40.261600" lon="-4.772950">
        <ele>2046.0</ele>
        <time>2014-08-31T13:08:27Z</time>
      </trkpt>
      <trkpt lat="40.261467" lon="-4.772850">
        <ele>2042.0</ele>
        <time>2014-08-31T13:08:29Z</time>
      </trkpt>
      <trkpt lat="40.261300" lon="-4.772767">
        <ele>2037.0</ele>
        <time>2014-08-31T13:08:31Z</time>
      </trkpt>
      <trkpt lat="40.261117" lon="-4.772683">
        <ele>2033.0</ele>
        <time>2014-08-31T13:08:33Z</time>
      </trkpt>
      <trkpt lat="40.260967" lon="-4.772617">
        <ele>2030.0</ele>
        <time>2014-08-31T13:08:35Z</time>
      </trkpt>
      <trkpt lat="40.260800" lon="-4.772550">
        <ele>2026.0</ele>
        <time>2014-08-31T13:08:37Z</time>
      </trkpt>
      <trkpt lat="40.260633" lon="-4.772483">
        <ele>2022.0</ele>
        <time>2014-08-31T13:08:39Z</time>
      </trkpt>
      <trkpt lat="40.260483" lon="-4.772417">
        <ele>2019.0</ele>
        <time>2014-08-31T13:08:41Z</time>
      </trkpt>
      <trkpt lat="40.260333" lon="-4.772367">
        <ele>2014.0</ele>
        <time>2014-08-31T13:08:43Z</time>
      </trkpt>
      <trkpt lat="40.260183" lon="-4.772300">
        <ele>2008.0</ele>
        <time>2014-08-31T13:08:45Z</time>
      </trkpt>
      <trkpt lat="40.260017" lon="-4.772200">
        <ele>2002.0</ele>
        <time>2014-08-31T13:08:47Z</time>
      </trkpt>
      <trkpt lat="40.259867" lon="-4.772133">
        <ele>1999.0</ele>
        <time>2014-08-31T13:08:49Z</time>
      </trkpt>
      <trkpt lat="40.259717" lon="-4.772050">
        <ele>1995.0</ele>
        <time>2014-08-31T13:08:51Z</time>
      </trkpt>
      <trkpt lat="40.259567" lon="-4.771950">
        <ele>1989.0</ele>
        <time>2014-08-31T13:08:53Z</time>
      </trkpt>
      <trkpt lat="40.259417" lon="-4.771867">
        <ele>1985.0</ele>
        <time>2014-08-31T13:08:55Z</time>
      </trkpt>
      <trkpt lat="40.259267" lon="-4.771767">
        <ele>1982.0</ele>
        <time>2014-08-31T13:08:57Z</time>
      </trkpt>
      <trkpt lat="40.259150" lon="-4.771650">
        <ele>1977.0</ele>
        <time>2014-08-31T13:08:59Z</time>
      </trkpt>
      <trkpt lat="40.259017" lon="-4.771533">
        <ele>1972.0</ele>
        <time>2014-08-31T13:09:01Z</time>
      </trkpt>
      <trkpt lat="40.258883" lon="-4.771433">
        <ele>1970.0</ele>
        <time>2014-08-31T13:09:03Z</time>
      </trkpt>
      <trkpt lat="40.258750" lon="-4.771350">
        <ele>1968.0</ele>
        <time>2014-08-31T13:09:05Z</time>
      </trkpt>
      <trkpt lat="40.258617" lon="-4.771283">
        <ele>1966.0</ele>
        <time>2014-08-31T13:09:07Z</time>
      </trkpt>
      <trkpt lat="40.258417" lon="-4.771300">
        <ele>1966.0</ele>
        <time>2014-08-31T13:09:09Z</time>
      </trkpt>
      <trkpt lat="40.258283" lon="-4.771500">
        <ele>1964.0</ele>
        <time>2014-08-31T13:09:11Z</time>
      </trkpt>
      <trkpt lat="40.258250" lon="-4.771800">
        <ele>1963.0</ele>
        <time>2014-08-31T13:09:13Z</time>
      </trkpt>
      <trkpt lat="40.258233" lon="-4.772100">
        <ele>1964.0</ele>
        <time>2014-08-31T13:09:15Z</time>
      </trkpt>
      <trkpt lat="40.258217" lon="-4.772400">
        <ele>1963.0</ele>
        <time>2014-08-31T13:09:17Z</time>
      </trkpt>
      <trkpt lat="40.258250" lon="-4.772667">
        <ele>1963.0</ele>
        <time>2014-08-31T13:09:19Z</time>
      </trkpt>
      <trkpt lat="40.258383" lon="-4.772850">
        <ele>1960.0</ele>
        <time>2014-08-31T13:09:21Z</time>
      </trkpt>
      <trkpt lat="40.258583" lon="-4.772817">
        <ele>1955.0</ele>
        <time>2014-08-31T13:09:23Z</time>
      </trkpt>
      <trkpt lat="40.258600" lon="-4.772583">
        <ele>1950.0</ele>
        <time>2014-08-31T13:09:25Z</time>
      </trkpt>
      <trkpt lat="40.258400" lon="-4.772517">
        <ele>1944.0</ele>
        <time>2014-08-31T13:09:27Z</time>
      </trkpt>
      <trkpt lat="40.258250" lon="-4.772800">
        <ele>1939.0</ele>
        <time>2014-08-31T13:09:29Z</time>
      </trkpt>
      <trkpt lat="40.258400" lon="-4.773067">
        <ele>1935.0</ele>
        <time>2014-08-31T13:09:31Z</time>
      </trkpt>
      <trkpt lat="40.258583" lon="-4.773017">
        <ele>1933.0</ele>
        <time>2014-08-31T13:09:33Z</time>
      </trkpt>
      <trkpt lat="40.258617" lon="-4.772833">
        <ele>1931.0</ele>
        <time>2014-08-31T13:09:35Z</time>
      </trkpt>
      <trkpt lat="40.258550" lon="-4.772667">
        <ele>1931.0</ele>
        <time>2014-08-31T13:09:37Z</time>
      </trkpt>
      <trkpt lat="40.258383" lon="-4.772650">
        <ele>1927.0</ele>
        <time>2014-08-31T13:09:39Z</time>
      </trkpt>
      <trkpt lat="40.258217" lon="-4.772867">
        <ele>1921.0</ele>
        <time>2014-08-31T13:09:41Z</time>
      </trkpt>
      <trkpt lat="40.258283" lon="-4.773167">
        <ele>1916.0</ele>
        <time>2014-08-31T13:09:43Z</time>
      </trkpt>
      <trkpt lat="40.258517" lon="-4.773183">
        <ele>1909.0</ele>
        <time>2014-08-31T13:09:45Z</time>
      </trkpt>
      <trkpt lat="40.258533" lon="-4.772933">
        <ele>1906.0</ele>
        <time>2014-08-31T13:09:47Z</time>
      </trkpt>
      <trkpt lat="40.258350" lon="-4.772883">
        <ele>1905.0</ele>
        <time>2014-08-31T13:09:49Z</time>
      </trkpt>
      <trkpt lat="40.258200" lon="-4.773017">
        <ele>1905.0</ele>
        <time>2014-08-31T13:09:51Z</time>
      </trkpt>
      <trkpt lat="40.258117" lon="-4.773217">
        <ele>1902.0</ele>
        <time>2014-08-31T13:09:53Z</time>
      </trkpt>
      <trkpt lat="40.258150" lon="-4.773483">
        <ele>1896.0</ele>
        <time>2014-08-31T13:09:55Z</time>
      </trkpt>
      <trkpt lat="40.258350" lon="-4.773633">
        <ele>1890.0</ele>
        <time>2014-08-31T13:09:57Z</time>
      </trkpt>
      <trkpt lat="40.258533" lon="-4.773500">
        <ele>1885.0</ele>
        <time>2014-08-31T13:09:59Z</time>
      </trkpt>
      <trkpt lat="40.258483" lon="-4.773267">
        <ele>1881.0</ele>
        <time>2014-08-31T13:10:01Z</time>
      </trkpt>
      <trkpt lat="40.258300" lon="-4.773267">
        <ele>1878.0</ele>
        <time>2014-08-31T13:10:03Z</time>
      </trkpt>
      <trkpt lat="40.258183" lon="-4.773500">
        <ele>1876.0</ele>
        <time>2014-08-31T13:10:05Z</time>
      </trkpt>
      <trkpt lat="40.258233" lon="-4.773767">
        <ele>1873.0</ele>
        <time>2014-08-31T13:10:07Z</time>
      </trkpt>
      <trkpt lat="40.258383" lon="-4.773983">
        <ele>1869.0</ele>
        <time>2014-08-31T13:10:09Z</time>
      </trkpt>
      <trkpt lat="40.258583" lon="-4.774017">
        <ele>1864.0</ele>
        <time>2014-08-31T13:10:11Z</time>
      </trkpt>
      <trkpt lat="40.258717" lon="-4.773850">
        <ele>1858.0</ele>
        <time>2014-08-31T13:10:13Z</time>
      </trkpt>
      <trkpt lat="40.258633" lon="-4.773650">
        <ele>1853.0</ele>
        <time>2014-08-31T13:10:15Z</time>
      </trkpt>
      <trkpt lat="40.258450" lon="-4.773700">
        <ele>1849.0</ele>
        <time>2014-08-31T13:10:17Z</time>
      </trkpt>
      <trkpt lat="40.258383" lon="-4.773983">
        <ele>1845.0</ele>
        <time>2014-08-31T13:10:19Z</time>
      </trkpt>
      <trkpt lat="40.258550" lon="-4.774217">
        <ele>1840.0</ele>
        <time>2014-08-31T13:10:21Z</time>
      </trkpt>
      <trkpt lat="40.258750" lon="-4.774233">
        <ele>1836.0</ele>
        <time>2014-08-31T13:10:23Z</time>
      </trkpt>
      <trkpt lat="40.258883" lon="-4.774067">
        <ele>1832.0</ele>
        <time>2014-08-31T13:10:25Z</time>
      </trkpt>
      <trkpt lat="40.258850" lon="-4.773867">
        <ele>1827.0</ele>
        <time>2014-08-31T13:10:27Z</time>
      </trkpt>
      <trkpt lat="40.258667" lon="-4.773850">
        <ele>1821.0</ele>
        <time>2014-08-31T13:10:29Z</time>
      </trkpt>
      <trkpt lat="40.258583" lon="-4.774117">
        <ele>1815.0</ele>
        <time>2014-08-31T13:10:31Z</time>
      </trkpt>
      <trkpt lat="40.258733" lon="-4.774367">
        <ele>1809.0</ele>
        <time>2014-08-31T13:10:33Z</time>
      </trkpt>
      <trkpt lat="40.258950" lon="-4.774333">
        <ele>1804.0</ele>
        <time>2014-08-31T13:10:35Z</time>
      </trkpt>
      <trkpt lat="40.259033" lon="-4.774133">
        <ele>1799.0</ele>
        <time>2014-08-31T13:10:37Z</time>
      </trkpt>
      <trkpt lat="40.258950" lon="-4.773967">
        <ele>1794.0</ele>
        <time>2014-08-31T13:10:39Z</time>
      </trkpt>
      <trkpt lat="40.258783" lon="-4.773983">
        <ele>1788.0</ele>
        <time>2014-08-31T13:10:41Z</time>
      </trkpt>
      <trkpt lat="40.258683" lon="-4.774183">
        <ele>1783.0</ele>
        <time>2014-08-31T13:10:43Z</time>
      </trkpt>
      <trkpt lat="40.258750" lon="-4.774450">
        <ele>1777.0</ele>
        <time>2014-08-31T13:10:45Z</time>
      </trkpt>
      <trkpt lat="40.258950" lon="-4.774600">
        <ele>1771.0</ele>
        <time>2014-08-31T13:10:47Z</time>
      </trkpt>
      <trkpt lat="40.259133" lon="-4.774533">
        <ele>1766.0</ele>
        <time>2014-08-31T13:10:49Z</time>
      </trkpt>
      <trkpt lat="40.259217" lon="-4.774350">
        <ele>1761.0</ele>
        <time>2014-08-31T13:10:51Z</time>
      </trkpt>
      <trkpt lat="40.259167" lon="-4.774183">
        <ele>1754.0</ele>
        <time>2014-08-31T13:10:53Z</time>
      </trkpt>
      <trkpt lat="40.259000" lon="-4.774150">
        <ele>1747.0</ele>
        <time>2014-08-31T13:10:55Z</time>
      </trkpt>
      <trkpt lat="40.258917" lon="-4.774383">
        <ele>1739.0</ele>
        <time>2014-08-31T13:10:57Z</time>
      </trkpt>
      <trkpt lat="40.259017" lon="-4.774650">
        <ele>1733.0</ele>
        <time>2014-08-31T13:10:59Z</time>
      </trkpt>
      <trkpt lat="40.259233" lon="-4.774700">
        <ele>1728.0</ele>
        <time>2014-08-31T13:11:01Z</time>
      </trkpt>
      <trkpt lat="40.259383" lon="-4.774600">
        <ele>1723.0</ele>
        <time>2014-08-31T13:11:03Z</time>
      </trkpt>
      <trkpt lat="40.259450" lon="-4.774417">
        <ele>1716.0</ele>
        <time>2014-08-31T13:11:05Z</time>
      </trkpt>
      <trkpt lat="40.259383" lon="-4.774233">
        <ele>1708.0</ele>
        <time>2014-08-31T13:11:07Z</time>
      </trkpt>
      <trkpt lat="40.259217" lon="-4.774250">
        <ele>1699.0</ele>
        <time>2014-08-31T13:11:09Z</time>
      </trkpt>
      <trkpt lat="40.259150" lon="-4.774517">
        <ele>1690.0</ele>
        <time>2014-08-31T13:11:11Z</time>
      </trkpt>
      <trkpt lat="40.259317" lon="-4.774717">
        <ele>1683.0</ele>
        <time>2014-08-31T13:11:13Z</time>
      </trkpt>
      <trkpt lat="40.259517" lon="-4.774700">
        <ele>1678.0</ele>
        <time>2014-08-31T13:11:15Z</time>
      </trkpt>
      <trkpt lat="40.259650" lon="-4.774550">
        <ele>1673.0</ele>
        <time>2014-08-31T13:11:17Z</time>
      </trkpt>
      <trkpt lat="40.259667" lon="-4.774350">
        <ele>1666.0</ele>
        <time>2014-08-31T13:11:19Z</time>
      </trkpt>
      <trkpt lat="40.259583" lon="-4.774183">
        <ele>1658.0</ele>
        <time>2014-08-31T13:11:21Z</time>
      </trkpt>
      <trkpt lat="40.259433" lon="-4.774150">
        <ele>1650.0</ele>
        <time>2014-08-31T13:11:23Z</time>
      </trkpt>
      <trkpt lat="40.259333" lon="-4.774317">
        <ele>1641.0</ele>
        <time>2014-08-31T13:11:25Z</time>
      </trkpt>
      <trkpt lat="40.259450" lon="-4.774550">
        <ele>1632.0</ele>
        <time>2014-08-31T13:11:27Z</time>
      </trkpt>
      <trkpt lat="40.259667" lon="-4.774567">
        <ele>1625.0</ele>
        <time>2014-08-31T13:11:29Z</time>
      </trkpt>
      <trkpt lat="40.259817" lon="-4.774350">
        <ele>1617.0</ele>
        <time>2014-08-31T13:11:31Z</time>
      </trkpt>
      <trkpt lat="40.259800" lon="-4.774117">
        <ele>1611.0</ele>
        <time>2014-08-31T13:11:33Z</time>
      </trkpt>
      <trkpt lat="40.259683" lon="-4.774000">
        <ele>1604.0</ele>
        <time>2014-08-31T13:11:35Z</time>
      </trkpt>
      <trkpt lat="40.259533" lon="-4.774033">
        <ele>1595.0</ele>
        <time>2014-08-31T13:11:37Z</time>
      </trkpt>
      <trkpt lat="40.259500" lon="-4.774233">
        <ele>1589.0</ele>
        <time>2014-08-31T13:11:39Z</time>
      </trkpt>
      <trkpt lat="40.259683" lon="-4.774383">
        <ele>1581.0</ele>
        <time>2014-08-31T13:11:41Z</time>
      </trkpt>
      <trkpt lat="40.259883" lon="-4.774300">
        <ele>1575.0</ele>
        <time>2014-08-31T13:11:43Z</time>
      </trkpt>
      <trkpt lat="40.259983" lon="-4.774067">
        <ele>1569.0</ele>
        <time>2014-08-31T13:11:45Z</time>
      </trkpt>
      <trkpt lat="40.259983" lon="-4.773850">
        <ele>1561.0</ele>
        <time>2014-08-31T13:11:47Z</time>
      </trkpt>
      <trkpt lat="40.259867" lon="-4.773700">
        <ele>1553.0</ele>
        <time>2014-08-31T13:11:49Z</time>
      </trkpt>
      <trkpt lat="40.259717" lon="-4.773700">
        <ele>1546.0</ele>
        <time>2014-08-31T13:11:51Z</time>
      </trkpt>
      <trkpt lat="40.259683" lon="-4.773900">
        <ele>1539.0</ele>
        <time>2014-08-31T13:11:53Z</time>
      </trkpt>
      <trkpt lat="40.259817" lon="-4.774100">
        <ele>1533.0</ele>
        <time>2014-08-31T13:11:55Z</time>
      </trkpt>
      <trkpt lat="40.260000" lon="-4.774150">
        <ele>1528.0</ele>
        <time>2014-08-31T13:11:57Z</time>
      </trkpt>
      <trkpt lat="40.260167" lon="-4.774050">
        <ele>1519.0</ele>
        <time>2014-08-31T13:11:59Z</time>
      </trkpt>
      <trkpt lat="40.260283" lon="-4.773833">
        <ele>1509.0</ele>
        <time>2014-08-31T13:12:01Z</time>
      </trkpt>
      <trkpt lat="40.260250" lon="-4.773600">
        <ele>1499.0</ele>
        <time>2014-08-31T13:12:03Z</time>
      </trkpt>
      <trkpt lat="40.260100" lon="-4.773467">
        <ele>1490.0</ele>
        <time>2014-08-31T13:12:05Z</time>
      </trkpt>
      <trkpt lat="40.259983" lon="-4.773533">
        <ele>1483.0</ele>
        <time>2014-08-31T13:12:07Z</time>
      </trkpt>
      <trkpt lat="40.259950" lon="-4.773683">
        <ele>1474.0</ele>
        <time>2014-08-31T13:12:09Z</time>
      </trkpt>
      <trkpt lat="40.260033" lon="-4.773850">
        <ele>1466.0</ele>
        <time>2014-08-31T13:12:11Z</time>
      </trkpt>
      <trkpt lat="40.260217" lon="-4.773917">
        <ele>1457.0</ele>
        <time>2014-08-31T13:12:13Z</time>
      </trkpt>
      <trkpt lat="40.260417" lon="-4.773767">
        <ele>1449.0</ele>
        <time>2014-08-31T13:12:15Z</time>
      </trkpt>
      <trkpt lat="40.260483" lon="-4.773517">
        <ele>1441.0</ele>
        <time>2014-08-31T13:12:17Z</time>
      </trkpt>
      <trkpt lat="40.260450" lon="-4.773250">
        <ele>1434.0</ele>
        <time>2014-08-31T13:12:19Z</time>
      </trkpt>
      <trkpt lat="40.260300" lon="-4.773100">
        <ele>1424.0</ele>
        <time>2014-08-31T13:12:21Z</time>
      </trkpt>
      <trkpt lat="40.260133" lon="-4.773117">
        <ele>1416.0</ele>
        <time>2014-08-31T13:12:23Z</time>
      </trkpt>
      <trkpt lat="40.260133" lon="-4.773317">
        <ele>1408.0</ele>
        <time>2014-08-31T13:12:25Z</time>
      </trkpt>
      <trkpt lat="40.260317" lon="-4.773433">
        <ele>1399.0</ele>
        <time>2014-08-31T13:12:27Z</time>
      </trkpt>
      <trkpt lat="40.260533" lon="-4.773350">
        <ele>1392.0</ele>
        <time>2014-08-31T13:12:29Z</time>
      </trkpt>
      <trkpt lat="40.260683" lon="-4.773100">
        <ele>1385.0</ele>
        <time>2014-08-31T13:12:31Z</time>
      </trkpt>
      <trkpt lat="40.260700" lon="-4.772817">
        <ele>1379.0</ele>
        <time>2014-08-31T13:12:33Z</time>
      </trkpt>
      <trkpt lat="40.260567" lon="-4.772667">
        <ele>1371.0</ele>
        <time>2014-08-31T13:12:35Z</time>
      </trkpt>
      <trkpt lat="40.260450" lon="-4.772750">
        <ele>1364.0</ele>
        <time>2014-08-31T13:12:37Z</time>
      </trkpt>
      <trkpt lat="40.260467" lon="-4.772917">
        <ele>1358.0</ele>
        <time>2014-08-31T13:12:39Z</time>
      </trkpt>
      <trkpt lat="40.260617" lon="-4.773033">
        <ele>1353.0</ele>
        <time>2014-08-31T13:12:41Z</time>
      </trkpt>
      <trkpt lat="40.260817" lon="-4.773050">
        <ele>1347.0</ele>
        <time>2014-08-31T13:12:43Z</time>
      </trkpt>
      <trkpt lat="40.261017" lon="-4.772933">
        <ele>1341.0</ele>
        <time>2014-08-31T13:12:45Z</time>
      </trkpt>
      <trkpt lat="40.261133" lon="-4.772667">
        <ele>1333.0</ele>
        <time>2014-08-31T13:12:47Z</time>
      </trkpt>
      <trkpt lat="40.261083" lon="-4.772383">
        <ele>1327.0</ele>
        <time>2014-08-31T13:12:49Z</time>
      </trkpt>
      <trkpt lat="40.260967" lon="-4.772283">
        <ele>1322.0</ele>
        <time>2014-08-31T13:12:51Z</time>
      </trkpt>
      <trkpt lat="40.260867" lon="-4.772333">
        <ele>1315.0</ele>
        <time>2014-08-31T13:12:53Z</time>
      </trkpt>
      <trkpt lat="40.260817" lon="-4.772467">
        <ele>1307.0</ele>
        <time>2014-08-31T13:12:55Z</time>
      </trkpt>
      <trkpt lat="40.260867" lon="-4.772650">
        <ele>1300.0</ele>
        <time>2014-08-31T13:12:57Z</time>
      </trkpt>
      <trkpt lat="40.261033" lon="-4.772767">
        <ele>1293.0</ele>
        <time>2014-08-31T13:12:59Z</time>
      </trkpt>
      <trkpt lat="40.261233" lon="-4.772783">
        <ele>1286.0</ele>
        <time>2014-08-31T13:13:01Z</time>
      </trkpt>
      <trkpt lat="40.261450" lon="-4.772750">
        <ele>1280.0</ele>
        <time>2014-08-31T13:13:03Z</time>
      </trkpt>
      <trkpt lat="40.261650" lon="-4.772750">
        <ele>1273.0</ele>
        <time>2014-08-31T13:13:05Z</time>
      </trkpt>
      <trkpt lat="40.261783" lon="-4.772900">
        <ele>1267.0</ele>
        <time>2014-08-31T13:13:07Z</time>
      </trkpt>
      <trkpt lat="40.261750" lon="-4.773117">
        <ele>1259.0</ele>
        <time>2014-08-31T13:13:09Z</time>
      </trkpt>
      <trkpt lat="40.261583" lon="-4.773150">
        <ele>1254.0</ele>
        <time>2014-08-31T13:13:11Z</time>
      </trkpt>
      <trkpt lat="40.261467" lon="-4.772983">
        <ele>1247.0</ele>
        <time>2014-08-31T13:13:13Z</time>
      </trkpt>
      <trkpt lat="40.261450" lon="-4.772733">
        <ele>1241.0</ele>
        <time>2014-08-31T13:13:15Z</time>
      </trkpt>
      <trkpt lat="40.261617" lon="-4.772567">
        <ele>1230.0</ele>
        <time>2014-08-31T13:13:17Z</time>
      </trkpt>
      <trkpt lat="40.261800" lon="-4.772683">
        <ele>1220.0</ele>
        <time>2014-08-31T13:13:19Z</time>
      </trkpt>
      <trkpt lat="40.261733" lon="-4.772883">
        <ele>1214.0</ele>
        <time>2014-08-31T13:13:21Z</time>
      </trkpt>
      <trkpt lat="40.261567" lon="-4.772833">
        <ele>1208.0</ele>
        <time>2014-08-31T13:13:23Z</time>
      </trkpt>
      <trkpt lat="40.261500" lon="-4.772617">
        <ele>1202.0</ele>
        <time>2014-08-31T13:13:25Z</time>
      </trkpt>
      <trkpt lat="40.261550" lon="-4.772367">
        <ele>1195.0</ele>
        <time>2014-08-31T13:13:27Z</time>
      </trkpt>
      <trkpt lat="40.261717" lon="-4.772233">
        <ele>1186.0</ele>
        <time>2014-08-31T13:13:29Z</time>
      </trkpt>
      <trkpt lat="40.261883" lon="-4.772350">
        <ele>1177.0</ele>
        <time>2014-08-31T13:13:31Z</time>
      </trkpt>
      <trkpt lat="40.261817" lon="-4.772550">
        <ele>1170.0</ele>
        <time>2014-08-31T13:13:33Z</time>
      </trkpt>
      <trkpt lat="40.261633" lon="-4.772467">
        <ele>1162.0</ele>
        <time>2014-08-31T13:13:35Z</time>
      </trkpt>
      <trkpt lat="40.261600" lon="-4.772167">
        <ele>1155.0</ele>
        <time>2014-08-31T13:13:37Z</time>
      </trkpt>
      <trkpt lat="40.261733" lon="-4.771933">
        <ele>1149.0</ele>
        <time>2014-08-31T13:13:39Z</time>
      </trkpt>
      <trkpt lat="40.261933" lon="-4.771867">
        <ele>1142.0</ele>
        <time>2014-08-31T13:13:41Z</time>
      </trkpt>
      <trkpt lat="40.262050" lon="-4.772000">
        <ele>1134.0</ele>
        <time>2014-08-31T13:13:43Z</time>
      </trkpt>
      <trkpt lat="40.261950" lon="-4.772150">
        <ele>1127.0</ele>
        <time>2014-08-31T13:13:45Z</time>
      </trkpt>
      <trkpt lat="40.261767" lon="-4.772067">
        <ele>1119.0</ele>
        <time>2014-08-31T13:13:47Z</time>
      </trkpt>
      <trkpt lat="40.261733" lon="-4.771767">
        <ele>1113.0</ele>
        <time>2014-08-31T13:13:49Z</time>
      </trkpt>
      <trkpt lat="40.261900" lon="-4.771550">
        <ele>1106.0</ele>
        <time>2014-08-31T13:13:51Z</time>
      </trkpt>
      <trkpt lat="40.262083" lon="-4.771567">
        <ele>1098.0</ele>
        <time>2014-08-31T13:13:53Z</time>
      </trkpt>
      <trkpt lat="40.262083" lon="-4.771767">
        <ele>1089.0</ele>
        <time>2014-08-31T13:13:55Z</time>
      </trkpt>
      <trkpt lat="40.261867" lon="-4.771783">
        <ele>1080.0</ele>
        <time>2014-08-31T13:13:57Z</time>
      </trkpt>
      <trkpt lat="40.261733" lon="-4.771550">
        <ele>1077.0</ele>
        <time>2014-08-31T13:13:59Z</time>
      </trkpt>
      <trkpt lat="40.261733" lon="-4.771333">
        <ele>1073.0</ele>
        <time>2014-08-31T13:14:01Z</time>
      </trkpt>
      <trkpt lat="40.261783" lon="-4.771083">
        <ele>1065.0</ele>
        <time>2014-08-31T13:14:03Z</time>
      </trkpt>
      <trkpt lat="40.261983" lon="-4.770933">
        <ele>1056.0</ele>
        <time>2014-08-31T13:14:05Z</time>
      </trkpt>
      <trkpt lat="40.262117" lon="-4.771100">
        <ele>1047.0</ele>
        <time>2014-08-31T13:14:07Z</time>
      </trkpt>
      <trkpt lat="40.262000" lon="-4.771250">
        <ele>1041.0</ele>
        <time>2014-08-31T13:14:09Z</time>
      </trkpt>
      <trkpt lat="40.261817" lon="-4.771183">
        <ele>1036.0</ele>
        <time>2014-08-31T13:14:11Z</time>
      </trkpt>
      <trkpt lat="40.261717" lon="-4.770950">
        <ele>1031.0</ele>
        <time>2014-08-31T13:14:13Z</time>
      </trkpt>
      <trkpt lat="40.261767" lon="-4.770683">
        <ele>1023.0</ele>
        <time>2014-08-31T13:14:15Z</time>
      </trkpt>
      <trkpt lat="40.261933" lon="-4.770517">
        <ele>1015.0</ele>
        <time>2014-08-31T13:14:17Z</time>
      </trkpt>
      <trkpt lat="40.262100" lon="-4.770617">
        <ele>1007.0</ele>
        <time>2014-08-31T13:14:19Z</time>
      </trkpt>
      <trkpt lat="40.262050" lon="-4.770800">
        <ele>1000.0</ele>
        <time>2014-08-31T13:14:21Z</time>
      </trkpt>
      <trkpt lat="40.261883" lon="-4.770817">
        <ele>994.0</ele>
        <time>2014-08-31T13:14:23Z</time>
      </trkpt>
      <trkpt lat="40.261733" lon="-4.770650">
        <ele>987.0</ele>
        <time>2014-08-31T13:14:25Z</time>
      </trkpt>
      <trkpt lat="40.261700" lon="-4.770367">
        <ele>980.0</ele>
        <time>2014-08-31T13:14:27Z</time>
      </trkpt>
      <trkpt lat="40.261817" lon="-4.770133">
        <ele>972.0</ele>
        <time>2014-08-31T13:14:29Z</time>
      </trkpt>
      <trkpt lat="40.262017" lon="-4.770100">
        <ele>963.0</ele>
        <time>2014-08-31T13:14:31Z</time>
      </trkpt>
      <trkpt lat="40.262083" lon="-4.770283">
        <ele>956.0</ele>
        <time>2014-08-31T13:14:33Z</time>
      </trkpt>
      <trkpt lat="40.261967" lon="-4.770417">
        <ele>949.0</ele>
        <time>2014-08-31T13:14:35Z</time>
      </trkpt>
      <trkpt lat="40.261800" lon="-4.770383">
        <ele>944.0</ele>
        <time>2014-08-31T13:14:37Z</time>
      </trkpt>
      <trkpt lat="40.261667" lon="-4.770217">
        <ele>937.0</ele>
        <time>2014-08-31T13:14:39Z</time>
      </trkpt>
      <trkpt lat="40.261633" lon="-4.769917">
        <ele>929.0</ele>
        <time>2014-08-31T13:14:41Z</time>
      </trkpt>
      <trkpt lat="40.261733" lon="-4.769650">
        <ele>922.0</ele>
        <time>2014-08-31T13:14:43Z</time>
      </trkpt>
      <trkpt lat="40.261917" lon="-4.769550">
        <ele>916.0</ele>
        <time>2014-08-31T13:14:45Z</time>
      </trkpt>
      <trkpt lat="40.262067" lon="-4.769600">
        <ele>909.0</ele>
        <time>2014-08-31T13:14:47Z</time>
      </trkpt>
      <trkpt lat="40.262133" lon="-4.769767">
        <ele>903.0</ele>
        <time>2014-08-31T13:14:49Z</time>
      </trkpt>
      <trkpt lat="40.262117" lon="-4.769933">
        <ele>897.0</ele>
        <time>2014-08-31T13:14:51Z</time>
      </trkpt>
      <trkpt lat="40.262117" lon="-4.770117">
        <ele>890.0</ele>
        <time>2014-08-31T13:14:53Z</time>
      </trkpt>
      <trkpt lat="40.262100" lon="-4.770317">
        <ele>884.0</ele>
        <time>2014-08-31T13:14:55Z</time>
      </trkpt>
      <trkpt lat="40.262050" lon="-4.770500">
        <ele>879.0</ele>
        <time>2014-08-31T13:14:57Z</time>
      </trkpt>
      <trkpt lat="40.262017" lon="-4.770650">
        <ele>874.0</ele>
        <time>2014-08-31T13:14:59Z</time>
      </trkpt>
      <trkpt lat="40.261967" lon="-4.770833">
        <ele>868.0</ele>
        <time>2014-08-31T13:15:01Z</time>
      </trkpt>
      <trkpt lat="40.261917" lon="-4.771017">
        <ele>863.0</ele>
        <time>2014-08-31T13:15:03Z</time>
      </trkpt>
      <trkpt lat="40.261883" lon="-4.771200">
        <ele>860.0</ele>
        <time>2014-08-31T13:15:05Z</time>
      </trkpt>
      <trkpt lat="40.261833" lon="-4.771367">
        <ele>855.0</ele>
        <time>2014-08-31T13:15:07Z</time>
      </trkpt>
      <trkpt lat="40.261783" lon="-4.771550">
        <ele>851.0</ele>
        <time>2014-08-31T13:15:09Z</time>
      </trkpt>
      <trkpt lat="40.261750" lon="-4.771717">
        <ele>848.0</ele>
        <time>2014-08-31T13:15:11Z</time>
      </trkpt>
      <trkpt lat="40.261767" lon="-4.771867">
        <ele>843.0</ele>
        <time>2014-08-31T13:15:13Z</time>
      </trkpt>
      <trkpt lat="40.261883" lon="-4.772000">
        <ele>835.0</ele>
        <time>2014-08-31T13:15:15Z</time>
      </trkpt>
      <trkpt lat="40.262050" lon="-4.772050">
        <ele>830.0</ele>
        <time>2014-08-31T13:15:17Z</time>
      </trkpt>
      <trkpt lat="40.262217" lon="-4.772000">
        <ele>826.0</ele>
        <time>2014-08-31T13:15:19Z</time>
      </trkpt>
      <trkpt lat="40.262367" lon="-4.771883">
        <ele>821.0</ele>
        <time>2014-08-31T13:15:21Z</time>
      </trkpt>
      <trkpt lat="40.262517" lon="-4.771717">
        <ele>816.0</ele>
        <time>2014-08-31T13:15:23Z</time>
      </trkpt>
      <trkpt lat="40.262667" lon="-4.771517">
        <ele>810.0</ele>
        <time>2014-08-31T13:15:25Z</time>
      </trkpt>
      <trkpt lat="40.262800" lon="-4.771317">
        <ele>806.0</ele>
        <time>2014-08-31T13:15:27Z</time>
      </trkpt>
      <trkpt lat="40.262967" lon="-4.771167">
        <ele>801.0</ele>
        <time>2014-08-31T13:15:29Z</time>
      </trkpt>
      <trkpt lat="40.263133" lon="-4.770983">
        <ele>794.0</ele>
        <time>2014-08-31T13:15:31Z</time>
      </trkpt>
      <trkpt lat="40.263267" lon="-4.770750">
        <ele>789.0</ele>
        <time>2014-08-31T13:15:33Z</time>
      </trkpt>
      <trkpt lat="40.263400" lon="-4.770517">
        <ele>786.0</ele>
        <time>2014-08-31T13:15:35Z</time>
      </trkpt>
      <trkpt lat="40.263500" lon="-4.770300">
        <ele>783.0</ele>
        <time>2014-08-31T13:15:37Z</time>
      </trkpt>
      <trkpt lat="40.263567" lon="-4.770050">
        <ele>780.0</ele>
        <time>2014-08-31T13:15:39Z</time>
      </trkpt>
      <trkpt lat="40.263517" lon="-4.769800">
        <ele>776.0</ele>
        <time>2014-08-31T13:15:41Z</time>
      </trkpt>
      <trkpt lat="40.263333" lon="-4.769650">
        <ele>772.0</ele>
        <time>2014-08-31T13:15:43Z</time>
      </trkpt>
      <trkpt lat="40.263150" lon="-4.769683">
        <ele>770.0</ele>
        <time>2014-08-31T13:15:45Z</time>
      </trkpt>
      <trkpt lat="40.263050" lon="-4.769767">
        <ele>768.0</ele>
        <time>2014-08-31T13:15:47Z</time>
      </trkpt>
      <trkpt lat="40.263017" lon="-4.769883">
        <ele>762.0</ele>
        <time>2014-08-31T13:15:49Z</time>
      </trkpt>
      <trkpt lat="40.263067" lon="-4.770050">
        <ele>754.0</ele>
        <time>2014-08-31T13:15:51Z</time>
      </trkpt>
      <trkpt lat="40.263200" lon="-4.770133">
        <ele>747.0</ele>
        <time>2014-08-31T13:15:53Z</time>
      </trkpt>
      <trkpt lat="40.263367" lon="-4.770150">
        <ele>741.0</ele>
        <time>2014-08-31T13:15:55Z</time>
      </trkpt>
      <trkpt lat="40.263550" lon="-4.770133">
        <ele>734.0</ele>
        <time>2014-08-31T13:15:57Z</time>
      </trkpt>
      <trkpt lat="40.263750" lon="-4.770100">
        <ele>731.0</ele>
        <time>2014-08-31T13:15:59Z</time>
      </trkpt>
      <trkpt lat="40.263933" lon="-4.770067">
        <ele>728.0</ele>
        <time>2014-08-31T13:16:01Z</time>
      </trkpt>
      <trkpt lat="40.264100" lon="-4.770000">
        <ele>722.0</ele>
        <time>2014-08-31T13:16:03Z</time>
      </trkpt>
      <trkpt lat="40.264317" lon="-4.769950">
        <ele>714.0</ele>
        <time>2014-08-31T13:16:05Z</time>
      </trkpt>
      <trkpt lat="40.264517" lon="-4.769917">
        <ele>713.0</ele>
        <time>2014-08-31T13:16:07Z</time>
      </trkpt>
      <trkpt lat="40.264617" lon="-4.769983">
        <ele>714.0</ele>
        <time>2014-08-31T13:16:09Z</time>
      </trkpt>
      <trkpt lat="40.264567" lon="-4.770117">
        <ele>710.0</ele>
        <time>2014-08-31T13:16:11Z</time>
      </trkpt>
      <trkpt lat="40.264400" lon="-4.770217">
        <ele>713.0</ele>
        <time>2014-08-31T13:16:13Z</time>
      </trkpt>
      <trkpt lat="40.264267" lon="-4.770217">
        <ele>716.0</ele>
        <time>2014-08-31T13:16:15Z</time>
      </trkpt>
      <trkpt lat="40.264133" lon="-4.770233">
        <ele>715.0</ele>
        <time>2014-08-31T13:16:17Z</time>
      </trkpt>
      <trkpt lat="40.264000" lon="-4.770300">
        <ele>711.0</ele>
        <time>2014-08-31T13:16:19Z</time>
      </trkpt>
      <trkpt lat="40.263867" lon="-4.770333">
        <ele>704.0</ele>
        <time>2014-08-31T13:16:21Z</time>
      </trkpt>
      <trkpt lat="40.263717" lon="-4.770350">
        <ele>696.0</ele>
        <time>2014-08-31T13:16:23Z</time>
      </trkpt>
      <trkpt lat="40.263533" lon="-4.770350">
        <ele>689.0</ele>
        <time>2014-08-31T13:16:25Z</time>
      </trkpt>
      <trkpt lat="40.263367" lon="-4.770317">
        <ele>683.0</ele>
        <time>2014-08-31T13:16:27Z</time>
      </trkpt>
      <trkpt lat="40.263200" lon="-4.770267">
        <ele>683.0</ele>
        <time>2014-08-31T13:16:29Z</time>
      </trkpt>
      <trkpt lat="40.263100" lon="-4.770367">
        <ele>689.0</ele>
        <time>2014-08-31T13:16:31Z</time>
      </trkpt>
      <trkpt lat="40.263117" lon="-4.770550">
        <ele>692.0</ele>
        <time>2014-08-31T13:16:33Z</time>
      </trkpt>
      <trkpt lat="40.263117" lon="-4.770717">
        <ele>692.0</ele>
        <time>2014-08-31T13:16:35Z</time>
      </trkpt>
      <trkpt lat="40.263150" lon="-4.770883">
        <ele>687.0</ele>
        <time>2014-08-31T13:16:37Z</time>
      </trkpt>
      <trkpt lat="40.263233" lon="-4.771033">
        <ele>679.0</ele>
        <time>2014-08-31T13:16:39Z</time>
      </trkpt>
      <trkpt lat="40.263383" lon="-4.771183">
        <ele>671.0</ele>
        <time>2014-08-31T13:16:41Z</time>
      </trkpt>
      <trkpt lat="40.263500" lon="-4.771250">
        <ele>665.0</ele>
        <time>2014-08-31T13:16:43Z</time>
      </trkpt>
      <trkpt lat="40.263650" lon="-4.771300">
        <ele>656.0</ele>
        <time>2014-08-31T13:16:45Z</time>
      </trkpt>
      <trkpt lat="40.263833" lon="-4.771317">
        <ele>647.0</ele>
        <time>2014-08-31T13:16:47Z</time>
      </trkpt>
      <trkpt lat="40.264000" lon="-4.771250">
        <ele>640.0</ele>
        <time>2014-08-31T13:16:49Z</time>
      </trkpt>
      <trkpt lat="40.264200" lon="-4.771200">
        <ele>632.0</ele>
        <time>2014-08-31T13:16:51Z</time>
      </trkpt>
      <trkpt lat="40.264400" lon="-4.771133">
        <ele>635.0</ele>
        <time>2014-08-31T13:16:53Z</time>
      </trkpt>
      <trkpt lat="40.264517" lon="-4.771100">
        <ele>638.0</ele>
        <time>2014-08-31T13:16:55Z</time>
      </trkpt>
      <trkpt lat="40.264567" lon="-4.771067">
        <ele>636.0</ele>
        <time>2014-08-31T13:16:57Z</time>
      </trkpt>
      <trkpt lat="40.264650" lon="-4.771183">
        <ele>634.0</ele>
        <time>2014-08-31T13:16:59Z</time>
      </trkpt>
      <trkpt lat="40.264633" lon="-4.771367">
        <ele>637.0</ele>
        <time>2014-08-31T13:17:01Z</time>
      </trkpt>
      <trkpt lat="40.264500" lon="-4.771400">
        <ele>637.0</ele>
        <time>2014-08-31T13:17:03Z</time>
      </trkpt>
      <trkpt lat="40.264367" lon="-4.771350">
        <ele>632.0</ele>
        <time>2014-08-31T13:17:05Z</time>
      </trkpt>
      <trkpt lat="40.264183" lon="-4.771250">
        <ele>624.0</ele>
        <time>2014-08-31T13:17:07Z</time>
      </trkpt>
      <trkpt lat="40.264000" lon="-4.771050">
        <ele>617.0</ele>
        <time>2014-08-31T13:17:09Z</time>
      </trkpt>
      <trkpt lat="40.263850" lon="-4.770850">
        <ele>616.0</ele>
        <time>2014-08-31T13:17:11Z</time>
      </trkpt>
      <trkpt lat="40.263700" lon="-4.770733">
        <ele>611.0</ele>
        <time>2014-08-31T13:17:13Z</time>
      </trkpt>
      <trkpt lat="40.263550" lon="-4.770583">
        <ele>603.0</ele>
        <time>2014-08-31T13:17:15Z</time>
      </trkpt>
      <trkpt lat="40.263383" lon="-4.770533">
        <ele>597.0</ele>
        <time>2014-08-31T13:17:17Z</time>
      </trkpt>
      <trkpt lat="40.263250" lon="-4.770617">
        <ele>589.0</ele>
        <time>2014-08-31T13:17:19Z</time>
      </trkpt>
      <trkpt lat="40.263183" lon="-4.770750">
        <ele>582.0</ele>
        <time>2014-08-31T13:17:21Z</time>
      </trkpt>
      <trkpt lat="40.263183" lon="-4.770900">
        <ele>575.0</ele>
        <time>2014-08-31T13:17:23Z</time>
      </trkpt>
      <trkpt lat="40.263250" lon="-4.771050">
        <ele>566.0</ele>
        <time>2014-08-31T13:17:25Z</time>
      </trkpt>
      <trkpt lat="40.263400" lon="-4.771167">
        <ele>557.0</ele>
        <time>2014-08-31T13:17:27Z</time>
      </trkpt>
      <trkpt lat="40.263550" lon="-4.771250">
        <ele>552.0</ele>
        <time>2014-08-31T13:17:29Z</time>
      </trkpt>
      <trkpt lat="40.263667" lon="-4.771317">
        <ele>543.0</ele>
        <time>2014-08-31T13:17:31Z</time>
      </trkpt>
      <trkpt lat="40.263800" lon="-4.771367">
        <ele>533.0</ele>
        <time>2014-08-31T13:17:33Z</time>
      </trkpt>
      <trkpt lat="40.263967" lon="-4.771467">
        <ele>528.0</ele>
        <time>2014-08-31T13:17:35Z</time>
      </trkpt>
      <trkpt lat="40.264117" lon="-4.771483">
        <ele>526.0</ele>
        <time>2014-08-31T13:17:37Z</time>
      </trkpt>
      <trkpt lat="40.264250" lon="-4.771517">
        <ele>522.0</ele>
        <time>2014-08-31T13:17:39Z</time>
      </trkpt>
      <trkpt lat="40.264433" lon="-4.771583">
        <ele>520.0</ele>
        <time>2014-08-31T13:17:41Z</time>
      </trkpt>
      <trkpt lat="40.264567" lon="-4.771650">
        <ele>526.0</ele>
        <time>2014-08-31T13:17:43Z</time>
      </trkpt>
      <trkpt lat="40.264583" lon="-4.771783">
        <ele>527.0</ele>
        <time>2014-08-31T13:17:45Z</time>
      </trkpt>
      <trkpt lat="40.264450" lon="-4.771900">
        <ele>525.0</ele>
        <time>2014-08-31T13:17:47Z</time>
      </trkpt>
      <trkpt lat="40.264217" lon="-4.771817">
        <ele>524.0</ele>
        <time>2014-08-31T13:17:49Z</time>
      </trkpt>
      <trkpt lat="40.264083" lon="-4.771600">
        <ele>524.0</ele>
        <time>2014-08-31T13:17:51Z</time>
      </trkpt>
      <trkpt lat="40.263950" lon="-4.771433">
        <ele>523.0</ele>
        <time>2014-08-31T13:17:53Z</time>
      </trkpt>
      <trkpt lat="40.263783" lon="-4.771383">
        <ele>515.0</ele>
        <time>2014-08-31T13:17:55Z</time>
      </trkpt>
      <trkpt lat="40.263650" lon="-4.771550">
        <ele>508.0</ele>
        <time>2014-08-31T13:17:57Z</time>
      </trkpt>
      <trkpt lat="40.263650" lon="-4.771750">
        <ele>504.0</ele>
        <time>2014-08-31T13:17:59Z</time>
      </trkpt>
      <trkpt lat="40.263783" lon="-4.771867">
        <ele>497.0</ele>
        <time>2014-08-31T13:18:01Z</time>
      </trkpt>
      <trkpt lat="40.263950" lon="-4.771933">
        <ele>493.0</ele>
        <time>2014-08-31T13:18:03Z</time>
      </trkpt>
      <trkpt lat="40.264083" lon="-4.772067">
        <ele>490.0</ele>
        <time>2014-08-31T13:18:05Z</time>
      </trkpt>
      <trkpt lat="40.264233" lon="-4.772233">
        <ele>493.0</ele>
        <time>2014-08-31T13:18:07Z</time>
      </trkpt>
      <trkpt lat="40.264350" lon="-4.772333">
        <ele>499.0</ele>
        <time>2014-08-31T13:18:09Z</time>
      </trkpt>
      <trkpt lat="40.264350" lon="-4.772467">
        <ele>498.0</ele>
        <time>2014-08-31T13:18:11Z</time>
      </trkpt>
      <trkpt lat="40.264300" lon="-4.772700">
        <ele>494.0</ele>
        <time>2014-08-31T13:18:13Z</time>
      </trkpt>
      <trkpt lat="40.264217" lon="-4.772917">
        <ele>497.0</ele>
        <time>2014-08-31T13:18:15Z</time>
      </trkpt>
      <trkpt lat="40.264083" lon="-4.773033">
        <ele>499.0</ele>
        <time>2014-08-31T13:18:17Z</time>
      </trkpt>
      <trkpt lat="40.263933" lon="-4.773133">
        <ele>498.0</ele>
        <time>2014-08-31T13:18:19Z</time>
      </trkpt>
      <trkpt lat="40.263833" lon="-4.773350">
        <ele>496.0</ele>
        <time>2014-08-31T13:18:21Z</time>
      </trkpt>
      <trkpt lat="40.263883" lon="-4.773600">
        <ele>496.0</ele>
        <time>2014-08-31T13:18:23Z</time>
      </trkpt>
      <trkpt lat="40.263983" lon="-4.773750">
        <ele>502.0</ele>
        <time>2014-08-31T13:18:25Z</time>
      </trkpt>
      <trkpt lat="40.264033" lon="-4.773900">
        <ele>504.0</ele>
        <time>2014-08-31T13:18:27Z</time>
      </trkpt>
      <trkpt lat="40.264100" lon="-4.774067">
        <ele>498.0</ele>
        <time>2014-08-31T13:18:29Z</time>
      </trkpt>
      <trkpt lat="40.264267" lon="-4.774217">
        <ele>491.0</ele>
        <time>2014-08-31T13:18:31Z</time>
      </trkpt>
      <trkpt lat="40.264400" lon="-4.774300">
        <ele>488.0</ele>
        <time>2014-08-31T13:18:33Z</time>
      </trkpt>
      <trkpt lat="40.264450" lon="-4.774450">
        <ele>482.0</ele>
        <time>2014-08-31T13:18:35Z</time>
      </trkpt>
      <trkpt lat="40.264417" lon="-4.774683">
        <ele>473.0</ele>
        <time>2014-08-31T13:18:37Z</time>
      </trkpt>
      <trkpt lat="40.264250" lon="-4.774833">
        <ele>466.0</ele>
        <time>2014-08-31T13:18:39Z</time>
      </trkpt>
      <trkpt lat="40.264000" lon="-4.774850">
        <ele>461.0</ele>
        <time>2014-08-31T13:18:41Z</time>
      </trkpt>
      <trkpt lat="40.263783" lon="-4.774933">
        <ele>464.0</ele>
        <time>2014-08-31T13:18:43Z</time>
      </trkpt>
      <trkpt lat="40.263700" lon="-4.775150">
        <ele>466.0</ele>
        <time>2014-08-31T13:18:45Z</time>
      </trkpt>
      <trkpt lat="40.263750" lon="-4.775367">
        <ele>469.0</ele>
        <time>2014-08-31T13:18:47Z</time>
      </trkpt>
      <trkpt lat="40.263833" lon="-4.775467">
        <ele>470.0</ele>
        <time>2014-08-31T13:18:49Z</time>
      </trkpt>
      <trkpt lat="40.263950" lon="-4.775433">
        <ele>468.0</ele>
        <time>2014-08-31T13:18:51Z</time>
      </trkpt>
      <trkpt lat="40.264083" lon="-4.775333">
        <ele>467.0</ele>
        <time>2014-08-31T13:18:53Z</time>
      </trkpt>
      <trkpt lat="40.264183" lon="-4.775317">
        <ele>465.0</ele>
        <time>2014-08-31T13:18:55Z</time>
      </trkpt>
      <trkpt lat="40.264250" lon="-4.775433">
        <ele>458.0</ele>
        <time>2014-08-31T13:18:57Z</time>
      </trkpt>
      <trkpt lat="40.264233" lon="-4.775683">
        <ele>451.0</ele>
        <time>2014-08-31T13:18:59Z</time>
      </trkpt>
      <trkpt lat="40.264050" lon="-4.775883">
        <ele>443.0</ele>
        <time>2014-08-31T13:19:01Z</time>
      </trkpt>
      <trkpt lat="40.263850" lon="-4.775933">
        <ele>443.0</ele>
        <time>2014-08-31T13:19:03Z</time>
      </trkpt>
      <trkpt lat="40.263717" lon="-4.776017">
        <ele>441.0</ele>
        <time>2014-08-31T13:19:05Z</time>
      </trkpt>
      <trkpt lat="40.263550" lon="-4.776133">
        <ele>438.0</ele>
        <time>2014-08-31T13:19:07Z</time>
      </trkpt>
      <trkpt lat="40.263450" lon="-4.776183">
        <ele>438.0</ele>
        <time>2014-08-31T13:19:09Z</time>
      </trkpt>
      <trkpt lat="40.263383" lon="-4.776250">
        <ele>436.0</ele>
        <time>2014-08-31T13:19:11Z</time>
      </trkpt>
      <trkpt lat="40.263367" lon="-4.776283">
        <ele>434.0</ele>
        <time>2014-08-31T13:19:13Z</time>
      </trkpt>
      <trkpt lat="40.263367" lon="-4.776633">
        <ele>454.0</ele>
        <time>2014-08-31T13:19:15Z</time>
      </trkpt>
      <trkpt lat="40.263733" lon="-4.776800">
        <ele>481.0</ele>
        <time>2014-08-31T13:19:17Z</time>
      </trkpt>
      <trkpt lat="40.263483" lon="-4.776617">
        <ele>492.0</ele>
        <time>2014-08-31T13:19:19Z</time>
      </trkpt>
      <trkpt lat="40.263483" lon="-4.776483">
        <ele>484.0</ele>
        <time>2014-08-31T13:19:21Z</time>
      </trkpt>
      <trkpt lat="40.263483" lon="-4.776417">
        <ele>476.0</ele>
        <time>2014-08-31T13:19:23Z</time>
      </trkpt>
      <trkpt lat="40.263483" lon="-4.776383">
        <ele>475.0</ele>
        <time>2014-08-31T13:19:25Z</time>
      </trkpt>
      <trkpt lat="40.263467" lon="-4.776367">
        <ele>469.0</ele>
        <time>2014-08-31T13:19:27Z</time>
      </trkpt>
      <trkpt lat="40.263450" lon="-4.776333">
        <ele>462.0</ele>
        <time>2014-08-31T13:19:29Z</time>
      </trkpt>
      <trkpt lat="40.263450" lon="-4.776333">
        <ele>459.0</ele>
        <time>2014-08-31T13:19:31Z</time>
      </trkpt>
      <trkpt lat="40.263433" lon="-4.776333">
        <ele>458.0</ele>
        <time>2014-08-31T13:19:33Z</time>
      </trkpt>
      <trkpt lat="40.263433" lon="-4.776333">
        <ele>456.0</ele>
        <time>2014-08-31T13:19:35Z</time>
      </trkpt>
      <trkpt lat="40.263417" lon="-4.776317">
        <ele>453.0</ele>
        <time>2014-08-31T13:19:37Z</time>
      </trkpt>
      <trkpt lat="40.263417" lon="-4.776300">
        <ele>451.0</ele>
        <time>2014-08-31T13:19:39Z</time>
      </trkpt>
      <trkpt lat="40.263367" lon="-4.776317">
        <ele>450.0</ele>
        <time>2014-08-31T13:19:51Z</time>
      </trkpt>
      <trkpt lat="40.263383" lon="-4.776317">
        <ele>448.0</ele>
        <time>2014-08-31T13:19:53Z</time>
      </trkpt>
      <trkpt lat="40.263350" lon="-4.776317">
        <ele>445.0</ele>
        <time>2014-08-31T13:19:55Z</time>
      </trkpt>
      <trkpt lat="40.263367" lon="-4.776300">
        <ele>442.0</ele>
        <time>2014-08-31T13:19:57Z</time>
      </trkpt>
      <trkpt lat="40.263367" lon="-4.776300">
        <ele>439.0</ele>
        <time>2014-08-31T13:19:59Z</time>
      </trkpt>
      <trkpt lat="40.263383" lon="-4.776283">
        <ele>438.0</ele>
        <time>2014-08-31T13:20:01Z</time>
      </trkpt>
      <trkpt lat="40.263383" lon="-4.776283">
        <ele>437.0</ele>
        <time>2014-08-31T13:20:03Z</time>
      </trkpt>
      <trkpt lat="40.263383" lon="-4.776283">
        <ele>437.0</ele>
        <time>2014-08-31T13:20:05Z</time>
      </trkpt>
      <trkpt lat="40.263383" lon="-4.776283">
        <ele>437.0</ele>
        <time>2014-08-31T13:20:07Z</time>
      </trkpt>
      <trkpt lat="40.263383" lon="-4.776267">
        <ele>437.0</ele>
        <time>2014-08-31T13:20:09Z</time>
      </trkpt>
      <trkpt lat="40.263383" lon="-4.776267">
        <ele>439.0</ele>
        <time>2014-08-31T13:20:11Z</time>
      </trkpt>
      <trkpt lat="40.263383" lon="-4.776283">
        <ele>439.0</ele>
        <time>2014-08-31T13:20:13Z</time>
      </trkpt>
      <trkpt lat="40.263383" lon="-4.776283">
        <ele>439.0</ele>
        <time>2014-08-31T13:20:15Z</time>
      </trkpt>
      <trkpt lat="40.263383" lon="-4.776283">
        <ele>438.0</ele>
        <time>2014-08-31T13:20:17Z</time>
      </trkpt>
      <trkpt lat="40.263367" lon="-4.776250">
        <ele>438.0</ele>
        <time>2014-08-31T13:20:19Z</time>
      </trkpt>
    </trkseg>
  </trk>
</gpx>
